<?xml version="1.0" encoding="UTF-8" standalone="no" ?>
<gpx xmlns="http://www.topografix.com/GPX/1/1" xmlns:xsi="http://www.w3.org/2001/XMLSchema-instance" xsi:schemaLocation="http://www.topografix.com/GPX/1/1 http://www.topografix.com/GPX/1/1/gpx.xsd" version="1.1" creator="VisuGPX - https://www.visugpx.com">
  <metadata>
    <name>2010.04.15 Ventoux</name>
    <desc><![CDATA[Skiing]]></desc>
  </metadata>
  <trk>
    <name><![CDATA[15/04/2010 19:12]]></name>
    <trkseg>
      <trkpt lat="44.18414" lon="5.26951">
        <ele>1447.5</ele>
        <time>2010-04-15T19:12:46.36</time>
      </trkpt>
      <trkpt lat="44.18414" lon="5.26952">
        <ele>1446</ele>
        <time>2010-04-15T19:12:48.32</time>
      </trkpt>
      <trkpt lat="44.18414" lon="5.26951">
        <ele>1445.5</ele>
        <time>2010-04-15T19:12:49.32</time>
      </trkpt>
      <trkpt lat="44.18414" lon="5.26951">
        <ele>1445</ele>
        <time>2010-04-15T19:12:50.32</time>
      </trkpt>
      <trkpt lat="44.18414" lon="5.26951">
        <ele>1445</ele>
        <time>2010-04-15T19:12:51.32</time>
      </trkpt>
      <trkpt lat="44.18414" lon="5.26951">
        <ele>1445</ele>
        <time>2010-04-15T19:12:52.32</time>
      </trkpt>
      <trkpt lat="44.18413" lon="5.26951">
        <ele>1445</ele>
        <time>2010-04-15T19:12:53.32</time>
      </trkpt>
      <trkpt lat="44.18413" lon="5.2695">
        <ele>1445.5</ele>
        <time>2010-04-15T19:12:54.32</time>
      </trkpt>
      <trkpt lat="44.18413" lon="5.2695">
        <ele>1445.5</ele>
        <time>2010-04-15T19:12:55.32</time>
      </trkpt>
      <trkpt lat="44.18413" lon="5.2695">
        <ele>1445.5</ele>
        <time>2010-04-15T19:12:56.32</time>
      </trkpt>
      <trkpt lat="44.18413" lon="5.2695">
        <ele>1445.5</ele>
        <time>2010-04-15T19:12:57.32</time>
      </trkpt>
      <trkpt lat="44.18413" lon="5.2695">
        <ele>1445.5</ele>
        <time>2010-04-15T19:12:58.32</time>
      </trkpt>
      <trkpt lat="44.18413" lon="5.2695">
        <ele>1445.5</ele>
        <time>2010-04-15T19:12:59.32</time>
      </trkpt>
      <trkpt lat="44.18413" lon="5.2695">
        <ele>1445.5</ele>
        <time>2010-04-15T19:13:00.32</time>
      </trkpt>
      <trkpt lat="44.18413" lon="5.2695">
        <ele>1445.5</ele>
        <time>2010-04-15T19:13:01.32</time>
      </trkpt>
      <trkpt lat="44.18413" lon="5.2695">
        <ele>1445.5</ele>
        <time>2010-04-15T19:13:02.31</time>
      </trkpt>
      <trkpt lat="44.18413" lon="5.2695">
        <ele>1445.5</ele>
        <time>2010-04-15T19:13:03.31</time>
      </trkpt>
      <trkpt lat="44.18413" lon="5.2695">
        <ele>1445.5</ele>
        <time>2010-04-15T19:13:04.31</time>
      </trkpt>
      <trkpt lat="44.18413" lon="5.2695">
        <ele>1446.5</ele>
        <time>2010-04-15T19:13:05.31</time>
      </trkpt>
      <trkpt lat="44.18414" lon="5.26951">
        <ele>1447.5</ele>
        <time>2010-04-15T19:13:06.31</time>
      </trkpt>
      <trkpt lat="44.18414" lon="5.2695">
        <ele>1447.5</ele>
        <time>2010-04-15T19:13:07.31</time>
      </trkpt>
      <trkpt lat="44.18414" lon="5.2695">
        <ele>1448</ele>
        <time>2010-04-15T19:13:08.31</time>
      </trkpt>
      <trkpt lat="44.18414" lon="5.2695">
        <ele>1448.5</ele>
        <time>2010-04-15T19:13:10.30</time>
      </trkpt>
      <trkpt lat="44.18414" lon="5.2695">
        <ele>1448.5</ele>
        <time>2010-04-15T19:13:11.30</time>
      </trkpt>
      <trkpt lat="44.18414" lon="5.2695">
        <ele>1448.5</ele>
        <time>2010-04-15T19:13:12.30</time>
      </trkpt>
      <trkpt lat="44.18414" lon="5.2695">
        <ele>1449</ele>
        <time>2010-04-15T19:13:13.30</time>
      </trkpt>
      <trkpt lat="44.18414" lon="5.2695">
        <ele>1449</ele>
        <time>2010-04-15T19:13:14.30</time>
      </trkpt>
      <trkpt lat="44.18414" lon="5.2695">
        <ele>1449</ele>
        <time>2010-04-15T19:13:15.31</time>
      </trkpt>
      <trkpt lat="44.18414" lon="5.2695">
        <ele>1449</ele>
        <time>2010-04-15T19:13:16.30</time>
      </trkpt>
      <trkpt lat="44.18415" lon="5.2695">
        <ele>1449</ele>
        <time>2010-04-15T19:13:17.31</time>
      </trkpt>
      <trkpt lat="44.18415" lon="5.2695">
        <ele>1449</ele>
        <time>2010-04-15T19:13:18.31</time>
      </trkpt>
      <trkpt lat="44.18416" lon="5.2695">
        <ele>1449.5</ele>
        <time>2010-04-15T19:13:19.30</time>
      </trkpt>
      <trkpt lat="44.18416" lon="5.2695">
        <ele>1449.5</ele>
        <time>2010-04-15T19:13:20.30</time>
      </trkpt>
      <trkpt lat="44.18416" lon="5.2695">
        <ele>1450</ele>
        <time>2010-04-15T19:13:21.30</time>
      </trkpt>
      <trkpt lat="44.18416" lon="5.2695">
        <ele>1450</ele>
        <time>2010-04-15T19:13:22.30</time>
      </trkpt>
      <trkpt lat="44.18416" lon="5.26951">
        <ele>1450</ele>
        <time>2010-04-15T19:13:23.30</time>
      </trkpt>
      <trkpt lat="44.18417" lon="5.26951">
        <ele>1449.5</ele>
        <time>2010-04-15T19:13:24.29</time>
      </trkpt>
      <trkpt lat="44.18417" lon="5.26951">
        <ele>1449.5</ele>
        <time>2010-04-15T19:13:25.29</time>
      </trkpt>
      <trkpt lat="44.18417" lon="5.26951">
        <ele>1449.5</ele>
        <time>2010-04-15T19:13:26.29</time>
      </trkpt>
      <trkpt lat="44.18417" lon="5.26951">
        <ele>1449.5</ele>
        <time>2010-04-15T19:13:27.29</time>
      </trkpt>
      <trkpt lat="44.18417" lon="5.26951">
        <ele>1449.5</ele>
        <time>2010-04-15T19:13:28.30</time>
      </trkpt>
      <trkpt lat="44.18416" lon="5.26951">
        <ele>1449.5</ele>
        <time>2010-04-15T19:13:29.29</time>
      </trkpt>
      <trkpt lat="44.18415" lon="5.26951">
        <ele>1450</ele>
        <time>2010-04-15T19:13:30.29</time>
      </trkpt>
      <trkpt lat="44.18414" lon="5.26951">
        <ele>1450</ele>
        <time>2010-04-15T19:13:31.29</time>
      </trkpt>
      <trkpt lat="44.18413" lon="5.2695">
        <ele>1450</ele>
        <time>2010-04-15T19:13:32.29</time>
      </trkpt>
      <trkpt lat="44.18411" lon="5.26949">
        <ele>1450</ele>
        <time>2010-04-15T19:13:33.29</time>
      </trkpt>
      <trkpt lat="44.1841" lon="5.26948">
        <ele>1450</ele>
        <time>2010-04-15T19:13:34.29</time>
      </trkpt>
      <trkpt lat="44.18409" lon="5.26947">
        <ele>1450.5</ele>
        <time>2010-04-15T19:13:35.29</time>
      </trkpt>
      <trkpt lat="44.18407" lon="5.26947">
        <ele>1450.5</ele>
        <time>2010-04-15T19:13:36.28</time>
      </trkpt>
      <trkpt lat="44.18406" lon="5.26946">
        <ele>1451</ele>
        <time>2010-04-15T19:13:37.28</time>
      </trkpt>
      <trkpt lat="44.18405" lon="5.26946">
        <ele>1451</ele>
        <time>2010-04-15T19:13:38.28</time>
      </trkpt>
      <trkpt lat="44.18404" lon="5.26946">
        <ele>1451</ele>
        <time>2010-04-15T19:13:39.28</time>
      </trkpt>
      <trkpt lat="44.18403" lon="5.26946">
        <ele>1451</ele>
        <time>2010-04-15T19:13:40.28</time>
      </trkpt>
      <trkpt lat="44.18402" lon="5.26946">
        <ele>1451</ele>
        <time>2010-04-15T19:13:41.28</time>
      </trkpt>
      <trkpt lat="44.18402" lon="5.26946">
        <ele>1451</ele>
        <time>2010-04-15T19:13:42.28</time>
      </trkpt>
      <trkpt lat="44.18401" lon="5.26945">
        <ele>1451</ele>
        <time>2010-04-15T19:13:43.28</time>
      </trkpt>
      <trkpt lat="44.184" lon="5.26945">
        <ele>1451</ele>
        <time>2010-04-15T19:13:44.29</time>
      </trkpt>
      <trkpt lat="44.18399" lon="5.26944">
        <ele>1451.5</ele>
        <time>2010-04-15T19:13:45.28</time>
      </trkpt>
      <trkpt lat="44.18399" lon="5.26943">
        <ele>1451.5</ele>
        <time>2010-04-15T19:13:46.28</time>
      </trkpt>
      <trkpt lat="44.18398" lon="5.26943">
        <ele>1451</ele>
        <time>2010-04-15T19:13:47.28</time>
      </trkpt>
      <trkpt lat="44.18398" lon="5.26943">
        <ele>1451</ele>
        <time>2010-04-15T19:13:48.28</time>
      </trkpt>
      <trkpt lat="44.18398" lon="5.26943">
        <ele>1451</ele>
        <time>2010-04-15T19:13:49.28</time>
      </trkpt>
      <trkpt lat="44.18398" lon="5.26943">
        <ele>1451</ele>
        <time>2010-04-15T19:13:50.28</time>
      </trkpt>
      <trkpt lat="44.18398" lon="5.26943">
        <ele>1451</ele>
        <time>2010-04-15T19:13:51.28</time>
      </trkpt>
      <trkpt lat="44.18398" lon="5.26943">
        <ele>1451</ele>
        <time>2010-04-15T19:13:52.28</time>
      </trkpt>
      <trkpt lat="44.18398" lon="5.26943">
        <ele>1451</ele>
        <time>2010-04-15T19:13:53.27</time>
      </trkpt>
      <trkpt lat="44.18397" lon="5.26943">
        <ele>1451</ele>
        <time>2010-04-15T19:13:54.27</time>
      </trkpt>
      <trkpt lat="44.18397" lon="5.26943">
        <ele>1451</ele>
        <time>2010-04-15T19:13:55.27</time>
      </trkpt>
      <trkpt lat="44.18397" lon="5.26943">
        <ele>1451</ele>
        <time>2010-04-15T19:13:56.27</time>
      </trkpt>
      <trkpt lat="44.18397" lon="5.26943">
        <ele>1451</ele>
        <time>2010-04-15T19:13:57.27</time>
      </trkpt>
      <trkpt lat="44.18397" lon="5.26943">
        <ele>1451</ele>
        <time>2010-04-15T19:13:58.27</time>
      </trkpt>
      <trkpt lat="44.18396" lon="5.26943">
        <ele>1450</ele>
        <time>2010-04-15T19:13:59.27</time>
      </trkpt>
      <trkpt lat="44.18396" lon="5.26943">
        <ele>1450</ele>
        <time>2010-04-15T19:14:00.27</time>
      </trkpt>
      <trkpt lat="44.18396" lon="5.26943">
        <ele>1450</ele>
        <time>2010-04-15T19:14:01.26</time>
      </trkpt>
      <trkpt lat="44.18396" lon="5.26943">
        <ele>1450</ele>
        <time>2010-04-15T19:14:02.26</time>
      </trkpt>
      <trkpt lat="44.18396" lon="5.26943">
        <ele>1450</ele>
        <time>2010-04-15T19:14:03.26</time>
      </trkpt>
      <trkpt lat="44.18396" lon="5.26943">
        <ele>1450</ele>
        <time>2010-04-15T19:14:04.26</time>
      </trkpt>
      <trkpt lat="44.18396" lon="5.26943">
        <ele>1450</ele>
        <time>2010-04-15T19:14:05.26</time>
      </trkpt>
      <trkpt lat="44.18396" lon="5.26943">
        <ele>1450</ele>
        <time>2010-04-15T19:14:06.27</time>
      </trkpt>
      <trkpt lat="44.18396" lon="5.26943">
        <ele>1450</ele>
        <time>2010-04-15T19:14:07.27</time>
      </trkpt>
      <trkpt lat="44.18396" lon="5.26943">
        <ele>1450</ele>
        <time>2010-04-15T19:14:08.27</time>
      </trkpt>
      <trkpt lat="44.18396" lon="5.26943">
        <ele>1450</ele>
        <time>2010-04-15T19:14:09.27</time>
      </trkpt>
      <trkpt lat="44.18396" lon="5.26943">
        <ele>1450</ele>
        <time>2010-04-15T19:14:10.26</time>
      </trkpt>
      <trkpt lat="44.18396" lon="5.26943">
        <ele>1450</ele>
        <time>2010-04-15T19:14:11.26</time>
      </trkpt>
      <trkpt lat="44.18396" lon="5.26943">
        <ele>1450</ele>
        <time>2010-04-15T19:14:12.27</time>
      </trkpt>
      <trkpt lat="44.18396" lon="5.26943">
        <ele>1450.5</ele>
        <time>2010-04-15T19:14:13.27</time>
      </trkpt>
      <trkpt lat="44.18396" lon="5.26943">
        <ele>1450.5</ele>
        <time>2010-04-15T19:14:14.26</time>
      </trkpt>
      <trkpt lat="44.18396" lon="5.26943">
        <ele>1450.5</ele>
        <time>2010-04-15T19:14:15.26</time>
      </trkpt>
      <trkpt lat="44.18396" lon="5.26943">
        <ele>1450.5</ele>
        <time>2010-04-15T19:14:16.27</time>
      </trkpt>
      <trkpt lat="44.18396" lon="5.26943">
        <ele>1451</ele>
        <time>2010-04-15T19:14:17.27</time>
      </trkpt>
      <trkpt lat="44.18396" lon="5.26943">
        <ele>1451</ele>
        <time>2010-04-15T19:14:18.26</time>
      </trkpt>
      <trkpt lat="44.18396" lon="5.26943">
        <ele>1451</ele>
        <time>2010-04-15T19:14:19.27</time>
      </trkpt>
      <trkpt lat="44.18396" lon="5.26943">
        <ele>1451</ele>
        <time>2010-04-15T19:14:20.26</time>
      </trkpt>
      <trkpt lat="44.18396" lon="5.26943">
        <ele>1451</ele>
        <time>2010-04-15T19:14:21.26</time>
      </trkpt>
      <trkpt lat="44.18396" lon="5.26943">
        <ele>1451</ele>
        <time>2010-04-15T19:14:22.26</time>
      </trkpt>
      <trkpt lat="44.18396" lon="5.26943">
        <ele>1451</ele>
        <time>2010-04-15T19:14:23.26</time>
      </trkpt>
      <trkpt lat="44.18396" lon="5.26943">
        <ele>1451</ele>
        <time>2010-04-15T19:14:24.26</time>
      </trkpt>
      <trkpt lat="44.18396" lon="5.26943">
        <ele>1451</ele>
        <time>2010-04-15T19:14:25.25</time>
      </trkpt>
      <trkpt lat="44.18396" lon="5.26943">
        <ele>1451</ele>
        <time>2010-04-15T19:14:26.25</time>
      </trkpt>
      <trkpt lat="44.18396" lon="5.26943">
        <ele>1451</ele>
        <time>2010-04-15T19:14:27.25</time>
      </trkpt>
      <trkpt lat="44.18397" lon="5.26943">
        <ele>1451.5</ele>
        <time>2010-04-15T19:14:28.25</time>
      </trkpt>
      <trkpt lat="44.18397" lon="5.26943">
        <ele>1451</ele>
        <time>2010-04-15T19:14:29.26</time>
      </trkpt>
      <trkpt lat="44.18396" lon="5.26943">
        <ele>1451</ele>
        <time>2010-04-15T19:14:30.26</time>
      </trkpt>
      <trkpt lat="44.18397" lon="5.26943">
        <ele>1451</ele>
        <time>2010-04-15T19:14:31.26</time>
      </trkpt>
      <trkpt lat="44.18397" lon="5.26943">
        <ele>1451</ele>
        <time>2010-04-15T19:14:32.25</time>
      </trkpt>
      <trkpt lat="44.18397" lon="5.26943">
        <ele>1451</ele>
        <time>2010-04-15T19:14:33.25</time>
      </trkpt>
      <trkpt lat="44.18397" lon="5.26943">
        <ele>1451</ele>
        <time>2010-04-15T19:14:34.25</time>
      </trkpt>
      <trkpt lat="44.18397" lon="5.26943">
        <ele>1451</ele>
        <time>2010-04-15T19:14:35.25</time>
      </trkpt>
      <trkpt lat="44.18397" lon="5.26943">
        <ele>1451</ele>
        <time>2010-04-15T19:14:36.25</time>
      </trkpt>
      <trkpt lat="44.18397" lon="5.26943">
        <ele>1451</ele>
        <time>2010-04-15T19:14:37.25</time>
      </trkpt>
      <trkpt lat="44.18397" lon="5.26943">
        <ele>1451</ele>
        <time>2010-04-15T19:14:38.24</time>
      </trkpt>
      <trkpt lat="44.18397" lon="5.26943">
        <ele>1451</ele>
        <time>2010-04-15T19:14:39.24</time>
      </trkpt>
      <trkpt lat="44.18397" lon="5.26943">
        <ele>1451</ele>
        <time>2010-04-15T19:14:40.24</time>
      </trkpt>
      <trkpt lat="44.18397" lon="5.26943">
        <ele>1451</ele>
        <time>2010-04-15T19:14:41.25</time>
      </trkpt>
      <trkpt lat="44.18397" lon="5.26943">
        <ele>1451</ele>
        <time>2010-04-15T19:14:42.24</time>
      </trkpt>
      <trkpt lat="44.18397" lon="5.26943">
        <ele>1451</ele>
        <time>2010-04-15T19:14:43.25</time>
      </trkpt>
      <trkpt lat="44.18397" lon="5.26943">
        <ele>1451</ele>
        <time>2010-04-15T19:14:44.26</time>
      </trkpt>
      <trkpt lat="44.18397" lon="5.26942">
        <ele>1451</ele>
        <time>2010-04-15T19:14:45.25</time>
      </trkpt>
      <trkpt lat="44.18397" lon="5.26942">
        <ele>1451</ele>
        <time>2010-04-15T19:14:46.24</time>
      </trkpt>
      <trkpt lat="44.18397" lon="5.26943">
        <ele>1451</ele>
        <time>2010-04-15T19:14:47.24</time>
      </trkpt>
      <trkpt lat="44.18397" lon="5.26943">
        <ele>1451</ele>
        <time>2010-04-15T19:14:48.25</time>
      </trkpt>
      <trkpt lat="44.18397" lon="5.26943">
        <ele>1451.5</ele>
        <time>2010-04-15T19:14:49.24</time>
      </trkpt>
      <trkpt lat="44.18397" lon="5.26942">
        <ele>1451.5</ele>
        <time>2010-04-15T19:14:50.24</time>
      </trkpt>
      <trkpt lat="44.18397" lon="5.26942">
        <ele>1451.5</ele>
        <time>2010-04-15T19:14:51.24</time>
      </trkpt>
      <trkpt lat="44.18397" lon="5.26942">
        <ele>1451.5</ele>
        <time>2010-04-15T19:14:52.23</time>
      </trkpt>
      <trkpt lat="44.18397" lon="5.26942">
        <ele>1451.5</ele>
        <time>2010-04-15T19:14:53.23</time>
      </trkpt>
      <trkpt lat="44.18397" lon="5.26942">
        <ele>1451.5</ele>
        <time>2010-04-15T19:14:54.23</time>
      </trkpt>
      <trkpt lat="44.18397" lon="5.26942">
        <ele>1451.5</ele>
        <time>2010-04-15T19:14:55.23</time>
      </trkpt>
      <trkpt lat="44.18397" lon="5.26942">
        <ele>1451.5</ele>
        <time>2010-04-15T19:14:56.23</time>
      </trkpt>
      <trkpt lat="44.18397" lon="5.26942">
        <ele>1451.5</ele>
        <time>2010-04-15T19:14:57.23</time>
      </trkpt>
      <trkpt lat="44.18397" lon="5.26942">
        <ele>1451.5</ele>
        <time>2010-04-15T19:14:58.24</time>
      </trkpt>
      <trkpt lat="44.18397" lon="5.26942">
        <ele>1451.5</ele>
        <time>2010-04-15T19:14:59.23</time>
      </trkpt>
      <trkpt lat="44.18397" lon="5.26942">
        <ele>1451.5</ele>
        <time>2010-04-15T19:15:00.23</time>
      </trkpt>
      <trkpt lat="44.18397" lon="5.26942">
        <ele>1451.5</ele>
        <time>2010-04-15T19:15:01.23</time>
      </trkpt>
      <trkpt lat="44.18397" lon="5.26942">
        <ele>1451.5</ele>
        <time>2010-04-15T19:15:02.23</time>
      </trkpt>
      <trkpt lat="44.18397" lon="5.26942">
        <ele>1451.5</ele>
        <time>2010-04-15T19:15:03.23</time>
      </trkpt>
      <trkpt lat="44.18397" lon="5.26942">
        <ele>1451.5</ele>
        <time>2010-04-15T19:15:04.24</time>
      </trkpt>
      <trkpt lat="44.18397" lon="5.26942">
        <ele>1451.5</ele>
        <time>2010-04-15T19:15:05.24</time>
      </trkpt>
      <trkpt lat="44.18397" lon="5.26942">
        <ele>1451.5</ele>
        <time>2010-04-15T19:15:07.23</time>
      </trkpt>
      <trkpt lat="44.18397" lon="5.26942">
        <ele>1451.5</ele>
        <time>2010-04-15T19:15:08.23</time>
      </trkpt>
      <trkpt lat="44.18397" lon="5.26942">
        <ele>1451.5</ele>
        <time>2010-04-15T19:15:09.23</time>
      </trkpt>
      <trkpt lat="44.18397" lon="5.26942">
        <ele>1451.5</ele>
        <time>2010-04-15T19:15:10.23</time>
      </trkpt>
      <trkpt lat="44.18396" lon="5.26943">
        <ele>1451</ele>
        <time>2010-04-15T19:15:11.22</time>
      </trkpt>
      <trkpt lat="44.18396" lon="5.26943">
        <ele>1451</ele>
        <time>2010-04-15T19:15:12.22</time>
      </trkpt>
      <trkpt lat="44.18396" lon="5.26943">
        <ele>1451</ele>
        <time>2010-04-15T19:15:13.22</time>
      </trkpt>
      <trkpt lat="44.18396" lon="5.26943">
        <ele>1451</ele>
        <time>2010-04-15T19:15:14.22</time>
      </trkpt>
      <trkpt lat="44.18396" lon="5.26943">
        <ele>1451</ele>
        <time>2010-04-15T19:15:15.22</time>
      </trkpt>
      <trkpt lat="44.18397" lon="5.26943">
        <ele>1451</ele>
        <time>2010-04-15T19:15:16.22</time>
      </trkpt>
      <trkpt lat="44.18397" lon="5.26943">
        <ele>1451</ele>
        <time>2010-04-15T19:15:17.22</time>
      </trkpt>
      <trkpt lat="44.18397" lon="5.26943">
        <ele>1450.5</ele>
        <time>2010-04-15T19:15:18.22</time>
      </trkpt>
      <trkpt lat="44.18397" lon="5.26943">
        <ele>1450.5</ele>
        <time>2010-04-15T19:15:19.22</time>
      </trkpt>
      <trkpt lat="44.18397" lon="5.26943">
        <ele>1450.5</ele>
        <time>2010-04-15T19:15:20.23</time>
      </trkpt>
      <trkpt lat="44.18397" lon="5.26943">
        <ele>1451</ele>
        <time>2010-04-15T19:15:21.23</time>
      </trkpt>
      <trkpt lat="44.18397" lon="5.26943">
        <ele>1451.5</ele>
        <time>2010-04-15T19:15:22.22</time>
      </trkpt>
      <trkpt lat="44.18397" lon="5.26943">
        <ele>1451.5</ele>
        <time>2010-04-15T19:15:23.22</time>
      </trkpt>
      <trkpt lat="44.18397" lon="5.26943">
        <ele>1451.5</ele>
        <time>2010-04-15T19:15:24.22</time>
      </trkpt>
      <trkpt lat="44.18397" lon="5.26943">
        <ele>1451.5</ele>
        <time>2010-04-15T19:15:25.22</time>
      </trkpt>
      <trkpt lat="44.18397" lon="5.26943">
        <ele>1451.5</ele>
        <time>2010-04-15T19:15:26.21</time>
      </trkpt>
      <trkpt lat="44.18397" lon="5.26943">
        <ele>1451.5</ele>
        <time>2010-04-15T19:15:27.21</time>
      </trkpt>
      <trkpt lat="44.18397" lon="5.26943">
        <ele>1451.5</ele>
        <time>2010-04-15T19:15:28.22</time>
      </trkpt>
      <trkpt lat="44.18397" lon="5.26943">
        <ele>1451.5</ele>
        <time>2010-04-15T19:15:29.22</time>
      </trkpt>
      <trkpt lat="44.18397" lon="5.26943">
        <ele>1451.5</ele>
        <time>2010-04-15T19:15:30.22</time>
      </trkpt>
      <trkpt lat="44.18397" lon="5.26943">
        <ele>1451.5</ele>
        <time>2010-04-15T19:15:31.22</time>
      </trkpt>
      <trkpt lat="44.18397" lon="5.26943">
        <ele>1451.5</ele>
        <time>2010-04-15T19:15:32.22</time>
      </trkpt>
      <trkpt lat="44.18397" lon="5.26943">
        <ele>1451.5</ele>
        <time>2010-04-15T19:15:33.21</time>
      </trkpt>
      <trkpt lat="44.18397" lon="5.26943">
        <ele>1451</ele>
        <time>2010-04-15T19:15:34.21</time>
      </trkpt>
      <trkpt lat="44.18397" lon="5.26943">
        <ele>1451</ele>
        <time>2010-04-15T19:15:35.21</time>
      </trkpt>
      <trkpt lat="44.18397" lon="5.26944">
        <ele>1451</ele>
        <time>2010-04-15T19:15:36.23</time>
      </trkpt>
      <trkpt lat="44.18396" lon="5.26944">
        <ele>1451</ele>
        <time>2010-04-15T19:15:37.21</time>
      </trkpt>
      <trkpt lat="44.18395" lon="5.26945">
        <ele>1451.5</ele>
        <time>2010-04-15T19:15:38.21</time>
      </trkpt>
      <trkpt lat="44.18394" lon="5.26945">
        <ele>1451.5</ele>
        <time>2010-04-15T19:15:39.21</time>
      </trkpt>
      <trkpt lat="44.18393" lon="5.26946">
        <ele>1451</ele>
        <time>2010-04-15T19:15:40.20</time>
      </trkpt>
      <trkpt lat="44.18392" lon="5.26947">
        <ele>1451</ele>
        <time>2010-04-15T19:15:41.20</time>
      </trkpt>
      <trkpt lat="44.1839" lon="5.26948">
        <ele>1451</ele>
        <time>2010-04-15T19:15:42.20</time>
      </trkpt>
      <trkpt lat="44.18389" lon="5.26948">
        <ele>1451</ele>
        <time>2010-04-15T19:15:43.20</time>
      </trkpt>
      <trkpt lat="44.18385" lon="5.2695">
        <ele>1451.5</ele>
        <time>2010-04-15T19:15:45.20</time>
      </trkpt>
      <trkpt lat="44.18384" lon="5.2695">
        <ele>1452</ele>
        <time>2010-04-15T19:15:46.20</time>
      </trkpt>
      <trkpt lat="44.18382" lon="5.26951">
        <ele>1452</ele>
        <time>2010-04-15T19:15:47.21</time>
      </trkpt>
      <trkpt lat="44.18381" lon="5.26952">
        <ele>1452</ele>
        <time>2010-04-15T19:15:48.20</time>
      </trkpt>
      <trkpt lat="44.1838" lon="5.26953">
        <ele>1452.5</ele>
        <time>2010-04-15T19:15:49.20</time>
      </trkpt>
      <trkpt lat="44.18378" lon="5.26954">
        <ele>1452.5</ele>
        <time>2010-04-15T19:15:50.20</time>
      </trkpt>
      <trkpt lat="44.18377" lon="5.26955">
        <ele>1453</ele>
        <time>2010-04-15T19:15:51.20</time>
      </trkpt>
      <trkpt lat="44.18376" lon="5.26955">
        <ele>1453</ele>
        <time>2010-04-15T19:15:52.20</time>
      </trkpt>
      <trkpt lat="44.18375" lon="5.26956">
        <ele>1453.5</ele>
        <time>2010-04-15T19:15:53.20</time>
      </trkpt>
      <trkpt lat="44.18374" lon="5.26957">
        <ele>1454</ele>
        <time>2010-04-15T19:15:54.20</time>
      </trkpt>
      <trkpt lat="44.18373" lon="5.26958">
        <ele>1454.5</ele>
        <time>2010-04-15T19:15:55.20</time>
      </trkpt>
      <trkpt lat="44.18372" lon="5.26959">
        <ele>1454.5</ele>
        <time>2010-04-15T19:15:56.20</time>
      </trkpt>
      <trkpt lat="44.18371" lon="5.2696">
        <ele>1455</ele>
        <time>2010-04-15T19:15:57.20</time>
      </trkpt>
      <trkpt lat="44.1837" lon="5.26961">
        <ele>1455</ele>
        <time>2010-04-15T19:15:58.19</time>
      </trkpt>
      <trkpt lat="44.18369" lon="5.26961">
        <ele>1455</ele>
        <time>2010-04-15T19:15:59.19</time>
      </trkpt>
      <trkpt lat="44.18368" lon="5.26962">
        <ele>1455.5</ele>
        <time>2010-04-15T19:16:00.19</time>
      </trkpt>
      <trkpt lat="44.18366" lon="5.26963">
        <ele>1455.5</ele>
        <time>2010-04-15T19:16:01.19</time>
      </trkpt>
      <trkpt lat="44.18365" lon="5.26963">
        <ele>1456</ele>
        <time>2010-04-15T19:16:02.20</time>
      </trkpt>
      <trkpt lat="44.18364" lon="5.26963">
        <ele>1456</ele>
        <time>2010-04-15T19:16:03.20</time>
      </trkpt>
      <trkpt lat="44.18363" lon="5.26963">
        <ele>1456.5</ele>
        <time>2010-04-15T19:16:04.19</time>
      </trkpt>
      <trkpt lat="44.18362" lon="5.26962">
        <ele>1456.5</ele>
        <time>2010-04-15T19:16:05.19</time>
      </trkpt>
      <trkpt lat="44.18361" lon="5.26962">
        <ele>1457</ele>
        <time>2010-04-15T19:16:06.20</time>
      </trkpt>
      <trkpt lat="44.1836" lon="5.26962">
        <ele>1457.5</ele>
        <time>2010-04-15T19:16:07.19</time>
      </trkpt>
      <trkpt lat="44.18359" lon="5.26962">
        <ele>1458</ele>
        <time>2010-04-15T19:16:08.19</time>
      </trkpt>
      <trkpt lat="44.18358" lon="5.26962">
        <ele>1458</ele>
        <time>2010-04-15T19:16:09.19</time>
      </trkpt>
      <trkpt lat="44.18356" lon="5.26962">
        <ele>1458</ele>
        <time>2010-04-15T19:16:10.19</time>
      </trkpt>
      <trkpt lat="44.18355" lon="5.26961">
        <ele>1458.5</ele>
        <time>2010-04-15T19:16:11.19</time>
      </trkpt>
      <trkpt lat="44.18354" lon="5.26961">
        <ele>1459</ele>
        <time>2010-04-15T19:16:12.19</time>
      </trkpt>
      <trkpt lat="44.18353" lon="5.26961">
        <ele>1459.5</ele>
        <time>2010-04-15T19:16:13.18</time>
      </trkpt>
      <trkpt lat="44.18352" lon="5.26961">
        <ele>1460</ele>
        <time>2010-04-15T19:16:14.18</time>
      </trkpt>
      <trkpt lat="44.18351" lon="5.26961">
        <ele>1460.5</ele>
        <time>2010-04-15T19:16:15.19</time>
      </trkpt>
      <trkpt lat="44.1835" lon="5.26961">
        <ele>1460.5</ele>
        <time>2010-04-15T19:16:16.19</time>
      </trkpt>
      <trkpt lat="44.18349" lon="5.26961">
        <ele>1461</ele>
        <time>2010-04-15T19:16:17.18</time>
      </trkpt>
      <trkpt lat="44.18348" lon="5.26961">
        <ele>1461</ele>
        <time>2010-04-15T19:16:18.18</time>
      </trkpt>
      <trkpt lat="44.18348" lon="5.26961">
        <ele>1461.5</ele>
        <time>2010-04-15T19:16:19.18</time>
      </trkpt>
      <trkpt lat="44.18347" lon="5.26961">
        <ele>1461.5</ele>
        <time>2010-04-15T19:16:20.18</time>
      </trkpt>
      <trkpt lat="44.18347" lon="5.26961">
        <ele>1462</ele>
        <time>2010-04-15T19:16:21.18</time>
      </trkpt>
      <trkpt lat="44.18346" lon="5.26961">
        <ele>1462.5</ele>
        <time>2010-04-15T19:16:22.18</time>
      </trkpt>
      <trkpt lat="44.18345" lon="5.26961">
        <ele>1463</ele>
        <time>2010-04-15T19:16:23.18</time>
      </trkpt>
      <trkpt lat="44.18343" lon="5.26961">
        <ele>1463</ele>
        <time>2010-04-15T19:16:24.18</time>
      </trkpt>
      <trkpt lat="44.18342" lon="5.26961">
        <ele>1464</ele>
        <time>2010-04-15T19:16:25.18</time>
      </trkpt>
      <trkpt lat="44.18341" lon="5.26961">
        <ele>1464</ele>
        <time>2010-04-15T19:16:26.18</time>
      </trkpt>
      <trkpt lat="44.1834" lon="5.26961">
        <ele>1464.5</ele>
        <time>2010-04-15T19:16:27.17</time>
      </trkpt>
      <trkpt lat="44.18339" lon="5.26961">
        <ele>1465</ele>
        <time>2010-04-15T19:16:28.17</time>
      </trkpt>
      <trkpt lat="44.18338" lon="5.26961">
        <ele>1465.5</ele>
        <time>2010-04-15T19:16:29.17</time>
      </trkpt>
      <trkpt lat="44.18337" lon="5.26961">
        <ele>1466</ele>
        <time>2010-04-15T19:16:30.17</time>
      </trkpt>
      <trkpt lat="44.18337" lon="5.26962">
        <ele>1466.5</ele>
        <time>2010-04-15T19:16:31.17</time>
      </trkpt>
      <trkpt lat="44.18336" lon="5.26962">
        <ele>1467</ele>
        <time>2010-04-15T19:16:32.17</time>
      </trkpt>
      <trkpt lat="44.18335" lon="5.26962">
        <ele>1467.5</ele>
        <time>2010-04-15T19:16:33.17</time>
      </trkpt>
      <trkpt lat="44.18334" lon="5.26962">
        <ele>1467.5</ele>
        <time>2010-04-15T19:16:34.17</time>
      </trkpt>
      <trkpt lat="44.18333" lon="5.26962">
        <ele>1468</ele>
        <time>2010-04-15T19:16:35.17</time>
      </trkpt>
      <trkpt lat="44.18332" lon="5.26962">
        <ele>1468.5</ele>
        <time>2010-04-15T19:16:36.17</time>
      </trkpt>
      <trkpt lat="44.18331" lon="5.26962">
        <ele>1469</ele>
        <time>2010-04-15T19:16:37.17</time>
      </trkpt>
      <trkpt lat="44.1833" lon="5.26962">
        <ele>1469.5</ele>
        <time>2010-04-15T19:16:38.18</time>
      </trkpt>
      <trkpt lat="44.18329" lon="5.26962">
        <ele>1469.5</ele>
        <time>2010-04-15T19:16:39.17</time>
      </trkpt>
      <trkpt lat="44.18328" lon="5.26962">
        <ele>1470</ele>
        <time>2010-04-15T19:16:40.17</time>
      </trkpt>
      <trkpt lat="44.18327" lon="5.26962">
        <ele>1470.5</ele>
        <time>2010-04-15T19:16:41.17</time>
      </trkpt>
      <trkpt lat="44.18326" lon="5.26961">
        <ele>1471</ele>
        <time>2010-04-15T19:16:42.17</time>
      </trkpt>
      <trkpt lat="44.18325" lon="5.26961">
        <ele>1471</ele>
        <time>2010-04-15T19:16:43.17</time>
      </trkpt>
      <trkpt lat="44.18325" lon="5.26961">
        <ele>1471.5</ele>
        <time>2010-04-15T19:16:44.18</time>
      </trkpt>
      <trkpt lat="44.18324" lon="5.26961">
        <ele>1471.5</ele>
        <time>2010-04-15T19:16:45.16</time>
      </trkpt>
      <trkpt lat="44.18323" lon="5.26961">
        <ele>1472</ele>
        <time>2010-04-15T19:16:46.16</time>
      </trkpt>
      <trkpt lat="44.18322" lon="5.26961">
        <ele>1472.5</ele>
        <time>2010-04-15T19:16:47.16</time>
      </trkpt>
      <trkpt lat="44.18321" lon="5.26961">
        <ele>1472.5</ele>
        <time>2010-04-15T19:16:48.16</time>
      </trkpt>
      <trkpt lat="44.1832" lon="5.26961">
        <ele>1473</ele>
        <time>2010-04-15T19:16:49.17</time>
      </trkpt>
      <trkpt lat="44.18319" lon="5.26961">
        <ele>1473</ele>
        <time>2010-04-15T19:16:50.17</time>
      </trkpt>
      <trkpt lat="44.18318" lon="5.26961">
        <ele>1473.5</ele>
        <time>2010-04-15T19:16:51.17</time>
      </trkpt>
      <trkpt lat="44.18317" lon="5.26961">
        <ele>1473.5</ele>
        <time>2010-04-15T19:16:52.17</time>
      </trkpt>
      <trkpt lat="44.18316" lon="5.26961">
        <ele>1474</ele>
        <time>2010-04-15T19:16:53.17</time>
      </trkpt>
      <trkpt lat="44.18315" lon="5.2696">
        <ele>1474.5</ele>
        <time>2010-04-15T19:16:54.17</time>
      </trkpt>
      <trkpt lat="44.18314" lon="5.2696">
        <ele>1474.5</ele>
        <time>2010-04-15T19:16:55.16</time>
      </trkpt>
      <trkpt lat="44.18313" lon="5.2696">
        <ele>1475</ele>
        <time>2010-04-15T19:16:56.16</time>
      </trkpt>
      <trkpt lat="44.18313" lon="5.2696">
        <ele>1475.5</ele>
        <time>2010-04-15T19:16:57.16</time>
      </trkpt>
      <trkpt lat="44.18312" lon="5.2696">
        <ele>1475.5</ele>
        <time>2010-04-15T19:16:58.16</time>
      </trkpt>
      <trkpt lat="44.18311" lon="5.2696">
        <ele>1476</ele>
        <time>2010-04-15T19:16:59.16</time>
      </trkpt>
      <trkpt lat="44.1831" lon="5.2696">
        <ele>1476.5</ele>
        <time>2010-04-15T19:17:00.16</time>
      </trkpt>
      <trkpt lat="44.18309" lon="5.2696">
        <ele>1476.5</ele>
        <time>2010-04-15T19:17:01.16</time>
      </trkpt>
      <trkpt lat="44.18308" lon="5.2696">
        <ele>1477</ele>
        <time>2010-04-15T19:17:02.16</time>
      </trkpt>
      <trkpt lat="44.18307" lon="5.2696">
        <ele>1477.5</ele>
        <time>2010-04-15T19:17:03.16</time>
      </trkpt>
      <trkpt lat="44.18306" lon="5.2696">
        <ele>1477.5</ele>
        <time>2010-04-15T19:17:04.16</time>
      </trkpt>
      <trkpt lat="44.18306" lon="5.2696">
        <ele>1478</ele>
        <time>2010-04-15T19:17:05.16</time>
      </trkpt>
      <trkpt lat="44.18305" lon="5.2696">
        <ele>1478</ele>
        <time>2010-04-15T19:17:06.16</time>
      </trkpt>
      <trkpt lat="44.18304" lon="5.2696">
        <ele>1478.5</ele>
        <time>2010-04-15T19:17:07.16</time>
      </trkpt>
      <trkpt lat="44.18303" lon="5.26959">
        <ele>1479</ele>
        <time>2010-04-15T19:17:08.16</time>
      </trkpt>
      <trkpt lat="44.18302" lon="5.2696">
        <ele>1479.5</ele>
        <time>2010-04-15T19:17:09.16</time>
      </trkpt>
      <trkpt lat="44.18302" lon="5.26961">
        <ele>1480</ele>
        <time>2010-04-15T19:17:10.16</time>
      </trkpt>
      <trkpt lat="44.18301" lon="5.26962">
        <ele>1480</ele>
        <time>2010-04-15T19:17:11.15</time>
      </trkpt>
      <trkpt lat="44.18301" lon="5.26963">
        <ele>1480.5</ele>
        <time>2010-04-15T19:17:12.15</time>
      </trkpt>
      <trkpt lat="44.18301" lon="5.26964">
        <ele>1481</ele>
        <time>2010-04-15T19:17:13.15</time>
      </trkpt>
      <trkpt lat="44.183" lon="5.26965">
        <ele>1481</ele>
        <time>2010-04-15T19:17:14.15</time>
      </trkpt>
      <trkpt lat="44.183" lon="5.26967">
        <ele>1481.5</ele>
        <time>2010-04-15T19:17:15.15</time>
      </trkpt>
      <trkpt lat="44.183" lon="5.26968">
        <ele>1481.5</ele>
        <time>2010-04-15T19:17:16.15</time>
      </trkpt>
      <trkpt lat="44.183" lon="5.26969">
        <ele>1482</ele>
        <time>2010-04-15T19:17:17.15</time>
      </trkpt>
      <trkpt lat="44.18299" lon="5.2697">
        <ele>1482.5</ele>
        <time>2010-04-15T19:17:18.15</time>
      </trkpt>
      <trkpt lat="44.18299" lon="5.26972">
        <ele>1483</ele>
        <time>2010-04-15T19:17:19.15</time>
      </trkpt>
      <trkpt lat="44.18299" lon="5.26973">
        <ele>1483</ele>
        <time>2010-04-15T19:17:20.15</time>
      </trkpt>
      <trkpt lat="44.18298" lon="5.26974">
        <ele>1483.5</ele>
        <time>2010-04-15T19:17:21.15</time>
      </trkpt>
      <trkpt lat="44.18298" lon="5.26976">
        <ele>1483.5</ele>
        <time>2010-04-15T19:17:22.15</time>
      </trkpt>
      <trkpt lat="44.18297" lon="5.26977">
        <ele>1484</ele>
        <time>2010-04-15T19:17:23.15</time>
      </trkpt>
      <trkpt lat="44.18297" lon="5.26978">
        <ele>1484</ele>
        <time>2010-04-15T19:17:24.15</time>
      </trkpt>
      <trkpt lat="44.18297" lon="5.2698">
        <ele>1484.5</ele>
        <time>2010-04-15T19:17:25.15</time>
      </trkpt>
      <trkpt lat="44.18296" lon="5.26981">
        <ele>1484.5</ele>
        <time>2010-04-15T19:17:26.15</time>
      </trkpt>
      <trkpt lat="44.18296" lon="5.26982">
        <ele>1485</ele>
        <time>2010-04-15T19:17:27.14</time>
      </trkpt>
      <trkpt lat="44.18296" lon="5.26984">
        <ele>1485</ele>
        <time>2010-04-15T19:17:28.14</time>
      </trkpt>
      <trkpt lat="44.18295" lon="5.26985">
        <ele>1485.5</ele>
        <time>2010-04-15T19:17:29.15</time>
      </trkpt>
      <trkpt lat="44.18295" lon="5.26986">
        <ele>1485.5</ele>
        <time>2010-04-15T19:17:30.15</time>
      </trkpt>
      <trkpt lat="44.18294" lon="5.26987">
        <ele>1486</ele>
        <time>2010-04-15T19:17:31.14</time>
      </trkpt>
      <trkpt lat="44.18294" lon="5.26989">
        <ele>1486</ele>
        <time>2010-04-15T19:17:32.14</time>
      </trkpt>
      <trkpt lat="44.18294" lon="5.2699">
        <ele>1486</ele>
        <time>2010-04-15T19:17:33.14</time>
      </trkpt>
      <trkpt lat="44.18293" lon="5.26992">
        <ele>1486.5</ele>
        <time>2010-04-15T19:17:34.14</time>
      </trkpt>
      <trkpt lat="44.18293" lon="5.26993">
        <ele>1486.5</ele>
        <time>2010-04-15T19:17:35.14</time>
      </trkpt>
      <trkpt lat="44.18292" lon="5.26994">
        <ele>1487</ele>
        <time>2010-04-15T19:17:36.14</time>
      </trkpt>
      <trkpt lat="44.18292" lon="5.26996">
        <ele>1487</ele>
        <time>2010-04-15T19:17:37.14</time>
      </trkpt>
      <trkpt lat="44.18291" lon="5.26997">
        <ele>1487</ele>
        <time>2010-04-15T19:17:38.14</time>
      </trkpt>
      <trkpt lat="44.18291" lon="5.26998">
        <ele>1487.5</ele>
        <time>2010-04-15T19:17:39.18</time>
      </trkpt>
      <trkpt lat="44.18291" lon="5.27">
        <ele>1487.5</ele>
        <time>2010-04-15T19:17:40.13</time>
      </trkpt>
      <trkpt lat="44.18291" lon="5.27001">
        <ele>1488</ele>
        <time>2010-04-15T19:17:41.13</time>
      </trkpt>
      <trkpt lat="44.1829" lon="5.27002">
        <ele>1488.5</ele>
        <time>2010-04-15T19:17:42.14</time>
      </trkpt>
      <trkpt lat="44.1829" lon="5.27004">
        <ele>1488.5</ele>
        <time>2010-04-15T19:17:43.13</time>
      </trkpt>
      <trkpt lat="44.1829" lon="5.27005">
        <ele>1489</ele>
        <time>2010-04-15T19:17:44.14</time>
      </trkpt>
      <trkpt lat="44.18289" lon="5.27006">
        <ele>1489</ele>
        <time>2010-04-15T19:17:45.14</time>
      </trkpt>
      <trkpt lat="44.18289" lon="5.27008">
        <ele>1489.5</ele>
        <time>2010-04-15T19:17:46.13</time>
      </trkpt>
      <trkpt lat="44.18288" lon="5.27009">
        <ele>1489.5</ele>
        <time>2010-04-15T19:17:47.13</time>
      </trkpt>
      <trkpt lat="44.18288" lon="5.2701">
        <ele>1489.5</ele>
        <time>2010-04-15T19:17:48.14</time>
      </trkpt>
      <trkpt lat="44.18288" lon="5.27012">
        <ele>1490</ele>
        <time>2010-04-15T19:17:49.13</time>
      </trkpt>
      <trkpt lat="44.18287" lon="5.27013">
        <ele>1490</ele>
        <time>2010-04-15T19:17:50.13</time>
      </trkpt>
      <trkpt lat="44.18287" lon="5.27014">
        <ele>1490</ele>
        <time>2010-04-15T19:17:51.13</time>
      </trkpt>
      <trkpt lat="44.18287" lon="5.27016">
        <ele>1490.5</ele>
        <time>2010-04-15T19:17:52.13</time>
      </trkpt>
      <trkpt lat="44.18286" lon="5.27017">
        <ele>1490.5</ele>
        <time>2010-04-15T19:17:53.13</time>
      </trkpt>
      <trkpt lat="44.18286" lon="5.27018">
        <ele>1490.5</ele>
        <time>2010-04-15T19:17:54.13</time>
      </trkpt>
      <trkpt lat="44.18285" lon="5.2702">
        <ele>1491</ele>
        <time>2010-04-15T19:17:55.13</time>
      </trkpt>
      <trkpt lat="44.18285" lon="5.27021">
        <ele>1491.5</ele>
        <time>2010-04-15T19:17:56.13</time>
      </trkpt>
      <trkpt lat="44.18285" lon="5.27022">
        <ele>1492</ele>
        <time>2010-04-15T19:17:57.13</time>
      </trkpt>
      <trkpt lat="44.18284" lon="5.27023">
        <ele>1492</ele>
        <time>2010-04-15T19:17:58.13</time>
      </trkpt>
      <trkpt lat="44.18284" lon="5.27025">
        <ele>1492.5</ele>
        <time>2010-04-15T19:17:59.13</time>
      </trkpt>
      <trkpt lat="44.18283" lon="5.27026">
        <ele>1492.5</ele>
        <time>2010-04-15T19:18:00.12</time>
      </trkpt>
      <trkpt lat="44.18283" lon="5.27027">
        <ele>1492.5</ele>
        <time>2010-04-15T19:18:01.12</time>
      </trkpt>
      <trkpt lat="44.18282" lon="5.27029">
        <ele>1493</ele>
        <time>2010-04-15T19:18:02.12</time>
      </trkpt>
      <trkpt lat="44.18282" lon="5.2703">
        <ele>1493</ele>
        <time>2010-04-15T19:18:03.12</time>
      </trkpt>
      <trkpt lat="44.18282" lon="5.27031">
        <ele>1493.5</ele>
        <time>2010-04-15T19:18:04.12</time>
      </trkpt>
      <trkpt lat="44.18281" lon="5.27033">
        <ele>1493.5</ele>
        <time>2010-04-15T19:18:05.12</time>
      </trkpt>
      <trkpt lat="44.18281" lon="5.27034">
        <ele>1493.5</ele>
        <time>2010-04-15T19:18:06.12</time>
      </trkpt>
      <trkpt lat="44.18281" lon="5.27036">
        <ele>1494</ele>
        <time>2010-04-15T19:18:07.12</time>
      </trkpt>
      <trkpt lat="44.18281" lon="5.27037">
        <ele>1494</ele>
        <time>2010-04-15T19:18:08.12</time>
      </trkpt>
      <trkpt lat="44.1828" lon="5.27038">
        <ele>1494</ele>
        <time>2010-04-15T19:18:09.12</time>
      </trkpt>
      <trkpt lat="44.1828" lon="5.27039">
        <ele>1494.5</ele>
        <time>2010-04-15T19:18:10.12</time>
      </trkpt>
      <trkpt lat="44.1828" lon="5.27041">
        <ele>1494.5</ele>
        <time>2010-04-15T19:18:11.12</time>
      </trkpt>
      <trkpt lat="44.18279" lon="5.27042">
        <ele>1495</ele>
        <time>2010-04-15T19:18:12.12</time>
      </trkpt>
      <trkpt lat="44.18279" lon="5.27043">
        <ele>1495</ele>
        <time>2010-04-15T19:18:13.12</time>
      </trkpt>
      <trkpt lat="44.18278" lon="5.27043">
        <ele>1495.5</ele>
        <time>2010-04-15T19:18:14.12</time>
      </trkpt>
      <trkpt lat="44.18277" lon="5.27043">
        <ele>1495.5</ele>
        <time>2010-04-15T19:18:15.12</time>
      </trkpt>
      <trkpt lat="44.18276" lon="5.27043">
        <ele>1495.5</ele>
        <time>2010-04-15T19:18:16.11</time>
      </trkpt>
      <trkpt lat="44.18275" lon="5.27043">
        <ele>1496</ele>
        <time>2010-04-15T19:18:17.11</time>
      </trkpt>
      <trkpt lat="44.18274" lon="5.27043">
        <ele>1496.5</ele>
        <time>2010-04-15T19:18:18.11</time>
      </trkpt>
      <trkpt lat="44.18273" lon="5.27043">
        <ele>1496.5</ele>
        <time>2010-04-15T19:18:19.11</time>
      </trkpt>
      <trkpt lat="44.18272" lon="5.27042">
        <ele>1496.5</ele>
        <time>2010-04-15T19:18:20.11</time>
      </trkpt>
      <trkpt lat="44.18271" lon="5.27042">
        <ele>1496.5</ele>
        <time>2010-04-15T19:18:21.11</time>
      </trkpt>
      <trkpt lat="44.1827" lon="5.27042">
        <ele>1497</ele>
        <time>2010-04-15T19:18:22.11</time>
      </trkpt>
      <trkpt lat="44.18269" lon="5.27042">
        <ele>1497</ele>
        <time>2010-04-15T19:18:23.11</time>
      </trkpt>
      <trkpt lat="44.18268" lon="5.27042">
        <ele>1497.5</ele>
        <time>2010-04-15T19:18:24.11</time>
      </trkpt>
      <trkpt lat="44.18267" lon="5.27042">
        <ele>1497.5</ele>
        <time>2010-04-15T19:18:25.11</time>
      </trkpt>
      <trkpt lat="44.18266" lon="5.27042">
        <ele>1498</ele>
        <time>2010-04-15T19:18:26.11</time>
      </trkpt>
      <trkpt lat="44.18266" lon="5.27042">
        <ele>1498</ele>
        <time>2010-04-15T19:18:27.11</time>
      </trkpt>
      <trkpt lat="44.18265" lon="5.27042">
        <ele>1498.5</ele>
        <time>2010-04-15T19:18:28.11</time>
      </trkpt>
      <trkpt lat="44.18264" lon="5.27042">
        <ele>1498.5</ele>
        <time>2010-04-15T19:18:29.11</time>
      </trkpt>
      <trkpt lat="44.18263" lon="5.27041">
        <ele>1499</ele>
        <time>2010-04-15T19:18:30.11</time>
      </trkpt>
      <trkpt lat="44.18262" lon="5.27041">
        <ele>1499</ele>
        <time>2010-04-15T19:18:31.10</time>
      </trkpt>
      <trkpt lat="44.18261" lon="5.27041">
        <ele>1499.5</ele>
        <time>2010-04-15T19:18:32.10</time>
      </trkpt>
      <trkpt lat="44.1826" lon="5.27041">
        <ele>1499.5</ele>
        <time>2010-04-15T19:18:33.10</time>
      </trkpt>
      <trkpt lat="44.18259" lon="5.27041">
        <ele>1499.5</ele>
        <time>2010-04-15T19:18:34.11</time>
      </trkpt>
      <trkpt lat="44.18258" lon="5.27041">
        <ele>1500</ele>
        <time>2010-04-15T19:18:35.10</time>
      </trkpt>
      <trkpt lat="44.18258" lon="5.27041">
        <ele>1500</ele>
        <time>2010-04-15T19:18:36.10</time>
      </trkpt>
      <trkpt lat="44.18257" lon="5.27041">
        <ele>1500.5</ele>
        <time>2010-04-15T19:18:37.10</time>
      </trkpt>
      <trkpt lat="44.18256" lon="5.27041">
        <ele>1500.5</ele>
        <time>2010-04-15T19:18:38.10</time>
      </trkpt>
      <trkpt lat="44.18255" lon="5.27041">
        <ele>1501</ele>
        <time>2010-04-15T19:18:39.10</time>
      </trkpt>
      <trkpt lat="44.18254" lon="5.27041">
        <ele>1501.5</ele>
        <time>2010-04-15T19:18:40.10</time>
      </trkpt>
      <trkpt lat="44.18254" lon="5.27041">
        <ele>1501.5</ele>
        <time>2010-04-15T19:18:41.10</time>
      </trkpt>
      <trkpt lat="44.18253" lon="5.2704">
        <ele>1502</ele>
        <time>2010-04-15T19:18:42.10</time>
      </trkpt>
      <trkpt lat="44.18252" lon="5.2704">
        <ele>1502</ele>
        <time>2010-04-15T19:18:43.10</time>
      </trkpt>
      <trkpt lat="44.18251" lon="5.2704">
        <ele>1502</ele>
        <time>2010-04-15T19:18:44.10</time>
      </trkpt>
      <trkpt lat="44.1825" lon="5.2704">
        <ele>1502</ele>
        <time>2010-04-15T19:18:45.10</time>
      </trkpt>
      <trkpt lat="44.18249" lon="5.2704">
        <ele>1502.5</ele>
        <time>2010-04-15T19:18:46.10</time>
      </trkpt>
      <trkpt lat="44.18248" lon="5.2704">
        <ele>1503</ele>
        <time>2010-04-15T19:18:47.09</time>
      </trkpt>
      <trkpt lat="44.18247" lon="5.2704">
        <ele>1503</ele>
        <time>2010-04-15T19:18:48.09</time>
      </trkpt>
      <trkpt lat="44.18246" lon="5.27039">
        <ele>1503</ele>
        <time>2010-04-15T19:18:49.09</time>
      </trkpt>
      <trkpt lat="44.18245" lon="5.27039">
        <ele>1503.5</ele>
        <time>2010-04-15T19:18:50.09</time>
      </trkpt>
      <trkpt lat="44.18244" lon="5.27039">
        <ele>1503.5</ele>
        <time>2010-04-15T19:18:51.09</time>
      </trkpt>
      <trkpt lat="44.18243" lon="5.27039">
        <ele>1504</ele>
        <time>2010-04-15T19:18:52.09</time>
      </trkpt>
      <trkpt lat="44.18243" lon="5.27039">
        <ele>1504</ele>
        <time>2010-04-15T19:18:53.09</time>
      </trkpt>
      <trkpt lat="44.18242" lon="5.27038">
        <ele>1504</ele>
        <time>2010-04-15T19:18:54.09</time>
      </trkpt>
      <trkpt lat="44.18241" lon="5.27038">
        <ele>1504.5</ele>
        <time>2010-04-15T19:18:55.09</time>
      </trkpt>
      <trkpt lat="44.1824" lon="5.27038">
        <ele>1505</ele>
        <time>2010-04-15T19:18:56.09</time>
      </trkpt>
      <trkpt lat="44.18239" lon="5.27038">
        <ele>1505</ele>
        <time>2010-04-15T19:18:57.09</time>
      </trkpt>
      <trkpt lat="44.18238" lon="5.27038">
        <ele>1505</ele>
        <time>2010-04-15T19:18:58.09</time>
      </trkpt>
      <trkpt lat="44.18237" lon="5.27038">
        <ele>1505.5</ele>
        <time>2010-04-15T19:18:59.09</time>
      </trkpt>
      <trkpt lat="44.18236" lon="5.27038">
        <ele>1505.5</ele>
        <time>2010-04-15T19:19:00.09</time>
      </trkpt>
      <trkpt lat="44.18235" lon="5.27038">
        <ele>1506</ele>
        <time>2010-04-15T19:19:01.09</time>
      </trkpt>
      <trkpt lat="44.18235" lon="5.27038">
        <ele>1506</ele>
        <time>2010-04-15T19:19:02.09</time>
      </trkpt>
      <trkpt lat="44.18234" lon="5.27038">
        <ele>1506.5</ele>
        <time>2010-04-15T19:19:03.08</time>
      </trkpt>
      <trkpt lat="44.18233" lon="5.27038">
        <ele>1506.5</ele>
        <time>2010-04-15T19:19:04.08</time>
      </trkpt>
      <trkpt lat="44.18232" lon="5.27037">
        <ele>1507</ele>
        <time>2010-04-15T19:19:05.08</time>
      </trkpt>
      <trkpt lat="44.18231" lon="5.27037">
        <ele>1507</ele>
        <time>2010-04-15T19:19:06.08</time>
      </trkpt>
      <trkpt lat="44.18231" lon="5.27037">
        <ele>1507.5</ele>
        <time>2010-04-15T19:19:07.08</time>
      </trkpt>
      <trkpt lat="44.1823" lon="5.27037">
        <ele>1507.5</ele>
        <time>2010-04-15T19:19:08.08</time>
      </trkpt>
      <trkpt lat="44.18229" lon="5.27037">
        <ele>1508</ele>
        <time>2010-04-15T19:19:09.08</time>
      </trkpt>
      <trkpt lat="44.18228" lon="5.27037">
        <ele>1508</ele>
        <time>2010-04-15T19:19:10.08</time>
      </trkpt>
      <trkpt lat="44.18227" lon="5.27037">
        <ele>1508.5</ele>
        <time>2010-04-15T19:19:11.08</time>
      </trkpt>
      <trkpt lat="44.18226" lon="5.27037">
        <ele>1508.5</ele>
        <time>2010-04-15T19:19:12.08</time>
      </trkpt>
      <trkpt lat="44.18225" lon="5.27037">
        <ele>1509</ele>
        <time>2010-04-15T19:19:13.08</time>
      </trkpt>
      <trkpt lat="44.18224" lon="5.27037">
        <ele>1509.5</ele>
        <time>2010-04-15T19:19:14.08</time>
      </trkpt>
      <trkpt lat="44.18224" lon="5.27037">
        <ele>1509.5</ele>
        <time>2010-04-15T19:19:15.08</time>
      </trkpt>
      <trkpt lat="44.18223" lon="5.27037">
        <ele>1509.5</ele>
        <time>2010-04-15T19:19:16.08</time>
      </trkpt>
      <trkpt lat="44.18222" lon="5.27037">
        <ele>1510</ele>
        <time>2010-04-15T19:19:17.08</time>
      </trkpt>
      <trkpt lat="44.18221" lon="5.27037">
        <ele>1510.5</ele>
        <time>2010-04-15T19:19:18.08</time>
      </trkpt>
      <trkpt lat="44.1822" lon="5.27037">
        <ele>1510.5</ele>
        <time>2010-04-15T19:19:19.07</time>
      </trkpt>
      <trkpt lat="44.18219" lon="5.27037">
        <ele>1511</ele>
        <time>2010-04-15T19:19:20.07</time>
      </trkpt>
      <trkpt lat="44.18218" lon="5.27038">
        <ele>1511</ele>
        <time>2010-04-15T19:19:21.07</time>
      </trkpt>
      <trkpt lat="44.18218" lon="5.27039">
        <ele>1511</ele>
        <time>2010-04-15T19:19:22.07</time>
      </trkpt>
      <trkpt lat="44.18217" lon="5.2704">
        <ele>1511.5</ele>
        <time>2010-04-15T19:19:23.07</time>
      </trkpt>
      <trkpt lat="44.18217" lon="5.2704">
        <ele>1511.5</ele>
        <time>2010-04-15T19:19:24.08</time>
      </trkpt>
      <trkpt lat="44.18216" lon="5.27042">
        <ele>1512</ele>
        <time>2010-04-15T19:19:25.07</time>
      </trkpt>
      <trkpt lat="44.18216" lon="5.27043">
        <ele>1512</ele>
        <time>2010-04-15T19:19:26.07</time>
      </trkpt>
      <trkpt lat="44.18216" lon="5.27044">
        <ele>1512</ele>
        <time>2010-04-15T19:19:27.07</time>
      </trkpt>
      <trkpt lat="44.18215" lon="5.27045">
        <ele>1512.5</ele>
        <time>2010-04-15T19:19:28.07</time>
      </trkpt>
      <trkpt lat="44.18215" lon="5.27046">
        <ele>1513</ele>
        <time>2010-04-15T19:19:29.07</time>
      </trkpt>
      <trkpt lat="44.18215" lon="5.27047">
        <ele>1513</ele>
        <time>2010-04-15T19:19:30.07</time>
      </trkpt>
      <trkpt lat="44.18214" lon="5.27049">
        <ele>1513</ele>
        <time>2010-04-15T19:19:31.07</time>
      </trkpt>
      <trkpt lat="44.18214" lon="5.2705">
        <ele>1513.5</ele>
        <time>2010-04-15T19:19:32.07</time>
      </trkpt>
      <trkpt lat="44.18213" lon="5.27051">
        <ele>1513.5</ele>
        <time>2010-04-15T19:19:33.07</time>
      </trkpt>
      <trkpt lat="44.18213" lon="5.27052">
        <ele>1514</ele>
        <time>2010-04-15T19:19:34.07</time>
      </trkpt>
      <trkpt lat="44.18213" lon="5.27054">
        <ele>1514</ele>
        <time>2010-04-15T19:19:35.06</time>
      </trkpt>
      <trkpt lat="44.18212" lon="5.27055">
        <ele>1514</ele>
        <time>2010-04-15T19:19:36.06</time>
      </trkpt>
      <trkpt lat="44.18212" lon="5.27056">
        <ele>1514.5</ele>
        <time>2010-04-15T19:19:37.06</time>
      </trkpt>
      <trkpt lat="44.18212" lon="5.27057">
        <ele>1514.5</ele>
        <time>2010-04-15T19:19:38.06</time>
      </trkpt>
      <trkpt lat="44.18211" lon="5.27059">
        <ele>1514.5</ele>
        <time>2010-04-15T19:19:39.06</time>
      </trkpt>
      <trkpt lat="44.18211" lon="5.2706">
        <ele>1515</ele>
        <time>2010-04-15T19:19:40.06</time>
      </trkpt>
      <trkpt lat="44.18211" lon="5.27061">
        <ele>1515</ele>
        <time>2010-04-15T19:19:41.06</time>
      </trkpt>
      <trkpt lat="44.18211" lon="5.27063">
        <ele>1515</ele>
        <time>2010-04-15T19:19:42.06</time>
      </trkpt>
      <trkpt lat="44.1821" lon="5.27064">
        <ele>1515.5</ele>
        <time>2010-04-15T19:19:43.06</time>
      </trkpt>
      <trkpt lat="44.1821" lon="5.27065">
        <ele>1515.5</ele>
        <time>2010-04-15T19:19:44.07</time>
      </trkpt>
      <trkpt lat="44.1821" lon="5.27067">
        <ele>1515.5</ele>
        <time>2010-04-15T19:19:45.06</time>
      </trkpt>
      <trkpt lat="44.1821" lon="5.27068">
        <ele>1516</ele>
        <time>2010-04-15T19:19:46.06</time>
      </trkpt>
      <trkpt lat="44.1821" lon="5.2707">
        <ele>1516</ele>
        <time>2010-04-15T19:19:47.06</time>
      </trkpt>
      <trkpt lat="44.1821" lon="5.2707">
        <ele>1516</ele>
        <time>2010-04-15T19:19:48.06</time>
      </trkpt>
      <trkpt lat="44.1821" lon="5.2707">
        <ele>1516</ele>
        <time>2010-04-15T19:19:49.06</time>
      </trkpt>
      <trkpt lat="44.1821" lon="5.2707">
        <ele>1516</ele>
        <time>2010-04-15T19:19:50.06</time>
      </trkpt>
      <trkpt lat="44.18209" lon="5.27071">
        <ele>1516</ele>
        <time>2010-04-15T19:19:51.06</time>
      </trkpt>
      <trkpt lat="44.18209" lon="5.27072">
        <ele>1516.5</ele>
        <time>2010-04-15T19:19:52.06</time>
      </trkpt>
      <trkpt lat="44.18209" lon="5.27073">
        <ele>1516.5</ele>
        <time>2010-04-15T19:19:53.06</time>
      </trkpt>
      <trkpt lat="44.18209" lon="5.27075">
        <ele>1516.5</ele>
        <time>2010-04-15T19:19:54.06</time>
      </trkpt>
      <trkpt lat="44.18209" lon="5.27076">
        <ele>1517</ele>
        <time>2010-04-15T19:19:55.06</time>
      </trkpt>
      <trkpt lat="44.18209" lon="5.27078">
        <ele>1517</ele>
        <time>2010-04-15T19:19:56.06</time>
      </trkpt>
      <trkpt lat="44.18209" lon="5.27079">
        <ele>1517</ele>
        <time>2010-04-15T19:19:57.06</time>
      </trkpt>
      <trkpt lat="44.18209" lon="5.27081">
        <ele>1517.5</ele>
        <time>2010-04-15T19:19:58.05</time>
      </trkpt>
      <trkpt lat="44.18208" lon="5.27082">
        <ele>1517.5</ele>
        <time>2010-04-15T19:19:59.05</time>
      </trkpt>
      <trkpt lat="44.18208" lon="5.27084">
        <ele>1518</ele>
        <time>2010-04-15T19:20:00.05</time>
      </trkpt>
      <trkpt lat="44.18208" lon="5.27085">
        <ele>1518</ele>
        <time>2010-04-15T19:20:01.05</time>
      </trkpt>
      <trkpt lat="44.18208" lon="5.27087">
        <ele>1518.5</ele>
        <time>2010-04-15T19:20:02.05</time>
      </trkpt>
      <trkpt lat="44.18208" lon="5.27088">
        <ele>1518.5</ele>
        <time>2010-04-15T19:20:03.05</time>
      </trkpt>
      <trkpt lat="44.18207" lon="5.27088">
        <ele>1518.5</ele>
        <time>2010-04-15T19:20:04.05</time>
      </trkpt>
      <trkpt lat="44.18206" lon="5.27089">
        <ele>1519</ele>
        <time>2010-04-15T19:20:05.05</time>
      </trkpt>
      <trkpt lat="44.18205" lon="5.27089">
        <ele>1519</ele>
        <time>2010-04-15T19:20:06.05</time>
      </trkpt>
      <trkpt lat="44.18204" lon="5.27089">
        <ele>1519.5</ele>
        <time>2010-04-15T19:20:07.05</time>
      </trkpt>
      <trkpt lat="44.18204" lon="5.27089">
        <ele>1519.5</ele>
        <time>2010-04-15T19:20:08.05</time>
      </trkpt>
      <trkpt lat="44.18203" lon="5.27088">
        <ele>1520</ele>
        <time>2010-04-15T19:20:09.05</time>
      </trkpt>
      <trkpt lat="44.18202" lon="5.27088">
        <ele>1520</ele>
        <time>2010-04-15T19:20:10.05</time>
      </trkpt>
      <trkpt lat="44.18201" lon="5.27088">
        <ele>1520</ele>
        <time>2010-04-15T19:20:11.05</time>
      </trkpt>
      <trkpt lat="44.182" lon="5.27087">
        <ele>1520.5</ele>
        <time>2010-04-15T19:20:12.05</time>
      </trkpt>
      <trkpt lat="44.18199" lon="5.27087">
        <ele>1520.5</ele>
        <time>2010-04-15T19:20:13.04</time>
      </trkpt>
      <trkpt lat="44.18198" lon="5.27086">
        <ele>1520.5</ele>
        <time>2010-04-15T19:20:14.04</time>
      </trkpt>
      <trkpt lat="44.18197" lon="5.27086">
        <ele>1521</ele>
        <time>2010-04-15T19:20:15.04</time>
      </trkpt>
      <trkpt lat="44.18197" lon="5.27086">
        <ele>1521</ele>
        <time>2010-04-15T19:20:16.04</time>
      </trkpt>
      <trkpt lat="44.18196" lon="5.27085">
        <ele>1521.5</ele>
        <time>2010-04-15T19:20:17.04</time>
      </trkpt>
      <trkpt lat="44.18194" lon="5.27085">
        <ele>1522</ele>
        <time>2010-04-15T19:20:18.07</time>
      </trkpt>
      <trkpt lat="44.18193" lon="5.27084">
        <ele>1522</ele>
        <time>2010-04-15T19:20:19.07</time>
      </trkpt>
      <trkpt lat="44.18193" lon="5.27084">
        <ele>1522</ele>
        <time>2010-04-15T19:20:20.07</time>
      </trkpt>
      <trkpt lat="44.18192" lon="5.27083">
        <ele>1522.5</ele>
        <time>2010-04-15T19:20:21.07</time>
      </trkpt>
      <trkpt lat="44.18191" lon="5.27083">
        <ele>1522.5</ele>
        <time>2010-04-15T19:20:22.07</time>
      </trkpt>
      <trkpt lat="44.1819" lon="5.27083">
        <ele>1522.5</ele>
        <time>2010-04-15T19:20:23.07</time>
      </trkpt>
      <trkpt lat="44.18189" lon="5.27082">
        <ele>1523</ele>
        <time>2010-04-15T19:20:24.07</time>
      </trkpt>
      <trkpt lat="44.18188" lon="5.27082">
        <ele>1523</ele>
        <time>2010-04-15T19:20:25.07</time>
      </trkpt>
      <trkpt lat="44.18187" lon="5.27081">
        <ele>1523</ele>
        <time>2010-04-15T19:20:26.07</time>
      </trkpt>
      <trkpt lat="44.18186" lon="5.27081">
        <ele>1523.5</ele>
        <time>2010-04-15T19:20:27.07</time>
      </trkpt>
      <trkpt lat="44.18186" lon="5.27081">
        <ele>1523.5</ele>
        <time>2010-04-15T19:20:28.06</time>
      </trkpt>
      <trkpt lat="44.18185" lon="5.2708">
        <ele>1524</ele>
        <time>2010-04-15T19:20:29.07</time>
      </trkpt>
      <trkpt lat="44.18184" lon="5.2708">
        <ele>1524.5</ele>
        <time>2010-04-15T19:20:30.06</time>
      </trkpt>
      <trkpt lat="44.18183" lon="5.2708">
        <ele>1524.5</ele>
        <time>2010-04-15T19:20:31.06</time>
      </trkpt>
      <trkpt lat="44.18182" lon="5.2708">
        <ele>1525</ele>
        <time>2010-04-15T19:20:32.06</time>
      </trkpt>
      <trkpt lat="44.18182" lon="5.27079">
        <ele>1525</ele>
        <time>2010-04-15T19:20:33.06</time>
      </trkpt>
      <trkpt lat="44.18181" lon="5.27079">
        <ele>1525.5</ele>
        <time>2010-04-15T19:20:34.06</time>
      </trkpt>
      <trkpt lat="44.1818" lon="5.27079">
        <ele>1525.5</ele>
        <time>2010-04-15T19:20:35.06</time>
      </trkpt>
      <trkpt lat="44.18179" lon="5.27078">
        <ele>1526</ele>
        <time>2010-04-15T19:20:36.06</time>
      </trkpt>
      <trkpt lat="44.18178" lon="5.27078">
        <ele>1526</ele>
        <time>2010-04-15T19:20:37.06</time>
      </trkpt>
      <trkpt lat="44.18177" lon="5.27078">
        <ele>1526.5</ele>
        <time>2010-04-15T19:20:38.06</time>
      </trkpt>
      <trkpt lat="44.18176" lon="5.27077">
        <ele>1526.5</ele>
        <time>2010-04-15T19:20:39.06</time>
      </trkpt>
      <trkpt lat="44.18175" lon="5.27077">
        <ele>1526.5</ele>
        <time>2010-04-15T19:20:40.06</time>
      </trkpt>
      <trkpt lat="44.18174" lon="5.27078">
        <ele>1527</ele>
        <time>2010-04-15T19:20:41.06</time>
      </trkpt>
      <trkpt lat="44.18173" lon="5.27078">
        <ele>1527</ele>
        <time>2010-04-15T19:20:42.06</time>
      </trkpt>
      <trkpt lat="44.18173" lon="5.27079">
        <ele>1527</ele>
        <time>2010-04-15T19:20:43.06</time>
      </trkpt>
      <trkpt lat="44.18173" lon="5.2708">
        <ele>1527.5</ele>
        <time>2010-04-15T19:20:44.05</time>
      </trkpt>
      <trkpt lat="44.18172" lon="5.27081">
        <ele>1528</ele>
        <time>2010-04-15T19:20:45.05</time>
      </trkpt>
      <trkpt lat="44.18172" lon="5.27082">
        <ele>1528</ele>
        <time>2010-04-15T19:20:46.05</time>
      </trkpt>
      <trkpt lat="44.18172" lon="5.27083">
        <ele>1528.5</ele>
        <time>2010-04-15T19:20:47.06</time>
      </trkpt>
      <trkpt lat="44.18172" lon="5.27085">
        <ele>1528.5</ele>
        <time>2010-04-15T19:20:48.05</time>
      </trkpt>
      <trkpt lat="44.18171" lon="5.27086">
        <ele>1529</ele>
        <time>2010-04-15T19:20:49.05</time>
      </trkpt>
      <trkpt lat="44.18171" lon="5.27087">
        <ele>1529</ele>
        <time>2010-04-15T19:20:50.05</time>
      </trkpt>
      <trkpt lat="44.18171" lon="5.27088">
        <ele>1529.5</ele>
        <time>2010-04-15T19:20:51.05</time>
      </trkpt>
      <trkpt lat="44.18171" lon="5.2709">
        <ele>1529.5</ele>
        <time>2010-04-15T19:20:52.05</time>
      </trkpt>
      <trkpt lat="44.18171" lon="5.27091">
        <ele>1530</ele>
        <time>2010-04-15T19:20:53.05</time>
      </trkpt>
      <trkpt lat="44.1817" lon="5.27092">
        <ele>1530.5</ele>
        <time>2010-04-15T19:20:54.05</time>
      </trkpt>
      <trkpt lat="44.18171" lon="5.27092">
        <ele>1530.5</ele>
        <time>2010-04-15T19:20:55.05</time>
      </trkpt>
      <trkpt lat="44.18171" lon="5.27093">
        <ele>1530.5</ele>
        <time>2010-04-15T19:20:56.05</time>
      </trkpt>
      <trkpt lat="44.1817" lon="5.27094">
        <ele>1531</ele>
        <time>2010-04-15T19:20:57.05</time>
      </trkpt>
      <trkpt lat="44.1817" lon="5.27095">
        <ele>1531</ele>
        <time>2010-04-15T19:20:58.05</time>
      </trkpt>
      <trkpt lat="44.1817" lon="5.27097">
        <ele>1531.5</ele>
        <time>2010-04-15T19:20:59.04</time>
      </trkpt>
      <trkpt lat="44.1817" lon="5.27098">
        <ele>1531.5</ele>
        <time>2010-04-15T19:21:00.04</time>
      </trkpt>
      <trkpt lat="44.1817" lon="5.27099">
        <ele>1532</ele>
        <time>2010-04-15T19:21:01.04</time>
      </trkpt>
      <trkpt lat="44.18169" lon="5.27101">
        <ele>1532</ele>
        <time>2010-04-15T19:21:02.04</time>
      </trkpt>
      <trkpt lat="44.18169" lon="5.27102">
        <ele>1532.5</ele>
        <time>2010-04-15T19:21:03.04</time>
      </trkpt>
      <trkpt lat="44.18169" lon="5.27104">
        <ele>1532.5</ele>
        <time>2010-04-15T19:21:04.04</time>
      </trkpt>
      <trkpt lat="44.18169" lon="5.27105">
        <ele>1533</ele>
        <time>2010-04-15T19:21:05.04</time>
      </trkpt>
      <trkpt lat="44.18168" lon="5.27106">
        <ele>1533.5</ele>
        <time>2010-04-15T19:21:06.04</time>
      </trkpt>
      <trkpt lat="44.18168" lon="5.27108">
        <ele>1533.5</ele>
        <time>2010-04-15T19:21:07.04</time>
      </trkpt>
      <trkpt lat="44.18168" lon="5.27109">
        <ele>1534</ele>
        <time>2010-04-15T19:21:08.04</time>
      </trkpt>
      <trkpt lat="44.18168" lon="5.2711">
        <ele>1534</ele>
        <time>2010-04-15T19:21:09.04</time>
      </trkpt>
      <trkpt lat="44.18167" lon="5.27112">
        <ele>1534.5</ele>
        <time>2010-04-15T19:21:10.04</time>
      </trkpt>
      <trkpt lat="44.18167" lon="5.27113">
        <ele>1535</ele>
        <time>2010-04-15T19:21:11.04</time>
      </trkpt>
      <trkpt lat="44.18167" lon="5.27115">
        <ele>1535</ele>
        <time>2010-04-15T19:21:12.03</time>
      </trkpt>
      <trkpt lat="44.18166" lon="5.27116">
        <ele>1535.5</ele>
        <time>2010-04-15T19:21:13.03</time>
      </trkpt>
      <trkpt lat="44.18166" lon="5.27117">
        <ele>1535.5</ele>
        <time>2010-04-15T19:21:14.03</time>
      </trkpt>
      <trkpt lat="44.18166" lon="5.27118">
        <ele>1536</ele>
        <time>2010-04-15T19:21:15.03</time>
      </trkpt>
      <trkpt lat="44.18165" lon="5.2712">
        <ele>1536</ele>
        <time>2010-04-15T19:21:16.03</time>
      </trkpt>
      <trkpt lat="44.18165" lon="5.27121">
        <ele>1536.5</ele>
        <time>2010-04-15T19:21:17.03</time>
      </trkpt>
      <trkpt lat="44.18165" lon="5.27122">
        <ele>1536.5</ele>
        <time>2010-04-15T19:21:18.03</time>
      </trkpt>
      <trkpt lat="44.18165" lon="5.27123">
        <ele>1537</ele>
        <time>2010-04-15T19:21:19.03</time>
      </trkpt>
      <trkpt lat="44.18164" lon="5.27124">
        <ele>1537</ele>
        <time>2010-04-15T19:21:20.03</time>
      </trkpt>
      <trkpt lat="44.18163" lon="5.27124">
        <ele>1537</ele>
        <time>2010-04-15T19:21:21.03</time>
      </trkpt>
      <trkpt lat="44.18162" lon="5.27124">
        <ele>1537.5</ele>
        <time>2010-04-15T19:21:22.03</time>
      </trkpt>
      <trkpt lat="44.18161" lon="5.27124">
        <ele>1537.5</ele>
        <time>2010-04-15T19:21:23.03</time>
      </trkpt>
      <trkpt lat="44.1816" lon="5.27124">
        <ele>1538</ele>
        <time>2010-04-15T19:21:24.03</time>
      </trkpt>
      <trkpt lat="44.1816" lon="5.27123">
        <ele>1538</ele>
        <time>2010-04-15T19:21:25.03</time>
      </trkpt>
      <trkpt lat="44.18159" lon="5.27123">
        <ele>1538</ele>
        <time>2010-04-15T19:21:26.02</time>
      </trkpt>
      <trkpt lat="44.18158" lon="5.27123">
        <ele>1538.5</ele>
        <time>2010-04-15T19:21:27.02</time>
      </trkpt>
      <trkpt lat="44.18157" lon="5.27123">
        <ele>1538.5</ele>
        <time>2010-04-15T19:21:28.02</time>
      </trkpt>
      <trkpt lat="44.18156" lon="5.27123">
        <ele>1538.5</ele>
        <time>2010-04-15T19:21:29.02</time>
      </trkpt>
      <trkpt lat="44.18155" lon="5.27122">
        <ele>1539</ele>
        <time>2010-04-15T19:21:30.02</time>
      </trkpt>
      <trkpt lat="44.18155" lon="5.27122">
        <ele>1539.5</ele>
        <time>2010-04-15T19:21:31.02</time>
      </trkpt>
      <trkpt lat="44.18154" lon="5.27122">
        <ele>1539.5</ele>
        <time>2010-04-15T19:21:32.02</time>
      </trkpt>
      <trkpt lat="44.18153" lon="5.27122">
        <ele>1540</ele>
        <time>2010-04-15T19:21:33.02</time>
      </trkpt>
      <trkpt lat="44.18152" lon="5.27121">
        <ele>1540</ele>
        <time>2010-04-15T19:21:34.02</time>
      </trkpt>
      <trkpt lat="44.18152" lon="5.27121">
        <ele>1540.5</ele>
        <time>2010-04-15T19:21:35.02</time>
      </trkpt>
      <trkpt lat="44.18151" lon="5.27121">
        <ele>1540.5</ele>
        <time>2010-04-15T19:21:36.02</time>
      </trkpt>
      <trkpt lat="44.1815" lon="5.2712">
        <ele>1541</ele>
        <time>2010-04-15T19:21:37.02</time>
      </trkpt>
      <trkpt lat="44.18149" lon="5.2712">
        <ele>1541.5</ele>
        <time>2010-04-15T19:21:38.02</time>
      </trkpt>
      <trkpt lat="44.18148" lon="5.2712">
        <ele>1541.5</ele>
        <time>2010-04-15T19:21:39.02</time>
      </trkpt>
      <trkpt lat="44.18148" lon="5.2712">
        <ele>1541.5</ele>
        <time>2010-04-15T19:21:40.02</time>
      </trkpt>
      <trkpt lat="44.18147" lon="5.27119">
        <ele>1542</ele>
        <time>2010-04-15T19:21:41.02</time>
      </trkpt>
      <trkpt lat="44.18146" lon="5.27119">
        <ele>1542</ele>
        <time>2010-04-15T19:21:42.02</time>
      </trkpt>
      <trkpt lat="44.18145" lon="5.2712">
        <ele>1542.5</ele>
        <time>2010-04-15T19:21:43.02</time>
      </trkpt>
      <trkpt lat="44.18144" lon="5.2712">
        <ele>1542.5</ele>
        <time>2010-04-15T19:21:44.01</time>
      </trkpt>
      <trkpt lat="44.18144" lon="5.27121">
        <ele>1543</ele>
        <time>2010-04-15T19:21:45.01</time>
      </trkpt>
      <trkpt lat="44.18143" lon="5.27122">
        <ele>1543</ele>
        <time>2010-04-15T19:21:46.01</time>
      </trkpt>
      <trkpt lat="44.18143" lon="5.27123">
        <ele>1543</ele>
        <time>2010-04-15T19:21:47.01</time>
      </trkpt>
      <trkpt lat="44.18142" lon="5.27124">
        <ele>1543.5</ele>
        <time>2010-04-15T19:21:48.01</time>
      </trkpt>
      <trkpt lat="44.18142" lon="5.27124">
        <ele>1543.5</ele>
        <time>2010-04-15T19:21:49.01</time>
      </trkpt>
      <trkpt lat="44.18142" lon="5.27126">
        <ele>1544</ele>
        <time>2010-04-15T19:21:50.01</time>
      </trkpt>
      <trkpt lat="44.18141" lon="5.27127">
        <ele>1544</ele>
        <time>2010-04-15T19:21:51.01</time>
      </trkpt>
      <trkpt lat="44.18141" lon="5.27128">
        <ele>1544</ele>
        <time>2010-04-15T19:21:52.01</time>
      </trkpt>
      <trkpt lat="44.18141" lon="5.27128">
        <ele>1544.5</ele>
        <time>2010-04-15T19:21:53.01</time>
      </trkpt>
      <trkpt lat="44.1814" lon="5.27129">
        <ele>1544.5</ele>
        <time>2010-04-15T19:21:54.01</time>
      </trkpt>
      <trkpt lat="44.1814" lon="5.2713">
        <ele>1545</ele>
        <time>2010-04-15T19:21:55.01</time>
      </trkpt>
      <trkpt lat="44.18139" lon="5.27131">
        <ele>1545</ele>
        <time>2010-04-15T19:21:56.01</time>
      </trkpt>
      <trkpt lat="44.18139" lon="5.27132">
        <ele>1545</ele>
        <time>2010-04-15T19:21:57.01</time>
      </trkpt>
      <trkpt lat="44.18139" lon="5.27133">
        <ele>1545.5</ele>
        <time>2010-04-15T19:21:58.01</time>
      </trkpt>
      <trkpt lat="44.18138" lon="5.27134">
        <ele>1545.5</ele>
        <time>2010-04-15T19:21:59.01</time>
      </trkpt>
      <trkpt lat="44.18138" lon="5.27135">
        <ele>1546</ele>
        <time>2010-04-15T19:22:00.00</time>
      </trkpt>
      <trkpt lat="44.18137" lon="5.27136">
        <ele>1546</ele>
        <time>2010-04-15T19:22:01.00</time>
      </trkpt>
      <trkpt lat="44.18137" lon="5.27137">
        <ele>1546.5</ele>
        <time>2010-04-15T19:22:02.00</time>
      </trkpt>
      <trkpt lat="44.18137" lon="5.27138">
        <ele>1547</ele>
        <time>2010-04-15T19:22:03.00</time>
      </trkpt>
      <trkpt lat="44.18137" lon="5.27139">
        <ele>1547</ele>
        <time>2010-04-15T19:22:04.00</time>
      </trkpt>
      <trkpt lat="44.18137" lon="5.2714">
        <ele>1547</ele>
        <time>2010-04-15T19:22:05.00</time>
      </trkpt>
      <trkpt lat="44.18136" lon="5.27141">
        <ele>1547.5</ele>
        <time>2010-04-15T19:22:06.00</time>
      </trkpt>
      <trkpt lat="44.18136" lon="5.27142">
        <ele>1547.5</ele>
        <time>2010-04-15T19:22:07.00</time>
      </trkpt>
      <trkpt lat="44.18136" lon="5.27143">
        <ele>1548</ele>
        <time>2010-04-15T19:22:08.00</time>
      </trkpt>
      <trkpt lat="44.18136" lon="5.27144">
        <ele>1548.5</ele>
        <time>2010-04-15T19:22:09.00</time>
      </trkpt>
      <trkpt lat="44.18135" lon="5.27145">
        <ele>1548.5</ele>
        <time>2010-04-15T19:22:10.00</time>
      </trkpt>
      <trkpt lat="44.18135" lon="5.27146">
        <ele>1549</ele>
        <time>2010-04-15T19:22:11.00</time>
      </trkpt>
      <trkpt lat="44.18135" lon="5.27147">
        <ele>1549</ele>
        <time>2010-04-15T19:22:12.00</time>
      </trkpt>
      <trkpt lat="44.18135" lon="5.27148">
        <ele>1549</ele>
        <time>2010-04-15T19:22:13.00</time>
      </trkpt>
      <trkpt lat="44.18134" lon="5.27149">
        <ele>1549.5</ele>
        <time>2010-04-15T19:22:14.00</time>
      </trkpt>
      <trkpt lat="44.18134" lon="5.2715">
        <ele>1549.5</ele>
        <time>2010-04-15T19:22:15.00</time>
      </trkpt>
      <trkpt lat="44.18134" lon="5.27151">
        <ele>1549.5</ele>
        <time>2010-04-15T19:22:16.00</time>
      </trkpt>
      <trkpt lat="44.18133" lon="5.27152">
        <ele>1549.5</ele>
        <time>2010-04-15T19:22:17.00</time>
      </trkpt>
      <trkpt lat="44.18132" lon="5.27152">
        <ele>1550</ele>
        <time>2010-04-15T19:22:17.99</time>
      </trkpt>
      <trkpt lat="44.18132" lon="5.27152">
        <ele>1550</ele>
        <time>2010-04-15T19:22:18.99</time>
      </trkpt>
      <trkpt lat="44.18131" lon="5.27152">
        <ele>1550.5</ele>
        <time>2010-04-15T19:22:19.99</time>
      </trkpt>
      <trkpt lat="44.1813" lon="5.27152">
        <ele>1550.5</ele>
        <time>2010-04-15T19:22:20.99</time>
      </trkpt>
      <trkpt lat="44.18129" lon="5.27152">
        <ele>1550.5</ele>
        <time>2010-04-15T19:22:21.99</time>
      </trkpt>
      <trkpt lat="44.18128" lon="5.27152">
        <ele>1551</ele>
        <time>2010-04-15T19:22:22.99</time>
      </trkpt>
      <trkpt lat="44.18128" lon="5.27152">
        <ele>1551</ele>
        <time>2010-04-15T19:22:23.99</time>
      </trkpt>
      <trkpt lat="44.18127" lon="5.27152">
        <ele>1551.5</ele>
        <time>2010-04-15T19:22:24.99</time>
      </trkpt>
      <trkpt lat="44.18126" lon="5.27152">
        <ele>1552</ele>
        <time>2010-04-15T19:22:25.99</time>
      </trkpt>
      <trkpt lat="44.18126" lon="5.27152">
        <ele>1552</ele>
        <time>2010-04-15T19:22:26.99</time>
      </trkpt>
      <trkpt lat="44.18125" lon="5.27152">
        <ele>1552.5</ele>
        <time>2010-04-15T19:22:27.99</time>
      </trkpt>
      <trkpt lat="44.18124" lon="5.27152">
        <ele>1552.5</ele>
        <time>2010-04-15T19:22:28.99</time>
      </trkpt>
      <trkpt lat="44.18123" lon="5.27152">
        <ele>1553</ele>
        <time>2010-04-15T19:22:29.99</time>
      </trkpt>
      <trkpt lat="44.18123" lon="5.27151">
        <ele>1553</ele>
        <time>2010-04-15T19:22:30.99</time>
      </trkpt>
      <trkpt lat="44.18122" lon="5.27151">
        <ele>1553.5</ele>
        <time>2010-04-15T19:22:31.99</time>
      </trkpt>
      <trkpt lat="44.18121" lon="5.27151">
        <ele>1553.5</ele>
        <time>2010-04-15T19:22:32.99</time>
      </trkpt>
      <trkpt lat="44.1812" lon="5.2715">
        <ele>1554</ele>
        <time>2010-04-15T19:22:33.98</time>
      </trkpt>
      <trkpt lat="44.1812" lon="5.2715">
        <ele>1554</ele>
        <time>2010-04-15T19:22:34.98</time>
      </trkpt>
      <trkpt lat="44.18119" lon="5.2715">
        <ele>1554.5</ele>
        <time>2010-04-15T19:22:35.98</time>
      </trkpt>
      <trkpt lat="44.18118" lon="5.27151">
        <ele>1555</ele>
        <time>2010-04-15T19:22:36.98</time>
      </trkpt>
      <trkpt lat="44.18118" lon="5.27152">
        <ele>1555</ele>
        <time>2010-04-15T19:22:37.98</time>
      </trkpt>
      <trkpt lat="44.18117" lon="5.27153">
        <ele>1555.5</ele>
        <time>2010-04-15T19:22:38.98</time>
      </trkpt>
      <trkpt lat="44.18117" lon="5.27154">
        <ele>1555.5</ele>
        <time>2010-04-15T19:22:39.98</time>
      </trkpt>
      <trkpt lat="44.18116" lon="5.27154">
        <ele>1555.5</ele>
        <time>2010-04-15T19:22:40.98</time>
      </trkpt>
      <trkpt lat="44.18116" lon="5.27155">
        <ele>1555.5</ele>
        <time>2010-04-15T19:22:41.98</time>
      </trkpt>
      <trkpt lat="44.18116" lon="5.27156">
        <ele>1556</ele>
        <time>2010-04-15T19:22:42.99</time>
      </trkpt>
      <trkpt lat="44.18115" lon="5.27157">
        <ele>1556.5</ele>
        <time>2010-04-15T19:22:43.98</time>
      </trkpt>
      <trkpt lat="44.18115" lon="5.27158">
        <ele>1556.5</ele>
        <time>2010-04-15T19:22:44.98</time>
      </trkpt>
      <trkpt lat="44.18114" lon="5.27159">
        <ele>1557</ele>
        <time>2010-04-15T19:22:45.98</time>
      </trkpt>
      <trkpt lat="44.18114" lon="5.27159">
        <ele>1557</ele>
        <time>2010-04-15T19:22:46.98</time>
      </trkpt>
      <trkpt lat="44.18113" lon="5.2716">
        <ele>1557</ele>
        <time>2010-04-15T19:22:47.98</time>
      </trkpt>
      <trkpt lat="44.18113" lon="5.27161">
        <ele>1557</ele>
        <time>2010-04-15T19:22:48.98</time>
      </trkpt>
      <trkpt lat="44.18112" lon="5.27162">
        <ele>1557</ele>
        <time>2010-04-15T19:22:49.98</time>
      </trkpt>
      <trkpt lat="44.18112" lon="5.27162">
        <ele>1557.5</ele>
        <time>2010-04-15T19:22:50.97</time>
      </trkpt>
      <trkpt lat="44.18111" lon="5.27163">
        <ele>1557.5</ele>
        <time>2010-04-15T19:22:51.98</time>
      </trkpt>
      <trkpt lat="44.18111" lon="5.27164">
        <ele>1557.5</ele>
        <time>2010-04-15T19:22:52.97</time>
      </trkpt>
      <trkpt lat="44.18111" lon="5.27165">
        <ele>1557.5</ele>
        <time>2010-04-15T19:22:53.97</time>
      </trkpt>
      <trkpt lat="44.1811" lon="5.27165">
        <ele>1558</ele>
        <time>2010-04-15T19:22:54.97</time>
      </trkpt>
      <trkpt lat="44.1811" lon="5.27166">
        <ele>1558</ele>
        <time>2010-04-15T19:22:55.97</time>
      </trkpt>
      <trkpt lat="44.1811" lon="5.27167">
        <ele>1558</ele>
        <time>2010-04-15T19:22:56.97</time>
      </trkpt>
      <trkpt lat="44.18109" lon="5.27168">
        <ele>1558.5</ele>
        <time>2010-04-15T19:22:57.97</time>
      </trkpt>
      <trkpt lat="44.18109" lon="5.27169">
        <ele>1558.5</ele>
        <time>2010-04-15T19:22:58.97</time>
      </trkpt>
      <trkpt lat="44.18109" lon="5.2717">
        <ele>1558.5</ele>
        <time>2010-04-15T19:22:59.97</time>
      </trkpt>
      <trkpt lat="44.18108" lon="5.27171">
        <ele>1559</ele>
        <time>2010-04-15T19:23:00.97</time>
      </trkpt>
      <trkpt lat="44.18108" lon="5.27171">
        <ele>1559</ele>
        <time>2010-04-15T19:23:01.97</time>
      </trkpt>
      <trkpt lat="44.18107" lon="5.27172">
        <ele>1559</ele>
        <time>2010-04-15T19:23:02.97</time>
      </trkpt>
      <trkpt lat="44.18107" lon="5.27173">
        <ele>1559.5</ele>
        <time>2010-04-15T19:23:03.97</time>
      </trkpt>
      <trkpt lat="44.18106" lon="5.27174">
        <ele>1559.5</ele>
        <time>2010-04-15T19:23:04.97</time>
      </trkpt>
      <trkpt lat="44.18106" lon="5.27175">
        <ele>1559.5</ele>
        <time>2010-04-15T19:23:05.97</time>
      </trkpt>
      <trkpt lat="44.18105" lon="5.27176">
        <ele>1559.5</ele>
        <time>2010-04-15T19:23:06.97</time>
      </trkpt>
      <trkpt lat="44.18105" lon="5.27177">
        <ele>1560</ele>
        <time>2010-04-15T19:23:07.96</time>
      </trkpt>
      <trkpt lat="44.18104" lon="5.27177">
        <ele>1560</ele>
        <time>2010-04-15T19:23:08.96</time>
      </trkpt>
      <trkpt lat="44.18104" lon="5.27178">
        <ele>1560</ele>
        <time>2010-04-15T19:23:09.96</time>
      </trkpt>
      <trkpt lat="44.18103" lon="5.27178">
        <ele>1560.5</ele>
        <time>2010-04-15T19:23:10.96</time>
      </trkpt>
      <trkpt lat="44.18102" lon="5.27178">
        <ele>1560.5</ele>
        <time>2010-04-15T19:23:11.96</time>
      </trkpt>
      <trkpt lat="44.18102" lon="5.27177">
        <ele>1560.5</ele>
        <time>2010-04-15T19:23:12.96</time>
      </trkpt>
      <trkpt lat="44.18101" lon="5.27177">
        <ele>1561</ele>
        <time>2010-04-15T19:23:13.96</time>
      </trkpt>
      <trkpt lat="44.181" lon="5.27177">
        <ele>1561</ele>
        <time>2010-04-15T19:23:14.96</time>
      </trkpt>
      <trkpt lat="44.18099" lon="5.27177">
        <ele>1561.5</ele>
        <time>2010-04-15T19:23:15.96</time>
      </trkpt>
      <trkpt lat="44.18098" lon="5.27177">
        <ele>1561.5</ele>
        <time>2010-04-15T19:23:16.96</time>
      </trkpt>
      <trkpt lat="44.18098" lon="5.27176">
        <ele>1562</ele>
        <time>2010-04-15T19:23:17.96</time>
      </trkpt>
      <trkpt lat="44.18097" lon="5.27176">
        <ele>1562</ele>
        <time>2010-04-15T19:23:18.96</time>
      </trkpt>
      <trkpt lat="44.18096" lon="5.27176">
        <ele>1562.5</ele>
        <time>2010-04-15T19:23:19.96</time>
      </trkpt>
      <trkpt lat="44.18096" lon="5.27176">
        <ele>1562.5</ele>
        <time>2010-04-15T19:23:20.96</time>
      </trkpt>
      <trkpt lat="44.18095" lon="5.27176">
        <ele>1563</ele>
        <time>2010-04-15T19:23:21.96</time>
      </trkpt>
      <trkpt lat="44.18094" lon="5.27176">
        <ele>1563</ele>
        <time>2010-04-15T19:23:22.96</time>
      </trkpt>
      <trkpt lat="44.18094" lon="5.27175">
        <ele>1563.5</ele>
        <time>2010-04-15T19:23:23.95</time>
      </trkpt>
      <trkpt lat="44.18093" lon="5.27175">
        <ele>1563.5</ele>
        <time>2010-04-15T19:23:24.95</time>
      </trkpt>
      <trkpt lat="44.18092" lon="5.27175">
        <ele>1563.5</ele>
        <time>2010-04-15T19:23:25.95</time>
      </trkpt>
      <trkpt lat="44.18091" lon="5.27174">
        <ele>1564</ele>
        <time>2010-04-15T19:23:26.95</time>
      </trkpt>
      <trkpt lat="44.18091" lon="5.27174">
        <ele>1564</ele>
        <time>2010-04-15T19:23:27.95</time>
      </trkpt>
      <trkpt lat="44.1809" lon="5.27174">
        <ele>1564</ele>
        <time>2010-04-15T19:23:28.95</time>
      </trkpt>
      <trkpt lat="44.18089" lon="5.27174">
        <ele>1564.5</ele>
        <time>2010-04-15T19:23:29.95</time>
      </trkpt>
      <trkpt lat="44.18088" lon="5.27173">
        <ele>1564.5</ele>
        <time>2010-04-15T19:23:30.95</time>
      </trkpt>
      <trkpt lat="44.18088" lon="5.27173">
        <ele>1565</ele>
        <time>2010-04-15T19:23:31.95</time>
      </trkpt>
      <trkpt lat="44.18087" lon="5.27173">
        <ele>1565</ele>
        <time>2010-04-15T19:23:32.95</time>
      </trkpt>
      <trkpt lat="44.18086" lon="5.27173">
        <ele>1565</ele>
        <time>2010-04-15T19:23:33.95</time>
      </trkpt>
      <trkpt lat="44.18086" lon="5.27173">
        <ele>1565.5</ele>
        <time>2010-04-15T19:23:34.95</time>
      </trkpt>
      <trkpt lat="44.18085" lon="5.27172">
        <ele>1566</ele>
        <time>2010-04-15T19:23:35.95</time>
      </trkpt>
      <trkpt lat="44.18084" lon="5.27172">
        <ele>1566</ele>
        <time>2010-04-15T19:23:36.95</time>
      </trkpt>
      <trkpt lat="44.18084" lon="5.27172">
        <ele>1566.5</ele>
        <time>2010-04-15T19:23:37.95</time>
      </trkpt>
      <trkpt lat="44.18083" lon="5.27172">
        <ele>1566.5</ele>
        <time>2010-04-15T19:23:38.95</time>
      </trkpt>
      <trkpt lat="44.18083" lon="5.27172">
        <ele>1567</ele>
        <time>2010-04-15T19:23:39.95</time>
      </trkpt>
      <trkpt lat="44.18082" lon="5.27172">
        <ele>1566.5</ele>
        <time>2010-04-15T19:23:40.94</time>
      </trkpt>
      <trkpt lat="44.18081" lon="5.27173">
        <ele>1566.5</ele>
        <time>2010-04-15T19:23:41.94</time>
      </trkpt>
      <trkpt lat="44.18081" lon="5.27174">
        <ele>1567</ele>
        <time>2010-04-15T19:23:42.95</time>
      </trkpt>
      <trkpt lat="44.18081" lon="5.27175">
        <ele>1567.5</ele>
        <time>2010-04-15T19:23:43.94</time>
      </trkpt>
      <trkpt lat="44.1808" lon="5.27176">
        <ele>1567.5</ele>
        <time>2010-04-15T19:23:44.94</time>
      </trkpt>
      <trkpt lat="44.1808" lon="5.27177">
        <ele>1568</ele>
        <time>2010-04-15T19:23:45.94</time>
      </trkpt>
      <trkpt lat="44.1808" lon="5.27178">
        <ele>1568</ele>
        <time>2010-04-15T19:23:46.94</time>
      </trkpt>
      <trkpt lat="44.1808" lon="5.27179">
        <ele>1568</ele>
        <time>2010-04-15T19:23:47.94</time>
      </trkpt>
      <trkpt lat="44.1808" lon="5.2718">
        <ele>1568.5</ele>
        <time>2010-04-15T19:23:48.94</time>
      </trkpt>
      <trkpt lat="44.1808" lon="5.27181">
        <ele>1568.5</ele>
        <time>2010-04-15T19:23:49.94</time>
      </trkpt>
      <trkpt lat="44.18079" lon="5.27182">
        <ele>1569</ele>
        <time>2010-04-15T19:23:50.94</time>
      </trkpt>
      <trkpt lat="44.18079" lon="5.27183">
        <ele>1569</ele>
        <time>2010-04-15T19:23:51.94</time>
      </trkpt>
      <trkpt lat="44.18079" lon="5.27184">
        <ele>1569.5</ele>
        <time>2010-04-15T19:23:52.94</time>
      </trkpt>
      <trkpt lat="44.18078" lon="5.27185">
        <ele>1569.5</ele>
        <time>2010-04-15T19:23:53.94</time>
      </trkpt>
      <trkpt lat="44.18078" lon="5.27186">
        <ele>1570</ele>
        <time>2010-04-15T19:23:54.94</time>
      </trkpt>
      <trkpt lat="44.18078" lon="5.27187">
        <ele>1570.5</ele>
        <time>2010-04-15T19:23:55.94</time>
      </trkpt>
      <trkpt lat="44.18078" lon="5.27188">
        <ele>1570.5</ele>
        <time>2010-04-15T19:23:56.93</time>
      </trkpt>
      <trkpt lat="44.18078" lon="5.27189">
        <ele>1571</ele>
        <time>2010-04-15T19:23:57.93</time>
      </trkpt>
      <trkpt lat="44.18078" lon="5.2719">
        <ele>1571</ele>
        <time>2010-04-15T19:23:58.93</time>
      </trkpt>
      <trkpt lat="44.18078" lon="5.27191">
        <ele>1571.5</ele>
        <time>2010-04-15T19:23:59.93</time>
      </trkpt>
      <trkpt lat="44.18077" lon="5.27192">
        <ele>1571.5</ele>
        <time>2010-04-15T19:24:00.93</time>
      </trkpt>
      <trkpt lat="44.18077" lon="5.27193">
        <ele>1572</ele>
        <time>2010-04-15T19:24:01.93</time>
      </trkpt>
      <trkpt lat="44.18077" lon="5.27194">
        <ele>1572.5</ele>
        <time>2010-04-15T19:24:02.93</time>
      </trkpt>
      <trkpt lat="44.18077" lon="5.27195">
        <ele>1572.5</ele>
        <time>2010-04-15T19:24:03.93</time>
      </trkpt>
      <trkpt lat="44.18076" lon="5.27196">
        <ele>1573</ele>
        <time>2010-04-15T19:24:04.93</time>
      </trkpt>
      <trkpt lat="44.18076" lon="5.27196">
        <ele>1573</ele>
        <time>2010-04-15T19:24:05.93</time>
      </trkpt>
      <trkpt lat="44.18075" lon="5.27197">
        <ele>1573.5</ele>
        <time>2010-04-15T19:24:06.93</time>
      </trkpt>
      <trkpt lat="44.18075" lon="5.27197">
        <ele>1573.5</ele>
        <time>2010-04-15T19:24:07.93</time>
      </trkpt>
      <trkpt lat="44.18074" lon="5.27197">
        <ele>1574</ele>
        <time>2010-04-15T19:24:08.93</time>
      </trkpt>
      <trkpt lat="44.18074" lon="5.27197">
        <ele>1574.5</ele>
        <time>2010-04-15T19:24:09.93</time>
      </trkpt>
      <trkpt lat="44.18073" lon="5.27197">
        <ele>1574.5</ele>
        <time>2010-04-15T19:24:10.93</time>
      </trkpt>
      <trkpt lat="44.18072" lon="5.27197">
        <ele>1575</ele>
        <time>2010-04-15T19:24:11.93</time>
      </trkpt>
      <trkpt lat="44.18071" lon="5.27197">
        <ele>1575.5</ele>
        <time>2010-04-15T19:24:12.93</time>
      </trkpt>
      <trkpt lat="44.18071" lon="5.27197">
        <ele>1575.5</ele>
        <time>2010-04-15T19:24:13.92</time>
      </trkpt>
      <trkpt lat="44.1807" lon="5.27196">
        <ele>1575.5</ele>
        <time>2010-04-15T19:24:14.92</time>
      </trkpt>
      <trkpt lat="44.18069" lon="5.27196">
        <ele>1576</ele>
        <time>2010-04-15T19:24:15.92</time>
      </trkpt>
      <trkpt lat="44.18069" lon="5.27196">
        <ele>1576</ele>
        <time>2010-04-15T19:24:16.92</time>
      </trkpt>
      <trkpt lat="44.18068" lon="5.27196">
        <ele>1576.5</ele>
        <time>2010-04-15T19:24:17.92</time>
      </trkpt>
      <trkpt lat="44.18067" lon="5.27196">
        <ele>1576.5</ele>
        <time>2010-04-15T19:24:18.92</time>
      </trkpt>
      <trkpt lat="44.18066" lon="5.27196">
        <ele>1577</ele>
        <time>2010-04-15T19:24:19.92</time>
      </trkpt>
      <trkpt lat="44.18066" lon="5.27196">
        <ele>1577</ele>
        <time>2010-04-15T19:24:20.92</time>
      </trkpt>
      <trkpt lat="44.18065" lon="5.27195">
        <ele>1577.5</ele>
        <time>2010-04-15T19:24:21.92</time>
      </trkpt>
      <trkpt lat="44.18064" lon="5.27195">
        <ele>1577.5</ele>
        <time>2010-04-15T19:24:22.92</time>
      </trkpt>
      <trkpt lat="44.18064" lon="5.27195">
        <ele>1578</ele>
        <time>2010-04-15T19:24:23.92</time>
      </trkpt>
      <trkpt lat="44.18063" lon="5.27195">
        <ele>1578</ele>
        <time>2010-04-15T19:24:24.92</time>
      </trkpt>
      <trkpt lat="44.18062" lon="5.27195">
        <ele>1578.5</ele>
        <time>2010-04-15T19:24:25.92</time>
      </trkpt>
      <trkpt lat="44.18062" lon="5.27195">
        <ele>1578.5</ele>
        <time>2010-04-15T19:24:26.92</time>
      </trkpt>
      <trkpt lat="44.18061" lon="5.27195">
        <ele>1579</ele>
        <time>2010-04-15T19:24:27.92</time>
      </trkpt>
      <trkpt lat="44.1806" lon="5.27195">
        <ele>1579</ele>
        <time>2010-04-15T19:24:28.92</time>
      </trkpt>
      <trkpt lat="44.1806" lon="5.27195">
        <ele>1579.5</ele>
        <time>2010-04-15T19:24:29.92</time>
      </trkpt>
      <trkpt lat="44.18059" lon="5.27195">
        <ele>1579.5</ele>
        <time>2010-04-15T19:24:30.91</time>
      </trkpt>
      <trkpt lat="44.18058" lon="5.27195">
        <ele>1580</ele>
        <time>2010-04-15T19:24:31.91</time>
      </trkpt>
      <trkpt lat="44.18057" lon="5.27195">
        <ele>1580</ele>
        <time>2010-04-15T19:24:32.91</time>
      </trkpt>
      <trkpt lat="44.18056" lon="5.27194">
        <ele>1580</ele>
        <time>2010-04-15T19:24:33.92</time>
      </trkpt>
      <trkpt lat="44.18056" lon="5.27194">
        <ele>1580.5</ele>
        <time>2010-04-15T19:24:34.91</time>
      </trkpt>
      <trkpt lat="44.18055" lon="5.27194">
        <ele>1580.5</ele>
        <time>2010-04-15T19:24:35.91</time>
      </trkpt>
      <trkpt lat="44.18056" lon="5.27194">
        <ele>1580.5</ele>
        <time>2010-04-15T19:24:36.91</time>
      </trkpt>
      <trkpt lat="44.18056" lon="5.27194">
        <ele>1580.5</ele>
        <time>2010-04-15T19:24:37.91</time>
      </trkpt>
      <trkpt lat="44.18055" lon="5.27194">
        <ele>1580.5</ele>
        <time>2010-04-15T19:24:38.91</time>
      </trkpt>
      <trkpt lat="44.18054" lon="5.27194">
        <ele>1581</ele>
        <time>2010-04-15T19:24:39.91</time>
      </trkpt>
      <trkpt lat="44.18054" lon="5.27194">
        <ele>1581</ele>
        <time>2010-04-15T19:24:40.91</time>
      </trkpt>
      <trkpt lat="44.18053" lon="5.27194">
        <ele>1581.5</ele>
        <time>2010-04-15T19:24:41.91</time>
      </trkpt>
      <trkpt lat="44.18052" lon="5.27194">
        <ele>1581.5</ele>
        <time>2010-04-15T19:24:42.91</time>
      </trkpt>
      <trkpt lat="44.18051" lon="5.27194">
        <ele>1582</ele>
        <time>2010-04-15T19:24:43.91</time>
      </trkpt>
      <trkpt lat="44.18051" lon="5.27194">
        <ele>1582.5</ele>
        <time>2010-04-15T19:24:44.91</time>
      </trkpt>
      <trkpt lat="44.1805" lon="5.27194">
        <ele>1583</ele>
        <time>2010-04-15T19:24:45.90</time>
      </trkpt>
      <trkpt lat="44.18049" lon="5.27194">
        <ele>1583</ele>
        <time>2010-04-15T19:24:46.90</time>
      </trkpt>
      <trkpt lat="44.18049" lon="5.27193">
        <ele>1583.5</ele>
        <time>2010-04-15T19:24:47.91</time>
      </trkpt>
      <trkpt lat="44.18048" lon="5.27193">
        <ele>1583.5</ele>
        <time>2010-04-15T19:24:48.90</time>
      </trkpt>
      <trkpt lat="44.18047" lon="5.27193">
        <ele>1584</ele>
        <time>2010-04-15T19:24:49.90</time>
      </trkpt>
      <trkpt lat="44.18046" lon="5.27192">
        <ele>1584</ele>
        <time>2010-04-15T19:24:50.90</time>
      </trkpt>
      <trkpt lat="44.18045" lon="5.27192">
        <ele>1584</ele>
        <time>2010-04-15T19:24:51.90</time>
      </trkpt>
      <trkpt lat="44.18045" lon="5.27192">
        <ele>1584.5</ele>
        <time>2010-04-15T19:24:52.90</time>
      </trkpt>
      <trkpt lat="44.18044" lon="5.27192">
        <ele>1585</ele>
        <time>2010-04-15T19:24:53.90</time>
      </trkpt>
      <trkpt lat="44.18043" lon="5.27191">
        <ele>1585</ele>
        <time>2010-04-15T19:24:54.90</time>
      </trkpt>
      <trkpt lat="44.18043" lon="5.27191">
        <ele>1585.5</ele>
        <time>2010-04-15T19:24:55.90</time>
      </trkpt>
      <trkpt lat="44.18042" lon="5.27191">
        <ele>1585.5</ele>
        <time>2010-04-15T19:24:56.90</time>
      </trkpt>
      <trkpt lat="44.18041" lon="5.27191">
        <ele>1586</ele>
        <time>2010-04-15T19:24:57.90</time>
      </trkpt>
      <trkpt lat="44.18041" lon="5.2719">
        <ele>1586</ele>
        <time>2010-04-15T19:24:58.90</time>
      </trkpt>
      <trkpt lat="44.18041" lon="5.2719">
        <ele>1586</ele>
        <time>2010-04-15T19:24:59.90</time>
      </trkpt>
      <trkpt lat="44.18041" lon="5.2719">
        <ele>1586</ele>
        <time>2010-04-15T19:25:00.90</time>
      </trkpt>
      <trkpt lat="44.1804" lon="5.2719">
        <ele>1586</ele>
        <time>2010-04-15T19:25:01.90</time>
      </trkpt>
      <trkpt lat="44.18039" lon="5.2719">
        <ele>1586</ele>
        <time>2010-04-15T19:25:02.90</time>
      </trkpt>
      <trkpt lat="44.18039" lon="5.2719">
        <ele>1586.5</ele>
        <time>2010-04-15T19:25:03.89</time>
      </trkpt>
      <trkpt lat="44.18038" lon="5.27189">
        <ele>1586.5</ele>
        <time>2010-04-15T19:25:04.89</time>
      </trkpt>
      <trkpt lat="44.18037" lon="5.27189">
        <ele>1587</ele>
        <time>2010-04-15T19:25:05.90</time>
      </trkpt>
      <trkpt lat="44.18037" lon="5.27189">
        <ele>1587</ele>
        <time>2010-04-15T19:25:06.89</time>
      </trkpt>
      <trkpt lat="44.18036" lon="5.27188">
        <ele>1587</ele>
        <time>2010-04-15T19:25:07.89</time>
      </trkpt>
      <trkpt lat="44.18036" lon="5.27188">
        <ele>1587</ele>
        <time>2010-04-15T19:25:08.89</time>
      </trkpt>
      <trkpt lat="44.18036" lon="5.27188">
        <ele>1587</ele>
        <time>2010-04-15T19:25:09.89</time>
      </trkpt>
      <trkpt lat="44.18036" lon="5.27188">
        <ele>1587</ele>
        <time>2010-04-15T19:25:10.89</time>
      </trkpt>
      <trkpt lat="44.18036" lon="5.27188">
        <ele>1587</ele>
        <time>2010-04-15T19:25:11.89</time>
      </trkpt>
      <trkpt lat="44.18036" lon="5.27188">
        <ele>1587</ele>
        <time>2010-04-15T19:25:12.89</time>
      </trkpt>
      <trkpt lat="44.18036" lon="5.27188">
        <ele>1587</ele>
        <time>2010-04-15T19:25:13.89</time>
      </trkpt>
      <trkpt lat="44.18036" lon="5.27188">
        <ele>1587</ele>
        <time>2010-04-15T19:25:14.89</time>
      </trkpt>
      <trkpt lat="44.18036" lon="5.27188">
        <ele>1587</ele>
        <time>2010-04-15T19:25:15.89</time>
      </trkpt>
      <trkpt lat="44.18036" lon="5.27188">
        <ele>1587</ele>
        <time>2010-04-15T19:25:16.89</time>
      </trkpt>
      <trkpt lat="44.18035" lon="5.27188">
        <ele>1587</ele>
        <time>2010-04-15T19:25:17.89</time>
      </trkpt>
      <trkpt lat="44.18034" lon="5.27188">
        <ele>1587.5</ele>
        <time>2010-04-15T19:25:18.89</time>
      </trkpt>
      <trkpt lat="44.18033" lon="5.27187">
        <ele>1587.5</ele>
        <time>2010-04-15T19:25:19.88</time>
      </trkpt>
      <trkpt lat="44.18032" lon="5.27187">
        <ele>1587.5</ele>
        <time>2010-04-15T19:25:20.88</time>
      </trkpt>
      <trkpt lat="44.18032" lon="5.27187">
        <ele>1588</ele>
        <time>2010-04-15T19:25:21.88</time>
      </trkpt>
      <trkpt lat="44.1803" lon="5.27188">
        <ele>1588</ele>
        <time>2010-04-15T19:25:22.88</time>
      </trkpt>
      <trkpt lat="44.1803" lon="5.27188">
        <ele>1588</ele>
        <time>2010-04-15T19:25:23.88</time>
      </trkpt>
      <trkpt lat="44.18029" lon="5.2719">
        <ele>1588.5</ele>
        <time>2010-04-15T19:25:24.88</time>
      </trkpt>
      <trkpt lat="44.18029" lon="5.27191">
        <ele>1589</ele>
        <time>2010-04-15T19:25:25.88</time>
      </trkpt>
      <trkpt lat="44.18029" lon="5.27192">
        <ele>1589</ele>
        <time>2010-04-15T19:25:26.88</time>
      </trkpt>
      <trkpt lat="44.18029" lon="5.27193">
        <ele>1589</ele>
        <time>2010-04-15T19:25:27.88</time>
      </trkpt>
      <trkpt lat="44.18028" lon="5.27195">
        <ele>1589.5</ele>
        <time>2010-04-15T19:25:28.88</time>
      </trkpt>
      <trkpt lat="44.18028" lon="5.27196">
        <ele>1589.5</ele>
        <time>2010-04-15T19:25:29.88</time>
      </trkpt>
      <trkpt lat="44.18028" lon="5.27197">
        <ele>1589.5</ele>
        <time>2010-04-15T19:25:30.88</time>
      </trkpt>
      <trkpt lat="44.18028" lon="5.27199">
        <ele>1589.5</ele>
        <time>2010-04-15T19:25:31.88</time>
      </trkpt>
      <trkpt lat="44.18028" lon="5.272">
        <ele>1590</ele>
        <time>2010-04-15T19:25:32.88</time>
      </trkpt>
      <trkpt lat="44.18027" lon="5.27201">
        <ele>1590</ele>
        <time>2010-04-15T19:25:33.88</time>
      </trkpt>
      <trkpt lat="44.18027" lon="5.27203">
        <ele>1590.5</ele>
        <time>2010-04-15T19:25:34.88</time>
      </trkpt>
      <trkpt lat="44.18027" lon="5.27204">
        <ele>1590.5</ele>
        <time>2010-04-15T19:25:35.88</time>
      </trkpt>
      <trkpt lat="44.18028" lon="5.27206">
        <ele>1592</ele>
        <time>2010-04-15T19:25:36.88</time>
      </trkpt>
      <trkpt lat="44.18028" lon="5.27208">
        <ele>1592.5</ele>
        <time>2010-04-15T19:25:37.87</time>
      </trkpt>
      <trkpt lat="44.18028" lon="5.27209">
        <ele>1592.5</ele>
        <time>2010-04-15T19:25:38.87</time>
      </trkpt>
      <trkpt lat="44.18028" lon="5.2721">
        <ele>1593</ele>
        <time>2010-04-15T19:25:39.87</time>
      </trkpt>
      <trkpt lat="44.18027" lon="5.27212">
        <ele>1593</ele>
        <time>2010-04-15T19:25:40.87</time>
      </trkpt>
      <trkpt lat="44.18027" lon="5.27213">
        <ele>1593.5</ele>
        <time>2010-04-15T19:25:41.86</time>
      </trkpt>
      <trkpt lat="44.18027" lon="5.27214">
        <ele>1594</ele>
        <time>2010-04-15T19:25:42.87</time>
      </trkpt>
      <trkpt lat="44.18027" lon="5.27215">
        <ele>1594.5</ele>
        <time>2010-04-15T19:25:43.86</time>
      </trkpt>
      <trkpt lat="44.18027" lon="5.27217">
        <ele>1594.5</ele>
        <time>2010-04-15T19:25:44.86</time>
      </trkpt>
      <trkpt lat="44.18026" lon="5.27218">
        <ele>1595</ele>
        <time>2010-04-15T19:25:45.87</time>
      </trkpt>
      <trkpt lat="44.18026" lon="5.27219">
        <ele>1595</ele>
        <time>2010-04-15T19:25:46.86</time>
      </trkpt>
      <trkpt lat="44.18026" lon="5.2722">
        <ele>1595.5</ele>
        <time>2010-04-15T19:25:47.86</time>
      </trkpt>
      <trkpt lat="44.18025" lon="5.27221">
        <ele>1595.5</ele>
        <time>2010-04-15T19:25:48.86</time>
      </trkpt>
      <trkpt lat="44.18025" lon="5.27223">
        <ele>1595.5</ele>
        <time>2010-04-15T19:25:49.86</time>
      </trkpt>
      <trkpt lat="44.18024" lon="5.27224">
        <ele>1596</ele>
        <time>2010-04-15T19:25:50.86</time>
      </trkpt>
      <trkpt lat="44.18024" lon="5.27225">
        <ele>1596</ele>
        <time>2010-04-15T19:25:51.86</time>
      </trkpt>
      <trkpt lat="44.18024" lon="5.27226">
        <ele>1596.5</ele>
        <time>2010-04-15T19:25:52.86</time>
      </trkpt>
      <trkpt lat="44.18023" lon="5.27227">
        <ele>1596.5</ele>
        <time>2010-04-15T19:25:53.86</time>
      </trkpt>
      <trkpt lat="44.18023" lon="5.27228">
        <ele>1597</ele>
        <time>2010-04-15T19:25:54.86</time>
      </trkpt>
      <trkpt lat="44.18023" lon="5.27229">
        <ele>1597</ele>
        <time>2010-04-15T19:25:55.85</time>
      </trkpt>
      <trkpt lat="44.18023" lon="5.27231">
        <ele>1597.5</ele>
        <time>2010-04-15T19:25:56.86</time>
      </trkpt>
      <trkpt lat="44.18022" lon="5.27232">
        <ele>1597.5</ele>
        <time>2010-04-15T19:25:57.86</time>
      </trkpt>
      <trkpt lat="44.18021" lon="5.27233">
        <ele>1598</ele>
        <time>2010-04-15T19:25:58.85</time>
      </trkpt>
      <trkpt lat="44.1802" lon="5.27233">
        <ele>1598</ele>
        <time>2010-04-15T19:25:59.85</time>
      </trkpt>
      <trkpt lat="44.1802" lon="5.27234">
        <ele>1598</ele>
        <time>2010-04-15T19:26:00.85</time>
      </trkpt>
      <trkpt lat="44.18019" lon="5.27234">
        <ele>1598</ele>
        <time>2010-04-15T19:26:01.86</time>
      </trkpt>
      <trkpt lat="44.18018" lon="5.27233">
        <ele>1598.5</ele>
        <time>2010-04-15T19:26:02.85</time>
      </trkpt>
      <trkpt lat="44.18017" lon="5.27233">
        <ele>1598.5</ele>
        <time>2010-04-15T19:26:03.86</time>
      </trkpt>
      <trkpt lat="44.18016" lon="5.27233">
        <ele>1598.5</ele>
        <time>2010-04-15T19:26:04.85</time>
      </trkpt>
      <trkpt lat="44.18015" lon="5.27232">
        <ele>1598.5</ele>
        <time>2010-04-15T19:26:05.85</time>
      </trkpt>
      <trkpt lat="44.18014" lon="5.27232">
        <ele>1598.5</ele>
        <time>2010-04-15T19:26:06.85</time>
      </trkpt>
      <trkpt lat="44.18013" lon="5.27231">
        <ele>1599</ele>
        <time>2010-04-15T19:26:07.85</time>
      </trkpt>
      <trkpt lat="44.18013" lon="5.27231">
        <ele>1599</ele>
        <time>2010-04-15T19:26:08.85</time>
      </trkpt>
      <trkpt lat="44.18012" lon="5.27231">
        <ele>1599.5</ele>
        <time>2010-04-15T19:26:09.85</time>
      </trkpt>
      <trkpt lat="44.18011" lon="5.2723">
        <ele>1599.5</ele>
        <time>2010-04-15T19:26:10.85</time>
      </trkpt>
      <trkpt lat="44.1801" lon="5.2723">
        <ele>1599.5</ele>
        <time>2010-04-15T19:26:11.85</time>
      </trkpt>
      <trkpt lat="44.18009" lon="5.27229">
        <ele>1599.5</ele>
        <time>2010-04-15T19:26:12.85</time>
      </trkpt>
      <trkpt lat="44.18009" lon="5.27229">
        <ele>1600</ele>
        <time>2010-04-15T19:26:13.84</time>
      </trkpt>
      <trkpt lat="44.18008" lon="5.27229">
        <ele>1600</ele>
        <time>2010-04-15T19:26:14.84</time>
      </trkpt>
      <trkpt lat="44.18007" lon="5.27228">
        <ele>1600</ele>
        <time>2010-04-15T19:26:15.84</time>
      </trkpt>
      <trkpt lat="44.18006" lon="5.27228">
        <ele>1600</ele>
        <time>2010-04-15T19:26:16.84</time>
      </trkpt>
      <trkpt lat="44.18005" lon="5.27228">
        <ele>1600.5</ele>
        <time>2010-04-15T19:26:17.85</time>
      </trkpt>
      <trkpt lat="44.18005" lon="5.27228">
        <ele>1601</ele>
        <time>2010-04-15T19:26:18.84</time>
      </trkpt>
      <trkpt lat="44.18004" lon="5.27227">
        <ele>1601</ele>
        <time>2010-04-15T19:26:19.84</time>
      </trkpt>
      <trkpt lat="44.18003" lon="5.27227">
        <ele>1601.5</ele>
        <time>2010-04-15T19:26:20.84</time>
      </trkpt>
      <trkpt lat="44.18002" lon="5.27226">
        <ele>1601.5</ele>
        <time>2010-04-15T19:26:21.84</time>
      </trkpt>
      <trkpt lat="44.18002" lon="5.27226">
        <ele>1601.5</ele>
        <time>2010-04-15T19:26:22.84</time>
      </trkpt>
      <trkpt lat="44.18001" lon="5.27225">
        <ele>1601.5</ele>
        <time>2010-04-15T19:26:23.84</time>
      </trkpt>
      <trkpt lat="44.18" lon="5.27225">
        <ele>1602</ele>
        <time>2010-04-15T19:26:24.85</time>
      </trkpt>
      <trkpt lat="44.17999" lon="5.27224">
        <ele>1602</ele>
        <time>2010-04-15T19:26:25.84</time>
      </trkpt>
      <trkpt lat="44.17999" lon="5.27224">
        <ele>1602.5</ele>
        <time>2010-04-15T19:26:26.85</time>
      </trkpt>
      <trkpt lat="44.17998" lon="5.27224">
        <ele>1602.5</ele>
        <time>2010-04-15T19:26:27.85</time>
      </trkpt>
      <trkpt lat="44.17997" lon="5.27223">
        <ele>1603</ele>
        <time>2010-04-15T19:26:28.84</time>
      </trkpt>
      <trkpt lat="44.17996" lon="5.27222">
        <ele>1603</ele>
        <time>2010-04-15T19:26:29.84</time>
      </trkpt>
      <trkpt lat="44.17996" lon="5.27222">
        <ele>1603.5</ele>
        <time>2010-04-15T19:26:30.84</time>
      </trkpt>
      <trkpt lat="44.17995" lon="5.27222">
        <ele>1604</ele>
        <time>2010-04-15T19:26:31.84</time>
      </trkpt>
      <trkpt lat="44.17994" lon="5.27221">
        <ele>1604</ele>
        <time>2010-04-15T19:26:32.83</time>
      </trkpt>
      <trkpt lat="44.17993" lon="5.27221">
        <ele>1604</ele>
        <time>2010-04-15T19:26:33.84</time>
      </trkpt>
      <trkpt lat="44.17993" lon="5.2722">
        <ele>1604.5</ele>
        <time>2010-04-15T19:26:34.84</time>
      </trkpt>
      <trkpt lat="44.17992" lon="5.2722">
        <ele>1605</ele>
        <time>2010-04-15T19:26:35.84</time>
      </trkpt>
      <trkpt lat="44.17991" lon="5.27219">
        <ele>1605.5</ele>
        <time>2010-04-15T19:26:36.84</time>
      </trkpt>
      <trkpt lat="44.17991" lon="5.27219">
        <ele>1605.5</ele>
        <time>2010-04-15T19:26:37.84</time>
      </trkpt>
      <trkpt lat="44.1799" lon="5.27219">
        <ele>1606</ele>
        <time>2010-04-15T19:26:38.84</time>
      </trkpt>
      <trkpt lat="44.17989" lon="5.27219">
        <ele>1606</ele>
        <time>2010-04-15T19:26:39.84</time>
      </trkpt>
      <trkpt lat="44.17989" lon="5.2722">
        <ele>1606.5</ele>
        <time>2010-04-15T19:26:40.83</time>
      </trkpt>
      <trkpt lat="44.17988" lon="5.2722">
        <ele>1606.5</ele>
        <time>2010-04-15T19:26:42.14</time>
      </trkpt>
      <trkpt lat="44.17987" lon="5.27221">
        <ele>1606.5</ele>
        <time>2010-04-15T19:26:42.84</time>
      </trkpt>
      <trkpt lat="44.17987" lon="5.27222">
        <ele>1606.5</ele>
        <time>2010-04-15T19:26:43.83</time>
      </trkpt>
      <trkpt lat="44.17986" lon="5.27223">
        <ele>1607</ele>
        <time>2010-04-15T19:26:44.84</time>
      </trkpt>
      <trkpt lat="44.17986" lon="5.27224">
        <ele>1607</ele>
        <time>2010-04-15T19:26:45.84</time>
      </trkpt>
      <trkpt lat="44.17985" lon="5.27225">
        <ele>1607</ele>
        <time>2010-04-15T19:26:46.83</time>
      </trkpt>
      <trkpt lat="44.17984" lon="5.27226">
        <ele>1607.5</ele>
        <time>2010-04-15T19:26:47.83</time>
      </trkpt>
      <trkpt lat="44.17984" lon="5.27226">
        <ele>1607.5</ele>
        <time>2010-04-15T19:26:48.83</time>
      </trkpt>
      <trkpt lat="44.17983" lon="5.27227">
        <ele>1608</ele>
        <time>2010-04-15T19:26:49.83</time>
      </trkpt>
      <trkpt lat="44.17982" lon="5.27228">
        <ele>1608</ele>
        <time>2010-04-15T19:26:50.83</time>
      </trkpt>
      <trkpt lat="44.17982" lon="5.27229">
        <ele>1608.5</ele>
        <time>2010-04-15T19:26:51.83</time>
      </trkpt>
      <trkpt lat="44.17981" lon="5.2723">
        <ele>1609</ele>
        <time>2010-04-15T19:26:52.83</time>
      </trkpt>
      <trkpt lat="44.1798" lon="5.27231">
        <ele>1609</ele>
        <time>2010-04-15T19:26:53.86</time>
      </trkpt>
      <trkpt lat="44.1798" lon="5.27232">
        <ele>1609</ele>
        <time>2010-04-15T19:26:54.82</time>
      </trkpt>
      <trkpt lat="44.17979" lon="5.27232">
        <ele>1609.5</ele>
        <time>2010-04-15T19:26:55.82</time>
      </trkpt>
      <trkpt lat="44.17979" lon="5.27233">
        <ele>1609.5</ele>
        <time>2010-04-15T19:26:56.82</time>
      </trkpt>
      <trkpt lat="44.17978" lon="5.27234">
        <ele>1609.5</ele>
        <time>2010-04-15T19:26:57.82</time>
      </trkpt>
      <trkpt lat="44.17977" lon="5.27235">
        <ele>1609.5</ele>
        <time>2010-04-15T19:26:58.82</time>
      </trkpt>
      <trkpt lat="44.17977" lon="5.27236">
        <ele>1609.5</ele>
        <time>2010-04-15T19:26:59.82</time>
      </trkpt>
      <trkpt lat="44.17976" lon="5.27237">
        <ele>1610</ele>
        <time>2010-04-15T19:27:00.82</time>
      </trkpt>
      <trkpt lat="44.17975" lon="5.27238">
        <ele>1610</ele>
        <time>2010-04-15T19:27:01.82</time>
      </trkpt>
      <trkpt lat="44.17975" lon="5.27239">
        <ele>1610.5</ele>
        <time>2010-04-15T19:27:02.82</time>
      </trkpt>
      <trkpt lat="44.17974" lon="5.27239">
        <ele>1610.5</ele>
        <time>2010-04-15T19:27:03.82</time>
      </trkpt>
      <trkpt lat="44.17973" lon="5.2724">
        <ele>1611</ele>
        <time>2010-04-15T19:27:04.82</time>
      </trkpt>
      <trkpt lat="44.17972" lon="5.27241">
        <ele>1611</ele>
        <time>2010-04-15T19:27:05.82</time>
      </trkpt>
      <trkpt lat="44.17972" lon="5.27241">
        <ele>1611</ele>
        <time>2010-04-15T19:27:06.84</time>
      </trkpt>
      <trkpt lat="44.17971" lon="5.27241">
        <ele>1611</ele>
        <time>2010-04-15T19:27:07.81</time>
      </trkpt>
      <trkpt lat="44.1797" lon="5.27241">
        <ele>1611.5</ele>
        <time>2010-04-15T19:27:08.81</time>
      </trkpt>
      <trkpt lat="44.17969" lon="5.27241">
        <ele>1611.5</ele>
        <time>2010-04-15T19:27:09.82</time>
      </trkpt>
      <trkpt lat="44.17969" lon="5.27241">
        <ele>1612</ele>
        <time>2010-04-15T19:27:10.82</time>
      </trkpt>
      <trkpt lat="44.17968" lon="5.27241">
        <ele>1612</ele>
        <time>2010-04-15T19:27:11.82</time>
      </trkpt>
      <trkpt lat="44.17967" lon="5.27242">
        <ele>1612</ele>
        <time>2010-04-15T19:27:12.82</time>
      </trkpt>
      <trkpt lat="44.17966" lon="5.27242">
        <ele>1612.5</ele>
        <time>2010-04-15T19:27:13.82</time>
      </trkpt>
      <trkpt lat="44.17966" lon="5.27242">
        <ele>1612.5</ele>
        <time>2010-04-15T19:27:14.82</time>
      </trkpt>
      <trkpt lat="44.17965" lon="5.27242">
        <ele>1613</ele>
        <time>2010-04-15T19:27:15.82</time>
      </trkpt>
      <trkpt lat="44.17964" lon="5.27243">
        <ele>1613.5</ele>
        <time>2010-04-15T19:27:16.81</time>
      </trkpt>
      <trkpt lat="44.17964" lon="5.27243">
        <ele>1613.5</ele>
        <time>2010-04-15T19:27:17.81</time>
      </trkpt>
      <trkpt lat="44.17963" lon="5.27243">
        <ele>1613.5</ele>
        <time>2010-04-15T19:27:18.81</time>
      </trkpt>
      <trkpt lat="44.17962" lon="5.27243">
        <ele>1613.5</ele>
        <time>2010-04-15T19:27:19.81</time>
      </trkpt>
      <trkpt lat="44.17962" lon="5.27244">
        <ele>1614</ele>
        <time>2010-04-15T19:27:20.81</time>
      </trkpt>
      <trkpt lat="44.17961" lon="5.27244">
        <ele>1614</ele>
        <time>2010-04-15T19:27:21.81</time>
      </trkpt>
      <trkpt lat="44.1796" lon="5.27244">
        <ele>1614</ele>
        <time>2010-04-15T19:27:22.81</time>
      </trkpt>
      <trkpt lat="44.17959" lon="5.27245">
        <ele>1614.5</ele>
        <time>2010-04-15T19:27:23.81</time>
      </trkpt>
      <trkpt lat="44.17958" lon="5.27245">
        <ele>1614.5</ele>
        <time>2010-04-15T19:27:24.81</time>
      </trkpt>
      <trkpt lat="44.17958" lon="5.27245">
        <ele>1615</ele>
        <time>2010-04-15T19:27:25.81</time>
      </trkpt>
      <trkpt lat="44.17957" lon="5.27246">
        <ele>1615</ele>
        <time>2010-04-15T19:27:26.81</time>
      </trkpt>
      <trkpt lat="44.17956" lon="5.27246">
        <ele>1615</ele>
        <time>2010-04-15T19:27:27.81</time>
      </trkpt>
      <trkpt lat="44.17955" lon="5.27246">
        <ele>1615.5</ele>
        <time>2010-04-15T19:27:28.81</time>
      </trkpt>
      <trkpt lat="44.17954" lon="5.27247">
        <ele>1615.5</ele>
        <time>2010-04-15T19:27:29.81</time>
      </trkpt>
      <trkpt lat="44.17954" lon="5.27247">
        <ele>1616</ele>
        <time>2010-04-15T19:27:30.81</time>
      </trkpt>
      <trkpt lat="44.17953" lon="5.27248">
        <ele>1616.5</ele>
        <time>2010-04-15T19:27:31.81</time>
      </trkpt>
      <trkpt lat="44.17953" lon="5.27248">
        <ele>1617</ele>
        <time>2010-04-15T19:27:32.80</time>
      </trkpt>
      <trkpt lat="44.17952" lon="5.27248">
        <ele>1616.5</ele>
        <time>2010-04-15T19:27:33.80</time>
      </trkpt>
      <trkpt lat="44.17951" lon="5.27248">
        <ele>1617.5</ele>
        <time>2010-04-15T19:27:34.80</time>
      </trkpt>
      <trkpt lat="44.17951" lon="5.27248">
        <ele>1617.5</ele>
        <time>2010-04-15T19:27:35.80</time>
      </trkpt>
      <trkpt lat="44.1795" lon="5.27248">
        <ele>1617.5</ele>
        <time>2010-04-15T19:27:36.80</time>
      </trkpt>
      <trkpt lat="44.17949" lon="5.27248">
        <ele>1618</ele>
        <time>2010-04-15T19:27:37.80</time>
      </trkpt>
      <trkpt lat="44.17948" lon="5.27247">
        <ele>1618.5</ele>
        <time>2010-04-15T19:27:38.80</time>
      </trkpt>
      <trkpt lat="44.17948" lon="5.27247">
        <ele>1619</ele>
        <time>2010-04-15T19:27:39.80</time>
      </trkpt>
      <trkpt lat="44.17947" lon="5.27247">
        <ele>1619</ele>
        <time>2010-04-15T19:27:40.80</time>
      </trkpt>
      <trkpt lat="44.17946" lon="5.27247">
        <ele>1619</ele>
        <time>2010-04-15T19:27:41.80</time>
      </trkpt>
      <trkpt lat="44.17945" lon="5.27247">
        <ele>1619.5</ele>
        <time>2010-04-15T19:27:42.81</time>
      </trkpt>
      <trkpt lat="44.17945" lon="5.27247">
        <ele>1619.5</ele>
        <time>2010-04-15T19:27:43.80</time>
      </trkpt>
      <trkpt lat="44.17944" lon="5.27247">
        <ele>1619.5</ele>
        <time>2010-04-15T19:27:44.80</time>
      </trkpt>
      <trkpt lat="44.17943" lon="5.27247">
        <ele>1620</ele>
        <time>2010-04-15T19:27:45.80</time>
      </trkpt>
      <trkpt lat="44.17943" lon="5.27248">
        <ele>1620.5</ele>
        <time>2010-04-15T19:27:46.80</time>
      </trkpt>
      <trkpt lat="44.17942" lon="5.27248">
        <ele>1620.5</ele>
        <time>2010-04-15T19:27:47.80</time>
      </trkpt>
      <trkpt lat="44.17941" lon="5.27248">
        <ele>1620.5</ele>
        <time>2010-04-15T19:27:48.80</time>
      </trkpt>
      <trkpt lat="44.17941" lon="5.27248">
        <ele>1621</ele>
        <time>2010-04-15T19:27:49.80</time>
      </trkpt>
      <trkpt lat="44.1794" lon="5.27249">
        <ele>1621.5</ele>
        <time>2010-04-15T19:27:50.80</time>
      </trkpt>
      <trkpt lat="44.1794" lon="5.27249">
        <ele>1621.5</ele>
        <time>2010-04-15T19:27:51.80</time>
      </trkpt>
      <trkpt lat="44.17939" lon="5.27249">
        <ele>1622</ele>
        <time>2010-04-15T19:27:52.79</time>
      </trkpt>
      <trkpt lat="44.17938" lon="5.2725">
        <ele>1622</ele>
        <time>2010-04-15T19:27:53.79</time>
      </trkpt>
      <trkpt lat="44.17937" lon="5.2725">
        <ele>1622</ele>
        <time>2010-04-15T19:27:54.79</time>
      </trkpt>
      <trkpt lat="44.17937" lon="5.2725">
        <ele>1622</ele>
        <time>2010-04-15T19:27:55.79</time>
      </trkpt>
      <trkpt lat="44.17936" lon="5.27251">
        <ele>1622</ele>
        <time>2010-04-15T19:27:56.79</time>
      </trkpt>
      <trkpt lat="44.17935" lon="5.27251">
        <ele>1622</ele>
        <time>2010-04-15T19:27:57.79</time>
      </trkpt>
      <trkpt lat="44.17934" lon="5.27251">
        <ele>1622</ele>
        <time>2010-04-15T19:27:58.79</time>
      </trkpt>
      <trkpt lat="44.17934" lon="5.27252">
        <ele>1622.5</ele>
        <time>2010-04-15T19:27:59.79</time>
      </trkpt>
      <trkpt lat="44.17933" lon="5.27252">
        <ele>1622.5</ele>
        <time>2010-04-15T19:28:00.79</time>
      </trkpt>
      <trkpt lat="44.17932" lon="5.27252">
        <ele>1623</ele>
        <time>2010-04-15T19:28:01.79</time>
      </trkpt>
      <trkpt lat="44.17932" lon="5.27253">
        <ele>1623.5</ele>
        <time>2010-04-15T19:28:02.79</time>
      </trkpt>
      <trkpt lat="44.17931" lon="5.27253">
        <ele>1623.5</ele>
        <time>2010-04-15T19:28:03.79</time>
      </trkpt>
      <trkpt lat="44.17931" lon="5.27253">
        <ele>1624</ele>
        <time>2010-04-15T19:28:04.79</time>
      </trkpt>
      <trkpt lat="44.1793" lon="5.27254">
        <ele>1624.5</ele>
        <time>2010-04-15T19:28:05.79</time>
      </trkpt>
      <trkpt lat="44.17929" lon="5.27254">
        <ele>1624</ele>
        <time>2010-04-15T19:28:06.79</time>
      </trkpt>
      <trkpt lat="44.17928" lon="5.27254">
        <ele>1624.5</ele>
        <time>2010-04-15T19:28:07.79</time>
      </trkpt>
      <trkpt lat="44.17928" lon="5.27254">
        <ele>1624.5</ele>
        <time>2010-04-15T19:28:08.79</time>
      </trkpt>
      <trkpt lat="44.17927" lon="5.27255">
        <ele>1625</ele>
        <time>2010-04-15T19:28:09.79</time>
      </trkpt>
      <trkpt lat="44.17927" lon="5.27255">
        <ele>1625.5</ele>
        <time>2010-04-15T19:28:10.78</time>
      </trkpt>
      <trkpt lat="44.17926" lon="5.27255">
        <ele>1625.5</ele>
        <time>2010-04-15T19:28:11.79</time>
      </trkpt>
      <trkpt lat="44.17925" lon="5.27256">
        <ele>1626</ele>
        <time>2010-04-15T19:28:12.78</time>
      </trkpt>
      <trkpt lat="44.17925" lon="5.27256">
        <ele>1626</ele>
        <time>2010-04-15T19:28:13.78</time>
      </trkpt>
      <trkpt lat="44.17924" lon="5.27256">
        <ele>1626</ele>
        <time>2010-04-15T19:28:14.78</time>
      </trkpt>
      <trkpt lat="44.17923" lon="5.27257">
        <ele>1626.5</ele>
        <time>2010-04-15T19:28:15.78</time>
      </trkpt>
      <trkpt lat="44.17922" lon="5.27257">
        <ele>1626.5</ele>
        <time>2010-04-15T19:28:16.78</time>
      </trkpt>
      <trkpt lat="44.17922" lon="5.27258">
        <ele>1627</ele>
        <time>2010-04-15T19:28:17.78</time>
      </trkpt>
      <trkpt lat="44.17921" lon="5.27258">
        <ele>1627</ele>
        <time>2010-04-15T19:28:18.78</time>
      </trkpt>
      <trkpt lat="44.1792" lon="5.27258">
        <ele>1627.5</ele>
        <time>2010-04-15T19:28:19.78</time>
      </trkpt>
      <trkpt lat="44.1792" lon="5.27259">
        <ele>1628</ele>
        <time>2010-04-15T19:28:20.78</time>
      </trkpt>
      <trkpt lat="44.17919" lon="5.27259">
        <ele>1628</ele>
        <time>2010-04-15T19:28:21.78</time>
      </trkpt>
      <trkpt lat="44.17918" lon="5.27259">
        <ele>1628.5</ele>
        <time>2010-04-15T19:28:22.78</time>
      </trkpt>
      <trkpt lat="44.17918" lon="5.2726">
        <ele>1629</ele>
        <time>2010-04-15T19:28:23.78</time>
      </trkpt>
      <trkpt lat="44.17917" lon="5.2726">
        <ele>1629</ele>
        <time>2010-04-15T19:28:24.78</time>
      </trkpt>
      <trkpt lat="44.17916" lon="5.2726">
        <ele>1629.5</ele>
        <time>2010-04-15T19:28:25.78</time>
      </trkpt>
      <trkpt lat="44.17916" lon="5.2726">
        <ele>1630</ele>
        <time>2010-04-15T19:28:26.78</time>
      </trkpt>
      <trkpt lat="44.17915" lon="5.27261">
        <ele>1630</ele>
        <time>2010-04-15T19:28:27.78</time>
      </trkpt>
      <trkpt lat="44.17914" lon="5.27261">
        <ele>1630.5</ele>
        <time>2010-04-15T19:28:28.77</time>
      </trkpt>
      <trkpt lat="44.17914" lon="5.27262">
        <ele>1630.5</ele>
        <time>2010-04-15T19:28:29.77</time>
      </trkpt>
      <trkpt lat="44.17913" lon="5.27262">
        <ele>1631</ele>
        <time>2010-04-15T19:28:30.77</time>
      </trkpt>
      <trkpt lat="44.17913" lon="5.27263">
        <ele>1631.5</ele>
        <time>2010-04-15T19:28:31.77</time>
      </trkpt>
      <trkpt lat="44.17912" lon="5.27263">
        <ele>1631.5</ele>
        <time>2010-04-15T19:28:32.77</time>
      </trkpt>
      <trkpt lat="44.17911" lon="5.27264">
        <ele>1632</ele>
        <time>2010-04-15T19:28:33.77</time>
      </trkpt>
      <trkpt lat="44.17911" lon="5.27264">
        <ele>1632</ele>
        <time>2010-04-15T19:28:34.77</time>
      </trkpt>
      <trkpt lat="44.1791" lon="5.27264">
        <ele>1632</ele>
        <time>2010-04-15T19:28:35.77</time>
      </trkpt>
      <trkpt lat="44.17909" lon="5.27265">
        <ele>1632.5</ele>
        <time>2010-04-15T19:28:36.77</time>
      </trkpt>
      <trkpt lat="44.17909" lon="5.27265">
        <ele>1632.5</ele>
        <time>2010-04-15T19:28:37.77</time>
      </trkpt>
      <trkpt lat="44.17908" lon="5.27265">
        <ele>1633</ele>
        <time>2010-04-15T19:28:38.77</time>
      </trkpt>
      <trkpt lat="44.17908" lon="5.27266">
        <ele>1633</ele>
        <time>2010-04-15T19:28:39.77</time>
      </trkpt>
      <trkpt lat="44.17907" lon="5.27266">
        <ele>1633.5</ele>
        <time>2010-04-15T19:28:40.77</time>
      </trkpt>
      <trkpt lat="44.17906" lon="5.27266">
        <ele>1634</ele>
        <time>2010-04-15T19:28:41.77</time>
      </trkpt>
      <trkpt lat="44.17906" lon="5.27267">
        <ele>1634</ele>
        <time>2010-04-15T19:28:42.77</time>
      </trkpt>
      <trkpt lat="44.17905" lon="5.27267">
        <ele>1634.5</ele>
        <time>2010-04-15T19:28:43.77</time>
      </trkpt>
      <trkpt lat="44.17905" lon="5.27267">
        <ele>1635</ele>
        <time>2010-04-15T19:28:44.76</time>
      </trkpt>
      <trkpt lat="44.17904" lon="5.27268">
        <ele>1635</ele>
        <time>2010-04-15T19:28:45.76</time>
      </trkpt>
      <trkpt lat="44.17904" lon="5.27268">
        <ele>1635</ele>
        <time>2010-04-15T19:28:46.76</time>
      </trkpt>
      <trkpt lat="44.17903" lon="5.27268">
        <ele>1635</ele>
        <time>2010-04-15T19:28:47.76</time>
      </trkpt>
      <trkpt lat="44.17902" lon="5.27269">
        <ele>1635.5</ele>
        <time>2010-04-15T19:28:48.79</time>
      </trkpt>
      <trkpt lat="44.17902" lon="5.27269">
        <ele>1635.5</ele>
        <time>2010-04-15T19:28:49.76</time>
      </trkpt>
      <trkpt lat="44.17901" lon="5.27269">
        <ele>1636</ele>
        <time>2010-04-15T19:28:50.76</time>
      </trkpt>
      <trkpt lat="44.17901" lon="5.2727">
        <ele>1636</ele>
        <time>2010-04-15T19:28:51.76</time>
      </trkpt>
      <trkpt lat="44.179" lon="5.2727">
        <ele>1636</ele>
        <time>2010-04-15T19:28:52.76</time>
      </trkpt>
      <trkpt lat="44.17899" lon="5.2727">
        <ele>1636.5</ele>
        <time>2010-04-15T19:28:53.76</time>
      </trkpt>
      <trkpt lat="44.17899" lon="5.27271">
        <ele>1636.5</ele>
        <time>2010-04-15T19:28:54.76</time>
      </trkpt>
      <trkpt lat="44.17898" lon="5.27271">
        <ele>1637</ele>
        <time>2010-04-15T19:28:55.76</time>
      </trkpt>
      <trkpt lat="44.17897" lon="5.27272">
        <ele>1637</ele>
        <time>2010-04-15T19:28:56.75</time>
      </trkpt>
      <trkpt lat="44.17897" lon="5.27272">
        <ele>1637.5</ele>
        <time>2010-04-15T19:28:57.76</time>
      </trkpt>
      <trkpt lat="44.17896" lon="5.27272">
        <ele>1638</ele>
        <time>2010-04-15T19:28:58.76</time>
      </trkpt>
      <trkpt lat="44.17895" lon="5.27272">
        <ele>1638</ele>
        <time>2010-04-15T19:28:59.76</time>
      </trkpt>
      <trkpt lat="44.17895" lon="5.27273">
        <ele>1638</ele>
        <time>2010-04-15T19:29:00.75</time>
      </trkpt>
      <trkpt lat="44.17894" lon="5.27273">
        <ele>1638.5</ele>
        <time>2010-04-15T19:29:01.75</time>
      </trkpt>
      <trkpt lat="44.17893" lon="5.27273">
        <ele>1638.5</ele>
        <time>2010-04-15T19:29:02.75</time>
      </trkpt>
      <trkpt lat="44.17893" lon="5.27274">
        <ele>1638.5</ele>
        <time>2010-04-15T19:29:03.75</time>
      </trkpt>
      <trkpt lat="44.17892" lon="5.27274">
        <ele>1639</ele>
        <time>2010-04-15T19:29:04.75</time>
      </trkpt>
      <trkpt lat="44.17891" lon="5.27274">
        <ele>1639</ele>
        <time>2010-04-15T19:29:05.75</time>
      </trkpt>
      <trkpt lat="44.1789" lon="5.27275">
        <ele>1639</ele>
        <time>2010-04-15T19:29:06.75</time>
      </trkpt>
      <trkpt lat="44.1789" lon="5.27275">
        <ele>1639.5</ele>
        <time>2010-04-15T19:29:07.75</time>
      </trkpt>
      <trkpt lat="44.17889" lon="5.27275">
        <ele>1639.5</ele>
        <time>2010-04-15T19:29:08.75</time>
      </trkpt>
      <trkpt lat="44.17888" lon="5.27276">
        <ele>1639.5</ele>
        <time>2010-04-15T19:29:09.75</time>
      </trkpt>
      <trkpt lat="44.17887" lon="5.27276">
        <ele>1639.5</ele>
        <time>2010-04-15T19:29:10.75</time>
      </trkpt>
      <trkpt lat="44.17887" lon="5.27277">
        <ele>1640</ele>
        <time>2010-04-15T19:29:11.75</time>
      </trkpt>
      <trkpt lat="44.17886" lon="5.27277">
        <ele>1640</ele>
        <time>2010-04-15T19:29:12.75</time>
      </trkpt>
      <trkpt lat="44.17885" lon="5.27277">
        <ele>1640.5</ele>
        <time>2010-04-15T19:29:13.75</time>
      </trkpt>
      <trkpt lat="44.17885" lon="5.27277">
        <ele>1641</ele>
        <time>2010-04-15T19:29:14.75</time>
      </trkpt>
      <trkpt lat="44.17884" lon="5.27278">
        <ele>1641</ele>
        <time>2010-04-15T19:29:15.75</time>
      </trkpt>
      <trkpt lat="44.17883" lon="5.27278">
        <ele>1641.5</ele>
        <time>2010-04-15T19:29:16.74</time>
      </trkpt>
      <trkpt lat="44.17883" lon="5.27278">
        <ele>1641.5</ele>
        <time>2010-04-15T19:29:17.75</time>
      </trkpt>
      <trkpt lat="44.17882" lon="5.27279">
        <ele>1641.5</ele>
        <time>2010-04-15T19:29:18.74</time>
      </trkpt>
      <trkpt lat="44.17881" lon="5.27279">
        <ele>1642</ele>
        <time>2010-04-15T19:29:19.75</time>
      </trkpt>
      <trkpt lat="44.1788" lon="5.27279">
        <ele>1642</ele>
        <time>2010-04-15T19:29:20.74</time>
      </trkpt>
      <trkpt lat="44.1788" lon="5.2728">
        <ele>1642</ele>
        <time>2010-04-15T19:29:21.74</time>
      </trkpt>
      <trkpt lat="44.17879" lon="5.2728">
        <ele>1642.5</ele>
        <time>2010-04-15T19:29:22.74</time>
      </trkpt>
      <trkpt lat="44.17878" lon="5.2728">
        <ele>1642.5</ele>
        <time>2010-04-15T19:29:23.74</time>
      </trkpt>
      <trkpt lat="44.17878" lon="5.27281">
        <ele>1642.5</ele>
        <time>2010-04-15T19:29:24.74</time>
      </trkpt>
      <trkpt lat="44.17877" lon="5.27281">
        <ele>1642.5</ele>
        <time>2010-04-15T19:29:25.74</time>
      </trkpt>
      <trkpt lat="44.17876" lon="5.27281">
        <ele>1643</ele>
        <time>2010-04-15T19:29:26.74</time>
      </trkpt>
      <trkpt lat="44.17875" lon="5.27282">
        <ele>1643</ele>
        <time>2010-04-15T19:29:27.74</time>
      </trkpt>
      <trkpt lat="44.17875" lon="5.27282">
        <ele>1643.5</ele>
        <time>2010-04-15T19:29:28.74</time>
      </trkpt>
      <trkpt lat="44.17874" lon="5.27282">
        <ele>1644</ele>
        <time>2010-04-15T19:29:29.74</time>
      </trkpt>
      <trkpt lat="44.17874" lon="5.27283">
        <ele>1644</ele>
        <time>2010-04-15T19:29:30.74</time>
      </trkpt>
      <trkpt lat="44.17873" lon="5.27283">
        <ele>1644.5</ele>
        <time>2010-04-15T19:29:31.74</time>
      </trkpt>
      <trkpt lat="44.17872" lon="5.27283">
        <ele>1645</ele>
        <time>2010-04-15T19:29:32.74</time>
      </trkpt>
      <trkpt lat="44.17872" lon="5.27284">
        <ele>1645</ele>
        <time>2010-04-15T19:29:33.74</time>
      </trkpt>
      <trkpt lat="44.17871" lon="5.27284">
        <ele>1645.5</ele>
        <time>2010-04-15T19:29:34.73</time>
      </trkpt>
      <trkpt lat="44.1787" lon="5.27285">
        <ele>1645.5</ele>
        <time>2010-04-15T19:29:35.76</time>
      </trkpt>
      <trkpt lat="44.1787" lon="5.27285">
        <ele>1646</ele>
        <time>2010-04-15T19:29:36.73</time>
      </trkpt>
      <trkpt lat="44.17869" lon="5.27285">
        <ele>1646</ele>
        <time>2010-04-15T19:29:37.73</time>
      </trkpt>
      <trkpt lat="44.17868" lon="5.27286">
        <ele>1646.5</ele>
        <time>2010-04-15T19:29:38.73</time>
      </trkpt>
      <trkpt lat="44.17868" lon="5.27286">
        <ele>1646.5</ele>
        <time>2010-04-15T19:29:39.73</time>
      </trkpt>
      <trkpt lat="44.17867" lon="5.27286">
        <ele>1647</ele>
        <time>2010-04-15T19:29:40.73</time>
      </trkpt>
      <trkpt lat="44.17867" lon="5.27287">
        <ele>1647</ele>
        <time>2010-04-15T19:29:41.73</time>
      </trkpt>
      <trkpt lat="44.17866" lon="5.27287">
        <ele>1647.5</ele>
        <time>2010-04-15T19:29:42.74</time>
      </trkpt>
      <trkpt lat="44.17866" lon="5.27287">
        <ele>1648</ele>
        <time>2010-04-15T19:29:43.73</time>
      </trkpt>
      <trkpt lat="44.17865" lon="5.27288">
        <ele>1648.5</ele>
        <time>2010-04-15T19:29:44.73</time>
      </trkpt>
      <trkpt lat="44.17864" lon="5.27288">
        <ele>1648.5</ele>
        <time>2010-04-15T19:29:45.73</time>
      </trkpt>
      <trkpt lat="44.17864" lon="5.27289">
        <ele>1649.5</ele>
        <time>2010-04-15T19:29:46.73</time>
      </trkpt>
      <trkpt lat="44.17864" lon="5.27289">
        <ele>1649.5</ele>
        <time>2010-04-15T19:29:47.73</time>
      </trkpt>
      <trkpt lat="44.17863" lon="5.2729">
        <ele>1649.5</ele>
        <time>2010-04-15T19:29:48.75</time>
      </trkpt>
      <trkpt lat="44.17862" lon="5.2729">
        <ele>1650</ele>
        <time>2010-04-15T19:29:49.72</time>
      </trkpt>
      <trkpt lat="44.17862" lon="5.27291">
        <ele>1650</ele>
        <time>2010-04-15T19:29:50.72</time>
      </trkpt>
      <trkpt lat="44.17861" lon="5.27291">
        <ele>1650</ele>
        <time>2010-04-15T19:29:51.75</time>
      </trkpt>
      <trkpt lat="44.1786" lon="5.27291">
        <ele>1650.5</ele>
        <time>2010-04-15T19:29:52.72</time>
      </trkpt>
      <trkpt lat="44.1786" lon="5.27292">
        <ele>1650.5</ele>
        <time>2010-04-15T19:29:53.72</time>
      </trkpt>
      <trkpt lat="44.17859" lon="5.27292">
        <ele>1650.5</ele>
        <time>2010-04-15T19:29:54.74</time>
      </trkpt>
      <trkpt lat="44.17858" lon="5.27293">
        <ele>1651</ele>
        <time>2010-04-15T19:29:55.71</time>
      </trkpt>
      <trkpt lat="44.17858" lon="5.27293">
        <ele>1651</ele>
        <time>2010-04-15T19:29:56.74</time>
      </trkpt>
      <trkpt lat="44.17857" lon="5.27293">
        <ele>1651.5</ele>
        <time>2010-04-15T19:29:57.72</time>
      </trkpt>
      <trkpt lat="44.17856" lon="5.27294">
        <ele>1651.5</ele>
        <time>2010-04-15T19:29:58.72</time>
      </trkpt>
      <trkpt lat="44.17856" lon="5.27295">
        <ele>1651.5</ele>
        <time>2010-04-15T19:29:59.72</time>
      </trkpt>
      <trkpt lat="44.17855" lon="5.27295">
        <ele>1652</ele>
        <time>2010-04-15T19:30:00.72</time>
      </trkpt>
      <trkpt lat="44.17855" lon="5.27295">
        <ele>1652</ele>
        <time>2010-04-15T19:30:01.72</time>
      </trkpt>
      <trkpt lat="44.17854" lon="5.27296">
        <ele>1652.5</ele>
        <time>2010-04-15T19:30:02.72</time>
      </trkpt>
      <trkpt lat="44.17854" lon="5.27296">
        <ele>1652.5</ele>
        <time>2010-04-15T19:30:03.72</time>
      </trkpt>
      <trkpt lat="44.17853" lon="5.27297">
        <ele>1653</ele>
        <time>2010-04-15T19:30:04.72</time>
      </trkpt>
      <trkpt lat="44.17852" lon="5.27297">
        <ele>1653</ele>
        <time>2010-04-15T19:30:05.72</time>
      </trkpt>
      <trkpt lat="44.17852" lon="5.27298">
        <ele>1653</ele>
        <time>2010-04-15T19:30:06.72</time>
      </trkpt>
      <trkpt lat="44.17851" lon="5.27298">
        <ele>1653.5</ele>
        <time>2010-04-15T19:30:07.72</time>
      </trkpt>
      <trkpt lat="44.17851" lon="5.27299">
        <ele>1653.5</ele>
        <time>2010-04-15T19:30:08.72</time>
      </trkpt>
      <trkpt lat="44.1785" lon="5.27299">
        <ele>1653.5</ele>
        <time>2010-04-15T19:30:09.72</time>
      </trkpt>
      <trkpt lat="44.17849" lon="5.27299">
        <ele>1654</ele>
        <time>2010-04-15T19:30:10.72</time>
      </trkpt>
      <trkpt lat="44.17849" lon="5.273">
        <ele>1654</ele>
        <time>2010-04-15T19:30:11.72</time>
      </trkpt>
      <trkpt lat="44.17848" lon="5.273">
        <ele>1654.5</ele>
        <time>2010-04-15T19:30:12.72</time>
      </trkpt>
      <trkpt lat="44.17848" lon="5.273">
        <ele>1654.5</ele>
        <time>2010-04-15T19:30:13.72</time>
      </trkpt>
      <trkpt lat="44.17847" lon="5.27301">
        <ele>1655</ele>
        <time>2010-04-15T19:30:14.72</time>
      </trkpt>
      <trkpt lat="44.17846" lon="5.27301">
        <ele>1655</ele>
        <time>2010-04-15T19:30:15.72</time>
      </trkpt>
      <trkpt lat="44.17846" lon="5.27301">
        <ele>1655</ele>
        <time>2010-04-15T19:30:16.72</time>
      </trkpt>
      <trkpt lat="44.17845" lon="5.27302">
        <ele>1655.5</ele>
        <time>2010-04-15T19:30:17.71</time>
      </trkpt>
      <trkpt lat="44.17845" lon="5.27303">
        <ele>1655.5</ele>
        <time>2010-04-15T19:30:18.72</time>
      </trkpt>
      <trkpt lat="44.17844" lon="5.27303">
        <ele>1656</ele>
        <time>2010-04-15T19:30:19.71</time>
      </trkpt>
      <trkpt lat="44.17844" lon="5.27304">
        <ele>1656</ele>
        <time>2010-04-15T19:30:20.71</time>
      </trkpt>
      <trkpt lat="44.17843" lon="5.27304">
        <ele>1656.5</ele>
        <time>2010-04-15T19:30:21.71</time>
      </trkpt>
      <trkpt lat="44.17843" lon="5.27305">
        <ele>1656.5</ele>
        <time>2010-04-15T19:30:22.71</time>
      </trkpt>
      <trkpt lat="44.17842" lon="5.27305">
        <ele>1656.5</ele>
        <time>2010-04-15T19:30:23.72</time>
      </trkpt>
      <trkpt lat="44.17842" lon="5.27305">
        <ele>1657</ele>
        <time>2010-04-15T19:30:24.71</time>
      </trkpt>
      <trkpt lat="44.17841" lon="5.27306">
        <ele>1657.5</ele>
        <time>2010-04-15T19:30:25.71</time>
      </trkpt>
      <trkpt lat="44.1784" lon="5.27306">
        <ele>1657.5</ele>
        <time>2010-04-15T19:30:26.71</time>
      </trkpt>
      <trkpt lat="44.1784" lon="5.27306">
        <ele>1657.5</ele>
        <time>2010-04-15T19:30:27.71</time>
      </trkpt>
      <trkpt lat="44.17839" lon="5.27307">
        <ele>1658</ele>
        <time>2010-04-15T19:30:28.71</time>
      </trkpt>
      <trkpt lat="44.17838" lon="5.27307">
        <ele>1658</ele>
        <time>2010-04-15T19:30:29.71</time>
      </trkpt>
      <trkpt lat="44.17838" lon="5.27307">
        <ele>1658.5</ele>
        <time>2010-04-15T19:30:30.71</time>
      </trkpt>
      <trkpt lat="44.17837" lon="5.27308">
        <ele>1658.5</ele>
        <time>2010-04-15T19:30:31.71</time>
      </trkpt>
      <trkpt lat="44.17837" lon="5.27308">
        <ele>1658.5</ele>
        <time>2010-04-15T19:30:32.71</time>
      </trkpt>
      <trkpt lat="44.17836" lon="5.27308">
        <ele>1658.5</ele>
        <time>2010-04-15T19:30:33.71</time>
      </trkpt>
      <trkpt lat="44.17835" lon="5.27309">
        <ele>1658.5</ele>
        <time>2010-04-15T19:30:34.71</time>
      </trkpt>
      <trkpt lat="44.17835" lon="5.27309">
        <ele>1659</ele>
        <time>2010-04-15T19:30:35.71</time>
      </trkpt>
      <trkpt lat="44.17834" lon="5.2731">
        <ele>1659</ele>
        <time>2010-04-15T19:30:36.71</time>
      </trkpt>
      <trkpt lat="44.17833" lon="5.2731">
        <ele>1659.5</ele>
        <time>2010-04-15T19:30:37.71</time>
      </trkpt>
      <trkpt lat="44.17832" lon="5.2731">
        <ele>1659.5</ele>
        <time>2010-04-15T19:30:38.71</time>
      </trkpt>
      <trkpt lat="44.17832" lon="5.27311">
        <ele>1659.5</ele>
        <time>2010-04-15T19:30:39.71</time>
      </trkpt>
      <trkpt lat="44.17831" lon="5.27311">
        <ele>1659.5</ele>
        <time>2010-04-15T19:30:40.71</time>
      </trkpt>
      <trkpt lat="44.1783" lon="5.27312">
        <ele>1660</ele>
        <time>2010-04-15T19:30:41.71</time>
      </trkpt>
      <trkpt lat="44.1783" lon="5.27312">
        <ele>1660</ele>
        <time>2010-04-15T19:30:42.74</time>
      </trkpt>
      <trkpt lat="44.17829" lon="5.27312">
        <ele>1660.5</ele>
        <time>2010-04-15T19:30:43.70</time>
      </trkpt>
      <trkpt lat="44.17828" lon="5.27312">
        <ele>1661</ele>
        <time>2010-04-15T19:30:44.70</time>
      </trkpt>
      <trkpt lat="44.17828" lon="5.27313">
        <ele>1661</ele>
        <time>2010-04-15T19:30:45.73</time>
      </trkpt>
      <trkpt lat="44.17827" lon="5.27313">
        <ele>1661.5</ele>
        <time>2010-04-15T19:30:46.69</time>
      </trkpt>
      <trkpt lat="44.17826" lon="5.27314">
        <ele>1661.5</ele>
        <time>2010-04-15T19:30:47.70</time>
      </trkpt>
      <trkpt lat="44.17825" lon="5.27314">
        <ele>1662</ele>
        <time>2010-04-15T19:30:48.70</time>
      </trkpt>
      <trkpt lat="44.17825" lon="5.27314">
        <ele>1661.5</ele>
        <time>2010-04-15T19:30:49.69</time>
      </trkpt>
      <trkpt lat="44.17824" lon="5.27315">
        <ele>1662</ele>
        <time>2010-04-15T19:30:50.70</time>
      </trkpt>
      <trkpt lat="44.17823" lon="5.27315">
        <ele>1662.5</ele>
        <time>2010-04-15T19:30:51.70</time>
      </trkpt>
      <trkpt lat="44.17823" lon="5.27316">
        <ele>1662.5</ele>
        <time>2010-04-15T19:30:52.70</time>
      </trkpt>
      <trkpt lat="44.17822" lon="5.27316">
        <ele>1662.5</ele>
        <time>2010-04-15T19:30:53.70</time>
      </trkpt>
      <trkpt lat="44.17821" lon="5.27316">
        <ele>1662.5</ele>
        <time>2010-04-15T19:30:54.70</time>
      </trkpt>
      <trkpt lat="44.17821" lon="5.27317">
        <ele>1663</ele>
        <time>2010-04-15T19:30:55.70</time>
      </trkpt>
      <trkpt lat="44.1782" lon="5.27317">
        <ele>1663.5</ele>
        <time>2010-04-15T19:30:56.70</time>
      </trkpt>
      <trkpt lat="44.1782" lon="5.27318">
        <ele>1664</ele>
        <time>2010-04-15T19:30:57.70</time>
      </trkpt>
      <trkpt lat="44.17819" lon="5.27318">
        <ele>1664</ele>
        <time>2010-04-15T19:30:58.70</time>
      </trkpt>
      <trkpt lat="44.17819" lon="5.27318">
        <ele>1664.5</ele>
        <time>2010-04-15T19:30:59.70</time>
      </trkpt>
      <trkpt lat="44.17818" lon="5.27318">
        <ele>1664.5</ele>
        <time>2010-04-15T19:31:00.70</time>
      </trkpt>
      <trkpt lat="44.17817" lon="5.27319">
        <ele>1665</ele>
        <time>2010-04-15T19:31:01.70</time>
      </trkpt>
      <trkpt lat="44.17817" lon="5.27319">
        <ele>1665</ele>
        <time>2010-04-15T19:31:02.70</time>
      </trkpt>
      <trkpt lat="44.17816" lon="5.27318">
        <ele>1665.5</ele>
        <time>2010-04-15T19:31:03.70</time>
      </trkpt>
      <trkpt lat="44.17816" lon="5.27318">
        <ele>1666</ele>
        <time>2010-04-15T19:31:04.69</time>
      </trkpt>
      <trkpt lat="44.17815" lon="5.27318">
        <ele>1666</ele>
        <time>2010-04-15T19:31:05.69</time>
      </trkpt>
      <trkpt lat="44.17814" lon="5.27318">
        <ele>1666.5</ele>
        <time>2010-04-15T19:31:06.69</time>
      </trkpt>
      <trkpt lat="44.17814" lon="5.27318">
        <ele>1667</ele>
        <time>2010-04-15T19:31:07.69</time>
      </trkpt>
      <trkpt lat="44.17813" lon="5.27319">
        <ele>1667</ele>
        <time>2010-04-15T19:31:08.69</time>
      </trkpt>
      <trkpt lat="44.17812" lon="5.27319">
        <ele>1667</ele>
        <time>2010-04-15T19:31:09.69</time>
      </trkpt>
      <trkpt lat="44.17812" lon="5.27319">
        <ele>1667.5</ele>
        <time>2010-04-15T19:31:10.70</time>
      </trkpt>
      <trkpt lat="44.17811" lon="5.2732">
        <ele>1667.5</ele>
        <time>2010-04-15T19:31:11.68</time>
      </trkpt>
      <trkpt lat="44.1781" lon="5.2732">
        <ele>1667.5</ele>
        <time>2010-04-15T19:31:12.69</time>
      </trkpt>
      <trkpt lat="44.17809" lon="5.27321">
        <ele>1667.5</ele>
        <time>2010-04-15T19:31:13.69</time>
      </trkpt>
      <trkpt lat="44.17809" lon="5.27322">
        <ele>1667.5</ele>
        <time>2010-04-15T19:31:14.69</time>
      </trkpt>
      <trkpt lat="44.17808" lon="5.27322">
        <ele>1667.5</ele>
        <time>2010-04-15T19:31:15.69</time>
      </trkpt>
      <trkpt lat="44.17807" lon="5.27322">
        <ele>1667.5</ele>
        <time>2010-04-15T19:31:16.69</time>
      </trkpt>
      <trkpt lat="44.17806" lon="5.27323">
        <ele>1668</ele>
        <time>2010-04-15T19:31:17.69</time>
      </trkpt>
      <trkpt lat="44.17806" lon="5.27323">
        <ele>1668.5</ele>
        <time>2010-04-15T19:31:18.69</time>
      </trkpt>
      <trkpt lat="44.17805" lon="5.27324">
        <ele>1668.5</ele>
        <time>2010-04-15T19:31:19.69</time>
      </trkpt>
      <trkpt lat="44.17805" lon="5.27324">
        <ele>1669</ele>
        <time>2010-04-15T19:31:20.69</time>
      </trkpt>
      <trkpt lat="44.17804" lon="5.27324">
        <ele>1669.5</ele>
        <time>2010-04-15T19:31:21.69</time>
      </trkpt>
      <trkpt lat="44.17804" lon="5.27325">
        <ele>1669.5</ele>
        <time>2010-04-15T19:31:22.69</time>
      </trkpt>
      <trkpt lat="44.17803" lon="5.27325">
        <ele>1669.5</ele>
        <time>2010-04-15T19:31:23.69</time>
      </trkpt>
      <trkpt lat="44.17802" lon="5.27325">
        <ele>1670</ele>
        <time>2010-04-15T19:31:24.69</time>
      </trkpt>
      <trkpt lat="44.17802" lon="5.27326">
        <ele>1670.5</ele>
        <time>2010-04-15T19:31:25.69</time>
      </trkpt>
      <trkpt lat="44.17801" lon="5.27326">
        <ele>1670.5</ele>
        <time>2010-04-15T19:31:26.69</time>
      </trkpt>
      <trkpt lat="44.178" lon="5.27326">
        <ele>1671</ele>
        <time>2010-04-15T19:31:27.68</time>
      </trkpt>
      <trkpt lat="44.178" lon="5.27326">
        <ele>1671.5</ele>
        <time>2010-04-15T19:31:28.68</time>
      </trkpt>
      <trkpt lat="44.17799" lon="5.27326">
        <ele>1671.5</ele>
        <time>2010-04-15T19:31:29.68</time>
      </trkpt>
      <trkpt lat="44.17798" lon="5.27326">
        <ele>1671.5</ele>
        <time>2010-04-15T19:31:30.69</time>
      </trkpt>
      <trkpt lat="44.17798" lon="5.27326">
        <ele>1672</ele>
        <time>2010-04-15T19:31:31.68</time>
      </trkpt>
      <trkpt lat="44.17797" lon="5.27326">
        <ele>1672.5</ele>
        <time>2010-04-15T19:31:32.68</time>
      </trkpt>
      <trkpt lat="44.17796" lon="5.27326">
        <ele>1672.5</ele>
        <time>2010-04-15T19:31:33.68</time>
      </trkpt>
      <trkpt lat="44.17795" lon="5.27326">
        <ele>1673</ele>
        <time>2010-04-15T19:31:34.68</time>
      </trkpt>
      <trkpt lat="44.17795" lon="5.27326">
        <ele>1673</ele>
        <time>2010-04-15T19:31:35.68</time>
      </trkpt>
      <trkpt lat="44.17794" lon="5.27327">
        <ele>1673.5</ele>
        <time>2010-04-15T19:31:36.68</time>
      </trkpt>
      <trkpt lat="44.17793" lon="5.27327">
        <ele>1673.5</ele>
        <time>2010-04-15T19:31:37.68</time>
      </trkpt>
      <trkpt lat="44.17792" lon="5.27327">
        <ele>1674</ele>
        <time>2010-04-15T19:31:38.68</time>
      </trkpt>
      <trkpt lat="44.17792" lon="5.27327">
        <ele>1674</ele>
        <time>2010-04-15T19:31:39.68</time>
      </trkpt>
      <trkpt lat="44.17791" lon="5.27327">
        <ele>1674</ele>
        <time>2010-04-15T19:31:40.68</time>
      </trkpt>
      <trkpt lat="44.1779" lon="5.27328">
        <ele>1674.5</ele>
        <time>2010-04-15T19:31:41.68</time>
      </trkpt>
      <trkpt lat="44.1779" lon="5.27328">
        <ele>1675</ele>
        <time>2010-04-15T19:31:42.69</time>
      </trkpt>
      <trkpt lat="44.17789" lon="5.27329">
        <ele>1675</ele>
        <time>2010-04-15T19:31:43.68</time>
      </trkpt>
      <trkpt lat="44.17789" lon="5.27329">
        <ele>1675.5</ele>
        <time>2010-04-15T19:31:44.68</time>
      </trkpt>
      <trkpt lat="44.17788" lon="5.2733">
        <ele>1675.5</ele>
        <time>2010-04-15T19:31:45.68</time>
      </trkpt>
      <trkpt lat="44.17787" lon="5.2733">
        <ele>1676</ele>
        <time>2010-04-15T19:31:46.70</time>
      </trkpt>
      <trkpt lat="44.17787" lon="5.2733">
        <ele>1676.5</ele>
        <time>2010-04-15T19:31:47.67</time>
      </trkpt>
      <trkpt lat="44.17786" lon="5.2733">
        <ele>1676.5</ele>
        <time>2010-04-15T19:31:48.70</time>
      </trkpt>
      <trkpt lat="44.17785" lon="5.2733">
        <ele>1677</ele>
        <time>2010-04-15T19:31:49.67</time>
      </trkpt>
      <trkpt lat="44.17784" lon="5.27331">
        <ele>1677</ele>
        <time>2010-04-15T19:31:50.70</time>
      </trkpt>
      <trkpt lat="44.17784" lon="5.27331">
        <ele>1677.5</ele>
        <time>2010-04-15T19:31:51.67</time>
      </trkpt>
      <trkpt lat="44.17783" lon="5.27331">
        <ele>1677.5</ele>
        <time>2010-04-15T19:31:52.67</time>
      </trkpt>
      <trkpt lat="44.17783" lon="5.27331">
        <ele>1678</ele>
        <time>2010-04-15T19:31:53.68</time>
      </trkpt>
      <trkpt lat="44.17782" lon="5.27331">
        <ele>1678</ele>
        <time>2010-04-15T19:31:54.68</time>
      </trkpt>
      <trkpt lat="44.17781" lon="5.27332">
        <ele>1678</ele>
        <time>2010-04-15T19:31:55.67</time>
      </trkpt>
      <trkpt lat="44.17781" lon="5.27332">
        <ele>1678.5</ele>
        <time>2010-04-15T19:31:56.67</time>
      </trkpt>
      <trkpt lat="44.1778" lon="5.27332">
        <ele>1678.5</ele>
        <time>2010-04-15T19:31:57.67</time>
      </trkpt>
      <trkpt lat="44.17779" lon="5.27332">
        <ele>1678.5</ele>
        <time>2010-04-15T19:31:58.67</time>
      </trkpt>
      <trkpt lat="44.17779" lon="5.27332">
        <ele>1679</ele>
        <time>2010-04-15T19:31:59.68</time>
      </trkpt>
      <trkpt lat="44.17778" lon="5.27333">
        <ele>1679.5</ele>
        <time>2010-04-15T19:32:00.67</time>
      </trkpt>
      <trkpt lat="44.17778" lon="5.27333">
        <ele>1680</ele>
        <time>2010-04-15T19:32:01.67</time>
      </trkpt>
      <trkpt lat="44.17777" lon="5.27333">
        <ele>1680</ele>
        <time>2010-04-15T19:32:02.67</time>
      </trkpt>
      <trkpt lat="44.17776" lon="5.27333">
        <ele>1680.5</ele>
        <time>2010-04-15T19:32:03.67</time>
      </trkpt>
      <trkpt lat="44.17775" lon="5.27334">
        <ele>1680.5</ele>
        <time>2010-04-15T19:32:04.67</time>
      </trkpt>
      <trkpt lat="44.17775" lon="5.27334">
        <ele>1681</ele>
        <time>2010-04-15T19:32:05.67</time>
      </trkpt>
      <trkpt lat="44.17774" lon="5.27334">
        <ele>1681</ele>
        <time>2010-04-15T19:32:06.67</time>
      </trkpt>
      <trkpt lat="44.17773" lon="5.27334">
        <ele>1681</ele>
        <time>2010-04-15T19:32:07.67</time>
      </trkpt>
      <trkpt lat="44.17773" lon="5.27335">
        <ele>1681.5</ele>
        <time>2010-04-15T19:32:08.67</time>
      </trkpt>
      <trkpt lat="44.17772" lon="5.27335">
        <ele>1681.5</ele>
        <time>2010-04-15T19:32:09.67</time>
      </trkpt>
      <trkpt lat="44.17771" lon="5.27335">
        <ele>1681.5</ele>
        <time>2010-04-15T19:32:10.67</time>
      </trkpt>
      <trkpt lat="44.17771" lon="5.27335">
        <ele>1682</ele>
        <time>2010-04-15T19:32:11.66</time>
      </trkpt>
      <trkpt lat="44.1777" lon="5.27335">
        <ele>1682</ele>
        <time>2010-04-15T19:32:12.66</time>
      </trkpt>
      <trkpt lat="44.17769" lon="5.27336">
        <ele>1682.5</ele>
        <time>2010-04-15T19:32:13.66</time>
      </trkpt>
      <trkpt lat="44.17769" lon="5.27336">
        <ele>1682.5</ele>
        <time>2010-04-15T19:32:14.66</time>
      </trkpt>
      <trkpt lat="44.17768" lon="5.27336">
        <ele>1682.5</ele>
        <time>2010-04-15T19:32:15.66</time>
      </trkpt>
      <trkpt lat="44.17768" lon="5.27337">
        <ele>1683</ele>
        <time>2010-04-15T19:32:16.66</time>
      </trkpt>
      <trkpt lat="44.17767" lon="5.27337">
        <ele>1683.5</ele>
        <time>2010-04-15T19:32:17.66</time>
      </trkpt>
      <trkpt lat="44.17766" lon="5.27337">
        <ele>1683.5</ele>
        <time>2010-04-15T19:32:18.66</time>
      </trkpt>
      <trkpt lat="44.17766" lon="5.27337">
        <ele>1684</ele>
        <time>2010-04-15T19:32:19.66</time>
      </trkpt>
      <trkpt lat="44.17765" lon="5.27337">
        <ele>1684</ele>
        <time>2010-04-15T19:32:20.66</time>
      </trkpt>
      <trkpt lat="44.17765" lon="5.27338">
        <ele>1684</ele>
        <time>2010-04-15T19:32:21.66</time>
      </trkpt>
      <trkpt lat="44.17764" lon="5.27338">
        <ele>1684</ele>
        <time>2010-04-15T19:32:22.66</time>
      </trkpt>
      <trkpt lat="44.17763" lon="5.27338">
        <ele>1684.5</ele>
        <time>2010-04-15T19:32:23.66</time>
      </trkpt>
      <trkpt lat="44.17763" lon="5.27339">
        <ele>1684.5</ele>
        <time>2010-04-15T19:32:24.68</time>
      </trkpt>
      <trkpt lat="44.17762" lon="5.27339">
        <ele>1685</ele>
        <time>2010-04-15T19:32:25.65</time>
      </trkpt>
      <trkpt lat="44.17762" lon="5.27339">
        <ele>1685.5</ele>
        <time>2010-04-15T19:32:26.66</time>
      </trkpt>
      <trkpt lat="44.17761" lon="5.27339">
        <ele>1685.5</ele>
        <time>2010-04-15T19:32:27.66</time>
      </trkpt>
      <trkpt lat="44.17761" lon="5.2734">
        <ele>1686</ele>
        <time>2010-04-15T19:32:28.65</time>
      </trkpt>
      <trkpt lat="44.1776" lon="5.2734">
        <ele>1686</ele>
        <time>2010-04-15T19:32:29.65</time>
      </trkpt>
      <trkpt lat="44.1776" lon="5.2734">
        <ele>1686.5</ele>
        <time>2010-04-15T19:32:30.65</time>
      </trkpt>
      <trkpt lat="44.17759" lon="5.27341">
        <ele>1687</ele>
        <time>2010-04-15T19:32:31.66</time>
      </trkpt>
      <trkpt lat="44.17758" lon="5.27341">
        <ele>1687</ele>
        <time>2010-04-15T19:32:32.65</time>
      </trkpt>
      <trkpt lat="44.17758" lon="5.27341">
        <ele>1687.5</ele>
        <time>2010-04-15T19:32:33.65</time>
      </trkpt>
      <trkpt lat="44.17757" lon="5.27341">
        <ele>1688</ele>
        <time>2010-04-15T19:32:34.65</time>
      </trkpt>
      <trkpt lat="44.17757" lon="5.27341">
        <ele>1688.5</ele>
        <time>2010-04-15T19:32:35.65</time>
      </trkpt>
      <trkpt lat="44.17756" lon="5.27342">
        <ele>1688.5</ele>
        <time>2010-04-15T19:32:36.65</time>
      </trkpt>
      <trkpt lat="44.17755" lon="5.27342">
        <ele>1689</ele>
        <time>2010-04-15T19:32:37.65</time>
      </trkpt>
      <trkpt lat="44.17755" lon="5.27342">
        <ele>1689</ele>
        <time>2010-04-15T19:32:38.67</time>
      </trkpt>
      <trkpt lat="44.17754" lon="5.27342">
        <ele>1689.5</ele>
        <time>2010-04-15T19:32:39.65</time>
      </trkpt>
      <trkpt lat="44.17753" lon="5.27342">
        <ele>1689.5</ele>
        <time>2010-04-15T19:32:40.67</time>
      </trkpt>
      <trkpt lat="44.17753" lon="5.27343">
        <ele>1690</ele>
        <time>2010-04-15T19:32:41.64</time>
      </trkpt>
      <trkpt lat="44.17752" lon="5.27343">
        <ele>1690.5</ele>
        <time>2010-04-15T19:32:42.66</time>
      </trkpt>
      <trkpt lat="44.17752" lon="5.27343">
        <ele>1690.5</ele>
        <time>2010-04-15T19:32:43.65</time>
      </trkpt>
      <trkpt lat="44.17751" lon="5.27343">
        <ele>1691</ele>
        <time>2010-04-15T19:32:44.65</time>
      </trkpt>
      <trkpt lat="44.1775" lon="5.27344">
        <ele>1691</ele>
        <time>2010-04-15T19:32:45.65</time>
      </trkpt>
      <trkpt lat="44.1775" lon="5.27344">
        <ele>1691.5</ele>
        <time>2010-04-15T19:32:46.65</time>
      </trkpt>
      <trkpt lat="44.1775" lon="5.27344">
        <ele>1691.5</ele>
        <time>2010-04-15T19:32:47.64</time>
      </trkpt>
      <trkpt lat="44.1775" lon="5.27344">
        <ele>1691.5</ele>
        <time>2010-04-15T19:32:48.64</time>
      </trkpt>
      <trkpt lat="44.1775" lon="5.27344">
        <ele>1691.5</ele>
        <time>2010-04-15T19:32:49.64</time>
      </trkpt>
      <trkpt lat="44.1775" lon="5.27344">
        <ele>1691</ele>
        <time>2010-04-15T19:32:50.64</time>
      </trkpt>
      <trkpt lat="44.1775" lon="5.27344">
        <ele>1691</ele>
        <time>2010-04-15T19:32:51.64</time>
      </trkpt>
      <trkpt lat="44.1775" lon="5.27344">
        <ele>1691</ele>
        <time>2010-04-15T19:32:52.64</time>
      </trkpt>
      <trkpt lat="44.1775" lon="5.27344">
        <ele>1691</ele>
        <time>2010-04-15T19:32:53.64</time>
      </trkpt>
      <trkpt lat="44.1775" lon="5.27344">
        <ele>1691</ele>
        <time>2010-04-15T19:32:54.64</time>
      </trkpt>
      <trkpt lat="44.1775" lon="5.27344">
        <ele>1691</ele>
        <time>2010-04-15T19:32:55.64</time>
      </trkpt>
      <trkpt lat="44.17749" lon="5.27344">
        <ele>1691</ele>
        <time>2010-04-15T19:32:56.64</time>
      </trkpt>
      <trkpt lat="44.17749" lon="5.27344">
        <ele>1691</ele>
        <time>2010-04-15T19:32:57.64</time>
      </trkpt>
      <trkpt lat="44.17748" lon="5.27344">
        <ele>1690.5</ele>
        <time>2010-04-15T19:32:58.63</time>
      </trkpt>
      <trkpt lat="44.17747" lon="5.27345">
        <ele>1690.5</ele>
        <time>2010-04-15T19:32:59.64</time>
      </trkpt>
      <trkpt lat="44.17746" lon="5.27345">
        <ele>1691</ele>
        <time>2010-04-15T19:33:00.64</time>
      </trkpt>
      <trkpt lat="44.17746" lon="5.27345">
        <ele>1691.5</ele>
        <time>2010-04-15T19:33:01.64</time>
      </trkpt>
      <trkpt lat="44.17745" lon="5.27345">
        <ele>1691.5</ele>
        <time>2010-04-15T19:33:02.64</time>
      </trkpt>
      <trkpt lat="44.17745" lon="5.27345">
        <ele>1691.5</ele>
        <time>2010-04-15T19:33:03.64</time>
      </trkpt>
      <trkpt lat="44.17744" lon="5.27346">
        <ele>1692</ele>
        <time>2010-04-15T19:33:04.63</time>
      </trkpt>
      <trkpt lat="44.17743" lon="5.27346">
        <ele>1692</ele>
        <time>2010-04-15T19:33:05.63</time>
      </trkpt>
      <trkpt lat="44.17743" lon="5.27346">
        <ele>1692.5</ele>
        <time>2010-04-15T19:33:06.63</time>
      </trkpt>
      <trkpt lat="44.17742" lon="5.27347">
        <ele>1692.5</ele>
        <time>2010-04-15T19:33:07.63</time>
      </trkpt>
      <trkpt lat="44.17741" lon="5.27347">
        <ele>1693</ele>
        <time>2010-04-15T19:33:08.63</time>
      </trkpt>
      <trkpt lat="44.17741" lon="5.27347">
        <ele>1693</ele>
        <time>2010-04-15T19:33:09.63</time>
      </trkpt>
      <trkpt lat="44.1774" lon="5.27347">
        <ele>1693.5</ele>
        <time>2010-04-15T19:33:10.63</time>
      </trkpt>
      <trkpt lat="44.17739" lon="5.27347">
        <ele>1693.5</ele>
        <time>2010-04-15T19:33:11.64</time>
      </trkpt>
      <trkpt lat="44.17738" lon="5.27348">
        <ele>1693.5</ele>
        <time>2010-04-15T19:33:12.63</time>
      </trkpt>
      <trkpt lat="44.17737" lon="5.27348">
        <ele>1694</ele>
        <time>2010-04-15T19:33:13.63</time>
      </trkpt>
      <trkpt lat="44.17737" lon="5.27348">
        <ele>1694</ele>
        <time>2010-04-15T19:33:14.63</time>
      </trkpt>
      <trkpt lat="44.17736" lon="5.27348">
        <ele>1694.5</ele>
        <time>2010-04-15T19:33:15.63</time>
      </trkpt>
      <trkpt lat="44.17735" lon="5.27348">
        <ele>1694.5</ele>
        <time>2010-04-15T19:33:16.63</time>
      </trkpt>
      <trkpt lat="44.17735" lon="5.27348">
        <ele>1695</ele>
        <time>2010-04-15T19:33:17.63</time>
      </trkpt>
      <trkpt lat="44.17734" lon="5.27349">
        <ele>1695</ele>
        <time>2010-04-15T19:33:18.63</time>
      </trkpt>
      <trkpt lat="44.17733" lon="5.27349">
        <ele>1695</ele>
        <time>2010-04-15T19:33:19.63</time>
      </trkpt>
      <trkpt lat="44.17732" lon="5.27349">
        <ele>1695.5</ele>
        <time>2010-04-15T19:33:20.63</time>
      </trkpt>
      <trkpt lat="44.17732" lon="5.27349">
        <ele>1695.5</ele>
        <time>2010-04-15T19:33:21.62</time>
      </trkpt>
      <trkpt lat="44.17731" lon="5.2735">
        <ele>1696</ele>
        <time>2010-04-15T19:33:22.62</time>
      </trkpt>
      <trkpt lat="44.1773" lon="5.2735">
        <ele>1696.5</ele>
        <time>2010-04-15T19:33:23.62</time>
      </trkpt>
      <trkpt lat="44.1773" lon="5.2735">
        <ele>1696.5</ele>
        <time>2010-04-15T19:33:24.62</time>
      </trkpt>
      <trkpt lat="44.17729" lon="5.2735">
        <ele>1697</ele>
        <time>2010-04-15T19:33:25.62</time>
      </trkpt>
      <trkpt lat="44.17728" lon="5.27351">
        <ele>1697</ele>
        <time>2010-04-15T19:33:26.62</time>
      </trkpt>
      <trkpt lat="44.17728" lon="5.27351">
        <ele>1697.5</ele>
        <time>2010-04-15T19:33:27.62</time>
      </trkpt>
      <trkpt lat="44.17727" lon="5.27351">
        <ele>1697.5</ele>
        <time>2010-04-15T19:33:28.62</time>
      </trkpt>
      <trkpt lat="44.17727" lon="5.27351">
        <ele>1698</ele>
        <time>2010-04-15T19:33:29.62</time>
      </trkpt>
      <trkpt lat="44.17726" lon="5.27351">
        <ele>1698.5</ele>
        <time>2010-04-15T19:33:30.62</time>
      </trkpt>
      <trkpt lat="44.17725" lon="5.27351">
        <ele>1699</ele>
        <time>2010-04-15T19:33:31.62</time>
      </trkpt>
      <trkpt lat="44.17725" lon="5.27351">
        <ele>1699</ele>
        <time>2010-04-15T19:33:32.62</time>
      </trkpt>
      <trkpt lat="44.17724" lon="5.27351">
        <ele>1699</ele>
        <time>2010-04-15T19:33:33.62</time>
      </trkpt>
      <trkpt lat="44.17723" lon="5.27351">
        <ele>1699.5</ele>
        <time>2010-04-15T19:33:34.62</time>
      </trkpt>
      <trkpt lat="44.17723" lon="5.27351">
        <ele>1699.5</ele>
        <time>2010-04-15T19:33:35.62</time>
      </trkpt>
      <trkpt lat="44.17722" lon="5.27351">
        <ele>1699.5</ele>
        <time>2010-04-15T19:33:36.62</time>
      </trkpt>
      <trkpt lat="44.17721" lon="5.27351">
        <ele>1700</ele>
        <time>2010-04-15T19:33:37.62</time>
      </trkpt>
      <trkpt lat="44.17721" lon="5.27352">
        <ele>1700.5</ele>
        <time>2010-04-15T19:33:38.62</time>
      </trkpt>
      <trkpt lat="44.1772" lon="5.27352">
        <ele>1700.5</ele>
        <time>2010-04-15T19:33:39.61</time>
      </trkpt>
      <trkpt lat="44.1772" lon="5.27352">
        <ele>1701</ele>
        <time>2010-04-15T19:33:40.61</time>
      </trkpt>
      <trkpt lat="44.1772" lon="5.27353">
        <ele>1701.5</ele>
        <time>2010-04-15T19:33:41.61</time>
      </trkpt>
      <trkpt lat="44.17719" lon="5.27353">
        <ele>1702</ele>
        <time>2010-04-15T19:33:42.62</time>
      </trkpt>
      <trkpt lat="44.17719" lon="5.27353">
        <ele>1702.5</ele>
        <time>2010-04-15T19:33:43.61</time>
      </trkpt>
      <trkpt lat="44.17718" lon="5.27353">
        <ele>1702.5</ele>
        <time>2010-04-15T19:33:44.61</time>
      </trkpt>
      <trkpt lat="44.17717" lon="5.27354">
        <ele>1703</ele>
        <time>2010-04-15T19:33:45.61</time>
      </trkpt>
      <trkpt lat="44.17717" lon="5.27354">
        <ele>1703.5</ele>
        <time>2010-04-15T19:33:46.61</time>
      </trkpt>
      <trkpt lat="44.17716" lon="5.27354">
        <ele>1703.5</ele>
        <time>2010-04-15T19:33:47.61</time>
      </trkpt>
      <trkpt lat="44.17716" lon="5.27355">
        <ele>1703.5</ele>
        <time>2010-04-15T19:33:48.61</time>
      </trkpt>
      <trkpt lat="44.17715" lon="5.27355">
        <ele>1704</ele>
        <time>2010-04-15T19:33:49.61</time>
      </trkpt>
      <trkpt lat="44.17714" lon="5.27356">
        <ele>1704</ele>
        <time>2010-04-15T19:33:50.61</time>
      </trkpt>
      <trkpt lat="44.17714" lon="5.27356">
        <ele>1704.5</ele>
        <time>2010-04-15T19:33:51.61</time>
      </trkpt>
      <trkpt lat="44.17713" lon="5.27356">
        <ele>1705</ele>
        <time>2010-04-15T19:33:52.61</time>
      </trkpt>
      <trkpt lat="44.17713" lon="5.27356">
        <ele>1705</ele>
        <time>2010-04-15T19:33:53.61</time>
      </trkpt>
      <trkpt lat="44.17712" lon="5.27357">
        <ele>1705.5</ele>
        <time>2010-04-15T19:33:54.61</time>
      </trkpt>
      <trkpt lat="44.17711" lon="5.27357">
        <ele>1705.5</ele>
        <time>2010-04-15T19:33:55.60</time>
      </trkpt>
      <trkpt lat="44.17711" lon="5.27357">
        <ele>1706</ele>
        <time>2010-04-15T19:33:56.60</time>
      </trkpt>
      <trkpt lat="44.1771" lon="5.27358">
        <ele>1706</ele>
        <time>2010-04-15T19:33:57.60</time>
      </trkpt>
      <trkpt lat="44.1771" lon="5.27358">
        <ele>1706.5</ele>
        <time>2010-04-15T19:33:58.60</time>
      </trkpt>
      <trkpt lat="44.17709" lon="5.27358">
        <ele>1706.5</ele>
        <time>2010-04-15T19:33:59.60</time>
      </trkpt>
      <trkpt lat="44.17709" lon="5.27358">
        <ele>1707</ele>
        <time>2010-04-15T19:34:00.60</time>
      </trkpt>
      <trkpt lat="44.17708" lon="5.27359">
        <ele>1707</ele>
        <time>2010-04-15T19:34:01.60</time>
      </trkpt>
      <trkpt lat="44.17708" lon="5.27359">
        <ele>1707.5</ele>
        <time>2010-04-15T19:34:02.60</time>
      </trkpt>
      <trkpt lat="44.17707" lon="5.27359">
        <ele>1707.5</ele>
        <time>2010-04-15T19:34:03.60</time>
      </trkpt>
      <trkpt lat="44.17707" lon="5.2736">
        <ele>1708</ele>
        <time>2010-04-15T19:34:04.60</time>
      </trkpt>
      <trkpt lat="44.17706" lon="5.2736">
        <ele>1708.5</ele>
        <time>2010-04-15T19:34:05.60</time>
      </trkpt>
      <trkpt lat="44.17706" lon="5.27361">
        <ele>1709</ele>
        <time>2010-04-15T19:34:06.60</time>
      </trkpt>
      <trkpt lat="44.17705" lon="5.27361">
        <ele>1709</ele>
        <time>2010-04-15T19:34:07.60</time>
      </trkpt>
      <trkpt lat="44.17705" lon="5.27361">
        <ele>1709</ele>
        <time>2010-04-15T19:34:08.60</time>
      </trkpt>
      <trkpt lat="44.17704" lon="5.27362">
        <ele>1709.5</ele>
        <time>2010-04-15T19:34:09.60</time>
      </trkpt>
      <trkpt lat="44.17704" lon="5.27362">
        <ele>1709.5</ele>
        <time>2010-04-15T19:34:10.60</time>
      </trkpt>
      <trkpt lat="44.17703" lon="5.27362">
        <ele>1710</ele>
        <time>2010-04-15T19:34:11.60</time>
      </trkpt>
      <trkpt lat="44.17703" lon="5.27363">
        <ele>1710</ele>
        <time>2010-04-15T19:34:12.60</time>
      </trkpt>
      <trkpt lat="44.17702" lon="5.27363">
        <ele>1710</ele>
        <time>2010-04-15T19:34:13.59</time>
      </trkpt>
      <trkpt lat="44.17701" lon="5.27362">
        <ele>1710.5</ele>
        <time>2010-04-15T19:34:14.59</time>
      </trkpt>
      <trkpt lat="44.177" lon="5.27363">
        <ele>1710.5</ele>
        <time>2010-04-15T19:34:15.59</time>
      </trkpt>
      <trkpt lat="44.177" lon="5.27362">
        <ele>1710.5</ele>
        <time>2010-04-15T19:34:16.59</time>
      </trkpt>
      <trkpt lat="44.17699" lon="5.27362">
        <ele>1710.5</ele>
        <time>2010-04-15T19:34:17.59</time>
      </trkpt>
      <trkpt lat="44.17698" lon="5.27362">
        <ele>1710.5</ele>
        <time>2010-04-15T19:34:18.59</time>
      </trkpt>
      <trkpt lat="44.17698" lon="5.27362">
        <ele>1711</ele>
        <time>2010-04-15T19:34:19.59</time>
      </trkpt>
      <trkpt lat="44.17697" lon="5.27362">
        <ele>1711</ele>
        <time>2010-04-15T19:34:20.59</time>
      </trkpt>
      <trkpt lat="44.17696" lon="5.27361">
        <ele>1711.5</ele>
        <time>2010-04-15T19:34:21.59</time>
      </trkpt>
      <trkpt lat="44.17696" lon="5.27361">
        <ele>1711.5</ele>
        <time>2010-04-15T19:34:22.59</time>
      </trkpt>
      <trkpt lat="44.17695" lon="5.27361">
        <ele>1711.5</ele>
        <time>2010-04-15T19:34:23.59</time>
      </trkpt>
      <trkpt lat="44.17694" lon="5.27361">
        <ele>1712</ele>
        <time>2010-04-15T19:34:24.59</time>
      </trkpt>
      <trkpt lat="44.17694" lon="5.27361">
        <ele>1712.5</ele>
        <time>2010-04-15T19:34:25.59</time>
      </trkpt>
      <trkpt lat="44.17694" lon="5.27361">
        <ele>1712.5</ele>
        <time>2010-04-15T19:34:26.59</time>
      </trkpt>
      <trkpt lat="44.17694" lon="5.27361">
        <ele>1712.5</ele>
        <time>2010-04-15T19:34:27.59</time>
      </trkpt>
      <trkpt lat="44.17694" lon="5.27361">
        <ele>1712.5</ele>
        <time>2010-04-15T19:34:28.58</time>
      </trkpt>
      <trkpt lat="44.17694" lon="5.27361">
        <ele>1712.5</ele>
        <time>2010-04-15T19:34:29.58</time>
      </trkpt>
      <trkpt lat="44.17694" lon="5.27361">
        <ele>1712.5</ele>
        <time>2010-04-15T19:34:30.58</time>
      </trkpt>
      <trkpt lat="44.17694" lon="5.27361">
        <ele>1712.5</ele>
        <time>2010-04-15T19:34:31.58</time>
      </trkpt>
      <trkpt lat="44.17693" lon="5.27361">
        <ele>1712.5</ele>
        <time>2010-04-15T19:34:32.58</time>
      </trkpt>
      <trkpt lat="44.17693" lon="5.27361">
        <ele>1712.5</ele>
        <time>2010-04-15T19:34:33.58</time>
      </trkpt>
      <trkpt lat="44.17692" lon="5.2736">
        <ele>1713</ele>
        <time>2010-04-15T19:34:34.58</time>
      </trkpt>
      <trkpt lat="44.17692" lon="5.2736">
        <ele>1713</ele>
        <time>2010-04-15T19:34:35.58</time>
      </trkpt>
      <trkpt lat="44.17691" lon="5.2736">
        <ele>1713</ele>
        <time>2010-04-15T19:34:36.58</time>
      </trkpt>
      <trkpt lat="44.1769" lon="5.2736">
        <ele>1713.5</ele>
        <time>2010-04-15T19:34:37.58</time>
      </trkpt>
      <trkpt lat="44.1769" lon="5.2736">
        <ele>1713.5</ele>
        <time>2010-04-15T19:34:38.58</time>
      </trkpt>
      <trkpt lat="44.17689" lon="5.27361">
        <ele>1713.5</ele>
        <time>2010-04-15T19:34:39.58</time>
      </trkpt>
      <trkpt lat="44.17688" lon="5.27362">
        <ele>1713.5</ele>
        <time>2010-04-15T19:34:40.58</time>
      </trkpt>
      <trkpt lat="44.17688" lon="5.27363">
        <ele>1714</ele>
        <time>2010-04-15T19:34:41.58</time>
      </trkpt>
      <trkpt lat="44.17687" lon="5.27363">
        <ele>1714</ele>
        <time>2010-04-15T19:34:42.58</time>
      </trkpt>
      <trkpt lat="44.17687" lon="5.27364">
        <ele>1714.5</ele>
        <time>2010-04-15T19:34:43.58</time>
      </trkpt>
      <trkpt lat="44.17687" lon="5.27365">
        <ele>1714.5</ele>
        <time>2010-04-15T19:34:44.58</time>
      </trkpt>
      <trkpt lat="44.17686" lon="5.27366">
        <ele>1715</ele>
        <time>2010-04-15T19:34:45.57</time>
      </trkpt>
      <trkpt lat="44.17686" lon="5.27367">
        <ele>1715</ele>
        <time>2010-04-15T19:34:46.57</time>
      </trkpt>
      <trkpt lat="44.17685" lon="5.27368">
        <ele>1715.5</ele>
        <time>2010-04-15T19:34:47.57</time>
      </trkpt>
      <trkpt lat="44.17685" lon="5.27369">
        <ele>1715.5</ele>
        <time>2010-04-15T19:34:48.57</time>
      </trkpt>
      <trkpt lat="44.17685" lon="5.27369">
        <ele>1716</ele>
        <time>2010-04-15T19:34:49.57</time>
      </trkpt>
      <trkpt lat="44.17684" lon="5.2737">
        <ele>1716.5</ele>
        <time>2010-04-15T19:34:50.57</time>
      </trkpt>
      <trkpt lat="44.17684" lon="5.27371">
        <ele>1716.5</ele>
        <time>2010-04-15T19:34:51.57</time>
      </trkpt>
      <trkpt lat="44.17684" lon="5.27372">
        <ele>1716.5</ele>
        <time>2010-04-15T19:34:52.57</time>
      </trkpt>
      <trkpt lat="44.17683" lon="5.27373">
        <ele>1716.5</ele>
        <time>2010-04-15T19:34:53.57</time>
      </trkpt>
      <trkpt lat="44.17683" lon="5.27374">
        <ele>1717</ele>
        <time>2010-04-15T19:34:54.57</time>
      </trkpt>
      <trkpt lat="44.17683" lon="5.27375">
        <ele>1717</ele>
        <time>2010-04-15T19:34:55.57</time>
      </trkpt>
      <trkpt lat="44.17683" lon="5.27375">
        <ele>1717.5</ele>
        <time>2010-04-15T19:34:56.57</time>
      </trkpt>
      <trkpt lat="44.17682" lon="5.27376">
        <ele>1717.5</ele>
        <time>2010-04-15T19:34:57.57</time>
      </trkpt>
      <trkpt lat="44.17682" lon="5.27376">
        <ele>1718</ele>
        <time>2010-04-15T19:34:58.57</time>
      </trkpt>
      <trkpt lat="44.17681" lon="5.27377">
        <ele>1718</ele>
        <time>2010-04-15T19:34:59.57</time>
      </trkpt>
      <trkpt lat="44.17681" lon="5.27377">
        <ele>1718.5</ele>
        <time>2010-04-15T19:35:00.57</time>
      </trkpt>
      <trkpt lat="44.1768" lon="5.27377">
        <ele>1718.5</ele>
        <time>2010-04-15T19:35:01.57</time>
      </trkpt>
      <trkpt lat="44.17679" lon="5.27377">
        <ele>1718.5</ele>
        <time>2010-04-15T19:35:02.57</time>
      </trkpt>
      <trkpt lat="44.17678" lon="5.27377">
        <ele>1719</ele>
        <time>2010-04-15T19:35:03.57</time>
      </trkpt>
      <trkpt lat="44.17678" lon="5.27377">
        <ele>1719</ele>
        <time>2010-04-15T19:35:04.57</time>
      </trkpt>
      <trkpt lat="44.17677" lon="5.27377">
        <ele>1719.5</ele>
        <time>2010-04-15T19:35:05.56</time>
      </trkpt>
      <trkpt lat="44.17676" lon="5.27377">
        <ele>1720</ele>
        <time>2010-04-15T19:35:06.56</time>
      </trkpt>
      <trkpt lat="44.17676" lon="5.27377">
        <ele>1720</ele>
        <time>2010-04-15T19:35:07.56</time>
      </trkpt>
      <trkpt lat="44.17675" lon="5.27377">
        <ele>1720</ele>
        <time>2010-04-15T19:35:08.56</time>
      </trkpt>
      <trkpt lat="44.17674" lon="5.27377">
        <ele>1720.5</ele>
        <time>2010-04-15T19:35:09.56</time>
      </trkpt>
      <trkpt lat="44.17673" lon="5.27377">
        <ele>1720.5</ele>
        <time>2010-04-15T19:35:10.56</time>
      </trkpt>
      <trkpt lat="44.17673" lon="5.27378">
        <ele>1721</ele>
        <time>2010-04-15T19:35:11.56</time>
      </trkpt>
      <trkpt lat="44.17672" lon="5.27378">
        <ele>1721.5</ele>
        <time>2010-04-15T19:35:12.56</time>
      </trkpt>
      <trkpt lat="44.17672" lon="5.27378">
        <ele>1722</ele>
        <time>2010-04-15T19:35:13.56</time>
      </trkpt>
      <trkpt lat="44.17671" lon="5.27379">
        <ele>1722</ele>
        <time>2010-04-15T19:35:14.56</time>
      </trkpt>
      <trkpt lat="44.17671" lon="5.27379">
        <ele>1722.5</ele>
        <time>2010-04-15T19:35:15.56</time>
      </trkpt>
      <trkpt lat="44.1767" lon="5.27379">
        <ele>1722.5</ele>
        <time>2010-04-15T19:35:16.56</time>
      </trkpt>
      <trkpt lat="44.1767" lon="5.2738">
        <ele>1723</ele>
        <time>2010-04-15T19:35:17.56</time>
      </trkpt>
      <trkpt lat="44.17669" lon="5.2738">
        <ele>1723.5</ele>
        <time>2010-04-15T19:35:18.56</time>
      </trkpt>
      <trkpt lat="44.17669" lon="5.27381">
        <ele>1723.5</ele>
        <time>2010-04-15T19:35:19.56</time>
      </trkpt>
      <trkpt lat="44.17668" lon="5.27381">
        <ele>1724</ele>
        <time>2010-04-15T19:35:20.56</time>
      </trkpt>
      <trkpt lat="44.17668" lon="5.27381">
        <ele>1724.5</ele>
        <time>2010-04-15T19:35:21.56</time>
      </trkpt>
      <trkpt lat="44.17667" lon="5.27382">
        <ele>1725</ele>
        <time>2010-04-15T19:35:22.55</time>
      </trkpt>
      <trkpt lat="44.17667" lon="5.27382">
        <ele>1725</ele>
        <time>2010-04-15T19:35:23.55</time>
      </trkpt>
      <trkpt lat="44.17666" lon="5.27382">
        <ele>1725</ele>
        <time>2010-04-15T19:35:24.55</time>
      </trkpt>
      <trkpt lat="44.17666" lon="5.27383">
        <ele>1725.5</ele>
        <time>2010-04-15T19:35:25.55</time>
      </trkpt>
      <trkpt lat="44.17665" lon="5.27383">
        <ele>1726</ele>
        <time>2010-04-15T19:35:26.55</time>
      </trkpt>
      <trkpt lat="44.17665" lon="5.27383">
        <ele>1726</ele>
        <time>2010-04-15T19:35:27.55</time>
      </trkpt>
      <trkpt lat="44.17664" lon="5.27384">
        <ele>1726</ele>
        <time>2010-04-15T19:35:28.55</time>
      </trkpt>
      <trkpt lat="44.17664" lon="5.27384">
        <ele>1726</ele>
        <time>2010-04-15T19:35:29.55</time>
      </trkpt>
      <trkpt lat="44.17663" lon="5.27385">
        <ele>1726</ele>
        <time>2010-04-15T19:35:30.55</time>
      </trkpt>
      <trkpt lat="44.17662" lon="5.27385">
        <ele>1726</ele>
        <time>2010-04-15T19:35:31.55</time>
      </trkpt>
      <trkpt lat="44.17662" lon="5.27386">
        <ele>1726.5</ele>
        <time>2010-04-15T19:35:32.55</time>
      </trkpt>
      <trkpt lat="44.17661" lon="5.27386">
        <ele>1726.5</ele>
        <time>2010-04-15T19:35:33.55</time>
      </trkpt>
      <trkpt lat="44.1766" lon="5.27386">
        <ele>1726.5</ele>
        <time>2010-04-15T19:35:34.55</time>
      </trkpt>
      <trkpt lat="44.1766" lon="5.27387">
        <ele>1726.5</ele>
        <time>2010-04-15T19:35:35.55</time>
      </trkpt>
      <trkpt lat="44.17659" lon="5.27387">
        <ele>1726.5</ele>
        <time>2010-04-15T19:35:36.55</time>
      </trkpt>
      <trkpt lat="44.17658" lon="5.27388">
        <ele>1727</ele>
        <time>2010-04-15T19:35:37.55</time>
      </trkpt>
      <trkpt lat="44.17657" lon="5.27388">
        <ele>1727</ele>
        <time>2010-04-15T19:35:38.55</time>
      </trkpt>
      <trkpt lat="44.17657" lon="5.27389">
        <ele>1727</ele>
        <time>2010-04-15T19:35:39.55</time>
      </trkpt>
      <trkpt lat="44.17656" lon="5.27389">
        <ele>1727</ele>
        <time>2010-04-15T19:35:40.54</time>
      </trkpt>
      <trkpt lat="44.17656" lon="5.27389">
        <ele>1727.5</ele>
        <time>2010-04-15T19:35:41.54</time>
      </trkpt>
      <trkpt lat="44.17655" lon="5.2739">
        <ele>1727.5</ele>
        <time>2010-04-15T19:35:42.55</time>
      </trkpt>
      <trkpt lat="44.17654" lon="5.2739">
        <ele>1727.5</ele>
        <time>2010-04-15T19:35:43.54</time>
      </trkpt>
      <trkpt lat="44.17654" lon="5.2739">
        <ele>1728</ele>
        <time>2010-04-15T19:35:44.54</time>
      </trkpt>
      <trkpt lat="44.17653" lon="5.27391">
        <ele>1728</ele>
        <time>2010-04-15T19:35:45.54</time>
      </trkpt>
      <trkpt lat="44.17652" lon="5.27391">
        <ele>1728</ele>
        <time>2010-04-15T19:35:46.54</time>
      </trkpt>
      <trkpt lat="44.17652" lon="5.27392">
        <ele>1728</ele>
        <time>2010-04-15T19:35:47.54</time>
      </trkpt>
      <trkpt lat="44.17651" lon="5.27392">
        <ele>1728</ele>
        <time>2010-04-15T19:35:48.54</time>
      </trkpt>
      <trkpt lat="44.1765" lon="5.27392">
        <ele>1728</ele>
        <time>2010-04-15T19:35:49.54</time>
      </trkpt>
      <trkpt lat="44.1765" lon="5.27393">
        <ele>1728.5</ele>
        <time>2010-04-15T19:35:50.54</time>
      </trkpt>
      <trkpt lat="44.17649" lon="5.27393">
        <ele>1728.5</ele>
        <time>2010-04-15T19:35:51.54</time>
      </trkpt>
      <trkpt lat="44.17648" lon="5.27393">
        <ele>1728</ele>
        <time>2010-04-15T19:35:52.54</time>
      </trkpt>
      <trkpt lat="44.17648" lon="5.27394">
        <ele>1728.5</ele>
        <time>2010-04-15T19:35:53.54</time>
      </trkpt>
      <trkpt lat="44.17647" lon="5.27394">
        <ele>1728.5</ele>
        <time>2010-04-15T19:35:54.54</time>
      </trkpt>
      <trkpt lat="44.17646" lon="5.27394">
        <ele>1728.5</ele>
        <time>2010-04-15T19:35:55.54</time>
      </trkpt>
      <trkpt lat="44.17646" lon="5.27395">
        <ele>1728.5</ele>
        <time>2010-04-15T19:35:56.54</time>
      </trkpt>
      <trkpt lat="44.17645" lon="5.27395">
        <ele>1728.5</ele>
        <time>2010-04-15T19:35:57.53</time>
      </trkpt>
      <trkpt lat="44.17645" lon="5.27396">
        <ele>1729</ele>
        <time>2010-04-15T19:35:58.53</time>
      </trkpt>
      <trkpt lat="44.17644" lon="5.27396">
        <ele>1729</ele>
        <time>2010-04-15T19:35:59.53</time>
      </trkpt>
      <trkpt lat="44.17644" lon="5.27396">
        <ele>1729.5</ele>
        <time>2010-04-15T19:36:00.53</time>
      </trkpt>
      <trkpt lat="44.17643" lon="5.27397">
        <ele>1729.5</ele>
        <time>2010-04-15T19:36:01.53</time>
      </trkpt>
      <trkpt lat="44.17643" lon="5.27397">
        <ele>1729.5</ele>
        <time>2010-04-15T19:36:02.53</time>
      </trkpt>
      <trkpt lat="44.17642" lon="5.27398">
        <ele>1730</ele>
        <time>2010-04-15T19:36:03.53</time>
      </trkpt>
      <trkpt lat="44.17642" lon="5.27398">
        <ele>1730</ele>
        <time>2010-04-15T19:36:04.53</time>
      </trkpt>
      <trkpt lat="44.17641" lon="5.27399">
        <ele>1730.5</ele>
        <time>2010-04-15T19:36:05.53</time>
      </trkpt>
      <trkpt lat="44.17641" lon="5.27399">
        <ele>1730.5</ele>
        <time>2010-04-15T19:36:06.53</time>
      </trkpt>
      <trkpt lat="44.1764" lon="5.27399">
        <ele>1731</ele>
        <time>2010-04-15T19:36:07.53</time>
      </trkpt>
      <trkpt lat="44.1764" lon="5.274">
        <ele>1731.5</ele>
        <time>2010-04-15T19:36:08.53</time>
      </trkpt>
      <trkpt lat="44.17639" lon="5.274">
        <ele>1731.5</ele>
        <time>2010-04-15T19:36:09.53</time>
      </trkpt>
      <trkpt lat="44.17639" lon="5.274">
        <ele>1731.5</ele>
        <time>2010-04-15T19:36:10.53</time>
      </trkpt>
      <trkpt lat="44.17638" lon="5.27401">
        <ele>1732</ele>
        <time>2010-04-15T19:36:11.61</time>
      </trkpt>
      <trkpt lat="44.17638" lon="5.27401">
        <ele>1732</ele>
        <time>2010-04-15T19:36:12.53</time>
      </trkpt>
      <trkpt lat="44.17637" lon="5.27402">
        <ele>1732.5</ele>
        <time>2010-04-15T19:36:13.53</time>
      </trkpt>
      <trkpt lat="44.17637" lon="5.27402">
        <ele>1732.5</ele>
        <time>2010-04-15T19:36:14.52</time>
      </trkpt>
      <trkpt lat="44.17636" lon="5.27402">
        <ele>1732.5</ele>
        <time>2010-04-15T19:36:15.52</time>
      </trkpt>
      <trkpt lat="44.17636" lon="5.27403">
        <ele>1733</ele>
        <time>2010-04-15T19:36:16.52</time>
      </trkpt>
      <trkpt lat="44.17635" lon="5.27403">
        <ele>1733.5</ele>
        <time>2010-04-15T19:36:17.52</time>
      </trkpt>
      <trkpt lat="44.17635" lon="5.27404">
        <ele>1733.5</ele>
        <time>2010-04-15T19:36:18.52</time>
      </trkpt>
      <trkpt lat="44.17634" lon="5.27404">
        <ele>1733.5</ele>
        <time>2010-04-15T19:36:19.53</time>
      </trkpt>
      <trkpt lat="44.17634" lon="5.27405">
        <ele>1734</ele>
        <time>2010-04-15T19:36:20.52</time>
      </trkpt>
      <trkpt lat="44.17633" lon="5.27405">
        <ele>1734</ele>
        <time>2010-04-15T19:36:21.52</time>
      </trkpt>
      <trkpt lat="44.17633" lon="5.27406">
        <ele>1734.5</ele>
        <time>2010-04-15T19:36:22.52</time>
      </trkpt>
      <trkpt lat="44.17632" lon="5.27406">
        <ele>1735</ele>
        <time>2010-04-15T19:36:23.52</time>
      </trkpt>
      <trkpt lat="44.17631" lon="5.27406">
        <ele>1735</ele>
        <time>2010-04-15T19:36:24.52</time>
      </trkpt>
      <trkpt lat="44.17631" lon="5.27406">
        <ele>1735</ele>
        <time>2010-04-15T19:36:25.52</time>
      </trkpt>
      <trkpt lat="44.1763" lon="5.27406">
        <ele>1735.5</ele>
        <time>2010-04-15T19:36:26.52</time>
      </trkpt>
      <trkpt lat="44.1763" lon="5.27405">
        <ele>1735.5</ele>
        <time>2010-04-15T19:36:27.52</time>
      </trkpt>
      <trkpt lat="44.17629" lon="5.27405">
        <ele>1736</ele>
        <time>2010-04-15T19:36:28.52</time>
      </trkpt>
      <trkpt lat="44.17628" lon="5.27405">
        <ele>1736</ele>
        <time>2010-04-15T19:36:29.52</time>
      </trkpt>
      <trkpt lat="44.17628" lon="5.27405">
        <ele>1736.5</ele>
        <time>2010-04-15T19:36:30.52</time>
      </trkpt>
      <trkpt lat="44.17627" lon="5.27405">
        <ele>1736.5</ele>
        <time>2010-04-15T19:36:31.52</time>
      </trkpt>
      <trkpt lat="44.17627" lon="5.27405">
        <ele>1737</ele>
        <time>2010-04-15T19:36:32.51</time>
      </trkpt>
      <trkpt lat="44.17626" lon="5.27405">
        <ele>1737</ele>
        <time>2010-04-15T19:36:33.51</time>
      </trkpt>
      <trkpt lat="44.17626" lon="5.27404">
        <ele>1737.5</ele>
        <time>2010-04-15T19:36:34.51</time>
      </trkpt>
      <trkpt lat="44.17625" lon="5.27404">
        <ele>1738</ele>
        <time>2010-04-15T19:36:35.51</time>
      </trkpt>
      <trkpt lat="44.17625" lon="5.27404">
        <ele>1738</ele>
        <time>2010-04-15T19:36:36.51</time>
      </trkpt>
      <trkpt lat="44.17624" lon="5.27404">
        <ele>1738.5</ele>
        <time>2010-04-15T19:36:37.51</time>
      </trkpt>
      <trkpt lat="44.17624" lon="5.27404">
        <ele>1739</ele>
        <time>2010-04-15T19:36:38.51</time>
      </trkpt>
      <trkpt lat="44.17623" lon="5.27404">
        <ele>1739.5</ele>
        <time>2010-04-15T19:36:39.51</time>
      </trkpt>
      <trkpt lat="44.17623" lon="5.27404">
        <ele>1739.5</ele>
        <time>2010-04-15T19:36:40.51</time>
      </trkpt>
      <trkpt lat="44.17622" lon="5.27403">
        <ele>1740</ele>
        <time>2010-04-15T19:36:41.51</time>
      </trkpt>
      <trkpt lat="44.17622" lon="5.27403">
        <ele>1740.5</ele>
        <time>2010-04-15T19:36:42.52</time>
      </trkpt>
      <trkpt lat="44.17621" lon="5.27403">
        <ele>1741</ele>
        <time>2010-04-15T19:36:43.51</time>
      </trkpt>
      <trkpt lat="44.17621" lon="5.27403">
        <ele>1741</ele>
        <time>2010-04-15T19:36:44.51</time>
      </trkpt>
      <trkpt lat="44.1762" lon="5.27403">
        <ele>1741.5</ele>
        <time>2010-04-15T19:36:45.51</time>
      </trkpt>
      <trkpt lat="44.17619" lon="5.27403">
        <ele>1741.5</ele>
        <time>2010-04-15T19:36:46.51</time>
      </trkpt>
      <trkpt lat="44.17619" lon="5.27404">
        <ele>1742</ele>
        <time>2010-04-15T19:36:47.51</time>
      </trkpt>
      <trkpt lat="44.17618" lon="5.27404">
        <ele>1742</ele>
        <time>2010-04-15T19:36:48.51</time>
      </trkpt>
      <trkpt lat="44.17618" lon="5.27404">
        <ele>1742</ele>
        <time>2010-04-15T19:36:49.50</time>
      </trkpt>
      <trkpt lat="44.17618" lon="5.27404">
        <ele>1742</ele>
        <time>2010-04-15T19:36:50.50</time>
      </trkpt>
      <trkpt lat="44.17618" lon="5.27404">
        <ele>1742</ele>
        <time>2010-04-15T19:36:51.50</time>
      </trkpt>
      <trkpt lat="44.17618" lon="5.27404">
        <ele>1742</ele>
        <time>2010-04-15T19:36:52.50</time>
      </trkpt>
      <trkpt lat="44.17618" lon="5.27404">
        <ele>1742</ele>
        <time>2010-04-15T19:36:53.50</time>
      </trkpt>
      <trkpt lat="44.17618" lon="5.27404">
        <ele>1742</ele>
        <time>2010-04-15T19:36:54.50</time>
      </trkpt>
      <trkpt lat="44.17618" lon="5.27404">
        <ele>1742</ele>
        <time>2010-04-15T19:36:55.50</time>
      </trkpt>
      <trkpt lat="44.17618" lon="5.27404">
        <ele>1742</ele>
        <time>2010-04-15T19:36:56.50</time>
      </trkpt>
      <trkpt lat="44.17618" lon="5.27404">
        <ele>1742</ele>
        <time>2010-04-15T19:36:57.50</time>
      </trkpt>
      <trkpt lat="44.17618" lon="5.27404">
        <ele>1742.5</ele>
        <time>2010-04-15T19:36:58.50</time>
      </trkpt>
      <trkpt lat="44.17618" lon="5.27404">
        <ele>1742.5</ele>
        <time>2010-04-15T19:36:59.50</time>
      </trkpt>
      <trkpt lat="44.17617" lon="5.27405">
        <ele>1742.5</ele>
        <time>2010-04-15T19:37:00.50</time>
      </trkpt>
      <trkpt lat="44.17617" lon="5.27405">
        <ele>1743</ele>
        <time>2010-04-15T19:37:01.50</time>
      </trkpt>
      <trkpt lat="44.17616" lon="5.27406">
        <ele>1743</ele>
        <time>2010-04-15T19:37:02.50</time>
      </trkpt>
      <trkpt lat="44.17616" lon="5.27406">
        <ele>1743.5</ele>
        <time>2010-04-15T19:37:03.50</time>
      </trkpt>
      <trkpt lat="44.17615" lon="5.27407">
        <ele>1743.5</ele>
        <time>2010-04-15T19:37:04.50</time>
      </trkpt>
      <trkpt lat="44.17615" lon="5.27408">
        <ele>1743.5</ele>
        <time>2010-04-15T19:37:05.50</time>
      </trkpt>
      <trkpt lat="44.17614" lon="5.27408">
        <ele>1744</ele>
        <time>2010-04-15T19:37:06.49</time>
      </trkpt>
      <trkpt lat="44.17614" lon="5.27409">
        <ele>1744</ele>
        <time>2010-04-15T19:37:07.49</time>
      </trkpt>
      <trkpt lat="44.17613" lon="5.2741">
        <ele>1744.5</ele>
        <time>2010-04-15T19:37:08.49</time>
      </trkpt>
      <trkpt lat="44.17613" lon="5.2741">
        <ele>1744.5</ele>
        <time>2010-04-15T19:37:09.49</time>
      </trkpt>
      <trkpt lat="44.17612" lon="5.27411">
        <ele>1745</ele>
        <time>2010-04-15T19:37:10.49</time>
      </trkpt>
      <trkpt lat="44.17612" lon="5.27412">
        <ele>1745.5</ele>
        <time>2010-04-15T19:37:11.49</time>
      </trkpt>
      <trkpt lat="44.17612" lon="5.27413">
        <ele>1745.5</ele>
        <time>2010-04-15T19:37:12.49</time>
      </trkpt>
      <trkpt lat="44.17611" lon="5.27414">
        <ele>1745.5</ele>
        <time>2010-04-15T19:37:13.49</time>
      </trkpt>
      <trkpt lat="44.17611" lon="5.27414">
        <ele>1746</ele>
        <time>2010-04-15T19:37:14.49</time>
      </trkpt>
      <trkpt lat="44.1761" lon="5.27415">
        <ele>1746</ele>
        <time>2010-04-15T19:37:15.49</time>
      </trkpt>
      <trkpt lat="44.1761" lon="5.27416">
        <ele>1746.5</ele>
        <time>2010-04-15T19:37:16.49</time>
      </trkpt>
      <trkpt lat="44.17609" lon="5.27417">
        <ele>1747</ele>
        <time>2010-04-15T19:37:17.49</time>
      </trkpt>
      <trkpt lat="44.17609" lon="5.27418">
        <ele>1747</ele>
        <time>2010-04-15T19:37:18.49</time>
      </trkpt>
      <trkpt lat="44.17608" lon="5.27419">
        <ele>1747</ele>
        <time>2010-04-15T19:37:19.49</time>
      </trkpt>
      <trkpt lat="44.17608" lon="5.27419">
        <ele>1747.5</ele>
        <time>2010-04-15T19:37:20.49</time>
      </trkpt>
      <trkpt lat="44.17607" lon="5.2742">
        <ele>1747.5</ele>
        <time>2010-04-15T19:37:21.49</time>
      </trkpt>
      <trkpt lat="44.17607" lon="5.27421">
        <ele>1747.5</ele>
        <time>2010-04-15T19:37:22.49</time>
      </trkpt>
      <trkpt lat="44.17607" lon="5.27421">
        <ele>1747.5</ele>
        <time>2010-04-15T19:37:23.49</time>
      </trkpt>
      <trkpt lat="44.17607" lon="5.27421">
        <ele>1747.5</ele>
        <time>2010-04-15T19:37:24.48</time>
      </trkpt>
      <trkpt lat="44.17607" lon="5.27421">
        <ele>1747.5</ele>
        <time>2010-04-15T19:37:25.48</time>
      </trkpt>
      <trkpt lat="44.17607" lon="5.27421">
        <ele>1747.5</ele>
        <time>2010-04-15T19:37:26.48</time>
      </trkpt>
      <trkpt lat="44.17607" lon="5.27421">
        <ele>1747.5</ele>
        <time>2010-04-15T19:37:27.48</time>
      </trkpt>
      <trkpt lat="44.17607" lon="5.27421">
        <ele>1747.5</ele>
        <time>2010-04-15T19:37:28.48</time>
      </trkpt>
      <trkpt lat="44.17607" lon="5.27421">
        <ele>1747.5</ele>
        <time>2010-04-15T19:37:29.48</time>
      </trkpt>
      <trkpt lat="44.17607" lon="5.27421">
        <ele>1747.5</ele>
        <time>2010-04-15T19:37:30.48</time>
      </trkpt>
      <trkpt lat="44.17607" lon="5.27421">
        <ele>1747.5</ele>
        <time>2010-04-15T19:37:31.48</time>
      </trkpt>
      <trkpt lat="44.17607" lon="5.27421">
        <ele>1747.5</ele>
        <time>2010-04-15T19:37:32.48</time>
      </trkpt>
      <trkpt lat="44.17607" lon="5.27421">
        <ele>1747.5</ele>
        <time>2010-04-15T19:37:33.48</time>
      </trkpt>
      <trkpt lat="44.17607" lon="5.27421">
        <ele>1747.5</ele>
        <time>2010-04-15T19:37:34.47</time>
      </trkpt>
      <trkpt lat="44.17607" lon="5.27421">
        <ele>1747.5</ele>
        <time>2010-04-15T19:37:35.47</time>
      </trkpt>
      <trkpt lat="44.17607" lon="5.27421">
        <ele>1747.5</ele>
        <time>2010-04-15T19:37:36.48</time>
      </trkpt>
      <trkpt lat="44.17607" lon="5.27421">
        <ele>1747.5</ele>
        <time>2010-04-15T19:37:37.48</time>
      </trkpt>
      <trkpt lat="44.17607" lon="5.27421">
        <ele>1747.5</ele>
        <time>2010-04-15T19:37:38.48</time>
      </trkpt>
      <trkpt lat="44.17607" lon="5.27421">
        <ele>1747.5</ele>
        <time>2010-04-15T19:37:39.48</time>
      </trkpt>
      <trkpt lat="44.17607" lon="5.27421">
        <ele>1747.5</ele>
        <time>2010-04-15T19:37:40.48</time>
      </trkpt>
      <trkpt lat="44.17607" lon="5.27421">
        <ele>1747.5</ele>
        <time>2010-04-15T19:37:41.47</time>
      </trkpt>
      <trkpt lat="44.17607" lon="5.27421">
        <ele>1747.5</ele>
        <time>2010-04-15T19:37:42.48</time>
      </trkpt>
      <trkpt lat="44.17607" lon="5.27421">
        <ele>1747.5</ele>
        <time>2010-04-15T19:37:43.47</time>
      </trkpt>
      <trkpt lat="44.17607" lon="5.27421">
        <ele>1747.5</ele>
        <time>2010-04-15T19:37:44.47</time>
      </trkpt>
      <trkpt lat="44.17607" lon="5.27421">
        <ele>1747.5</ele>
        <time>2010-04-15T19:37:45.47</time>
      </trkpt>
      <trkpt lat="44.17607" lon="5.27421">
        <ele>1747.5</ele>
        <time>2010-04-15T19:37:46.47</time>
      </trkpt>
      <trkpt lat="44.17607" lon="5.27421">
        <ele>1747.5</ele>
        <time>2010-04-15T19:37:47.47</time>
      </trkpt>
      <trkpt lat="44.17607" lon="5.27421">
        <ele>1747.5</ele>
        <time>2010-04-15T19:37:48.47</time>
      </trkpt>
      <trkpt lat="44.17607" lon="5.27421">
        <ele>1747.5</ele>
        <time>2010-04-15T19:37:49.47</time>
      </trkpt>
      <trkpt lat="44.17607" lon="5.27421">
        <ele>1747.5</ele>
        <time>2010-04-15T19:37:50.47</time>
      </trkpt>
      <trkpt lat="44.17607" lon="5.27421">
        <ele>1747.5</ele>
        <time>2010-04-15T19:37:51.47</time>
      </trkpt>
      <trkpt lat="44.17607" lon="5.27421">
        <ele>1747.5</ele>
        <time>2010-04-15T19:37:52.47</time>
      </trkpt>
      <trkpt lat="44.17607" lon="5.27421">
        <ele>1747.5</ele>
        <time>2010-04-15T19:37:53.46</time>
      </trkpt>
      <trkpt lat="44.17607" lon="5.27421">
        <ele>1747.5</ele>
        <time>2010-04-15T19:37:55.46</time>
      </trkpt>
      <trkpt lat="44.17607" lon="5.27421">
        <ele>1747.5</ele>
        <time>2010-04-15T19:37:56.46</time>
      </trkpt>
      <trkpt lat="44.17607" lon="5.27421">
        <ele>1747.5</ele>
        <time>2010-04-15T19:37:57.47</time>
      </trkpt>
      <trkpt lat="44.17607" lon="5.27421">
        <ele>1747.5</ele>
        <time>2010-04-15T19:37:59.47</time>
      </trkpt>
      <trkpt lat="44.17607" lon="5.27421">
        <ele>1747.5</ele>
        <time>2010-04-15T19:38:01.46</time>
      </trkpt>
      <trkpt lat="44.17607" lon="5.27421">
        <ele>1747.5</ele>
        <time>2010-04-15T19:38:02.46</time>
      </trkpt>
      <trkpt lat="44.17607" lon="5.27421">
        <ele>1747.5</ele>
        <time>2010-04-15T19:38:03.46</time>
      </trkpt>
      <trkpt lat="44.17607" lon="5.27421">
        <ele>1747.5</ele>
        <time>2010-04-15T19:38:04.46</time>
      </trkpt>
      <trkpt lat="44.17607" lon="5.27421">
        <ele>1747.5</ele>
        <time>2010-04-15T19:38:05.46</time>
      </trkpt>
      <trkpt lat="44.17607" lon="5.27421">
        <ele>1747.5</ele>
        <time>2010-04-15T19:38:06.46</time>
      </trkpt>
      <trkpt lat="44.17607" lon="5.27421">
        <ele>1747.5</ele>
        <time>2010-04-15T19:38:08.46</time>
      </trkpt>
      <trkpt lat="44.17607" lon="5.27421">
        <ele>1747.5</ele>
        <time>2010-04-15T19:38:09.46</time>
      </trkpt>
      <trkpt lat="44.17607" lon="5.27421">
        <ele>1747.5</ele>
        <time>2010-04-15T19:38:10.46</time>
      </trkpt>
      <trkpt lat="44.17607" lon="5.27421">
        <ele>1747.5</ele>
        <time>2010-04-15T19:38:11.46</time>
      </trkpt>
      <trkpt lat="44.17607" lon="5.27421">
        <ele>1747.5</ele>
        <time>2010-04-15T19:38:12.46</time>
      </trkpt>
      <trkpt lat="44.17607" lon="5.27421">
        <ele>1747.5</ele>
        <time>2010-04-15T19:38:13.46</time>
      </trkpt>
      <trkpt lat="44.17607" lon="5.27421">
        <ele>1747.5</ele>
        <time>2010-04-15T19:38:14.46</time>
      </trkpt>
      <trkpt lat="44.17607" lon="5.27421">
        <ele>1747.5</ele>
        <time>2010-04-15T19:38:15.46</time>
      </trkpt>
      <trkpt lat="44.17607" lon="5.27421">
        <ele>1747.5</ele>
        <time>2010-04-15T19:38:16.46</time>
      </trkpt>
      <trkpt lat="44.17607" lon="5.27421">
        <ele>1747.5</ele>
        <time>2010-04-15T19:38:17.46</time>
      </trkpt>
      <trkpt lat="44.17607" lon="5.27421">
        <ele>1747.5</ele>
        <time>2010-04-15T19:38:18.46</time>
      </trkpt>
      <trkpt lat="44.17607" lon="5.27421">
        <ele>1747.5</ele>
        <time>2010-04-15T19:38:19.46</time>
      </trkpt>
      <trkpt lat="44.17607" lon="5.27421">
        <ele>1747.5</ele>
        <time>2010-04-15T19:38:20.46</time>
      </trkpt>
      <trkpt lat="44.17607" lon="5.27421">
        <ele>1747.5</ele>
        <time>2010-04-15T19:38:21.45</time>
      </trkpt>
      <trkpt lat="44.17607" lon="5.27421">
        <ele>1747.5</ele>
        <time>2010-04-15T19:38:22.45</time>
      </trkpt>
      <trkpt lat="44.17607" lon="5.27421">
        <ele>1747.5</ele>
        <time>2010-04-15T19:38:23.45</time>
      </trkpt>
      <trkpt lat="44.17607" lon="5.27421">
        <ele>1747.5</ele>
        <time>2010-04-15T19:38:24.46</time>
      </trkpt>
      <trkpt lat="44.17607" lon="5.27421">
        <ele>1747.5</ele>
        <time>2010-04-15T19:38:25.46</time>
      </trkpt>
      <trkpt lat="44.17607" lon="5.27421">
        <ele>1747.5</ele>
        <time>2010-04-15T19:38:26.45</time>
      </trkpt>
      <trkpt lat="44.17607" lon="5.27421">
        <ele>1747.5</ele>
        <time>2010-04-15T19:38:27.45</time>
      </trkpt>
      <trkpt lat="44.17607" lon="5.27421">
        <ele>1747.5</ele>
        <time>2010-04-15T19:38:28.46</time>
      </trkpt>
      <trkpt lat="44.17607" lon="5.27421">
        <ele>1747.5</ele>
        <time>2010-04-15T19:38:29.46</time>
      </trkpt>
      <trkpt lat="44.17607" lon="5.27421">
        <ele>1747.5</ele>
        <time>2010-04-15T19:38:30.45</time>
      </trkpt>
      <trkpt lat="44.17607" lon="5.27421">
        <ele>1747.5</ele>
        <time>2010-04-15T19:38:31.45</time>
      </trkpt>
      <trkpt lat="44.17607" lon="5.27421">
        <ele>1747.5</ele>
        <time>2010-04-15T19:38:32.45</time>
      </trkpt>
      <trkpt lat="44.17607" lon="5.27421">
        <ele>1747.5</ele>
        <time>2010-04-15T19:38:33.45</time>
      </trkpt>
      <trkpt lat="44.17607" lon="5.27421">
        <ele>1747.5</ele>
        <time>2010-04-15T19:38:34.45</time>
      </trkpt>
      <trkpt lat="44.17607" lon="5.27421">
        <ele>1747.5</ele>
        <time>2010-04-15T19:38:35.45</time>
      </trkpt>
      <trkpt lat="44.17607" lon="5.27421">
        <ele>1747.5</ele>
        <time>2010-04-15T19:38:36.45</time>
      </trkpt>
      <trkpt lat="44.17607" lon="5.27421">
        <ele>1747.5</ele>
        <time>2010-04-15T19:38:37.45</time>
      </trkpt>
      <trkpt lat="44.17607" lon="5.27421">
        <ele>1747.5</ele>
        <time>2010-04-15T19:38:38.45</time>
      </trkpt>
      <trkpt lat="44.17607" lon="5.27421">
        <ele>1747.5</ele>
        <time>2010-04-15T19:38:39.45</time>
      </trkpt>
      <trkpt lat="44.17607" lon="5.27421">
        <ele>1747.5</ele>
        <time>2010-04-15T19:38:40.45</time>
      </trkpt>
      <trkpt lat="44.17607" lon="5.27421">
        <ele>1747.5</ele>
        <time>2010-04-15T19:38:41.45</time>
      </trkpt>
      <trkpt lat="44.17607" lon="5.27421">
        <ele>1747.5</ele>
        <time>2010-04-15T19:38:42.45</time>
      </trkpt>
      <trkpt lat="44.17607" lon="5.27422">
        <ele>1747.5</ele>
        <time>2010-04-15T19:38:43.44</time>
      </trkpt>
      <trkpt lat="44.17606" lon="5.27422">
        <ele>1747.5</ele>
        <time>2010-04-15T19:38:44.45</time>
      </trkpt>
      <trkpt lat="44.17605" lon="5.27423">
        <ele>1748</ele>
        <time>2010-04-15T19:38:45.44</time>
      </trkpt>
      <trkpt lat="44.17605" lon="5.27424">
        <ele>1748</ele>
        <time>2010-04-15T19:38:46.45</time>
      </trkpt>
      <trkpt lat="44.17604" lon="5.27425">
        <ele>1748</ele>
        <time>2010-04-15T19:38:47.45</time>
      </trkpt>
      <trkpt lat="44.17604" lon="5.27426">
        <ele>1748</ele>
        <time>2010-04-15T19:38:48.45</time>
      </trkpt>
      <trkpt lat="44.17603" lon="5.27427">
        <ele>1748.5</ele>
        <time>2010-04-15T19:38:49.44</time>
      </trkpt>
      <trkpt lat="44.17602" lon="5.27428">
        <ele>1748.5</ele>
        <time>2010-04-15T19:38:50.44</time>
      </trkpt>
      <trkpt lat="44.17601" lon="5.27428">
        <ele>1748.5</ele>
        <time>2010-04-15T19:38:51.44</time>
      </trkpt>
      <trkpt lat="44.176" lon="5.27428">
        <ele>1748.5</ele>
        <time>2010-04-15T19:38:52.44</time>
      </trkpt>
      <trkpt lat="44.17599" lon="5.27428">
        <ele>1749</ele>
        <time>2010-04-15T19:38:53.45</time>
      </trkpt>
      <trkpt lat="44.17598" lon="5.27428">
        <ele>1749</ele>
        <time>2010-04-15T19:38:54.43</time>
      </trkpt>
      <trkpt lat="44.17596" lon="5.27428">
        <ele>1749</ele>
        <time>2010-04-15T19:38:56.44</time>
      </trkpt>
      <trkpt lat="44.17595" lon="5.27427">
        <ele>1749.5</ele>
        <time>2010-04-15T19:38:57.44</time>
      </trkpt>
      <trkpt lat="44.17594" lon="5.27427">
        <ele>1749.5</ele>
        <time>2010-04-15T19:38:58.43</time>
      </trkpt>
      <trkpt lat="44.17593" lon="5.27427">
        <ele>1749.5</ele>
        <time>2010-04-15T19:38:59.43</time>
      </trkpt>
      <trkpt lat="44.17593" lon="5.27426">
        <ele>1750</ele>
        <time>2010-04-15T19:39:00.43</time>
      </trkpt>
      <trkpt lat="44.17592" lon="5.27426">
        <ele>1750.5</ele>
        <time>2010-04-15T19:39:01.43</time>
      </trkpt>
      <trkpt lat="44.17591" lon="5.27426">
        <ele>1750.5</ele>
        <time>2010-04-15T19:39:02.43</time>
      </trkpt>
      <trkpt lat="44.1759" lon="5.27425">
        <ele>1751</ele>
        <time>2010-04-15T19:39:03.43</time>
      </trkpt>
      <trkpt lat="44.17589" lon="5.27425">
        <ele>1751</ele>
        <time>2010-04-15T19:39:04.44</time>
      </trkpt>
      <trkpt lat="44.17588" lon="5.27424">
        <ele>1751</ele>
        <time>2010-04-15T19:39:05.43</time>
      </trkpt>
      <trkpt lat="44.17588" lon="5.27424">
        <ele>1751</ele>
        <time>2010-04-15T19:39:06.43</time>
      </trkpt>
      <trkpt lat="44.17587" lon="5.27423">
        <ele>1751.5</ele>
        <time>2010-04-15T19:39:07.43</time>
      </trkpt>
      <trkpt lat="44.17586" lon="5.27423">
        <ele>1751.5</ele>
        <time>2010-04-15T19:39:08.43</time>
      </trkpt>
      <trkpt lat="44.17585" lon="5.27423">
        <ele>1751.5</ele>
        <time>2010-04-15T19:39:09.44</time>
      </trkpt>
      <trkpt lat="44.17585" lon="5.27424">
        <ele>1752</ele>
        <time>2010-04-15T19:39:10.44</time>
      </trkpt>
      <trkpt lat="44.17584" lon="5.27425">
        <ele>1752.5</ele>
        <time>2010-04-15T19:39:11.44</time>
      </trkpt>
      <trkpt lat="44.17584" lon="5.27425">
        <ele>1752.5</ele>
        <time>2010-04-15T19:39:12.43</time>
      </trkpt>
      <trkpt lat="44.17583" lon="5.27426">
        <ele>1752.5</ele>
        <time>2010-04-15T19:39:13.43</time>
      </trkpt>
      <trkpt lat="44.17583" lon="5.27427">
        <ele>1753</ele>
        <time>2010-04-15T19:39:14.43</time>
      </trkpt>
      <trkpt lat="44.17582" lon="5.27428">
        <ele>1753</ele>
        <time>2010-04-15T19:39:15.43</time>
      </trkpt>
      <trkpt lat="44.17582" lon="5.27429">
        <ele>1753.5</ele>
        <time>2010-04-15T19:39:16.43</time>
      </trkpt>
      <trkpt lat="44.17582" lon="5.2743">
        <ele>1754</ele>
        <time>2010-04-15T19:39:17.43</time>
      </trkpt>
      <trkpt lat="44.17582" lon="5.27431">
        <ele>1754</ele>
        <time>2010-04-15T19:39:18.43</time>
      </trkpt>
      <trkpt lat="44.17582" lon="5.27432">
        <ele>1754.5</ele>
        <time>2010-04-15T19:39:19.43</time>
      </trkpt>
      <trkpt lat="44.17581" lon="5.27433">
        <ele>1755</ele>
        <time>2010-04-15T19:39:20.43</time>
      </trkpt>
      <trkpt lat="44.17581" lon="5.27434">
        <ele>1755.5</ele>
        <time>2010-04-15T19:39:21.44</time>
      </trkpt>
      <trkpt lat="44.17581" lon="5.27436">
        <ele>1755.5</ele>
        <time>2010-04-15T19:39:22.43</time>
      </trkpt>
      <trkpt lat="44.17581" lon="5.27437">
        <ele>1756</ele>
        <time>2010-04-15T19:39:23.43</time>
      </trkpt>
      <trkpt lat="44.17581" lon="5.27438">
        <ele>1756.5</ele>
        <time>2010-04-15T19:39:24.43</time>
      </trkpt>
      <trkpt lat="44.17581" lon="5.27439">
        <ele>1756.5</ele>
        <time>2010-04-15T19:39:25.43</time>
      </trkpt>
      <trkpt lat="44.17581" lon="5.27439">
        <ele>1757</ele>
        <time>2010-04-15T19:39:26.43</time>
      </trkpt>
      <trkpt lat="44.1758" lon="5.2744">
        <ele>1757.5</ele>
        <time>2010-04-15T19:39:27.43</time>
      </trkpt>
      <trkpt lat="44.1758" lon="5.2744">
        <ele>1757.5</ele>
        <time>2010-04-15T19:39:28.43</time>
      </trkpt>
      <trkpt lat="44.17579" lon="5.2744">
        <ele>1758</ele>
        <time>2010-04-15T19:39:29.43</time>
      </trkpt>
      <trkpt lat="44.17578" lon="5.2744">
        <ele>1758</ele>
        <time>2010-04-15T19:39:30.43</time>
      </trkpt>
      <trkpt lat="44.17578" lon="5.27439">
        <ele>1758</ele>
        <time>2010-04-15T19:39:31.43</time>
      </trkpt>
      <trkpt lat="44.17577" lon="5.27439">
        <ele>1758.5</ele>
        <time>2010-04-15T19:39:32.43</time>
      </trkpt>
      <trkpt lat="44.17576" lon="5.27439">
        <ele>1758.5</ele>
        <time>2010-04-15T19:39:33.42</time>
      </trkpt>
      <trkpt lat="44.17575" lon="5.27439">
        <ele>1759</ele>
        <time>2010-04-15T19:39:34.42</time>
      </trkpt>
      <trkpt lat="44.17574" lon="5.27438">
        <ele>1759</ele>
        <time>2010-04-15T19:39:35.42</time>
      </trkpt>
      <trkpt lat="44.17573" lon="5.27438">
        <ele>1759.5</ele>
        <time>2010-04-15T19:39:36.42</time>
      </trkpt>
      <trkpt lat="44.17573" lon="5.27438">
        <ele>1759.5</ele>
        <time>2010-04-15T19:39:37.42</time>
      </trkpt>
      <trkpt lat="44.17572" lon="5.27438">
        <ele>1759.5</ele>
        <time>2010-04-15T19:39:38.42</time>
      </trkpt>
      <trkpt lat="44.17571" lon="5.27438">
        <ele>1760</ele>
        <time>2010-04-15T19:39:39.42</time>
      </trkpt>
      <trkpt lat="44.17571" lon="5.27437">
        <ele>1760</ele>
        <time>2010-04-15T19:39:40.42</time>
      </trkpt>
      <trkpt lat="44.1757" lon="5.27437">
        <ele>1760.5</ele>
        <time>2010-04-15T19:39:41.42</time>
      </trkpt>
      <trkpt lat="44.17569" lon="5.27437">
        <ele>1761</ele>
        <time>2010-04-15T19:39:42.43</time>
      </trkpt>
      <trkpt lat="44.17569" lon="5.27437">
        <ele>1761</ele>
        <time>2010-04-15T19:39:43.42</time>
      </trkpt>
      <trkpt lat="44.17568" lon="5.27437">
        <ele>1761.5</ele>
        <time>2010-04-15T19:39:44.42</time>
      </trkpt>
      <trkpt lat="44.17567" lon="5.27436">
        <ele>1761.5</ele>
        <time>2010-04-15T19:39:45.42</time>
      </trkpt>
      <trkpt lat="44.17566" lon="5.27436">
        <ele>1762</ele>
        <time>2010-04-15T19:39:46.42</time>
      </trkpt>
      <trkpt lat="44.17565" lon="5.27436">
        <ele>1762</ele>
        <time>2010-04-15T19:39:47.42</time>
      </trkpt>
      <trkpt lat="44.17565" lon="5.27436">
        <ele>1762.5</ele>
        <time>2010-04-15T19:39:48.42</time>
      </trkpt>
      <trkpt lat="44.17564" lon="5.27436">
        <ele>1763</ele>
        <time>2010-04-15T19:39:49.42</time>
      </trkpt>
      <trkpt lat="44.17563" lon="5.27436">
        <ele>1763.5</ele>
        <time>2010-04-15T19:39:50.42</time>
      </trkpt>
      <trkpt lat="44.17563" lon="5.27436">
        <ele>1763.5</ele>
        <time>2010-04-15T19:39:51.42</time>
      </trkpt>
      <trkpt lat="44.17562" lon="5.27436">
        <ele>1764</ele>
        <time>2010-04-15T19:39:52.41</time>
      </trkpt>
      <trkpt lat="44.17562" lon="5.27436">
        <ele>1764.5</ele>
        <time>2010-04-15T19:39:53.42</time>
      </trkpt>
      <trkpt lat="44.17561" lon="5.27435">
        <ele>1765</ele>
        <time>2010-04-15T19:39:54.41</time>
      </trkpt>
      <trkpt lat="44.1756" lon="5.27435">
        <ele>1765</ele>
        <time>2010-04-15T19:39:55.41</time>
      </trkpt>
      <trkpt lat="44.17559" lon="5.27435">
        <ele>1765</ele>
        <time>2010-04-15T19:39:56.41</time>
      </trkpt>
      <trkpt lat="44.17559" lon="5.27435">
        <ele>1765.5</ele>
        <time>2010-04-15T19:39:57.41</time>
      </trkpt>
      <trkpt lat="44.17558" lon="5.27434">
        <ele>1765.5</ele>
        <time>2010-04-15T19:39:58.41</time>
      </trkpt>
      <trkpt lat="44.17558" lon="5.27434">
        <ele>1766</ele>
        <time>2010-04-15T19:39:59.41</time>
      </trkpt>
      <trkpt lat="44.17557" lon="5.27434">
        <ele>1766.5</ele>
        <time>2010-04-15T19:40:00.41</time>
      </trkpt>
      <trkpt lat="44.17557" lon="5.27434">
        <ele>1767</ele>
        <time>2010-04-15T19:40:01.41</time>
      </trkpt>
      <trkpt lat="44.17556" lon="5.27434">
        <ele>1767</ele>
        <time>2010-04-15T19:40:02.41</time>
      </trkpt>
      <trkpt lat="44.17556" lon="5.27434">
        <ele>1767.5</ele>
        <time>2010-04-15T19:40:03.41</time>
      </trkpt>
      <trkpt lat="44.17555" lon="5.27435">
        <ele>1767.5</ele>
        <time>2010-04-15T19:40:04.41</time>
      </trkpt>
      <trkpt lat="44.17555" lon="5.27436">
        <ele>1768</ele>
        <time>2010-04-15T19:40:05.41</time>
      </trkpt>
      <trkpt lat="44.17554" lon="5.27437">
        <ele>1768.5</ele>
        <time>2010-04-15T19:40:06.41</time>
      </trkpt>
      <trkpt lat="44.17554" lon="5.27437">
        <ele>1768.5</ele>
        <time>2010-04-15T19:40:07.41</time>
      </trkpt>
      <trkpt lat="44.17554" lon="5.27438">
        <ele>1769</ele>
        <time>2010-04-15T19:40:08.41</time>
      </trkpt>
      <trkpt lat="44.17553" lon="5.27439">
        <ele>1769</ele>
        <time>2010-04-15T19:40:09.41</time>
      </trkpt>
      <trkpt lat="44.17553" lon="5.27439">
        <ele>1769.5</ele>
        <time>2010-04-15T19:40:10.40</time>
      </trkpt>
      <trkpt lat="44.17553" lon="5.2744">
        <ele>1769.5</ele>
        <time>2010-04-15T19:40:11.41</time>
      </trkpt>
      <trkpt lat="44.17553" lon="5.2744">
        <ele>1769.5</ele>
        <time>2010-04-15T19:40:12.40</time>
      </trkpt>
      <trkpt lat="44.17553" lon="5.2744">
        <ele>1770</ele>
        <time>2010-04-15T19:40:13.40</time>
      </trkpt>
      <trkpt lat="44.17553" lon="5.2744">
        <ele>1770</ele>
        <time>2010-04-15T19:40:14.40</time>
      </trkpt>
      <trkpt lat="44.17553" lon="5.2744">
        <ele>1770</ele>
        <time>2010-04-15T19:40:15.40</time>
      </trkpt>
      <trkpt lat="44.17553" lon="5.2744">
        <ele>1770</ele>
        <time>2010-04-15T19:40:16.40</time>
      </trkpt>
      <trkpt lat="44.17553" lon="5.2744">
        <ele>1770</ele>
        <time>2010-04-15T19:40:17.40</time>
      </trkpt>
      <trkpt lat="44.17553" lon="5.2744">
        <ele>1770</ele>
        <time>2010-04-15T19:40:18.40</time>
      </trkpt>
      <trkpt lat="44.17553" lon="5.27441">
        <ele>1770</ele>
        <time>2010-04-15T19:40:19.40</time>
      </trkpt>
      <trkpt lat="44.17553" lon="5.27441">
        <ele>1770.5</ele>
        <time>2010-04-15T19:40:20.40</time>
      </trkpt>
      <trkpt lat="44.17553" lon="5.27442">
        <ele>1771</ele>
        <time>2010-04-15T19:40:21.40</time>
      </trkpt>
      <trkpt lat="44.17552" lon="5.27443">
        <ele>1771.5</ele>
        <time>2010-04-15T19:40:22.40</time>
      </trkpt>
      <trkpt lat="44.17552" lon="5.27444">
        <ele>1771.5</ele>
        <time>2010-04-15T19:40:23.40</time>
      </trkpt>
      <trkpt lat="44.17552" lon="5.27444">
        <ele>1772</ele>
        <time>2010-04-15T19:40:24.40</time>
      </trkpt>
      <trkpt lat="44.17552" lon="5.27445">
        <ele>1772.5</ele>
        <time>2010-04-15T19:40:25.40</time>
      </trkpt>
      <trkpt lat="44.17551" lon="5.27446">
        <ele>1772.5</ele>
        <time>2010-04-15T19:40:26.40</time>
      </trkpt>
      <trkpt lat="44.17551" lon="5.27447">
        <ele>1773</ele>
        <time>2010-04-15T19:40:27.40</time>
      </trkpt>
      <trkpt lat="44.17551" lon="5.27447">
        <ele>1773</ele>
        <time>2010-04-15T19:40:28.40</time>
      </trkpt>
      <trkpt lat="44.17551" lon="5.27448">
        <ele>1773.5</ele>
        <time>2010-04-15T19:40:29.39</time>
      </trkpt>
      <trkpt lat="44.17551" lon="5.27449">
        <ele>1773.5</ele>
        <time>2010-04-15T19:40:30.39</time>
      </trkpt>
      <trkpt lat="44.17551" lon="5.2745">
        <ele>1774</ele>
        <time>2010-04-15T19:40:31.39</time>
      </trkpt>
      <trkpt lat="44.17551" lon="5.27451">
        <ele>1774.5</ele>
        <time>2010-04-15T19:40:32.39</time>
      </trkpt>
      <trkpt lat="44.17551" lon="5.27452">
        <ele>1775</ele>
        <time>2010-04-15T19:40:33.39</time>
      </trkpt>
      <trkpt lat="44.1755" lon="5.27452">
        <ele>1775</ele>
        <time>2010-04-15T19:40:34.39</time>
      </trkpt>
      <trkpt lat="44.1755" lon="5.27453">
        <ele>1775</ele>
        <time>2010-04-15T19:40:35.39</time>
      </trkpt>
      <trkpt lat="44.17549" lon="5.27453">
        <ele>1775</ele>
        <time>2010-04-15T19:40:36.39</time>
      </trkpt>
      <trkpt lat="44.17548" lon="5.27453">
        <ele>1775.5</ele>
        <time>2010-04-15T19:40:37.39</time>
      </trkpt>
      <trkpt lat="44.17548" lon="5.27453">
        <ele>1775.5</ele>
        <time>2010-04-15T19:40:38.39</time>
      </trkpt>
      <trkpt lat="44.17547" lon="5.27453">
        <ele>1776</ele>
        <time>2010-04-15T19:40:39.39</time>
      </trkpt>
      <trkpt lat="44.17547" lon="5.27453">
        <ele>1776.5</ele>
        <time>2010-04-15T19:40:40.39</time>
      </trkpt>
      <trkpt lat="44.17546" lon="5.27453">
        <ele>1776.5</ele>
        <time>2010-04-15T19:40:41.39</time>
      </trkpt>
      <trkpt lat="44.17545" lon="5.27453">
        <ele>1777.5</ele>
        <time>2010-04-15T19:40:43.39</time>
      </trkpt>
      <trkpt lat="44.17544" lon="5.27453">
        <ele>1777.5</ele>
        <time>2010-04-15T19:40:44.38</time>
      </trkpt>
      <trkpt lat="44.17545" lon="5.27453">
        <ele>1777.5</ele>
        <time>2010-04-15T19:40:45.39</time>
      </trkpt>
      <trkpt lat="44.17545" lon="5.27453">
        <ele>1777.5</ele>
        <time>2010-04-15T19:40:46.38</time>
      </trkpt>
      <trkpt lat="44.17544" lon="5.27454">
        <ele>1778</ele>
        <time>2010-04-15T19:40:47.38</time>
      </trkpt>
      <trkpt lat="44.17544" lon="5.27454">
        <ele>1778.5</ele>
        <time>2010-04-15T19:40:48.38</time>
      </trkpt>
      <trkpt lat="44.17543" lon="5.27454">
        <ele>1778.5</ele>
        <time>2010-04-15T19:40:49.38</time>
      </trkpt>
      <trkpt lat="44.17542" lon="5.27454">
        <ele>1778.5</ele>
        <time>2010-04-15T19:40:50.38</time>
      </trkpt>
      <trkpt lat="44.17542" lon="5.27454">
        <ele>1779</ele>
        <time>2010-04-15T19:40:51.38</time>
      </trkpt>
      <trkpt lat="44.17541" lon="5.27454">
        <ele>1779.5</ele>
        <time>2010-04-15T19:40:52.38</time>
      </trkpt>
      <trkpt lat="44.17541" lon="5.27454">
        <ele>1779.5</ele>
        <time>2010-04-15T19:40:53.38</time>
      </trkpt>
      <trkpt lat="44.1754" lon="5.27454">
        <ele>1779.5</ele>
        <time>2010-04-15T19:40:54.38</time>
      </trkpt>
      <trkpt lat="44.1754" lon="5.27455">
        <ele>1779.5</ele>
        <time>2010-04-15T19:40:55.38</time>
      </trkpt>
      <trkpt lat="44.17539" lon="5.27455">
        <ele>1780</ele>
        <time>2010-04-15T19:40:56.38</time>
      </trkpt>
      <trkpt lat="44.17538" lon="5.27455">
        <ele>1780</ele>
        <time>2010-04-15T19:40:57.38</time>
      </trkpt>
      <trkpt lat="44.17538" lon="5.27455">
        <ele>1780.5</ele>
        <time>2010-04-15T19:40:58.38</time>
      </trkpt>
      <trkpt lat="44.17537" lon="5.27455">
        <ele>1780.5</ele>
        <time>2010-04-15T19:40:59.37</time>
      </trkpt>
      <trkpt lat="44.17536" lon="5.27455">
        <ele>1781</ele>
        <time>2010-04-15T19:41:00.37</time>
      </trkpt>
      <trkpt lat="44.17536" lon="5.27455">
        <ele>1781</ele>
        <time>2010-04-15T19:41:01.37</time>
      </trkpt>
      <trkpt lat="44.17535" lon="5.27455">
        <ele>1781.5</ele>
        <time>2010-04-15T19:41:02.37</time>
      </trkpt>
      <trkpt lat="44.17535" lon="5.27455">
        <ele>1781.5</ele>
        <time>2010-04-15T19:41:03.37</time>
      </trkpt>
      <trkpt lat="44.17534" lon="5.27455">
        <ele>1782</ele>
        <time>2010-04-15T19:41:04.37</time>
      </trkpt>
      <trkpt lat="44.17534" lon="5.27455">
        <ele>1782</ele>
        <time>2010-04-15T19:41:05.37</time>
      </trkpt>
      <trkpt lat="44.17533" lon="5.27455">
        <ele>1782</ele>
        <time>2010-04-15T19:41:06.37</time>
      </trkpt>
      <trkpt lat="44.17533" lon="5.27454">
        <ele>1782</ele>
        <time>2010-04-15T19:41:07.37</time>
      </trkpt>
      <trkpt lat="44.17532" lon="5.27457">
        <ele>1784</ele>
        <time>2010-04-15T19:41:08.36</time>
      </trkpt>
      <trkpt lat="44.17531" lon="5.27457">
        <ele>1782.5</ele>
        <time>2010-04-15T19:41:10.36</time>
      </trkpt>
      <trkpt lat="44.1753" lon="5.27456">
        <ele>1782.5</ele>
        <time>2010-04-15T19:41:11.37</time>
      </trkpt>
      <trkpt lat="44.1753" lon="5.27456">
        <ele>1782.5</ele>
        <time>2010-04-15T19:41:12.36</time>
      </trkpt>
      <trkpt lat="44.17529" lon="5.27456">
        <ele>1782.5</ele>
        <time>2010-04-15T19:41:13.36</time>
      </trkpt>
      <trkpt lat="44.17529" lon="5.27456">
        <ele>1782.5</ele>
        <time>2010-04-15T19:41:14.36</time>
      </trkpt>
      <trkpt lat="44.17529" lon="5.27456">
        <ele>1782.5</ele>
        <time>2010-04-15T19:41:15.36</time>
      </trkpt>
      <trkpt lat="44.17529" lon="5.27456">
        <ele>1782.5</ele>
        <time>2010-04-15T19:41:16.35</time>
      </trkpt>
      <trkpt lat="44.17528" lon="5.27455">
        <ele>1780.5</ele>
        <time>2010-04-15T19:41:17.35</time>
      </trkpt>
      <trkpt lat="44.17527" lon="5.27455">
        <ele>1780.5</ele>
        <time>2010-04-15T19:41:18.35</time>
      </trkpt>
      <trkpt lat="44.17527" lon="5.27455">
        <ele>1780.5</ele>
        <time>2010-04-15T19:41:19.38</time>
      </trkpt>
      <trkpt lat="44.17526" lon="5.27455">
        <ele>1780.5</ele>
        <time>2010-04-15T19:41:20.84</time>
      </trkpt>
      <trkpt lat="44.17525" lon="5.27454">
        <ele>1781</ele>
        <time>2010-04-15T19:41:22.35</time>
      </trkpt>
      <trkpt lat="44.17525" lon="5.27454">
        <ele>1781</ele>
        <time>2010-04-15T19:41:23.35</time>
      </trkpt>
      <trkpt lat="44.17524" lon="5.27454">
        <ele>1781</ele>
        <time>2010-04-15T19:41:24.36</time>
      </trkpt>
      <trkpt lat="44.17524" lon="5.27454">
        <ele>1781.5</ele>
        <time>2010-04-15T19:41:25.35</time>
      </trkpt>
      <trkpt lat="44.17523" lon="5.27454">
        <ele>1781.5</ele>
        <time>2010-04-15T19:41:26.35</time>
      </trkpt>
      <trkpt lat="44.17522" lon="5.27453">
        <ele>1781.5</ele>
        <time>2010-04-15T19:41:27.35</time>
      </trkpt>
      <trkpt lat="44.17522" lon="5.27453">
        <ele>1782</ele>
        <time>2010-04-15T19:41:28.38</time>
      </trkpt>
      <trkpt lat="44.17521" lon="5.27453">
        <ele>1782</ele>
        <time>2010-04-15T19:41:29.35</time>
      </trkpt>
      <trkpt lat="44.17521" lon="5.27453">
        <ele>1782.5</ele>
        <time>2010-04-15T19:41:30.35</time>
      </trkpt>
      <trkpt lat="44.1752" lon="5.27452">
        <ele>1782.5</ele>
        <time>2010-04-15T19:41:32.34</time>
      </trkpt>
      <trkpt lat="44.17519" lon="5.27452">
        <ele>1783</ele>
        <time>2010-04-15T19:41:33.34</time>
      </trkpt>
      <trkpt lat="44.17518" lon="5.27452">
        <ele>1783</ele>
        <time>2010-04-15T19:41:34.34</time>
      </trkpt>
      <trkpt lat="44.17518" lon="5.27451">
        <ele>1783</ele>
        <time>2010-04-15T19:41:35.34</time>
      </trkpt>
      <trkpt lat="44.17517" lon="5.27451">
        <ele>1783.5</ele>
        <time>2010-04-15T19:41:36.34</time>
      </trkpt>
      <trkpt lat="44.17517" lon="5.27451">
        <ele>1783.5</ele>
        <time>2010-04-15T19:41:37.34</time>
      </trkpt>
      <trkpt lat="44.17516" lon="5.27451">
        <ele>1784</ele>
        <time>2010-04-15T19:41:38.34</time>
      </trkpt>
      <trkpt lat="44.17516" lon="5.27451">
        <ele>1784</ele>
        <time>2010-04-15T19:41:39.34</time>
      </trkpt>
      <trkpt lat="44.17515" lon="5.2745">
        <ele>1784.5</ele>
        <time>2010-04-15T19:41:40.34</time>
      </trkpt>
      <trkpt lat="44.17515" lon="5.2745">
        <ele>1785</ele>
        <time>2010-04-15T19:41:41.34</time>
      </trkpt>
      <trkpt lat="44.17514" lon="5.2745">
        <ele>1785</ele>
        <time>2010-04-15T19:41:42.35</time>
      </trkpt>
      <trkpt lat="44.17513" lon="5.27449">
        <ele>1785.5</ele>
        <time>2010-04-15T19:41:43.34</time>
      </trkpt>
      <trkpt lat="44.17513" lon="5.27449">
        <ele>1786</ele>
        <time>2010-04-15T19:41:44.34</time>
      </trkpt>
      <trkpt lat="44.17512" lon="5.27449">
        <ele>1786.5</ele>
        <time>2010-04-15T19:41:45.38</time>
      </trkpt>
      <trkpt lat="44.17512" lon="5.27449">
        <ele>1786.5</ele>
        <time>2010-04-15T19:41:46.35</time>
      </trkpt>
      <trkpt lat="44.17511" lon="5.27448">
        <ele>1786.5</ele>
        <time>2010-04-15T19:41:47.34</time>
      </trkpt>
      <trkpt lat="44.1751" lon="5.27448">
        <ele>1786.5</ele>
        <time>2010-04-15T19:41:48.34</time>
      </trkpt>
      <trkpt lat="44.1751" lon="5.27448">
        <ele>1787</ele>
        <time>2010-04-15T19:41:49.34</time>
      </trkpt>
      <trkpt lat="44.17509" lon="5.27447">
        <ele>1787</ele>
        <time>2010-04-15T19:41:50.34</time>
      </trkpt>
      <trkpt lat="44.17508" lon="5.27447">
        <ele>1787</ele>
        <time>2010-04-15T19:41:51.34</time>
      </trkpt>
      <trkpt lat="44.17508" lon="5.27447">
        <ele>1787.5</ele>
        <time>2010-04-15T19:41:52.34</time>
      </trkpt>
      <trkpt lat="44.17507" lon="5.27446">
        <ele>1787.5</ele>
        <time>2010-04-15T19:41:53.34</time>
      </trkpt>
      <trkpt lat="44.17506" lon="5.27446">
        <ele>1787.5</ele>
        <time>2010-04-15T19:41:54.34</time>
      </trkpt>
      <trkpt lat="44.17506" lon="5.27446">
        <ele>1787.5</ele>
        <time>2010-04-15T19:41:55.34</time>
      </trkpt>
      <trkpt lat="44.17506" lon="5.27446">
        <ele>1787.5</ele>
        <time>2010-04-15T19:41:56.34</time>
      </trkpt>
      <trkpt lat="44.17506" lon="5.27446">
        <ele>1787.5</ele>
        <time>2010-04-15T19:41:57.33</time>
      </trkpt>
      <trkpt lat="44.17506" lon="5.27446">
        <ele>1787</ele>
        <time>2010-04-15T19:41:58.33</time>
      </trkpt>
      <trkpt lat="44.17506" lon="5.27446">
        <ele>1787</ele>
        <time>2010-04-15T19:41:59.33</time>
      </trkpt>
      <trkpt lat="44.17506" lon="5.27446">
        <ele>1787</ele>
        <time>2010-04-15T19:42:00.33</time>
      </trkpt>
      <trkpt lat="44.17506" lon="5.27446">
        <ele>1787</ele>
        <time>2010-04-15T19:42:01.36</time>
      </trkpt>
      <trkpt lat="44.17506" lon="5.27446">
        <ele>1787</ele>
        <time>2010-04-15T19:42:02.33</time>
      </trkpt>
      <trkpt lat="44.17506" lon="5.27446">
        <ele>1787</ele>
        <time>2010-04-15T19:42:03.32</time>
      </trkpt>
      <trkpt lat="44.17506" lon="5.27446">
        <ele>1787</ele>
        <time>2010-04-15T19:42:04.33</time>
      </trkpt>
      <trkpt lat="44.17506" lon="5.27446">
        <ele>1787.5</ele>
        <time>2010-04-15T19:42:05.33</time>
      </trkpt>
      <trkpt lat="44.17505" lon="5.27445">
        <ele>1787.5</ele>
        <time>2010-04-15T19:42:06.33</time>
      </trkpt>
      <trkpt lat="44.17504" lon="5.27445">
        <ele>1788</ele>
        <time>2010-04-15T19:42:07.33</time>
      </trkpt>
      <trkpt lat="44.17504" lon="5.27445">
        <ele>1788</ele>
        <time>2010-04-15T19:42:08.32</time>
      </trkpt>
      <trkpt lat="44.17504" lon="5.27445">
        <ele>1788.5</ele>
        <time>2010-04-15T19:42:09.33</time>
      </trkpt>
      <trkpt lat="44.17503" lon="5.27445">
        <ele>1788.5</ele>
        <time>2010-04-15T19:42:10.33</time>
      </trkpt>
      <trkpt lat="44.17502" lon="5.27445">
        <ele>1788.5</ele>
        <time>2010-04-15T19:42:11.33</time>
      </trkpt>
      <trkpt lat="44.17502" lon="5.27444">
        <ele>1789</ele>
        <time>2010-04-15T19:42:12.33</time>
      </trkpt>
      <trkpt lat="44.17501" lon="5.27444">
        <ele>1789</ele>
        <time>2010-04-15T19:42:13.33</time>
      </trkpt>
      <trkpt lat="44.17501" lon="5.27444">
        <ele>1789.5</ele>
        <time>2010-04-15T19:42:14.33</time>
      </trkpt>
      <trkpt lat="44.175" lon="5.27444">
        <ele>1789.5</ele>
        <time>2010-04-15T19:42:15.33</time>
      </trkpt>
      <trkpt lat="44.175" lon="5.27443">
        <ele>1789.5</ele>
        <time>2010-04-15T19:42:16.33</time>
      </trkpt>
      <trkpt lat="44.17499" lon="5.27443">
        <ele>1790</ele>
        <time>2010-04-15T19:42:17.36</time>
      </trkpt>
      <trkpt lat="44.17499" lon="5.27442">
        <ele>1790</ele>
        <time>2010-04-15T19:42:18.32</time>
      </trkpt>
      <trkpt lat="44.17498" lon="5.27442">
        <ele>1790.5</ele>
        <time>2010-04-15T19:42:19.33</time>
      </trkpt>
      <trkpt lat="44.17498" lon="5.27441">
        <ele>1790.5</ele>
        <time>2010-04-15T19:42:20.33</time>
      </trkpt>
      <trkpt lat="44.17497" lon="5.27441">
        <ele>1790.5</ele>
        <time>2010-04-15T19:42:21.33</time>
      </trkpt>
      <trkpt lat="44.17497" lon="5.2744">
        <ele>1791</ele>
        <time>2010-04-15T19:42:22.32</time>
      </trkpt>
      <trkpt lat="44.17496" lon="5.2744">
        <ele>1791</ele>
        <time>2010-04-15T19:42:23.32</time>
      </trkpt>
      <trkpt lat="44.17496" lon="5.27439">
        <ele>1791</ele>
        <time>2010-04-15T19:42:24.32</time>
      </trkpt>
      <trkpt lat="44.17495" lon="5.27438">
        <ele>1791.5</ele>
        <time>2010-04-15T19:42:25.32</time>
      </trkpt>
      <trkpt lat="44.17495" lon="5.27438">
        <ele>1791.5</ele>
        <time>2010-04-15T19:42:26.32</time>
      </trkpt>
      <trkpt lat="44.17495" lon="5.27437">
        <ele>1791.5</ele>
        <time>2010-04-15T19:42:27.32</time>
      </trkpt>
      <trkpt lat="44.17494" lon="5.27436">
        <ele>1791.5</ele>
        <time>2010-04-15T19:42:28.32</time>
      </trkpt>
      <trkpt lat="44.17494" lon="5.27435">
        <ele>1792</ele>
        <time>2010-04-15T19:42:29.32</time>
      </trkpt>
      <trkpt lat="44.17493" lon="5.27435">
        <ele>1792</ele>
        <time>2010-04-15T19:42:30.32</time>
      </trkpt>
      <trkpt lat="44.17493" lon="5.27434">
        <ele>1792.5</ele>
        <time>2010-04-15T19:42:31.32</time>
      </trkpt>
      <trkpt lat="44.17493" lon="5.27433">
        <ele>1792.5</ele>
        <time>2010-04-15T19:42:32.31</time>
      </trkpt>
      <trkpt lat="44.17492" lon="5.27433">
        <ele>1792.5</ele>
        <time>2010-04-15T19:42:33.32</time>
      </trkpt>
      <trkpt lat="44.17492" lon="5.27432">
        <ele>1793</ele>
        <time>2010-04-15T19:42:34.35</time>
      </trkpt>
      <trkpt lat="44.17491" lon="5.27431">
        <ele>1793</ele>
        <time>2010-04-15T19:42:35.32</time>
      </trkpt>
      <trkpt lat="44.17491" lon="5.27431">
        <ele>1793</ele>
        <time>2010-04-15T19:42:36.32</time>
      </trkpt>
      <trkpt lat="44.17491" lon="5.2743">
        <ele>1793.5</ele>
        <time>2010-04-15T19:42:37.32</time>
      </trkpt>
      <trkpt lat="44.17491" lon="5.27429">
        <ele>1793.5</ele>
        <time>2010-04-15T19:42:38.32</time>
      </trkpt>
      <trkpt lat="44.1749" lon="5.27429">
        <ele>1794</ele>
        <time>2010-04-15T19:42:39.31</time>
      </trkpt>
      <trkpt lat="44.1749" lon="5.27428">
        <ele>1794.5</ele>
        <time>2010-04-15T19:42:40.31</time>
      </trkpt>
      <trkpt lat="44.1749" lon="5.27427">
        <ele>1794.5</ele>
        <time>2010-04-15T19:42:41.31</time>
      </trkpt>
      <trkpt lat="44.1749" lon="5.27427">
        <ele>1794.5</ele>
        <time>2010-04-15T19:42:42.32</time>
      </trkpt>
      <trkpt lat="44.17489" lon="5.27426">
        <ele>1795</ele>
        <time>2010-04-15T19:42:43.31</time>
      </trkpt>
      <trkpt lat="44.17489" lon="5.27426">
        <ele>1795</ele>
        <time>2010-04-15T19:42:44.31</time>
      </trkpt>
      <trkpt lat="44.17489" lon="5.27425">
        <ele>1795</ele>
        <time>2010-04-15T19:42:45.31</time>
      </trkpt>
      <trkpt lat="44.17488" lon="5.27424">
        <ele>1795</ele>
        <time>2010-04-15T19:42:46.31</time>
      </trkpt>
      <trkpt lat="44.17488" lon="5.27423">
        <ele>1795.5</ele>
        <time>2010-04-15T19:42:47.31</time>
      </trkpt>
      <trkpt lat="44.17488" lon="5.27424">
        <ele>1796</ele>
        <time>2010-04-15T19:42:48.31</time>
      </trkpt>
      <trkpt lat="44.17488" lon="5.27424">
        <ele>1796</ele>
        <time>2010-04-15T19:42:49.31</time>
      </trkpt>
      <trkpt lat="44.17488" lon="5.27423">
        <ele>1796.5</ele>
        <time>2010-04-15T19:42:50.31</time>
      </trkpt>
      <trkpt lat="44.17488" lon="5.27424">
        <ele>1797</ele>
        <time>2010-04-15T19:42:51.34</time>
      </trkpt>
      <trkpt lat="44.17487" lon="5.27424">
        <ele>1797.5</ele>
        <time>2010-04-15T19:42:52.31</time>
      </trkpt>
      <trkpt lat="44.17487" lon="5.27424">
        <ele>1797.5</ele>
        <time>2010-04-15T19:42:53.31</time>
      </trkpt>
      <trkpt lat="44.17486" lon="5.27425">
        <ele>1797.5</ele>
        <time>2010-04-15T19:42:54.31</time>
      </trkpt>
      <trkpt lat="44.17486" lon="5.27425">
        <ele>1798</ele>
        <time>2010-04-15T19:42:55.31</time>
      </trkpt>
      <trkpt lat="44.17486" lon="5.27425">
        <ele>1798</ele>
        <time>2010-04-15T19:42:56.31</time>
      </trkpt>
      <trkpt lat="44.17486" lon="5.27425">
        <ele>1798</ele>
        <time>2010-04-15T19:42:57.30</time>
      </trkpt>
      <trkpt lat="44.17486" lon="5.27425">
        <ele>1798</ele>
        <time>2010-04-15T19:42:58.30</time>
      </trkpt>
      <trkpt lat="44.17486" lon="5.27425">
        <ele>1798</ele>
        <time>2010-04-15T19:42:59.30</time>
      </trkpt>
      <trkpt lat="44.17486" lon="5.27426">
        <ele>1798</ele>
        <time>2010-04-15T19:43:00.30</time>
      </trkpt>
      <trkpt lat="44.17485" lon="5.27426">
        <ele>1798.5</ele>
        <time>2010-04-15T19:43:01.30</time>
      </trkpt>
      <trkpt lat="44.17485" lon="5.27427">
        <ele>1799</ele>
        <time>2010-04-15T19:43:02.30</time>
      </trkpt>
      <trkpt lat="44.17484" lon="5.27427">
        <ele>1799</ele>
        <time>2010-04-15T19:43:03.30</time>
      </trkpt>
      <trkpt lat="44.17484" lon="5.27428">
        <ele>1799</ele>
        <time>2010-04-15T19:43:04.30</time>
      </trkpt>
      <trkpt lat="44.17483" lon="5.27429">
        <ele>1799.5</ele>
        <time>2010-04-15T19:43:05.30</time>
      </trkpt>
      <trkpt lat="44.17483" lon="5.27429">
        <ele>1799.5</ele>
        <time>2010-04-15T19:43:06.30</time>
      </trkpt>
      <trkpt lat="44.17483" lon="5.2743">
        <ele>1799.5</ele>
        <time>2010-04-15T19:43:07.30</time>
      </trkpt>
      <trkpt lat="44.17483" lon="5.2743">
        <ele>1800</ele>
        <time>2010-04-15T19:43:08.30</time>
      </trkpt>
      <trkpt lat="44.17483" lon="5.27431">
        <ele>1800</ele>
        <time>2010-04-15T19:43:09.30</time>
      </trkpt>
      <trkpt lat="44.17482" lon="5.27432">
        <ele>1800.5</ele>
        <time>2010-04-15T19:43:10.30</time>
      </trkpt>
      <trkpt lat="44.17482" lon="5.27432">
        <ele>1800.5</ele>
        <time>2010-04-15T19:43:11.30</time>
      </trkpt>
      <trkpt lat="44.17482" lon="5.27433">
        <ele>1800.5</ele>
        <time>2010-04-15T19:43:12.30</time>
      </trkpt>
      <trkpt lat="44.17481" lon="5.27433">
        <ele>1800.5</ele>
        <time>2010-04-15T19:43:13.30</time>
      </trkpt>
      <trkpt lat="44.17481" lon="5.27433">
        <ele>1801</ele>
        <time>2010-04-15T19:43:14.30</time>
      </trkpt>
      <trkpt lat="44.17481" lon="5.27434">
        <ele>1801</ele>
        <time>2010-04-15T19:43:15.30</time>
      </trkpt>
      <trkpt lat="44.1748" lon="5.27434">
        <ele>1801</ele>
        <time>2010-04-15T19:43:16.29</time>
      </trkpt>
      <trkpt lat="44.1748" lon="5.27435">
        <ele>1801</ele>
        <time>2010-04-15T19:43:17.30</time>
      </trkpt>
      <trkpt lat="44.17479" lon="5.27435">
        <ele>1801.5</ele>
        <time>2010-04-15T19:43:18.29</time>
      </trkpt>
      <trkpt lat="44.17479" lon="5.27436">
        <ele>1801.5</ele>
        <time>2010-04-15T19:43:20.29</time>
      </trkpt>
      <trkpt lat="44.17479" lon="5.27437">
        <ele>1802</ele>
        <time>2010-04-15T19:43:21.29</time>
      </trkpt>
      <trkpt lat="44.17479" lon="5.27437">
        <ele>1802</ele>
        <time>2010-04-15T19:43:22.29</time>
      </trkpt>
      <trkpt lat="44.17478" lon="5.27438">
        <ele>1802.5</ele>
        <time>2010-04-15T19:43:23.29</time>
      </trkpt>
      <trkpt lat="44.17478" lon="5.27438">
        <ele>1802.5</ele>
        <time>2010-04-15T19:43:24.29</time>
      </trkpt>
      <trkpt lat="44.17478" lon="5.27439">
        <ele>1803</ele>
        <time>2010-04-15T19:43:25.29</time>
      </trkpt>
      <trkpt lat="44.17478" lon="5.27439">
        <ele>1803</ele>
        <time>2010-04-15T19:43:26.29</time>
      </trkpt>
      <trkpt lat="44.17478" lon="5.27439">
        <ele>1803</ele>
        <time>2010-04-15T19:43:27.29</time>
      </trkpt>
      <trkpt lat="44.17478" lon="5.27439">
        <ele>1803</ele>
        <time>2010-04-15T19:43:28.40</time>
      </trkpt>
      <trkpt lat="44.17478" lon="5.27439">
        <ele>1803</ele>
        <time>2010-04-15T19:43:29.28</time>
      </trkpt>
      <trkpt lat="44.17478" lon="5.27439">
        <ele>1803</ele>
        <time>2010-04-15T19:43:30.29</time>
      </trkpt>
      <trkpt lat="44.17478" lon="5.27439">
        <ele>1803</ele>
        <time>2010-04-15T19:43:31.28</time>
      </trkpt>
      <trkpt lat="44.17478" lon="5.27439">
        <ele>1803</ele>
        <time>2010-04-15T19:43:32.31</time>
      </trkpt>
      <trkpt lat="44.17478" lon="5.27439">
        <ele>1803</ele>
        <time>2010-04-15T19:43:33.28</time>
      </trkpt>
      <trkpt lat="44.17478" lon="5.27439">
        <ele>1803</ele>
        <time>2010-04-15T19:43:34.27</time>
      </trkpt>
      <trkpt lat="44.17478" lon="5.27439">
        <ele>1803</ele>
        <time>2010-04-15T19:43:35.27</time>
      </trkpt>
      <trkpt lat="44.17478" lon="5.27439">
        <ele>1803</ele>
        <time>2010-04-15T19:43:36.27</time>
      </trkpt>
      <trkpt lat="44.17478" lon="5.27439">
        <ele>1803</ele>
        <time>2010-04-15T19:43:37.30</time>
      </trkpt>
      <trkpt lat="44.17478" lon="5.27439">
        <ele>1803</ele>
        <time>2010-04-15T19:43:38.27</time>
      </trkpt>
      <trkpt lat="44.17478" lon="5.27439">
        <ele>1803</ele>
        <time>2010-04-15T19:43:39.27</time>
      </trkpt>
      <trkpt lat="44.17478" lon="5.27439">
        <ele>1803</ele>
        <time>2010-04-15T19:43:40.27</time>
      </trkpt>
      <trkpt lat="44.17478" lon="5.27439">
        <ele>1803</ele>
        <time>2010-04-15T19:43:41.28</time>
      </trkpt>
      <trkpt lat="44.17478" lon="5.2744">
        <ele>1803</ele>
        <time>2010-04-15T19:43:42.29</time>
      </trkpt>
      <trkpt lat="44.17478" lon="5.2744">
        <ele>1803</ele>
        <time>2010-04-15T19:43:43.27</time>
      </trkpt>
      <trkpt lat="44.17477" lon="5.27441">
        <ele>1803</ele>
        <time>2010-04-15T19:43:44.27</time>
      </trkpt>
      <trkpt lat="44.17477" lon="5.27442">
        <ele>1803.5</ele>
        <time>2010-04-15T19:43:45.27</time>
      </trkpt>
      <trkpt lat="44.17477" lon="5.27442">
        <ele>1803.5</ele>
        <time>2010-04-15T19:43:46.27</time>
      </trkpt>
      <trkpt lat="44.17477" lon="5.27443">
        <ele>1804</ele>
        <time>2010-04-15T19:43:47.27</time>
      </trkpt>
      <trkpt lat="44.17476" lon="5.27444">
        <ele>1804</ele>
        <time>2010-04-15T19:43:48.27</time>
      </trkpt>
      <trkpt lat="44.17476" lon="5.27444">
        <ele>1804.5</ele>
        <time>2010-04-15T19:43:49.27</time>
      </trkpt>
      <trkpt lat="44.17476" lon="5.27445">
        <ele>1804.5</ele>
        <time>2010-04-15T19:43:50.27</time>
      </trkpt>
      <trkpt lat="44.17475" lon="5.27446">
        <ele>1804.5</ele>
        <time>2010-04-15T19:43:51.27</time>
      </trkpt>
      <trkpt lat="44.17475" lon="5.27446">
        <ele>1805</ele>
        <time>2010-04-15T19:43:52.27</time>
      </trkpt>
      <trkpt lat="44.17475" lon="5.27447">
        <ele>1805</ele>
        <time>2010-04-15T19:43:53.27</time>
      </trkpt>
      <trkpt lat="44.17475" lon="5.27448">
        <ele>1805</ele>
        <time>2010-04-15T19:43:54.27</time>
      </trkpt>
      <trkpt lat="44.17474" lon="5.27449">
        <ele>1805</ele>
        <time>2010-04-15T19:43:55.27</time>
      </trkpt>
      <trkpt lat="44.17474" lon="5.2745">
        <ele>1805</ele>
        <time>2010-04-15T19:43:56.27</time>
      </trkpt>
      <trkpt lat="44.17474" lon="5.2745">
        <ele>1805.5</ele>
        <time>2010-04-15T19:43:57.27</time>
      </trkpt>
      <trkpt lat="44.17474" lon="5.27451">
        <ele>1805.5</ele>
        <time>2010-04-15T19:43:58.27</time>
      </trkpt>
      <trkpt lat="44.17474" lon="5.27452">
        <ele>1806</ele>
        <time>2010-04-15T19:43:59.26</time>
      </trkpt>
      <trkpt lat="44.17474" lon="5.27452">
        <ele>1806</ele>
        <time>2010-04-15T19:44:00.26</time>
      </trkpt>
      <trkpt lat="44.17474" lon="5.27452">
        <ele>1806</ele>
        <time>2010-04-15T19:44:01.26</time>
      </trkpt>
      <trkpt lat="44.17474" lon="5.27452">
        <ele>1806</ele>
        <time>2010-04-15T19:44:02.26</time>
      </trkpt>
      <trkpt lat="44.17474" lon="5.27452">
        <ele>1806</ele>
        <time>2010-04-15T19:44:03.26</time>
      </trkpt>
      <trkpt lat="44.17474" lon="5.27452">
        <ele>1806</ele>
        <time>2010-04-15T19:44:04.26</time>
      </trkpt>
      <trkpt lat="44.17474" lon="5.27452">
        <ele>1806</ele>
        <time>2010-04-15T19:44:05.26</time>
      </trkpt>
      <trkpt lat="44.17474" lon="5.27452">
        <ele>1805.5</ele>
        <time>2010-04-15T19:44:06.26</time>
      </trkpt>
      <trkpt lat="44.17474" lon="5.27452">
        <ele>1805.5</ele>
        <time>2010-04-15T19:44:07.26</time>
      </trkpt>
      <trkpt lat="44.17474" lon="5.27452">
        <ele>1805.5</ele>
        <time>2010-04-15T19:44:08.31</time>
      </trkpt>
      <trkpt lat="44.17473" lon="5.27452">
        <ele>1805.5</ele>
        <time>2010-04-15T19:44:09.26</time>
      </trkpt>
      <trkpt lat="44.17474" lon="5.27453">
        <ele>1806</ele>
        <time>2010-04-15T19:44:10.26</time>
      </trkpt>
      <trkpt lat="44.17474" lon="5.27454">
        <ele>1807</ele>
        <time>2010-04-15T19:44:11.26</time>
      </trkpt>
      <trkpt lat="44.17474" lon="5.27455">
        <ele>1807.5</ele>
        <time>2010-04-15T19:44:12.26</time>
      </trkpt>
      <trkpt lat="44.17474" lon="5.27455">
        <ele>1807.5</ele>
        <time>2010-04-15T19:44:13.26</time>
      </trkpt>
      <trkpt lat="44.17474" lon="5.27456">
        <ele>1808</ele>
        <time>2010-04-15T19:44:14.25</time>
      </trkpt>
      <trkpt lat="44.17473" lon="5.27457">
        <ele>1808.5</ele>
        <time>2010-04-15T19:44:15.26</time>
      </trkpt>
      <trkpt lat="44.17473" lon="5.27458">
        <ele>1808.5</ele>
        <time>2010-04-15T19:44:16.25</time>
      </trkpt>
      <trkpt lat="44.17473" lon="5.27458">
        <ele>1808.5</ele>
        <time>2010-04-15T19:44:17.25</time>
      </trkpt>
      <trkpt lat="44.17473" lon="5.27459">
        <ele>1809</ele>
        <time>2010-04-15T19:44:18.25</time>
      </trkpt>
      <trkpt lat="44.17473" lon="5.2746">
        <ele>1809</ele>
        <time>2010-04-15T19:44:19.25</time>
      </trkpt>
      <trkpt lat="44.17473" lon="5.27461">
        <ele>1809.5</ele>
        <time>2010-04-15T19:44:20.25</time>
      </trkpt>
      <trkpt lat="44.17473" lon="5.27461">
        <ele>1809.5</ele>
        <time>2010-04-15T19:44:21.25</time>
      </trkpt>
      <trkpt lat="44.17473" lon="5.27462">
        <ele>1810</ele>
        <time>2010-04-15T19:44:22.25</time>
      </trkpt>
      <trkpt lat="44.17473" lon="5.27463">
        <ele>1810.5</ele>
        <time>2010-04-15T19:44:23.25</time>
      </trkpt>
      <trkpt lat="44.17473" lon="5.27463">
        <ele>1810.5</ele>
        <time>2010-04-15T19:44:24.25</time>
      </trkpt>
      <trkpt lat="44.17473" lon="5.27463">
        <ele>1810.5</ele>
        <time>2010-04-15T19:44:25.25</time>
      </trkpt>
      <trkpt lat="44.17473" lon="5.27463">
        <ele>1810.5</ele>
        <time>2010-04-15T19:44:26.25</time>
      </trkpt>
      <trkpt lat="44.17473" lon="5.27463">
        <ele>1810.5</ele>
        <time>2010-04-15T19:44:27.25</time>
      </trkpt>
      <trkpt lat="44.17474" lon="5.27463">
        <ele>1810.5</ele>
        <time>2010-04-15T19:44:28.25</time>
      </trkpt>
      <trkpt lat="44.17474" lon="5.27464">
        <ele>1811</ele>
        <time>2010-04-15T19:44:29.25</time>
      </trkpt>
      <trkpt lat="44.17474" lon="5.27465">
        <ele>1811</ele>
        <time>2010-04-15T19:44:30.24</time>
      </trkpt>
      <trkpt lat="44.17474" lon="5.27465">
        <ele>1811</ele>
        <time>2010-04-15T19:44:31.24</time>
      </trkpt>
      <trkpt lat="44.17474" lon="5.27466">
        <ele>1811</ele>
        <time>2010-04-15T19:44:32.24</time>
      </trkpt>
      <trkpt lat="44.17474" lon="5.27466">
        <ele>1811.5</ele>
        <time>2010-04-15T19:44:33.24</time>
      </trkpt>
      <trkpt lat="44.17474" lon="5.27467">
        <ele>1811.5</ele>
        <time>2010-04-15T19:44:34.24</time>
      </trkpt>
      <trkpt lat="44.17474" lon="5.27467">
        <ele>1812</ele>
        <time>2010-04-15T19:44:35.24</time>
      </trkpt>
      <trkpt lat="44.17474" lon="5.27468">
        <ele>1812</ele>
        <time>2010-04-15T19:44:36.24</time>
      </trkpt>
      <trkpt lat="44.17474" lon="5.27469">
        <ele>1812</ele>
        <time>2010-04-15T19:44:37.24</time>
      </trkpt>
      <trkpt lat="44.17474" lon="5.27469">
        <ele>1812.5</ele>
        <time>2010-04-15T19:44:38.24</time>
      </trkpt>
      <trkpt lat="44.17474" lon="5.27469">
        <ele>1812.5</ele>
        <time>2010-04-15T19:44:39.24</time>
      </trkpt>
      <trkpt lat="44.17474" lon="5.27469">
        <ele>1812.5</ele>
        <time>2010-04-15T19:44:40.24</time>
      </trkpt>
      <trkpt lat="44.17474" lon="5.27469">
        <ele>1812.5</ele>
        <time>2010-04-15T19:44:41.24</time>
      </trkpt>
      <trkpt lat="44.17474" lon="5.27469">
        <ele>1812.5</ele>
        <time>2010-04-15T19:44:42.24</time>
      </trkpt>
      <trkpt lat="44.17474" lon="5.27469">
        <ele>1812.5</ele>
        <time>2010-04-15T19:44:43.23</time>
      </trkpt>
      <trkpt lat="44.17473" lon="5.27469">
        <ele>1812.5</ele>
        <time>2010-04-15T19:44:44.23</time>
      </trkpt>
      <trkpt lat="44.17473" lon="5.27469">
        <ele>1812.5</ele>
        <time>2010-04-15T19:44:45.23</time>
      </trkpt>
      <trkpt lat="44.17473" lon="5.27469">
        <ele>1812.5</ele>
        <time>2010-04-15T19:44:46.26</time>
      </trkpt>
      <trkpt lat="44.17474" lon="5.27469">
        <ele>1812.5</ele>
        <time>2010-04-15T19:44:47.23</time>
      </trkpt>
      <trkpt lat="44.17474" lon="5.27469">
        <ele>1812.5</ele>
        <time>2010-04-15T19:44:48.23</time>
      </trkpt>
      <trkpt lat="44.17474" lon="5.27469">
        <ele>1812.5</ele>
        <time>2010-04-15T19:44:49.23</time>
      </trkpt>
      <trkpt lat="44.17474" lon="5.2747">
        <ele>1812.5</ele>
        <time>2010-04-15T19:44:50.23</time>
      </trkpt>
      <trkpt lat="44.17474" lon="5.2747">
        <ele>1812.5</ele>
        <time>2010-04-15T19:44:51.23</time>
      </trkpt>
      <trkpt lat="44.17474" lon="5.2747">
        <ele>1812.5</ele>
        <time>2010-04-15T19:44:52.23</time>
      </trkpt>
      <trkpt lat="44.17474" lon="5.2747">
        <ele>1812.5</ele>
        <time>2010-04-15T19:44:53.23</time>
      </trkpt>
      <trkpt lat="44.17474" lon="5.2747">
        <ele>1812.5</ele>
        <time>2010-04-15T19:44:54.23</time>
      </trkpt>
      <trkpt lat="44.17474" lon="5.2747">
        <ele>1812.5</ele>
        <time>2010-04-15T19:44:55.23</time>
      </trkpt>
      <trkpt lat="44.17474" lon="5.2747">
        <ele>1812</ele>
        <time>2010-04-15T19:44:56.23</time>
      </trkpt>
      <trkpt lat="44.17473" lon="5.2747">
        <ele>1812.5</ele>
        <time>2010-04-15T19:44:57.23</time>
      </trkpt>
      <trkpt lat="44.17473" lon="5.2747">
        <ele>1812.5</ele>
        <time>2010-04-15T19:44:58.22</time>
      </trkpt>
      <trkpt lat="44.17473" lon="5.2747">
        <ele>1812.5</ele>
        <time>2010-04-15T19:44:59.22</time>
      </trkpt>
      <trkpt lat="44.17473" lon="5.2747">
        <ele>1812.5</ele>
        <time>2010-04-15T19:45:00.22</time>
      </trkpt>
      <trkpt lat="44.17473" lon="5.2747">
        <ele>1812.5</ele>
        <time>2010-04-15T19:45:01.25</time>
      </trkpt>
      <trkpt lat="44.17473" lon="5.2747">
        <ele>1812.5</ele>
        <time>2010-04-15T19:45:02.22</time>
      </trkpt>
      <trkpt lat="44.17473" lon="5.2747">
        <ele>1812.5</ele>
        <time>2010-04-15T19:45:03.22</time>
      </trkpt>
      <trkpt lat="44.17473" lon="5.2747">
        <ele>1812.5</ele>
        <time>2010-04-15T19:45:04.22</time>
      </trkpt>
      <trkpt lat="44.17473" lon="5.2747">
        <ele>1812.5</ele>
        <time>2010-04-15T19:45:05.22</time>
      </trkpt>
      <trkpt lat="44.17473" lon="5.2747">
        <ele>1812.5</ele>
        <time>2010-04-15T19:45:06.22</time>
      </trkpt>
      <trkpt lat="44.17472" lon="5.27469">
        <ele>1812.5</ele>
        <time>2010-04-15T19:45:07.22</time>
      </trkpt>
      <trkpt lat="44.17472" lon="5.27469">
        <ele>1812.5</ele>
        <time>2010-04-15T19:45:08.22</time>
      </trkpt>
      <trkpt lat="44.17471" lon="5.27469">
        <ele>1812.5</ele>
        <time>2010-04-15T19:45:09.21</time>
      </trkpt>
      <trkpt lat="44.1747" lon="5.27468">
        <ele>1812.5</ele>
        <time>2010-04-15T19:45:10.22</time>
      </trkpt>
      <trkpt lat="44.1747" lon="5.27468">
        <ele>1812.5</ele>
        <time>2010-04-15T19:45:11.22</time>
      </trkpt>
      <trkpt lat="44.17469" lon="5.27467">
        <ele>1813</ele>
        <time>2010-04-15T19:45:12.21</time>
      </trkpt>
      <trkpt lat="44.17469" lon="5.27467">
        <ele>1813</ele>
        <time>2010-04-15T19:45:13.21</time>
      </trkpt>
      <trkpt lat="44.17468" lon="5.27467">
        <ele>1813</ele>
        <time>2010-04-15T19:45:14.21</time>
      </trkpt>
      <trkpt lat="44.17468" lon="5.27466">
        <ele>1813</ele>
        <time>2010-04-15T19:45:15.24</time>
      </trkpt>
      <trkpt lat="44.17467" lon="5.27466">
        <ele>1813</ele>
        <time>2010-04-15T19:45:16.20</time>
      </trkpt>
      <trkpt lat="44.17466" lon="5.27466">
        <ele>1813.5</ele>
        <time>2010-04-15T19:45:17.20</time>
      </trkpt>
      <trkpt lat="44.17466" lon="5.27465">
        <ele>1813.5</ele>
        <time>2010-04-15T19:45:18.20</time>
      </trkpt>
      <trkpt lat="44.17465" lon="5.27465">
        <ele>1813.5</ele>
        <time>2010-04-15T19:45:19.20</time>
      </trkpt>
      <trkpt lat="44.17464" lon="5.27465">
        <ele>1813.5</ele>
        <time>2010-04-15T19:45:20.20</time>
      </trkpt>
      <trkpt lat="44.17464" lon="5.27464">
        <ele>1813.5</ele>
        <time>2010-04-15T19:45:21.20</time>
      </trkpt>
      <trkpt lat="44.17463" lon="5.27464">
        <ele>1814</ele>
        <time>2010-04-15T19:45:22.20</time>
      </trkpt>
      <trkpt lat="44.17462" lon="5.27463">
        <ele>1814</ele>
        <time>2010-04-15T19:45:23.20</time>
      </trkpt>
      <trkpt lat="44.17462" lon="5.27463">
        <ele>1814</ele>
        <time>2010-04-15T19:45:24.20</time>
      </trkpt>
      <trkpt lat="44.17461" lon="5.27462">
        <ele>1814</ele>
        <time>2010-04-15T19:45:25.20</time>
      </trkpt>
      <trkpt lat="44.17461" lon="5.27462">
        <ele>1814</ele>
        <time>2010-04-15T19:45:26.20</time>
      </trkpt>
      <trkpt lat="44.1746" lon="5.27461">
        <ele>1814</ele>
        <time>2010-04-15T19:45:27.20</time>
      </trkpt>
      <trkpt lat="44.17459" lon="5.27461">
        <ele>1814</ele>
        <time>2010-04-15T19:45:28.23</time>
      </trkpt>
      <trkpt lat="44.17459" lon="5.2746">
        <ele>1814</ele>
        <time>2010-04-15T19:45:29.45</time>
      </trkpt>
      <trkpt lat="44.17458" lon="5.2746">
        <ele>1814</ele>
        <time>2010-04-15T19:45:30.20</time>
      </trkpt>
      <trkpt lat="44.17458" lon="5.2746">
        <ele>1814</ele>
        <time>2010-04-15T19:45:31.20</time>
      </trkpt>
      <trkpt lat="44.17457" lon="5.27459">
        <ele>1814</ele>
        <time>2010-04-15T19:45:32.20</time>
      </trkpt>
      <trkpt lat="44.17456" lon="5.27459">
        <ele>1814</ele>
        <time>2010-04-15T19:45:33.20</time>
      </trkpt>
      <trkpt lat="44.17456" lon="5.27458">
        <ele>1814</ele>
        <time>2010-04-15T19:45:34.20</time>
      </trkpt>
      <trkpt lat="44.17455" lon="5.27458">
        <ele>1814.5</ele>
        <time>2010-04-15T19:45:35.20</time>
      </trkpt>
      <trkpt lat="44.17455" lon="5.27458">
        <ele>1814.5</ele>
        <time>2010-04-15T19:45:36.20</time>
      </trkpt>
      <trkpt lat="44.17454" lon="5.27457">
        <ele>1814.5</ele>
        <time>2010-04-15T19:45:37.20</time>
      </trkpt>
      <trkpt lat="44.17454" lon="5.27457">
        <ele>1815</ele>
        <time>2010-04-15T19:45:38.20</time>
      </trkpt>
      <trkpt lat="44.17453" lon="5.27457">
        <ele>1815</ele>
        <time>2010-04-15T19:45:39.20</time>
      </trkpt>
      <trkpt lat="44.17452" lon="5.27456">
        <ele>1815.5</ele>
        <time>2010-04-15T19:45:40.20</time>
      </trkpt>
      <trkpt lat="44.17452" lon="5.27456">
        <ele>1815.5</ele>
        <time>2010-04-15T19:45:41.19</time>
      </trkpt>
      <trkpt lat="44.17451" lon="5.27455">
        <ele>1815.5</ele>
        <time>2010-04-15T19:45:42.21</time>
      </trkpt>
      <trkpt lat="44.17451" lon="5.27455">
        <ele>1815.5</ele>
        <time>2010-04-15T19:45:43.20</time>
      </trkpt>
      <trkpt lat="44.1745" lon="5.27454">
        <ele>1815.5</ele>
        <time>2010-04-15T19:45:44.20</time>
      </trkpt>
      <trkpt lat="44.17449" lon="5.27454">
        <ele>1815.5</ele>
        <time>2010-04-15T19:45:45.20</time>
      </trkpt>
      <trkpt lat="44.17449" lon="5.27453">
        <ele>1815.5</ele>
        <time>2010-04-15T19:45:46.19</time>
      </trkpt>
      <trkpt lat="44.17449" lon="5.27453">
        <ele>1815.5</ele>
        <time>2010-04-15T19:45:47.19</time>
      </trkpt>
      <trkpt lat="44.17449" lon="5.27453">
        <ele>1815.5</ele>
        <time>2010-04-15T19:45:48.19</time>
      </trkpt>
      <trkpt lat="44.17449" lon="5.27453">
        <ele>1815.5</ele>
        <time>2010-04-15T19:45:49.19</time>
      </trkpt>
      <trkpt lat="44.17449" lon="5.27453">
        <ele>1815.5</ele>
        <time>2010-04-15T19:45:50.19</time>
      </trkpt>
      <trkpt lat="44.17449" lon="5.27453">
        <ele>1815.5</ele>
        <time>2010-04-15T19:45:51.19</time>
      </trkpt>
      <trkpt lat="44.17449" lon="5.27453">
        <ele>1815.5</ele>
        <time>2010-04-15T19:45:52.19</time>
      </trkpt>
      <trkpt lat="44.17449" lon="5.27453">
        <ele>1815.5</ele>
        <time>2010-04-15T19:45:53.18</time>
      </trkpt>
      <trkpt lat="44.1745" lon="5.27453">
        <ele>1815.5</ele>
        <time>2010-04-15T19:45:54.18</time>
      </trkpt>
      <trkpt lat="44.1745" lon="5.27453">
        <ele>1815.5</ele>
        <time>2010-04-15T19:45:55.18</time>
      </trkpt>
      <trkpt lat="44.1745" lon="5.27453">
        <ele>1815.5</ele>
        <time>2010-04-15T19:45:56.19</time>
      </trkpt>
      <trkpt lat="44.1745" lon="5.27453">
        <ele>1815.5</ele>
        <time>2010-04-15T19:45:57.19</time>
      </trkpt>
      <trkpt lat="44.17449" lon="5.27453">
        <ele>1815.5</ele>
        <time>2010-04-15T19:45:58.18</time>
      </trkpt>
      <trkpt lat="44.17449" lon="5.27452">
        <ele>1815.5</ele>
        <time>2010-04-15T19:45:59.19</time>
      </trkpt>
      <trkpt lat="44.17449" lon="5.27452">
        <ele>1816</ele>
        <time>2010-04-15T19:46:00.19</time>
      </trkpt>
      <trkpt lat="44.17449" lon="5.27451">
        <ele>1816</ele>
        <time>2010-04-15T19:46:01.19</time>
      </trkpt>
      <trkpt lat="44.17448" lon="5.27451">
        <ele>1816.5</ele>
        <time>2010-04-15T19:46:02.18</time>
      </trkpt>
      <trkpt lat="44.17448" lon="5.2745">
        <ele>1816.5</ele>
        <time>2010-04-15T19:46:03.18</time>
      </trkpt>
      <trkpt lat="44.17447" lon="5.27449">
        <ele>1816.5</ele>
        <time>2010-04-15T19:46:04.18</time>
      </trkpt>
      <trkpt lat="44.17447" lon="5.27449">
        <ele>1817</ele>
        <time>2010-04-15T19:46:05.18</time>
      </trkpt>
      <trkpt lat="44.17446" lon="5.27448">
        <ele>1817</ele>
        <time>2010-04-15T19:46:06.18</time>
      </trkpt>
      <trkpt lat="44.17446" lon="5.27447">
        <ele>1817</ele>
        <time>2010-04-15T19:46:07.18</time>
      </trkpt>
      <trkpt lat="44.17445" lon="5.27446">
        <ele>1817.5</ele>
        <time>2010-04-15T19:46:08.18</time>
      </trkpt>
      <trkpt lat="44.17445" lon="5.27446">
        <ele>1817.5</ele>
        <time>2010-04-15T19:46:09.18</time>
      </trkpt>
      <trkpt lat="44.17445" lon="5.27446">
        <ele>1818</ele>
        <time>2010-04-15T19:46:10.18</time>
      </trkpt>
      <trkpt lat="44.17444" lon="5.27445">
        <ele>1818.5</ele>
        <time>2010-04-15T19:46:11.18</time>
      </trkpt>
      <trkpt lat="44.17444" lon="5.27445">
        <ele>1818.5</ele>
        <time>2010-04-15T19:46:12.18</time>
      </trkpt>
      <trkpt lat="44.17444" lon="5.27445">
        <ele>1818.5</ele>
        <time>2010-04-15T19:46:13.18</time>
      </trkpt>
      <trkpt lat="44.17444" lon="5.27445">
        <ele>1818.5</ele>
        <time>2010-04-15T19:46:14.18</time>
      </trkpt>
      <trkpt lat="44.17444" lon="5.27445">
        <ele>1818.5</ele>
        <time>2010-04-15T19:46:15.18</time>
      </trkpt>
      <trkpt lat="44.17444" lon="5.27445">
        <ele>1818.5</ele>
        <time>2010-04-15T19:46:16.18</time>
      </trkpt>
      <trkpt lat="44.17444" lon="5.27444">
        <ele>1818.5</ele>
        <time>2010-04-15T19:46:17.21</time>
      </trkpt>
      <trkpt lat="44.17444" lon="5.27443">
        <ele>1819</ele>
        <time>2010-04-15T19:46:18.18</time>
      </trkpt>
      <trkpt lat="44.17443" lon="5.27443">
        <ele>1819</ele>
        <time>2010-04-15T19:46:19.18</time>
      </trkpt>
      <trkpt lat="44.17443" lon="5.27442">
        <ele>1819</ele>
        <time>2010-04-15T19:46:20.17</time>
      </trkpt>
      <trkpt lat="44.17443" lon="5.27442">
        <ele>1819.5</ele>
        <time>2010-04-15T19:46:21.17</time>
      </trkpt>
      <trkpt lat="44.17442" lon="5.27441">
        <ele>1820</ele>
        <time>2010-04-15T19:46:22.17</time>
      </trkpt>
      <trkpt lat="44.17443" lon="5.27441">
        <ele>1820</ele>
        <time>2010-04-15T19:46:23.17</time>
      </trkpt>
      <trkpt lat="44.17443" lon="5.27441">
        <ele>1819.5</ele>
        <time>2010-04-15T19:46:24.17</time>
      </trkpt>
      <trkpt lat="44.17442" lon="5.27441">
        <ele>1819.5</ele>
        <time>2010-04-15T19:46:25.17</time>
      </trkpt>
      <trkpt lat="44.17443" lon="5.27441">
        <ele>1819.5</ele>
        <time>2010-04-15T19:46:26.17</time>
      </trkpt>
      <trkpt lat="44.17443" lon="5.27441">
        <ele>1819.5</ele>
        <time>2010-04-15T19:46:27.17</time>
      </trkpt>
      <trkpt lat="44.17443" lon="5.27441">
        <ele>1820</ele>
        <time>2010-04-15T19:46:28.17</time>
      </trkpt>
      <trkpt lat="44.17443" lon="5.2744">
        <ele>1820</ele>
        <time>2010-04-15T19:46:29.17</time>
      </trkpt>
      <trkpt lat="44.17442" lon="5.2744">
        <ele>1820</ele>
        <time>2010-04-15T19:46:30.17</time>
      </trkpt>
      <trkpt lat="44.17443" lon="5.2744">
        <ele>1820</ele>
        <time>2010-04-15T19:46:31.17</time>
      </trkpt>
      <trkpt lat="44.17443" lon="5.2744">
        <ele>1820.5</ele>
        <time>2010-04-15T19:46:32.17</time>
      </trkpt>
      <trkpt lat="44.17443" lon="5.2744">
        <ele>1820.5</ele>
        <time>2010-04-15T19:46:33.17</time>
      </trkpt>
      <trkpt lat="44.17443" lon="5.2744">
        <ele>1820.5</ele>
        <time>2010-04-15T19:46:34.20</time>
      </trkpt>
      <trkpt lat="44.17443" lon="5.2744">
        <ele>1820.5</ele>
        <time>2010-04-15T19:46:35.17</time>
      </trkpt>
      <trkpt lat="44.17443" lon="5.2744">
        <ele>1820.5</ele>
        <time>2010-04-15T19:46:36.17</time>
      </trkpt>
      <trkpt lat="44.17443" lon="5.2744">
        <ele>1820.5</ele>
        <time>2010-04-15T19:46:37.17</time>
      </trkpt>
      <trkpt lat="44.17443" lon="5.2744">
        <ele>1820.5</ele>
        <time>2010-04-15T19:46:38.17</time>
      </trkpt>
      <trkpt lat="44.17443" lon="5.2744">
        <ele>1821.5</ele>
        <time>2010-04-15T19:46:39.16</time>
      </trkpt>
      <trkpt lat="44.17443" lon="5.27439">
        <ele>1822</ele>
        <time>2010-04-15T19:46:40.17</time>
      </trkpt>
      <trkpt lat="44.17443" lon="5.27438">
        <ele>1822.5</ele>
        <time>2010-04-15T19:46:41.16</time>
      </trkpt>
      <trkpt lat="44.17443" lon="5.27438">
        <ele>1823</ele>
        <time>2010-04-15T19:46:42.17</time>
      </trkpt>
      <trkpt lat="44.17443" lon="5.27437">
        <ele>1823.5</ele>
        <time>2010-04-15T19:46:43.16</time>
      </trkpt>
      <trkpt lat="44.17442" lon="5.27436">
        <ele>1823.5</ele>
        <time>2010-04-15T19:46:44.16</time>
      </trkpt>
      <trkpt lat="44.17442" lon="5.27436">
        <ele>1824</ele>
        <time>2010-04-15T19:46:45.16</time>
      </trkpt>
      <trkpt lat="44.17442" lon="5.27435">
        <ele>1824.5</ele>
        <time>2010-04-15T19:46:46.16</time>
      </trkpt>
      <trkpt lat="44.17442" lon="5.27434">
        <ele>1825</ele>
        <time>2010-04-15T19:46:47.16</time>
      </trkpt>
      <trkpt lat="44.17442" lon="5.27434">
        <ele>1825</ele>
        <time>2010-04-15T19:46:48.16</time>
      </trkpt>
      <trkpt lat="44.17442" lon="5.27434">
        <ele>1825</ele>
        <time>2010-04-15T19:46:49.16</time>
      </trkpt>
      <trkpt lat="44.17442" lon="5.27434">
        <ele>1825</ele>
        <time>2010-04-15T19:46:50.16</time>
      </trkpt>
      <trkpt lat="44.17442" lon="5.27433">
        <ele>1825.5</ele>
        <time>2010-04-15T19:46:51.19</time>
      </trkpt>
      <trkpt lat="44.17442" lon="5.27433">
        <ele>1826</ele>
        <time>2010-04-15T19:46:52.16</time>
      </trkpt>
      <trkpt lat="44.17442" lon="5.27432">
        <ele>1826.5</ele>
        <time>2010-04-15T19:46:53.16</time>
      </trkpt>
      <trkpt lat="44.17442" lon="5.27431">
        <ele>1826.5</ele>
        <time>2010-04-15T19:46:54.16</time>
      </trkpt>
      <trkpt lat="44.17442" lon="5.27431">
        <ele>1826.5</ele>
        <time>2010-04-15T19:46:55.15</time>
      </trkpt>
      <trkpt lat="44.17442" lon="5.2743">
        <ele>1827</ele>
        <time>2010-04-15T19:46:56.16</time>
      </trkpt>
      <trkpt lat="44.17442" lon="5.27429">
        <ele>1827.5</ele>
        <time>2010-04-15T19:46:57.15</time>
      </trkpt>
      <trkpt lat="44.17442" lon="5.27428">
        <ele>1827.5</ele>
        <time>2010-04-15T19:46:58.15</time>
      </trkpt>
      <trkpt lat="44.17442" lon="5.27427">
        <ele>1828</ele>
        <time>2010-04-15T19:46:59.15</time>
      </trkpt>
      <trkpt lat="44.17442" lon="5.27426">
        <ele>1828</ele>
        <time>2010-04-15T19:47:00.16</time>
      </trkpt>
      <trkpt lat="44.17442" lon="5.27425">
        <ele>1828.5</ele>
        <time>2010-04-15T19:47:01.15</time>
      </trkpt>
      <trkpt lat="44.17442" lon="5.27424">
        <ele>1828</ele>
        <time>2010-04-15T19:47:02.15</time>
      </trkpt>
      <trkpt lat="44.17442" lon="5.27424">
        <ele>1828.5</ele>
        <time>2010-04-15T19:47:03.15</time>
      </trkpt>
      <trkpt lat="44.17442" lon="5.27423">
        <ele>1828.5</ele>
        <time>2010-04-15T19:47:04.15</time>
      </trkpt>
      <trkpt lat="44.17442" lon="5.27422">
        <ele>1829</ele>
        <time>2010-04-15T19:47:05.15</time>
      </trkpt>
      <trkpt lat="44.17442" lon="5.27421">
        <ele>1829.5</ele>
        <time>2010-04-15T19:47:06.15</time>
      </trkpt>
      <trkpt lat="44.17442" lon="5.2742">
        <ele>1829.5</ele>
        <time>2010-04-15T19:47:07.15</time>
      </trkpt>
      <trkpt lat="44.17442" lon="5.27419">
        <ele>1830</ele>
        <time>2010-04-15T19:47:08.15</time>
      </trkpt>
      <trkpt lat="44.17442" lon="5.27418">
        <ele>1830.5</ele>
        <time>2010-04-15T19:47:09.15</time>
      </trkpt>
      <trkpt lat="44.17442" lon="5.27418">
        <ele>1831</ele>
        <time>2010-04-15T19:47:10.15</time>
      </trkpt>
      <trkpt lat="44.17442" lon="5.27417">
        <ele>1831</ele>
        <time>2010-04-15T19:47:11.15</time>
      </trkpt>
      <trkpt lat="44.17442" lon="5.27416">
        <ele>1831.5</ele>
        <time>2010-04-15T19:47:12.15</time>
      </trkpt>
      <trkpt lat="44.17442" lon="5.27415">
        <ele>1832</ele>
        <time>2010-04-15T19:47:13.15</time>
      </trkpt>
      <trkpt lat="44.17442" lon="5.27415">
        <ele>1832</ele>
        <time>2010-04-15T19:47:14.14</time>
      </trkpt>
      <trkpt lat="44.17442" lon="5.27414">
        <ele>1832</ele>
        <time>2010-04-15T19:47:15.15</time>
      </trkpt>
      <trkpt lat="44.17441" lon="5.27413">
        <ele>1832.5</ele>
        <time>2010-04-15T19:47:16.17</time>
      </trkpt>
      <trkpt lat="44.17441" lon="5.27413">
        <ele>1832.5</ele>
        <time>2010-04-15T19:47:17.14</time>
      </trkpt>
      <trkpt lat="44.17441" lon="5.27413">
        <ele>1833</ele>
        <time>2010-04-15T19:47:18.13</time>
      </trkpt>
      <trkpt lat="44.17441" lon="5.27412">
        <ele>1833</ele>
        <time>2010-04-15T19:47:19.13</time>
      </trkpt>
      <trkpt lat="44.17441" lon="5.27411">
        <ele>1833</ele>
        <time>2010-04-15T19:47:20.53</time>
      </trkpt>
      <trkpt lat="44.17441" lon="5.2741">
        <ele>1833.5</ele>
        <time>2010-04-15T19:47:22.14</time>
      </trkpt>
      <trkpt lat="44.17441" lon="5.27409">
        <ele>1833.5</ele>
        <time>2010-04-15T19:47:23.14</time>
      </trkpt>
      <trkpt lat="44.17441" lon="5.27408">
        <ele>1833.5</ele>
        <time>2010-04-15T19:47:24.14</time>
      </trkpt>
      <trkpt lat="44.17441" lon="5.27407">
        <ele>1833.5</ele>
        <time>2010-04-15T19:47:25.14</time>
      </trkpt>
      <trkpt lat="44.17441" lon="5.27406">
        <ele>1833.5</ele>
        <time>2010-04-15T19:47:26.14</time>
      </trkpt>
      <trkpt lat="44.17441" lon="5.27405">
        <ele>1834</ele>
        <time>2010-04-15T19:47:27.14</time>
      </trkpt>
      <trkpt lat="44.17441" lon="5.27404">
        <ele>1834</ele>
        <time>2010-04-15T19:47:28.14</time>
      </trkpt>
      <trkpt lat="44.17441" lon="5.27403">
        <ele>1834.5</ele>
        <time>2010-04-15T19:47:29.14</time>
      </trkpt>
      <trkpt lat="44.17441" lon="5.27402">
        <ele>1835</ele>
        <time>2010-04-15T19:47:30.14</time>
      </trkpt>
      <trkpt lat="44.17441" lon="5.27402">
        <ele>1834.5</ele>
        <time>2010-04-15T19:47:31.13</time>
      </trkpt>
      <trkpt lat="44.17441" lon="5.27401">
        <ele>1835</ele>
        <time>2010-04-15T19:47:32.14</time>
      </trkpt>
      <trkpt lat="44.17441" lon="5.27401">
        <ele>1835</ele>
        <time>2010-04-15T19:47:33.13</time>
      </trkpt>
      <trkpt lat="44.17441" lon="5.27401">
        <ele>1835</ele>
        <time>2010-04-15T19:47:34.13</time>
      </trkpt>
      <trkpt lat="44.17441" lon="5.27401">
        <ele>1835</ele>
        <time>2010-04-15T19:47:35.13</time>
      </trkpt>
      <trkpt lat="44.17441" lon="5.27401">
        <ele>1835</ele>
        <time>2010-04-15T19:47:36.13</time>
      </trkpt>
      <trkpt lat="44.17441" lon="5.274">
        <ele>1835</ele>
        <time>2010-04-15T19:47:37.13</time>
      </trkpt>
      <trkpt lat="44.17442" lon="5.27399">
        <ele>1835.5</ele>
        <time>2010-04-15T19:47:38.13</time>
      </trkpt>
      <trkpt lat="44.17442" lon="5.27398">
        <ele>1835.5</ele>
        <time>2010-04-15T19:47:39.16</time>
      </trkpt>
      <trkpt lat="44.17442" lon="5.27397">
        <ele>1836</ele>
        <time>2010-04-15T19:47:40.13</time>
      </trkpt>
      <trkpt lat="44.17442" lon="5.27397">
        <ele>1836.5</ele>
        <time>2010-04-15T19:47:41.13</time>
      </trkpt>
      <trkpt lat="44.17442" lon="5.27397">
        <ele>1836.5</ele>
        <time>2010-04-15T19:47:42.14</time>
      </trkpt>
      <trkpt lat="44.17442" lon="5.27397">
        <ele>1836.5</ele>
        <time>2010-04-15T19:47:43.13</time>
      </trkpt>
      <trkpt lat="44.17442" lon="5.27397">
        <ele>1836.5</ele>
        <time>2010-04-15T19:47:44.13</time>
      </trkpt>
      <trkpt lat="44.17442" lon="5.27397">
        <ele>1836.5</ele>
        <time>2010-04-15T19:47:45.12</time>
      </trkpt>
      <trkpt lat="44.17442" lon="5.27397">
        <ele>1836.5</ele>
        <time>2010-04-15T19:47:46.12</time>
      </trkpt>
      <trkpt lat="44.17442" lon="5.27396">
        <ele>1836.5</ele>
        <time>2010-04-15T19:47:47.12</time>
      </trkpt>
      <trkpt lat="44.17442" lon="5.27395">
        <ele>1837</ele>
        <time>2010-04-15T19:47:48.12</time>
      </trkpt>
      <trkpt lat="44.17442" lon="5.27394">
        <ele>1837</ele>
        <time>2010-04-15T19:47:49.12</time>
      </trkpt>
      <trkpt lat="44.17442" lon="5.27393">
        <ele>1838</ele>
        <time>2010-04-15T19:47:50.12</time>
      </trkpt>
      <trkpt lat="44.17442" lon="5.27392">
        <ele>1838</ele>
        <time>2010-04-15T19:47:51.12</time>
      </trkpt>
      <trkpt lat="44.17442" lon="5.27391">
        <ele>1838.5</ele>
        <time>2010-04-15T19:47:52.12</time>
      </trkpt>
      <trkpt lat="44.17442" lon="5.27391">
        <ele>1839</ele>
        <time>2010-04-15T19:47:53.12</time>
      </trkpt>
      <trkpt lat="44.17442" lon="5.2739">
        <ele>1839</ele>
        <time>2010-04-15T19:47:54.12</time>
      </trkpt>
      <trkpt lat="44.17442" lon="5.27389">
        <ele>1839.5</ele>
        <time>2010-04-15T19:47:55.12</time>
      </trkpt>
      <trkpt lat="44.17442" lon="5.27388">
        <ele>1839.5</ele>
        <time>2010-04-15T19:47:56.15</time>
      </trkpt>
      <trkpt lat="44.17442" lon="5.27387">
        <ele>1840</ele>
        <time>2010-04-15T19:47:57.12</time>
      </trkpt>
      <trkpt lat="44.17442" lon="5.27386">
        <ele>1840</ele>
        <time>2010-04-15T19:47:58.12</time>
      </trkpt>
      <trkpt lat="44.17442" lon="5.27386">
        <ele>1840</ele>
        <time>2010-04-15T19:47:59.12</time>
      </trkpt>
      <trkpt lat="44.17442" lon="5.27385">
        <ele>1840.5</ele>
        <time>2010-04-15T19:48:00.11</time>
      </trkpt>
      <trkpt lat="44.17442" lon="5.27384">
        <ele>1840.5</ele>
        <time>2010-04-15T19:48:01.11</time>
      </trkpt>
      <trkpt lat="44.17442" lon="5.27384">
        <ele>1840.5</ele>
        <time>2010-04-15T19:48:02.14</time>
      </trkpt>
      <trkpt lat="44.17442" lon="5.27384">
        <ele>1840.5</ele>
        <time>2010-04-15T19:48:03.11</time>
      </trkpt>
      <trkpt lat="44.17442" lon="5.27384">
        <ele>1840.5</ele>
        <time>2010-04-15T19:48:04.11</time>
      </trkpt>
      <trkpt lat="44.17442" lon="5.27384">
        <ele>1840.5</ele>
        <time>2010-04-15T19:48:05.11</time>
      </trkpt>
      <trkpt lat="44.17442" lon="5.27384">
        <ele>1840.5</ele>
        <time>2010-04-15T19:48:06.11</time>
      </trkpt>
      <trkpt lat="44.17442" lon="5.27383">
        <ele>1841</ele>
        <time>2010-04-15T19:48:07.14</time>
      </trkpt>
      <trkpt lat="44.17442" lon="5.27382">
        <ele>1841.5</ele>
        <time>2010-04-15T19:48:08.11</time>
      </trkpt>
      <trkpt lat="44.17442" lon="5.27382">
        <ele>1842</ele>
        <time>2010-04-15T19:48:09.16</time>
      </trkpt>
      <trkpt lat="44.17443" lon="5.27381">
        <ele>1842</ele>
        <time>2010-04-15T19:48:10.11</time>
      </trkpt>
      <trkpt lat="44.17443" lon="5.2738">
        <ele>1842.5</ele>
        <time>2010-04-15T19:48:11.11</time>
      </trkpt>
      <trkpt lat="44.17443" lon="5.2738">
        <ele>1843</ele>
        <time>2010-04-15T19:48:12.11</time>
      </trkpt>
      <trkpt lat="44.17443" lon="5.27379">
        <ele>1843.5</ele>
        <time>2010-04-15T19:48:13.11</time>
      </trkpt>
      <trkpt lat="44.17443" lon="5.27378">
        <ele>1843.5</ele>
        <time>2010-04-15T19:48:14.11</time>
      </trkpt>
      <trkpt lat="44.17443" lon="5.27377">
        <ele>1844</ele>
        <time>2010-04-15T19:48:15.11</time>
      </trkpt>
      <trkpt lat="44.17443" lon="5.27377">
        <ele>1844.5</ele>
        <time>2010-04-15T19:48:16.14</time>
      </trkpt>
      <trkpt lat="44.17443" lon="5.27376">
        <ele>1844.5</ele>
        <time>2010-04-15T19:48:17.10</time>
      </trkpt>
      <trkpt lat="44.17443" lon="5.27375">
        <ele>1844.5</ele>
        <time>2010-04-15T19:48:18.10</time>
      </trkpt>
      <trkpt lat="44.17443" lon="5.27375">
        <ele>1844.5</ele>
        <time>2010-04-15T19:48:19.10</time>
      </trkpt>
      <trkpt lat="44.17443" lon="5.27374">
        <ele>1844.5</ele>
        <time>2010-04-15T19:48:20.10</time>
      </trkpt>
      <trkpt lat="44.17443" lon="5.27374">
        <ele>1845</ele>
        <time>2010-04-15T19:48:21.10</time>
      </trkpt>
      <trkpt lat="44.17443" lon="5.27373">
        <ele>1845</ele>
        <time>2010-04-15T19:48:22.10</time>
      </trkpt>
      <trkpt lat="44.17443" lon="5.27372">
        <ele>1845</ele>
        <time>2010-04-15T19:48:23.09</time>
      </trkpt>
      <trkpt lat="44.17443" lon="5.27371">
        <ele>1845</ele>
        <time>2010-04-15T19:48:24.10</time>
      </trkpt>
      <trkpt lat="44.17443" lon="5.27371">
        <ele>1845</ele>
        <time>2010-04-15T19:48:25.10</time>
      </trkpt>
      <trkpt lat="44.17443" lon="5.27371">
        <ele>1845</ele>
        <time>2010-04-15T19:48:26.09</time>
      </trkpt>
      <trkpt lat="44.17443" lon="5.27371">
        <ele>1845</ele>
        <time>2010-04-15T19:48:27.10</time>
      </trkpt>
      <trkpt lat="44.17443" lon="5.27371">
        <ele>1845</ele>
        <time>2010-04-15T19:48:28.10</time>
      </trkpt>
      <trkpt lat="44.17443" lon="5.27371">
        <ele>1845</ele>
        <time>2010-04-15T19:48:29.10</time>
      </trkpt>
      <trkpt lat="44.17443" lon="5.27371">
        <ele>1845</ele>
        <time>2010-04-15T19:48:30.09</time>
      </trkpt>
      <trkpt lat="44.17443" lon="5.27371">
        <ele>1845</ele>
        <time>2010-04-15T19:48:31.09</time>
      </trkpt>
      <trkpt lat="44.17443" lon="5.2737">
        <ele>1845</ele>
        <time>2010-04-15T19:48:32.13</time>
      </trkpt>
      <trkpt lat="44.17443" lon="5.27369">
        <ele>1845</ele>
        <time>2010-04-15T19:48:33.09</time>
      </trkpt>
      <trkpt lat="44.17444" lon="5.27368">
        <ele>1845.5</ele>
        <time>2010-04-15T19:48:34.09</time>
      </trkpt>
      <trkpt lat="44.17444" lon="5.27368">
        <ele>1845.5</ele>
        <time>2010-04-15T19:48:35.09</time>
      </trkpt>
      <trkpt lat="44.17444" lon="5.27367">
        <ele>1846</ele>
        <time>2010-04-15T19:48:36.09</time>
      </trkpt>
      <trkpt lat="44.17444" lon="5.27366">
        <ele>1846</ele>
        <time>2010-04-15T19:48:37.09</time>
      </trkpt>
      <trkpt lat="44.17444" lon="5.27366">
        <ele>1846</ele>
        <time>2010-04-15T19:48:38.09</time>
      </trkpt>
      <trkpt lat="44.17444" lon="5.27365">
        <ele>1846</ele>
        <time>2010-04-15T19:48:39.09</time>
      </trkpt>
      <trkpt lat="44.17444" lon="5.27364">
        <ele>1846</ele>
        <time>2010-04-15T19:48:40.09</time>
      </trkpt>
      <trkpt lat="44.17444" lon="5.27364">
        <ele>1846</ele>
        <time>2010-04-15T19:48:41.09</time>
      </trkpt>
      <trkpt lat="44.17444" lon="5.27363">
        <ele>1846.5</ele>
        <time>2010-04-15T19:48:42.09</time>
      </trkpt>
      <trkpt lat="44.17444" lon="5.27362">
        <ele>1847</ele>
        <time>2010-04-15T19:48:43.09</time>
      </trkpt>
      <trkpt lat="44.17444" lon="5.27362">
        <ele>1847</ele>
        <time>2010-04-15T19:48:44.08</time>
      </trkpt>
      <trkpt lat="44.17444" lon="5.27361">
        <ele>1847</ele>
        <time>2010-04-15T19:48:45.11</time>
      </trkpt>
      <trkpt lat="44.17445" lon="5.27361">
        <ele>1847.5</ele>
        <time>2010-04-15T19:48:46.08</time>
      </trkpt>
      <trkpt lat="44.17444" lon="5.2736">
        <ele>1847.5</ele>
        <time>2010-04-15T19:48:47.09</time>
      </trkpt>
      <trkpt lat="44.17445" lon="5.27359">
        <ele>1847.5</ele>
        <time>2010-04-15T19:48:48.09</time>
      </trkpt>
      <trkpt lat="44.17445" lon="5.27358">
        <ele>1848</ele>
        <time>2010-04-15T19:48:49.08</time>
      </trkpt>
      <trkpt lat="44.17445" lon="5.27358">
        <ele>1848</ele>
        <time>2010-04-15T19:48:50.08</time>
      </trkpt>
      <trkpt lat="44.17445" lon="5.27358">
        <ele>1848</ele>
        <time>2010-04-15T19:48:51.08</time>
      </trkpt>
      <trkpt lat="44.17445" lon="5.27358">
        <ele>1848</ele>
        <time>2010-04-15T19:48:52.08</time>
      </trkpt>
      <trkpt lat="44.17445" lon="5.27358">
        <ele>1848</ele>
        <time>2010-04-15T19:48:53.08</time>
      </trkpt>
      <trkpt lat="44.17445" lon="5.27358">
        <ele>1848</ele>
        <time>2010-04-15T19:48:54.07</time>
      </trkpt>
      <trkpt lat="44.17445" lon="5.27357">
        <ele>1848.5</ele>
        <time>2010-04-15T19:48:55.07</time>
      </trkpt>
      <trkpt lat="44.17445" lon="5.27357">
        <ele>1848.5</ele>
        <time>2010-04-15T19:48:56.08</time>
      </trkpt>
      <trkpt lat="44.17445" lon="5.27356">
        <ele>1848.5</ele>
        <time>2010-04-15T19:48:57.10</time>
      </trkpt>
      <trkpt lat="44.17445" lon="5.27355">
        <ele>1849</ele>
        <time>2010-04-15T19:48:58.08</time>
      </trkpt>
      <trkpt lat="44.17445" lon="5.27355">
        <ele>1849</ele>
        <time>2010-04-15T19:48:59.08</time>
      </trkpt>
      <trkpt lat="44.17445" lon="5.27355">
        <ele>1848.5</ele>
        <time>2010-04-15T19:49:00.08</time>
      </trkpt>
      <trkpt lat="44.17445" lon="5.27355">
        <ele>1848.5</ele>
        <time>2010-04-15T19:49:01.08</time>
      </trkpt>
      <trkpt lat="44.17445" lon="5.27355">
        <ele>1848.5</ele>
        <time>2010-04-15T19:49:02.08</time>
      </trkpt>
      <trkpt lat="44.17445" lon="5.27355">
        <ele>1848.5</ele>
        <time>2010-04-15T19:49:03.07</time>
      </trkpt>
      <trkpt lat="44.17445" lon="5.27355">
        <ele>1848.5</ele>
        <time>2010-04-15T19:49:04.07</time>
      </trkpt>
      <trkpt lat="44.17445" lon="5.27355">
        <ele>1848.5</ele>
        <time>2010-04-15T19:49:05.07</time>
      </trkpt>
      <trkpt lat="44.17445" lon="5.27354">
        <ele>1848</ele>
        <time>2010-04-15T19:49:06.07</time>
      </trkpt>
      <trkpt lat="44.17445" lon="5.27354">
        <ele>1848</ele>
        <time>2010-04-15T19:49:07.07</time>
      </trkpt>
      <trkpt lat="44.17445" lon="5.27353">
        <ele>1848</ele>
        <time>2010-04-15T19:49:08.06</time>
      </trkpt>
      <trkpt lat="44.17445" lon="5.27353">
        <ele>1848</ele>
        <time>2010-04-15T19:49:09.06</time>
      </trkpt>
      <trkpt lat="44.17445" lon="5.27352">
        <ele>1848.5</ele>
        <time>2010-04-15T19:49:10.07</time>
      </trkpt>
      <trkpt lat="44.17445" lon="5.27351">
        <ele>1848.5</ele>
        <time>2010-04-15T19:49:11.07</time>
      </trkpt>
      <trkpt lat="44.17446" lon="5.27351">
        <ele>1848.5</ele>
        <time>2010-04-15T19:49:12.07</time>
      </trkpt>
      <trkpt lat="44.17446" lon="5.2735">
        <ele>1849</ele>
        <time>2010-04-15T19:49:13.07</time>
      </trkpt>
      <trkpt lat="44.17446" lon="5.2735">
        <ele>1849</ele>
        <time>2010-04-15T19:49:14.07</time>
      </trkpt>
      <trkpt lat="44.17446" lon="5.2735">
        <ele>1849</ele>
        <time>2010-04-15T19:49:15.07</time>
      </trkpt>
      <trkpt lat="44.17446" lon="5.2735">
        <ele>1849</ele>
        <time>2010-04-15T19:49:16.07</time>
      </trkpt>
      <trkpt lat="44.17446" lon="5.2735">
        <ele>1848.5</ele>
        <time>2010-04-15T19:49:17.07</time>
      </trkpt>
      <trkpt lat="44.17446" lon="5.2735">
        <ele>1848.5</ele>
        <time>2010-04-15T19:49:18.09</time>
      </trkpt>
      <trkpt lat="44.17446" lon="5.2735">
        <ele>1848.5</ele>
        <time>2010-04-15T19:49:19.07</time>
      </trkpt>
      <trkpt lat="44.17446" lon="5.2735">
        <ele>1848.5</ele>
        <time>2010-04-15T19:49:20.06</time>
      </trkpt>
      <trkpt lat="44.17446" lon="5.2735">
        <ele>1848.5</ele>
        <time>2010-04-15T19:49:21.06</time>
      </trkpt>
      <trkpt lat="44.17446" lon="5.2735">
        <ele>1848.5</ele>
        <time>2010-04-15T19:49:22.06</time>
      </trkpt>
      <trkpt lat="44.17446" lon="5.2735">
        <ele>1848.5</ele>
        <time>2010-04-15T19:49:23.06</time>
      </trkpt>
      <trkpt lat="44.17446" lon="5.2735">
        <ele>1848.5</ele>
        <time>2010-04-15T19:49:24.06</time>
      </trkpt>
      <trkpt lat="44.17446" lon="5.2735">
        <ele>1848.5</ele>
        <time>2010-04-15T19:49:25.06</time>
      </trkpt>
      <trkpt lat="44.17446" lon="5.2735">
        <ele>1848.5</ele>
        <time>2010-04-15T19:49:26.06</time>
      </trkpt>
      <trkpt lat="44.17446" lon="5.2735">
        <ele>1848.5</ele>
        <time>2010-04-15T19:49:27.06</time>
      </trkpt>
      <trkpt lat="44.17446" lon="5.2735">
        <ele>1848.5</ele>
        <time>2010-04-15T19:49:28.06</time>
      </trkpt>
      <trkpt lat="44.17446" lon="5.2735">
        <ele>1848.5</ele>
        <time>2010-04-15T19:49:29.06</time>
      </trkpt>
      <trkpt lat="44.17446" lon="5.2735">
        <ele>1848.5</ele>
        <time>2010-04-15T19:49:30.06</time>
      </trkpt>
      <trkpt lat="44.17446" lon="5.2735">
        <ele>1848.5</ele>
        <time>2010-04-15T19:49:31.06</time>
      </trkpt>
      <trkpt lat="44.17446" lon="5.2735">
        <ele>1848.5</ele>
        <time>2010-04-15T19:49:32.06</time>
      </trkpt>
      <trkpt lat="44.17446" lon="5.2735">
        <ele>1848.5</ele>
        <time>2010-04-15T19:49:33.05</time>
      </trkpt>
      <trkpt lat="44.17447" lon="5.2735">
        <ele>1848.5</ele>
        <time>2010-04-15T19:49:34.05</time>
      </trkpt>
      <trkpt lat="44.17447" lon="5.27349">
        <ele>1848</ele>
        <time>2010-04-15T19:49:35.05</time>
      </trkpt>
      <trkpt lat="44.17447" lon="5.27349">
        <ele>1848</ele>
        <time>2010-04-15T19:49:36.05</time>
      </trkpt>
      <trkpt lat="44.17447" lon="5.27349">
        <ele>1848</ele>
        <time>2010-04-15T19:49:37.05</time>
      </trkpt>
      <trkpt lat="44.17447" lon="5.2735">
        <ele>1848</ele>
        <time>2010-04-15T19:49:38.05</time>
      </trkpt>
      <trkpt lat="44.17447" lon="5.2735">
        <ele>1848.5</ele>
        <time>2010-04-15T19:49:39.04</time>
      </trkpt>
      <trkpt lat="44.17447" lon="5.2735">
        <ele>1848.5</ele>
        <time>2010-04-15T19:49:40.05</time>
      </trkpt>
      <trkpt lat="44.17447" lon="5.2735">
        <ele>1848.5</ele>
        <time>2010-04-15T19:49:41.05</time>
      </trkpt>
      <trkpt lat="44.17448" lon="5.27349">
        <ele>1848.5</ele>
        <time>2010-04-15T19:49:42.05</time>
      </trkpt>
      <trkpt lat="44.17448" lon="5.27349">
        <ele>1848.5</ele>
        <time>2010-04-15T19:49:43.04</time>
      </trkpt>
      <trkpt lat="44.17449" lon="5.27348">
        <ele>1848.5</ele>
        <time>2010-04-15T19:49:44.04</time>
      </trkpt>
      <trkpt lat="44.17449" lon="5.27348">
        <ele>1848.5</ele>
        <time>2010-04-15T19:49:45.04</time>
      </trkpt>
      <trkpt lat="44.1745" lon="5.27347">
        <ele>1848.5</ele>
        <time>2010-04-15T19:49:46.04</time>
      </trkpt>
      <trkpt lat="44.1745" lon="5.27347">
        <ele>1848</ele>
        <time>2010-04-15T19:49:47.08</time>
      </trkpt>
      <trkpt lat="44.17451" lon="5.27346">
        <ele>1848</ele>
        <time>2010-04-15T19:49:48.04</time>
      </trkpt>
      <trkpt lat="44.17451" lon="5.27345">
        <ele>1848</ele>
        <time>2010-04-15T19:49:49.04</time>
      </trkpt>
      <trkpt lat="44.17452" lon="5.27345">
        <ele>1848</ele>
        <time>2010-04-15T19:49:50.04</time>
      </trkpt>
      <trkpt lat="44.17452" lon="5.27345">
        <ele>1847.5</ele>
        <time>2010-04-15T19:49:51.04</time>
      </trkpt>
      <trkpt lat="44.17452" lon="5.27345">
        <ele>1847.5</ele>
        <time>2010-04-15T19:49:52.04</time>
      </trkpt>
      <trkpt lat="44.17452" lon="5.27345">
        <ele>1847.5</ele>
        <time>2010-04-15T19:49:53.05</time>
      </trkpt>
      <trkpt lat="44.17452" lon="5.27345">
        <ele>1847.5</ele>
        <time>2010-04-15T19:49:54.04</time>
      </trkpt>
      <trkpt lat="44.17452" lon="5.27345">
        <ele>1847.5</ele>
        <time>2010-04-15T19:49:55.04</time>
      </trkpt>
      <trkpt lat="44.17453" lon="5.27344">
        <ele>1847.5</ele>
        <time>2010-04-15T19:49:56.04</time>
      </trkpt>
      <trkpt lat="44.17453" lon="5.27344">
        <ele>1847.5</ele>
        <time>2010-04-15T19:49:57.04</time>
      </trkpt>
      <trkpt lat="44.17453" lon="5.27344">
        <ele>1847.5</ele>
        <time>2010-04-15T19:49:58.04</time>
      </trkpt>
      <trkpt lat="44.17454" lon="5.27343">
        <ele>1847.5</ele>
        <time>2010-04-15T19:49:59.04</time>
      </trkpt>
      <trkpt lat="44.17454" lon="5.27343">
        <ele>1847.5</ele>
        <time>2010-04-15T19:50:00.03</time>
      </trkpt>
      <trkpt lat="44.17455" lon="5.27343">
        <ele>1847.5</ele>
        <time>2010-04-15T19:50:01.03</time>
      </trkpt>
      <trkpt lat="44.17455" lon="5.27343">
        <ele>1847.5</ele>
        <time>2010-04-15T19:50:02.03</time>
      </trkpt>
      <trkpt lat="44.17455" lon="5.27343">
        <ele>1847</ele>
        <time>2010-04-15T19:50:03.03</time>
      </trkpt>
      <trkpt lat="44.17455" lon="5.27343">
        <ele>1847</ele>
        <time>2010-04-15T19:50:04.03</time>
      </trkpt>
      <trkpt lat="44.17455" lon="5.27343">
        <ele>1847</ele>
        <time>2010-04-15T19:50:05.04</time>
      </trkpt>
      <trkpt lat="44.17455" lon="5.27343">
        <ele>1847</ele>
        <time>2010-04-15T19:50:06.04</time>
      </trkpt>
      <trkpt lat="44.17455" lon="5.27343">
        <ele>1847</ele>
        <time>2010-04-15T19:50:07.03</time>
      </trkpt>
      <trkpt lat="44.17455" lon="5.27343">
        <ele>1847</ele>
        <time>2010-04-15T19:50:08.03</time>
      </trkpt>
      <trkpt lat="44.17455" lon="5.27343">
        <ele>1847</ele>
        <time>2010-04-15T19:50:09.03</time>
      </trkpt>
      <trkpt lat="44.17455" lon="5.27342">
        <ele>1846.5</ele>
        <time>2010-04-15T19:50:10.02</time>
      </trkpt>
      <trkpt lat="44.17455" lon="5.27342">
        <ele>1846.5</ele>
        <time>2010-04-15T19:50:11.03</time>
      </trkpt>
      <trkpt lat="44.17455" lon="5.27342">
        <ele>1846.5</ele>
        <time>2010-04-15T19:50:12.02</time>
      </trkpt>
      <trkpt lat="44.17455" lon="5.27342">
        <ele>1846.5</ele>
        <time>2010-04-15T19:50:13.02</time>
      </trkpt>
      <trkpt lat="44.17454" lon="5.27342">
        <ele>1846</ele>
        <time>2010-04-15T19:50:14.02</time>
      </trkpt>
      <trkpt lat="44.17454" lon="5.27342">
        <ele>1846</ele>
        <time>2010-04-15T19:50:15.02</time>
      </trkpt>
      <trkpt lat="44.17454" lon="5.27342">
        <ele>1845.5</ele>
        <time>2010-04-15T19:50:16.02</time>
      </trkpt>
      <trkpt lat="44.17454" lon="5.27342">
        <ele>1845</ele>
        <time>2010-04-15T19:50:18.06</time>
      </trkpt>
      <trkpt lat="44.17454" lon="5.27342">
        <ele>1845</ele>
        <time>2010-04-15T19:50:19.02</time>
      </trkpt>
      <trkpt lat="44.17454" lon="5.27342">
        <ele>1845</ele>
        <time>2010-04-15T19:50:20.03</time>
      </trkpt>
      <trkpt lat="44.17454" lon="5.27342">
        <ele>1844.5</ele>
        <time>2010-04-15T19:50:21.03</time>
      </trkpt>
      <trkpt lat="44.17454" lon="5.27342">
        <ele>1844.5</ele>
        <time>2010-04-15T19:50:22.02</time>
      </trkpt>
      <trkpt lat="44.17454" lon="5.27341">
        <ele>1844.5</ele>
        <time>2010-04-15T19:50:23.02</time>
      </trkpt>
      <trkpt lat="44.17454" lon="5.27341">
        <ele>1844.5</ele>
        <time>2010-04-15T19:50:24.02</time>
      </trkpt>
      <trkpt lat="44.17454" lon="5.27341">
        <ele>1844</ele>
        <time>2010-04-15T19:50:25.02</time>
      </trkpt>
      <trkpt lat="44.17454" lon="5.27341">
        <ele>1844</ele>
        <time>2010-04-15T19:50:26.02</time>
      </trkpt>
      <trkpt lat="44.17454" lon="5.27341">
        <ele>1844</ele>
        <time>2010-04-15T19:50:27.02</time>
      </trkpt>
      <trkpt lat="44.17454" lon="5.27341">
        <ele>1844</ele>
        <time>2010-04-15T19:50:28.02</time>
      </trkpt>
      <trkpt lat="44.17454" lon="5.27341">
        <ele>1844</ele>
        <time>2010-04-15T19:50:29.03</time>
      </trkpt>
      <trkpt lat="44.17454" lon="5.27341">
        <ele>1844</ele>
        <time>2010-04-15T19:50:30.01</time>
      </trkpt>
      <trkpt lat="44.17454" lon="5.27341">
        <ele>1844</ele>
        <time>2010-04-15T19:50:31.01</time>
      </trkpt>
      <trkpt lat="44.17454" lon="5.27341">
        <ele>1844</ele>
        <time>2010-04-15T19:50:32.01</time>
      </trkpt>
      <trkpt lat="44.17454" lon="5.27341">
        <ele>1844</ele>
        <time>2010-04-15T19:50:33.01</time>
      </trkpt>
      <trkpt lat="44.17454" lon="5.27341">
        <ele>1844</ele>
        <time>2010-04-15T19:50:34.02</time>
      </trkpt>
      <trkpt lat="44.17454" lon="5.27341">
        <ele>1844</ele>
        <time>2010-04-15T19:50:35.02</time>
      </trkpt>
      <trkpt lat="44.17454" lon="5.27341">
        <ele>1844</ele>
        <time>2010-04-15T19:50:36.02</time>
      </trkpt>
      <trkpt lat="44.17454" lon="5.27341">
        <ele>1843.5</ele>
        <time>2010-04-15T19:50:37.01</time>
      </trkpt>
      <trkpt lat="44.17454" lon="5.27341">
        <ele>1843</ele>
        <time>2010-04-15T19:50:38.01</time>
      </trkpt>
      <trkpt lat="44.17453" lon="5.2734">
        <ele>1843</ele>
        <time>2010-04-15T19:50:39.02</time>
      </trkpt>
      <trkpt lat="44.17453" lon="5.2734">
        <ele>1843</ele>
        <time>2010-04-15T19:50:40.02</time>
      </trkpt>
      <trkpt lat="44.17453" lon="5.2734">
        <ele>1843</ele>
        <time>2010-04-15T19:50:41.01</time>
      </trkpt>
      <trkpt lat="44.17453" lon="5.2734">
        <ele>1843</ele>
        <time>2010-04-15T19:50:42.01</time>
      </trkpt>
      <trkpt lat="44.17453" lon="5.2734">
        <ele>1843</ele>
        <time>2010-04-15T19:50:43.02</time>
      </trkpt>
      <trkpt lat="44.17453" lon="5.2734">
        <ele>1843</ele>
        <time>2010-04-15T19:50:44.01</time>
      </trkpt>
      <trkpt lat="44.17453" lon="5.2734">
        <ele>1843</ele>
        <time>2010-04-15T19:50:45.00</time>
      </trkpt>
      <trkpt lat="44.17453" lon="5.2734">
        <ele>1843</ele>
        <time>2010-04-15T19:50:46.00</time>
      </trkpt>
      <trkpt lat="44.17453" lon="5.2734">
        <ele>1843</ele>
        <time>2010-04-15T19:50:47.01</time>
      </trkpt>
      <trkpt lat="44.17452" lon="5.2734">
        <ele>1842.5</ele>
        <time>2010-04-15T19:50:48.01</time>
      </trkpt>
      <trkpt lat="44.17452" lon="5.2734">
        <ele>1842.5</ele>
        <time>2010-04-15T19:50:49.00</time>
      </trkpt>
      <trkpt lat="44.17452" lon="5.2734">
        <ele>1842.5</ele>
        <time>2010-04-15T19:50:50.00</time>
      </trkpt>
      <trkpt lat="44.17452" lon="5.2734">
        <ele>1842.5</ele>
        <time>2010-04-15T19:50:51.01</time>
      </trkpt>
      <trkpt lat="44.17452" lon="5.27339">
        <ele>1843</ele>
        <time>2010-04-15T19:50:52.01</time>
      </trkpt>
      <trkpt lat="44.17452" lon="5.27339">
        <ele>1843</ele>
        <time>2010-04-15T19:50:53.01</time>
      </trkpt>
      <trkpt lat="44.17451" lon="5.27339">
        <ele>1843</ele>
        <time>2010-04-15T19:50:54.01</time>
      </trkpt>
      <trkpt lat="44.17451" lon="5.27338">
        <ele>1843</ele>
        <time>2010-04-15T19:50:55.00</time>
      </trkpt>
      <trkpt lat="44.1745" lon="5.27338">
        <ele>1843</ele>
        <time>2010-04-15T19:50:56.00</time>
      </trkpt>
      <trkpt lat="44.1745" lon="5.27338">
        <ele>1843.5</ele>
        <time>2010-04-15T19:50:57.01</time>
      </trkpt>
      <trkpt lat="44.17449" lon="5.27338">
        <ele>1843.5</ele>
        <time>2010-04-15T19:50:58.00</time>
      </trkpt>
      <trkpt lat="44.17448" lon="5.27338">
        <ele>1843.5</ele>
        <time>2010-04-15T19:50:59.00</time>
      </trkpt>
      <trkpt lat="44.17448" lon="5.27338">
        <ele>1843.5</ele>
        <time>2010-04-15T19:51:00.00</time>
      </trkpt>
      <trkpt lat="44.17448" lon="5.27338">
        <ele>1843.5</ele>
        <time>2010-04-15T19:51:01.00</time>
      </trkpt>
      <trkpt lat="44.17447" lon="5.27338">
        <ele>1843.5</ele>
        <time>2010-04-15T19:51:02.00</time>
      </trkpt>
      <trkpt lat="44.17447" lon="5.27338">
        <ele>1843.5</ele>
        <time>2010-04-15T19:51:03.00</time>
      </trkpt>
      <trkpt lat="44.17446" lon="5.27338">
        <ele>1844</ele>
        <time>2010-04-15T19:51:04.00</time>
      </trkpt>
      <trkpt lat="44.17446" lon="5.27338">
        <ele>1844</ele>
        <time>2010-04-15T19:51:05.00</time>
      </trkpt>
      <trkpt lat="44.17445" lon="5.27339">
        <ele>1844</ele>
        <time>2010-04-15T19:51:06.00</time>
      </trkpt>
      <trkpt lat="44.17445" lon="5.27339">
        <ele>1844.5</ele>
        <time>2010-04-15T19:51:07.00</time>
      </trkpt>
      <trkpt lat="44.17444" lon="5.27339">
        <ele>1844.5</ele>
        <time>2010-04-15T19:51:08.00</time>
      </trkpt>
      <trkpt lat="44.17444" lon="5.27339">
        <ele>1844.5</ele>
        <time>2010-04-15T19:51:09.00</time>
      </trkpt>
      <trkpt lat="44.17443" lon="5.2734">
        <ele>1844</ele>
        <time>2010-04-15T19:51:09.99</time>
      </trkpt>
      <trkpt lat="44.17443" lon="5.2734">
        <ele>1844</ele>
        <time>2010-04-15T19:51:10.99</time>
      </trkpt>
      <trkpt lat="44.17443" lon="5.2734">
        <ele>1844</ele>
        <time>2010-04-15T19:51:11.99</time>
      </trkpt>
      <trkpt lat="44.17442" lon="5.2734">
        <ele>1844</ele>
        <time>2010-04-15T19:51:12.99</time>
      </trkpt>
      <trkpt lat="44.17442" lon="5.2734">
        <ele>1844</ele>
        <time>2010-04-15T19:51:13.98</time>
      </trkpt>
      <trkpt lat="44.17442" lon="5.2734">
        <ele>1844</ele>
        <time>2010-04-15T19:51:14.99</time>
      </trkpt>
      <trkpt lat="44.17441" lon="5.2734">
        <ele>1844.5</ele>
        <time>2010-04-15T19:51:15.99</time>
      </trkpt>
      <trkpt lat="44.17441" lon="5.2734">
        <ele>1844.5</ele>
        <time>2010-04-15T19:51:16.99</time>
      </trkpt>
      <trkpt lat="44.17441" lon="5.27341">
        <ele>1844.5</ele>
        <time>2010-04-15T19:51:17.99</time>
      </trkpt>
      <trkpt lat="44.1744" lon="5.27341">
        <ele>1845</ele>
        <time>2010-04-15T19:51:18.99</time>
      </trkpt>
      <trkpt lat="44.1744" lon="5.27341">
        <ele>1845</ele>
        <time>2010-04-15T19:51:19.99</time>
      </trkpt>
      <trkpt lat="44.17439" lon="5.27341">
        <ele>1845</ele>
        <time>2010-04-15T19:51:20.98</time>
      </trkpt>
      <trkpt lat="44.17438" lon="5.27342">
        <ele>1845</ele>
        <time>2010-04-15T19:51:21.98</time>
      </trkpt>
      <trkpt lat="44.17438" lon="5.27342">
        <ele>1845</ele>
        <time>2010-04-15T19:51:22.98</time>
      </trkpt>
      <trkpt lat="44.17437" lon="5.27342">
        <ele>1845</ele>
        <time>2010-04-15T19:51:23.98</time>
      </trkpt>
      <trkpt lat="44.17437" lon="5.27342">
        <ele>1845.5</ele>
        <time>2010-04-15T19:51:24.99</time>
      </trkpt>
      <trkpt lat="44.17437" lon="5.27343">
        <ele>1845.5</ele>
        <time>2010-04-15T19:51:25.98</time>
      </trkpt>
      <trkpt lat="44.17437" lon="5.27343">
        <ele>1845.5</ele>
        <time>2010-04-15T19:51:26.98</time>
      </trkpt>
      <trkpt lat="44.17437" lon="5.27343">
        <ele>1845</ele>
        <time>2010-04-15T19:51:27.98</time>
      </trkpt>
      <trkpt lat="44.17437" lon="5.27342">
        <ele>1845.5</ele>
        <time>2010-04-15T19:51:28.98</time>
      </trkpt>
      <trkpt lat="44.17436" lon="5.27343">
        <ele>1845.5</ele>
        <time>2010-04-15T19:51:29.98</time>
      </trkpt>
      <trkpt lat="44.17436" lon="5.27342">
        <ele>1845.5</ele>
        <time>2010-04-15T19:51:30.97</time>
      </trkpt>
      <trkpt lat="44.17436" lon="5.27342">
        <ele>1845.5</ele>
        <time>2010-04-15T19:51:31.98</time>
      </trkpt>
      <trkpt lat="44.17435" lon="5.27342">
        <ele>1846</ele>
        <time>2010-04-15T19:51:32.98</time>
      </trkpt>
      <trkpt lat="44.17435" lon="5.27342">
        <ele>1846</ele>
        <time>2010-04-15T19:51:33.97</time>
      </trkpt>
      <trkpt lat="44.17434" lon="5.27342">
        <ele>1846.5</ele>
        <time>2010-04-15T19:51:34.97</time>
      </trkpt>
      <trkpt lat="44.17434" lon="5.27342">
        <ele>1846</ele>
        <time>2010-04-15T19:51:35.97</time>
      </trkpt>
      <trkpt lat="44.17433" lon="5.27342">
        <ele>1846.5</ele>
        <time>2010-04-15T19:51:36.97</time>
      </trkpt>
      <trkpt lat="44.17433" lon="5.27342">
        <ele>1846.5</ele>
        <time>2010-04-15T19:51:37.97</time>
      </trkpt>
      <trkpt lat="44.17433" lon="5.27342">
        <ele>1847</ele>
        <time>2010-04-15T19:51:38.98</time>
      </trkpt>
      <trkpt lat="44.17432" lon="5.27342">
        <ele>1847</ele>
        <time>2010-04-15T19:51:39.97</time>
      </trkpt>
      <trkpt lat="44.17431" lon="5.27342">
        <ele>1847.5</ele>
        <time>2010-04-15T19:51:40.97</time>
      </trkpt>
      <trkpt lat="44.17431" lon="5.27341">
        <ele>1848</ele>
        <time>2010-04-15T19:51:41.97</time>
      </trkpt>
      <trkpt lat="44.1743" lon="5.27341">
        <ele>1848.5</ele>
        <time>2010-04-15T19:51:42.98</time>
      </trkpt>
      <trkpt lat="44.1743" lon="5.27341">
        <ele>1848.5</ele>
        <time>2010-04-15T19:51:43.97</time>
      </trkpt>
      <trkpt lat="44.1743" lon="5.27341">
        <ele>1848.5</ele>
        <time>2010-04-15T19:51:44.97</time>
      </trkpt>
      <trkpt lat="44.1743" lon="5.27341">
        <ele>1849</ele>
        <time>2010-04-15T19:51:45.97</time>
      </trkpt>
      <trkpt lat="44.1743" lon="5.27341">
        <ele>1849</ele>
        <time>2010-04-15T19:51:46.97</time>
      </trkpt>
      <trkpt lat="44.1743" lon="5.27341">
        <ele>1849</ele>
        <time>2010-04-15T19:51:47.97</time>
      </trkpt>
      <trkpt lat="44.1743" lon="5.27341">
        <ele>1849.5</ele>
        <time>2010-04-15T19:51:48.97</time>
      </trkpt>
      <trkpt lat="44.1743" lon="5.27341">
        <ele>1850</ele>
        <time>2010-04-15T19:51:49.97</time>
      </trkpt>
      <trkpt lat="44.17429" lon="5.27341">
        <ele>1850</ele>
        <time>2010-04-15T19:51:50.97</time>
      </trkpt>
      <trkpt lat="44.17429" lon="5.27341">
        <ele>1850.5</ele>
        <time>2010-04-15T19:51:51.97</time>
      </trkpt>
      <trkpt lat="44.17428" lon="5.27341">
        <ele>1850.5</ele>
        <time>2010-04-15T19:51:52.97</time>
      </trkpt>
      <trkpt lat="44.17428" lon="5.27341">
        <ele>1851</ele>
        <time>2010-04-15T19:51:53.97</time>
      </trkpt>
      <trkpt lat="44.17427" lon="5.27341">
        <ele>1851</ele>
        <time>2010-04-15T19:51:54.97</time>
      </trkpt>
      <trkpt lat="44.17427" lon="5.27341">
        <ele>1851.5</ele>
        <time>2010-04-15T19:51:55.97</time>
      </trkpt>
      <trkpt lat="44.17427" lon="5.2734">
        <ele>1852</ele>
        <time>2010-04-15T19:51:56.97</time>
      </trkpt>
      <trkpt lat="44.17426" lon="5.27341">
        <ele>1852</ele>
        <time>2010-04-15T19:51:57.97</time>
      </trkpt>
      <trkpt lat="44.17426" lon="5.2734">
        <ele>1852.5</ele>
        <time>2010-04-15T19:51:58.97</time>
      </trkpt>
      <trkpt lat="44.17425" lon="5.2734">
        <ele>1852.5</ele>
        <time>2010-04-15T19:51:59.97</time>
      </trkpt>
      <trkpt lat="44.17425" lon="5.2734">
        <ele>1853</ele>
        <time>2010-04-15T19:52:00.97</time>
      </trkpt>
      <trkpt lat="44.17425" lon="5.2734">
        <ele>1853.5</ele>
        <time>2010-04-15T19:52:01.96</time>
      </trkpt>
      <trkpt lat="44.17424" lon="5.2734">
        <ele>1853.5</ele>
        <time>2010-04-15T19:52:02.96</time>
      </trkpt>
      <trkpt lat="44.17424" lon="5.27339">
        <ele>1854</ele>
        <time>2010-04-15T19:52:03.96</time>
      </trkpt>
      <trkpt lat="44.17423" lon="5.27339">
        <ele>1854.5</ele>
        <time>2010-04-15T19:52:04.96</time>
      </trkpt>
      <trkpt lat="44.17423" lon="5.27339">
        <ele>1854.5</ele>
        <time>2010-04-15T19:52:05.96</time>
      </trkpt>
      <trkpt lat="44.17423" lon="5.27339">
        <ele>1855</ele>
        <time>2010-04-15T19:52:06.96</time>
      </trkpt>
      <trkpt lat="44.17422" lon="5.27338">
        <ele>1855</ele>
        <time>2010-04-15T19:52:07.96</time>
      </trkpt>
      <trkpt lat="44.17422" lon="5.27338">
        <ele>1855.5</ele>
        <time>2010-04-15T19:52:08.96</time>
      </trkpt>
      <trkpt lat="44.17421" lon="5.27338">
        <ele>1856</ele>
        <time>2010-04-15T19:52:09.96</time>
      </trkpt>
      <trkpt lat="44.17421" lon="5.27338">
        <ele>1856</ele>
        <time>2010-04-15T19:52:10.96</time>
      </trkpt>
      <trkpt lat="44.1742" lon="5.27337">
        <ele>1856.5</ele>
        <time>2010-04-15T19:52:11.96</time>
      </trkpt>
      <trkpt lat="44.1742" lon="5.27337">
        <ele>1856.5</ele>
        <time>2010-04-15T19:52:12.96</time>
      </trkpt>
      <trkpt lat="44.17419" lon="5.27337">
        <ele>1857</ele>
        <time>2010-04-15T19:52:13.96</time>
      </trkpt>
      <trkpt lat="44.17419" lon="5.27337">
        <ele>1857.5</ele>
        <time>2010-04-15T19:52:14.96</time>
      </trkpt>
      <trkpt lat="44.17418" lon="5.27337">
        <ele>1857.5</ele>
        <time>2010-04-15T19:52:15.96</time>
      </trkpt>
      <trkpt lat="44.17418" lon="5.27337">
        <ele>1858</ele>
        <time>2010-04-15T19:52:16.96</time>
      </trkpt>
      <trkpt lat="44.17418" lon="5.27337">
        <ele>1857.5</ele>
        <time>2010-04-15T19:52:17.95</time>
      </trkpt>
      <trkpt lat="44.17418" lon="5.27337">
        <ele>1857.5</ele>
        <time>2010-04-15T19:52:18.94</time>
      </trkpt>
      <trkpt lat="44.17418" lon="5.27337">
        <ele>1857.5</ele>
        <time>2010-04-15T19:52:19.94</time>
      </trkpt>
      <trkpt lat="44.17418" lon="5.27337">
        <ele>1857.5</ele>
        <time>2010-04-15T19:52:20.94</time>
      </trkpt>
      <trkpt lat="44.17418" lon="5.27337">
        <ele>1857.5</ele>
        <time>2010-04-15T19:52:21.94</time>
      </trkpt>
      <trkpt lat="44.17418" lon="5.27337">
        <ele>1857.5</ele>
        <time>2010-04-15T19:52:22.94</time>
      </trkpt>
      <trkpt lat="44.17418" lon="5.27337">
        <ele>1857.5</ele>
        <time>2010-04-15T19:52:23.95</time>
      </trkpt>
      <trkpt lat="44.17417" lon="5.27337">
        <ele>1858</ele>
        <time>2010-04-15T19:52:24.94</time>
      </trkpt>
      <trkpt lat="44.17416" lon="5.27337">
        <ele>1858</ele>
        <time>2010-04-15T19:52:25.95</time>
      </trkpt>
      <trkpt lat="44.17416" lon="5.27337">
        <ele>1858</ele>
        <time>2010-04-15T19:52:26.95</time>
      </trkpt>
      <trkpt lat="44.17415" lon="5.27337">
        <ele>1858</ele>
        <time>2010-04-15T19:52:27.94</time>
      </trkpt>
      <trkpt lat="44.17415" lon="5.27337">
        <ele>1858</ele>
        <time>2010-04-15T19:52:28.95</time>
      </trkpt>
      <trkpt lat="44.17415" lon="5.27337">
        <ele>1858</ele>
        <time>2010-04-15T19:52:29.94</time>
      </trkpt>
      <trkpt lat="44.17415" lon="5.27337">
        <ele>1858</ele>
        <time>2010-04-15T19:52:30.94</time>
      </trkpt>
      <trkpt lat="44.17415" lon="5.27337">
        <ele>1858</ele>
        <time>2010-04-15T19:52:31.94</time>
      </trkpt>
      <trkpt lat="44.17415" lon="5.27337">
        <ele>1857.5</ele>
        <time>2010-04-15T19:52:32.94</time>
      </trkpt>
      <trkpt lat="44.17414" lon="5.27337">
        <ele>1858</ele>
        <time>2010-04-15T19:52:33.94</time>
      </trkpt>
      <trkpt lat="44.17413" lon="5.27337">
        <ele>1858</ele>
        <time>2010-04-15T19:52:34.94</time>
      </trkpt>
      <trkpt lat="44.17413" lon="5.27337">
        <ele>1858</ele>
        <time>2010-04-15T19:52:35.94</time>
      </trkpt>
      <trkpt lat="44.17412" lon="5.27338">
        <ele>1858</ele>
        <time>2010-04-15T19:52:36.94</time>
      </trkpt>
      <trkpt lat="44.17411" lon="5.27338">
        <ele>1858.5</ele>
        <time>2010-04-15T19:52:37.94</time>
      </trkpt>
      <trkpt lat="44.17411" lon="5.27338">
        <ele>1858.5</ele>
        <time>2010-04-15T19:52:38.94</time>
      </trkpt>
      <trkpt lat="44.1741" lon="5.27338">
        <ele>1859</ele>
        <time>2010-04-15T19:52:39.94</time>
      </trkpt>
      <trkpt lat="44.1741" lon="5.27338">
        <ele>1859</ele>
        <time>2010-04-15T19:52:40.94</time>
      </trkpt>
      <trkpt lat="44.17409" lon="5.27339">
        <ele>1859</ele>
        <time>2010-04-15T19:52:41.94</time>
      </trkpt>
      <trkpt lat="44.17409" lon="5.27339">
        <ele>1859</ele>
        <time>2010-04-15T19:52:42.95</time>
      </trkpt>
      <trkpt lat="44.17408" lon="5.27339">
        <ele>1859.5</ele>
        <time>2010-04-15T19:52:43.94</time>
      </trkpt>
      <trkpt lat="44.17408" lon="5.27339">
        <ele>1859.5</ele>
        <time>2010-04-15T19:52:44.94</time>
      </trkpt>
      <trkpt lat="44.17407" lon="5.2734">
        <ele>1859.5</ele>
        <time>2010-04-15T19:52:45.94</time>
      </trkpt>
      <trkpt lat="44.17407" lon="5.2734">
        <ele>1860</ele>
        <time>2010-04-15T19:52:46.94</time>
      </trkpt>
      <trkpt lat="44.17406" lon="5.2734">
        <ele>1860</ele>
        <time>2010-04-15T19:52:47.94</time>
      </trkpt>
      <trkpt lat="44.17405" lon="5.2734">
        <ele>1860.5</ele>
        <time>2010-04-15T19:52:48.94</time>
      </trkpt>
      <trkpt lat="44.17405" lon="5.2734">
        <ele>1860.5</ele>
        <time>2010-04-15T19:52:49.94</time>
      </trkpt>
      <trkpt lat="44.17404" lon="5.27341">
        <ele>1861</ele>
        <time>2010-04-15T19:52:50.94</time>
      </trkpt>
      <trkpt lat="44.17404" lon="5.27341">
        <ele>1861</ele>
        <time>2010-04-15T19:52:51.93</time>
      </trkpt>
      <trkpt lat="44.17403" lon="5.27341">
        <ele>1861.5</ele>
        <time>2010-04-15T19:52:52.93</time>
      </trkpt>
      <trkpt lat="44.17403" lon="5.27341">
        <ele>1861.5</ele>
        <time>2010-04-15T19:52:53.93</time>
      </trkpt>
      <trkpt lat="44.17403" lon="5.27341">
        <ele>1862</ele>
        <time>2010-04-15T19:52:54.93</time>
      </trkpt>
      <trkpt lat="44.17403" lon="5.27341">
        <ele>1862</ele>
        <time>2010-04-15T19:52:55.93</time>
      </trkpt>
      <trkpt lat="44.17403" lon="5.27341">
        <ele>1862</ele>
        <time>2010-04-15T19:52:56.93</time>
      </trkpt>
      <trkpt lat="44.17403" lon="5.27341">
        <ele>1862</ele>
        <time>2010-04-15T19:52:57.92</time>
      </trkpt>
      <trkpt lat="44.17403" lon="5.27341">
        <ele>1862</ele>
        <time>2010-04-15T19:52:58.93</time>
      </trkpt>
      <trkpt lat="44.17403" lon="5.27341">
        <ele>1862</ele>
        <time>2010-04-15T19:52:59.93</time>
      </trkpt>
      <trkpt lat="44.17403" lon="5.27341">
        <ele>1862</ele>
        <time>2010-04-15T19:53:00.93</time>
      </trkpt>
      <trkpt lat="44.17402" lon="5.27341">
        <ele>1862.5</ele>
        <time>2010-04-15T19:53:01.93</time>
      </trkpt>
      <trkpt lat="44.17402" lon="5.27341">
        <ele>1862.5</ele>
        <time>2010-04-15T19:53:02.93</time>
      </trkpt>
      <trkpt lat="44.17401" lon="5.27341">
        <ele>1863</ele>
        <time>2010-04-15T19:53:03.93</time>
      </trkpt>
      <trkpt lat="44.17401" lon="5.27341">
        <ele>1863.5</ele>
        <time>2010-04-15T19:53:04.92</time>
      </trkpt>
      <trkpt lat="44.17401" lon="5.27341">
        <ele>1863.5</ele>
        <time>2010-04-15T19:53:05.92</time>
      </trkpt>
      <trkpt lat="44.17401" lon="5.27341">
        <ele>1863.5</ele>
        <time>2010-04-15T19:53:06.93</time>
      </trkpt>
      <trkpt lat="44.17401" lon="5.27341">
        <ele>1863.5</ele>
        <time>2010-04-15T19:53:07.92</time>
      </trkpt>
      <trkpt lat="44.17401" lon="5.27341">
        <ele>1863.5</ele>
        <time>2010-04-15T19:53:08.92</time>
      </trkpt>
      <trkpt lat="44.17401" lon="5.27341">
        <ele>1863</ele>
        <time>2010-04-15T19:53:09.92</time>
      </trkpt>
      <trkpt lat="44.174" lon="5.2734">
        <ele>1863.5</ele>
        <time>2010-04-15T19:53:10.92</time>
      </trkpt>
      <trkpt lat="44.174" lon="5.2734">
        <ele>1863.5</ele>
        <time>2010-04-15T19:53:11.91</time>
      </trkpt>
      <trkpt lat="44.17399" lon="5.2734">
        <ele>1863.5</ele>
        <time>2010-04-15T19:53:12.91</time>
      </trkpt>
      <trkpt lat="44.17399" lon="5.27339">
        <ele>1864</ele>
        <time>2010-04-15T19:53:13.91</time>
      </trkpt>
      <trkpt lat="44.17398" lon="5.27339">
        <ele>1864</ele>
        <time>2010-04-15T19:53:14.91</time>
      </trkpt>
      <trkpt lat="44.17397" lon="5.27339">
        <ele>1864</ele>
        <time>2010-04-15T19:53:15.92</time>
      </trkpt>
      <trkpt lat="44.17397" lon="5.27338">
        <ele>1864.5</ele>
        <time>2010-04-15T19:53:16.91</time>
      </trkpt>
      <trkpt lat="44.17396" lon="5.27338">
        <ele>1865</ele>
        <time>2010-04-15T19:53:17.92</time>
      </trkpt>
      <trkpt lat="44.17396" lon="5.27337">
        <ele>1865</ele>
        <time>2010-04-15T19:53:18.92</time>
      </trkpt>
      <trkpt lat="44.17395" lon="5.27337">
        <ele>1865</ele>
        <time>2010-04-15T19:53:19.92</time>
      </trkpt>
      <trkpt lat="44.17394" lon="5.27336">
        <ele>1865.5</ele>
        <time>2010-04-15T19:53:20.92</time>
      </trkpt>
      <trkpt lat="44.17394" lon="5.27336">
        <ele>1865.5</ele>
        <time>2010-04-15T19:53:21.92</time>
      </trkpt>
      <trkpt lat="44.17393" lon="5.27336">
        <ele>1866</ele>
        <time>2010-04-15T19:53:22.92</time>
      </trkpt>
      <trkpt lat="44.17393" lon="5.27336">
        <ele>1866</ele>
        <time>2010-04-15T19:53:23.92</time>
      </trkpt>
      <trkpt lat="44.17392" lon="5.27335">
        <ele>1866.5</ele>
        <time>2010-04-15T19:53:24.92</time>
      </trkpt>
      <trkpt lat="44.17392" lon="5.27335">
        <ele>1866.5</ele>
        <time>2010-04-15T19:53:25.91</time>
      </trkpt>
      <trkpt lat="44.17391" lon="5.27335">
        <ele>1866.5</ele>
        <time>2010-04-15T19:53:26.91</time>
      </trkpt>
      <trkpt lat="44.1739" lon="5.27335">
        <ele>1866.5</ele>
        <time>2010-04-15T19:53:27.91</time>
      </trkpt>
      <trkpt lat="44.1739" lon="5.27335">
        <ele>1867</ele>
        <time>2010-04-15T19:53:28.91</time>
      </trkpt>
      <trkpt lat="44.17389" lon="5.27335">
        <ele>1867</ele>
        <time>2010-04-15T19:53:29.91</time>
      </trkpt>
      <trkpt lat="44.17389" lon="5.27335">
        <ele>1867.5</ele>
        <time>2010-04-15T19:53:30.91</time>
      </trkpt>
      <trkpt lat="44.17388" lon="5.27335">
        <ele>1867.5</ele>
        <time>2010-04-15T19:53:31.91</time>
      </trkpt>
      <trkpt lat="44.17387" lon="5.27335">
        <ele>1868</ele>
        <time>2010-04-15T19:53:32.91</time>
      </trkpt>
      <trkpt lat="44.17387" lon="5.27335">
        <ele>1868</ele>
        <time>2010-04-15T19:53:33.91</time>
      </trkpt>
      <trkpt lat="44.17386" lon="5.27335">
        <ele>1868.5</ele>
        <time>2010-04-15T19:53:34.91</time>
      </trkpt>
      <trkpt lat="44.17386" lon="5.27334">
        <ele>1868.5</ele>
        <time>2010-04-15T19:53:35.91</time>
      </trkpt>
      <trkpt lat="44.17385" lon="5.27334">
        <ele>1868.5</ele>
        <time>2010-04-15T19:53:36.91</time>
      </trkpt>
      <trkpt lat="44.17385" lon="5.27335">
        <ele>1869</ele>
        <time>2010-04-15T19:53:37.91</time>
      </trkpt>
      <trkpt lat="44.17384" lon="5.27335">
        <ele>1869</ele>
        <time>2010-04-15T19:53:38.91</time>
      </trkpt>
      <trkpt lat="44.17384" lon="5.27334">
        <ele>1869</ele>
        <time>2010-04-15T19:53:39.91</time>
      </trkpt>
      <trkpt lat="44.17383" lon="5.27334">
        <ele>1869</ele>
        <time>2010-04-15T19:53:40.90</time>
      </trkpt>
      <trkpt lat="44.17383" lon="5.27335">
        <ele>1869.5</ele>
        <time>2010-04-15T19:53:41.90</time>
      </trkpt>
      <trkpt lat="44.17383" lon="5.27335">
        <ele>1869.5</ele>
        <time>2010-04-15T19:53:42.91</time>
      </trkpt>
      <trkpt lat="44.17382" lon="5.27335">
        <ele>1869.5</ele>
        <time>2010-04-15T19:53:43.90</time>
      </trkpt>
      <trkpt lat="44.17382" lon="5.27335">
        <ele>1869.5</ele>
        <time>2010-04-15T19:53:44.90</time>
      </trkpt>
      <trkpt lat="44.17382" lon="5.27335">
        <ele>1869.5</ele>
        <time>2010-04-15T19:53:45.90</time>
      </trkpt>
      <trkpt lat="44.17382" lon="5.27335">
        <ele>1870</ele>
        <time>2010-04-15T19:53:46.90</time>
      </trkpt>
      <trkpt lat="44.17382" lon="5.27335">
        <ele>1870</ele>
        <time>2010-04-15T19:53:47.90</time>
      </trkpt>
      <trkpt lat="44.17381" lon="5.27335">
        <ele>1870</ele>
        <time>2010-04-15T19:53:48.90</time>
      </trkpt>
      <trkpt lat="44.17381" lon="5.27335">
        <ele>1870.5</ele>
        <time>2010-04-15T19:53:49.90</time>
      </trkpt>
      <trkpt lat="44.1738" lon="5.27335">
        <ele>1870.5</ele>
        <time>2010-04-15T19:53:50.90</time>
      </trkpt>
      <trkpt lat="44.1738" lon="5.27334">
        <ele>1871</ele>
        <time>2010-04-15T19:53:51.90</time>
      </trkpt>
      <trkpt lat="44.1738" lon="5.27334">
        <ele>1871</ele>
        <time>2010-04-15T19:53:52.90</time>
      </trkpt>
      <trkpt lat="44.1738" lon="5.27334">
        <ele>1871</ele>
        <time>2010-04-15T19:53:53.90</time>
      </trkpt>
      <trkpt lat="44.17379" lon="5.27334">
        <ele>1871</ele>
        <time>2010-04-15T19:53:54.89</time>
      </trkpt>
      <trkpt lat="44.17379" lon="5.27333">
        <ele>1871</ele>
        <time>2010-04-15T19:53:55.88</time>
      </trkpt>
      <trkpt lat="44.17379" lon="5.27333">
        <ele>1871</ele>
        <time>2010-04-15T19:53:56.89</time>
      </trkpt>
      <trkpt lat="44.17379" lon="5.27333">
        <ele>1871</ele>
        <time>2010-04-15T19:53:57.89</time>
      </trkpt>
      <trkpt lat="44.17379" lon="5.27333">
        <ele>1871</ele>
        <time>2010-04-15T19:53:58.89</time>
      </trkpt>
      <trkpt lat="44.17379" lon="5.27334">
        <ele>1870.5</ele>
        <time>2010-04-15T19:53:59.89</time>
      </trkpt>
      <trkpt lat="44.17379" lon="5.27334">
        <ele>1870.5</ele>
        <time>2010-04-15T19:54:00.89</time>
      </trkpt>
      <trkpt lat="44.17379" lon="5.27334">
        <ele>1870</ele>
        <time>2010-04-15T19:54:01.89</time>
      </trkpt>
      <trkpt lat="44.17379" lon="5.27334">
        <ele>1870</ele>
        <time>2010-04-15T19:54:02.88</time>
      </trkpt>
      <trkpt lat="44.17378" lon="5.27334">
        <ele>1870</ele>
        <time>2010-04-15T19:54:03.88</time>
      </trkpt>
      <trkpt lat="44.17378" lon="5.27333">
        <ele>1869.5</ele>
        <time>2010-04-15T19:54:04.88</time>
      </trkpt>
      <trkpt lat="44.17378" lon="5.27333">
        <ele>1869.5</ele>
        <time>2010-04-15T19:54:05.89</time>
      </trkpt>
      <trkpt lat="44.17378" lon="5.27332">
        <ele>1869.5</ele>
        <time>2010-04-15T19:54:06.89</time>
      </trkpt>
      <trkpt lat="44.17377" lon="5.27332">
        <ele>1869</ele>
        <time>2010-04-15T19:54:07.89</time>
      </trkpt>
      <trkpt lat="44.17377" lon="5.27332">
        <ele>1869</ele>
        <time>2010-04-15T19:54:08.89</time>
      </trkpt>
      <trkpt lat="44.17377" lon="5.27333">
        <ele>1869.5</ele>
        <time>2010-04-15T19:54:09.89</time>
      </trkpt>
      <trkpt lat="44.17377" lon="5.27333">
        <ele>1869.5</ele>
        <time>2010-04-15T19:54:10.89</time>
      </trkpt>
      <trkpt lat="44.17377" lon="5.27333">
        <ele>1869.5</ele>
        <time>2010-04-15T19:54:11.89</time>
      </trkpt>
      <trkpt lat="44.17377" lon="5.27333">
        <ele>1869.5</ele>
        <time>2010-04-15T19:54:12.88</time>
      </trkpt>
      <trkpt lat="44.17377" lon="5.27333">
        <ele>1869.5</ele>
        <time>2010-04-15T19:54:13.88</time>
      </trkpt>
      <trkpt lat="44.17377" lon="5.27333">
        <ele>1869.5</ele>
        <time>2010-04-15T19:54:14.87</time>
      </trkpt>
      <trkpt lat="44.17377" lon="5.27333">
        <ele>1869.5</ele>
        <time>2010-04-15T19:54:15.87</time>
      </trkpt>
      <trkpt lat="44.17377" lon="5.27333">
        <ele>1869.5</ele>
        <time>2010-04-15T19:54:16.87</time>
      </trkpt>
      <trkpt lat="44.17377" lon="5.27333">
        <ele>1869.5</ele>
        <time>2010-04-15T19:54:17.87</time>
      </trkpt>
      <trkpt lat="44.17377" lon="5.27333">
        <ele>1869.5</ele>
        <time>2010-04-15T19:54:18.87</time>
      </trkpt>
      <trkpt lat="44.17377" lon="5.27333">
        <ele>1869.5</ele>
        <time>2010-04-15T19:54:19.87</time>
      </trkpt>
      <trkpt lat="44.17377" lon="5.27333">
        <ele>1869.5</ele>
        <time>2010-04-15T19:54:20.87</time>
      </trkpt>
      <trkpt lat="44.17377" lon="5.27333">
        <ele>1869.5</ele>
        <time>2010-04-15T19:54:21.87</time>
      </trkpt>
      <trkpt lat="44.17377" lon="5.27333">
        <ele>1869.5</ele>
        <time>2010-04-15T19:54:22.87</time>
      </trkpt>
      <trkpt lat="44.17377" lon="5.27333">
        <ele>1869.5</ele>
        <time>2010-04-15T19:54:23.87</time>
      </trkpt>
      <trkpt lat="44.17377" lon="5.27332">
        <ele>1869.5</ele>
        <time>2010-04-15T19:54:24.87</time>
      </trkpt>
      <trkpt lat="44.17377" lon="5.27332">
        <ele>1869.5</ele>
        <time>2010-04-15T19:54:25.87</time>
      </trkpt>
      <trkpt lat="44.17377" lon="5.27332">
        <ele>1869.5</ele>
        <time>2010-04-15T19:54:26.87</time>
      </trkpt>
      <trkpt lat="44.17377" lon="5.27332">
        <ele>1869.5</ele>
        <time>2010-04-15T19:54:27.87</time>
      </trkpt>
      <trkpt lat="44.17377" lon="5.27332">
        <ele>1869.5</ele>
        <time>2010-04-15T19:54:28.87</time>
      </trkpt>
      <trkpt lat="44.17377" lon="5.27332">
        <ele>1869.5</ele>
        <time>2010-04-15T19:54:29.87</time>
      </trkpt>
      <trkpt lat="44.17377" lon="5.27332">
        <ele>1869.5</ele>
        <time>2010-04-15T19:54:30.88</time>
      </trkpt>
      <trkpt lat="44.17377" lon="5.27332">
        <ele>1869.5</ele>
        <time>2010-04-15T19:54:31.87</time>
      </trkpt>
      <trkpt lat="44.17377" lon="5.27332">
        <ele>1869</ele>
        <time>2010-04-15T19:54:32.87</time>
      </trkpt>
      <trkpt lat="44.17377" lon="5.27332">
        <ele>1869</ele>
        <time>2010-04-15T19:54:33.87</time>
      </trkpt>
      <trkpt lat="44.17377" lon="5.27332">
        <ele>1869</ele>
        <time>2010-04-15T19:54:34.87</time>
      </trkpt>
      <trkpt lat="44.17377" lon="5.2733">
        <ele>1869</ele>
        <time>2010-04-15T19:54:35.87</time>
      </trkpt>
      <trkpt lat="44.17376" lon="5.27329">
        <ele>1869.5</ele>
        <time>2010-04-15T19:54:36.87</time>
      </trkpt>
      <trkpt lat="44.17376" lon="5.27327">
        <ele>1869</ele>
        <time>2010-04-15T19:54:37.87</time>
      </trkpt>
      <trkpt lat="44.17375" lon="5.27326">
        <ele>1869.5</ele>
        <time>2010-04-15T19:54:38.87</time>
      </trkpt>
      <trkpt lat="44.17375" lon="5.27325">
        <ele>1869.5</ele>
        <time>2010-04-15T19:54:39.87</time>
      </trkpt>
      <trkpt lat="44.17375" lon="5.27323">
        <ele>1869.5</ele>
        <time>2010-04-15T19:54:40.87</time>
      </trkpt>
      <trkpt lat="44.17375" lon="5.27322">
        <ele>1870</ele>
        <time>2010-04-15T19:54:41.87</time>
      </trkpt>
      <trkpt lat="44.17375" lon="5.27322">
        <ele>1870</ele>
        <time>2010-04-15T19:54:42.87</time>
      </trkpt>
      <trkpt lat="44.17374" lon="5.27321">
        <ele>1870</ele>
        <time>2010-04-15T19:54:43.86</time>
      </trkpt>
      <trkpt lat="44.17373" lon="5.2732">
        <ele>1870</ele>
        <time>2010-04-15T19:54:45.07</time>
      </trkpt>
      <trkpt lat="44.17373" lon="5.27319">
        <ele>1870.5</ele>
        <time>2010-04-15T19:54:45.85</time>
      </trkpt>
      <trkpt lat="44.17372" lon="5.27318">
        <ele>1870.5</ele>
        <time>2010-04-15T19:54:46.86</time>
      </trkpt>
      <trkpt lat="44.17371" lon="5.27318">
        <ele>1870.5</ele>
        <time>2010-04-15T19:54:47.86</time>
      </trkpt>
      <trkpt lat="44.1737" lon="5.27317">
        <ele>1871</ele>
        <time>2010-04-15T19:54:48.85</time>
      </trkpt>
      <trkpt lat="44.17369" lon="5.27317">
        <ele>1871.5</ele>
        <time>2010-04-15T19:54:49.85</time>
      </trkpt>
      <trkpt lat="44.17368" lon="5.27318">
        <ele>1871.5</ele>
        <time>2010-04-15T19:54:50.85</time>
      </trkpt>
      <trkpt lat="44.17367" lon="5.27319">
        <ele>1871.5</ele>
        <time>2010-04-15T19:54:51.85</time>
      </trkpt>
      <trkpt lat="44.17367" lon="5.27319">
        <ele>1872</ele>
        <time>2010-04-15T19:54:52.86</time>
      </trkpt>
      <trkpt lat="44.17366" lon="5.2732">
        <ele>1872</ele>
        <time>2010-04-15T19:54:53.85</time>
      </trkpt>
      <trkpt lat="44.17365" lon="5.27321">
        <ele>1872</ele>
        <time>2010-04-15T19:54:54.85</time>
      </trkpt>
      <trkpt lat="44.17364" lon="5.27321">
        <ele>1872</ele>
        <time>2010-04-15T19:54:55.85</time>
      </trkpt>
      <trkpt lat="44.17363" lon="5.27321">
        <ele>1872</ele>
        <time>2010-04-15T19:54:56.85</time>
      </trkpt>
      <trkpt lat="44.17362" lon="5.27321">
        <ele>1872</ele>
        <time>2010-04-15T19:54:57.85</time>
      </trkpt>
      <trkpt lat="44.17361" lon="5.2732">
        <ele>1872</ele>
        <time>2010-04-15T19:54:58.85</time>
      </trkpt>
      <trkpt lat="44.1736" lon="5.27319">
        <ele>1872.5</ele>
        <time>2010-04-15T19:54:59.85</time>
      </trkpt>
      <trkpt lat="44.17359" lon="5.27319">
        <ele>1872.5</ele>
        <time>2010-04-15T19:55:00.85</time>
      </trkpt>
      <trkpt lat="44.17358" lon="5.27319">
        <ele>1872.5</ele>
        <time>2010-04-15T19:55:01.85</time>
      </trkpt>
      <trkpt lat="44.17357" lon="5.2732">
        <ele>1872.5</ele>
        <time>2010-04-15T19:55:02.85</time>
      </trkpt>
      <trkpt lat="44.17356" lon="5.27321">
        <ele>1872.5</ele>
        <time>2010-04-15T19:55:03.85</time>
      </trkpt>
      <trkpt lat="44.17356" lon="5.27322">
        <ele>1872.5</ele>
        <time>2010-04-15T19:55:04.84</time>
      </trkpt>
      <trkpt lat="44.17355" lon="5.27323">
        <ele>1873</ele>
        <time>2010-04-15T19:55:05.84</time>
      </trkpt>
      <trkpt lat="44.17355" lon="5.27324">
        <ele>1873</ele>
        <time>2010-04-15T19:55:06.84</time>
      </trkpt>
      <trkpt lat="44.17354" lon="5.27325">
        <ele>1873</ele>
        <time>2010-04-15T19:55:07.85</time>
      </trkpt>
      <trkpt lat="44.17354" lon="5.27327">
        <ele>1873.5</ele>
        <time>2010-04-15T19:55:08.84</time>
      </trkpt>
      <trkpt lat="44.17354" lon="5.27328">
        <ele>1873.5</ele>
        <time>2010-04-15T19:55:09.84</time>
      </trkpt>
      <trkpt lat="44.17353" lon="5.27329">
        <ele>1874</ele>
        <time>2010-04-15T19:55:10.84</time>
      </trkpt>
      <trkpt lat="44.17353" lon="5.27329">
        <ele>1874.5</ele>
        <time>2010-04-15T19:55:11.84</time>
      </trkpt>
      <trkpt lat="44.17352" lon="5.2733">
        <ele>1874.5</ele>
        <time>2010-04-15T19:55:12.84</time>
      </trkpt>
      <trkpt lat="44.17352" lon="5.27331">
        <ele>1875</ele>
        <time>2010-04-15T19:55:13.85</time>
      </trkpt>
      <trkpt lat="44.17351" lon="5.27332">
        <ele>1875.5</ele>
        <time>2010-04-15T19:55:14.84</time>
      </trkpt>
      <trkpt lat="44.17351" lon="5.27333">
        <ele>1875.5</ele>
        <time>2010-04-15T19:55:15.84</time>
      </trkpt>
      <trkpt lat="44.1735" lon="5.27333">
        <ele>1876</ele>
        <time>2010-04-15T19:55:16.84</time>
      </trkpt>
      <trkpt lat="44.1735" lon="5.27334">
        <ele>1876</ele>
        <time>2010-04-15T19:55:17.84</time>
      </trkpt>
      <trkpt lat="44.1735" lon="5.27334">
        <ele>1876</ele>
        <time>2010-04-15T19:55:18.84</time>
      </trkpt>
      <trkpt lat="44.1735" lon="5.27334">
        <ele>1876</ele>
        <time>2010-04-15T19:55:19.84</time>
      </trkpt>
      <trkpt lat="44.1735" lon="5.27334">
        <ele>1876</ele>
        <time>2010-04-15T19:55:20.84</time>
      </trkpt>
      <trkpt lat="44.17349" lon="5.27334">
        <ele>1876.5</ele>
        <time>2010-04-15T19:55:21.84</time>
      </trkpt>
      <trkpt lat="44.17349" lon="5.27334">
        <ele>1876.5</ele>
        <time>2010-04-15T19:55:22.84</time>
      </trkpt>
      <trkpt lat="44.17349" lon="5.27334">
        <ele>1876.5</ele>
        <time>2010-04-15T19:55:23.84</time>
      </trkpt>
      <trkpt lat="44.17349" lon="5.27335">
        <ele>1877</ele>
        <time>2010-04-15T19:55:24.84</time>
      </trkpt>
      <trkpt lat="44.17349" lon="5.27335">
        <ele>1877</ele>
        <time>2010-04-15T19:55:25.84</time>
      </trkpt>
      <trkpt lat="44.17349" lon="5.27335">
        <ele>1877</ele>
        <time>2010-04-15T19:55:26.84</time>
      </trkpt>
      <trkpt lat="44.17349" lon="5.27335">
        <ele>1877</ele>
        <time>2010-04-15T19:55:27.84</time>
      </trkpt>
      <trkpt lat="44.17349" lon="5.27336">
        <ele>1877</ele>
        <time>2010-04-15T19:55:28.84</time>
      </trkpt>
      <trkpt lat="44.17348" lon="5.27337">
        <ele>1877.5</ele>
        <time>2010-04-15T19:55:29.84</time>
      </trkpt>
      <trkpt lat="44.17348" lon="5.27338">
        <ele>1878</ele>
        <time>2010-04-15T19:55:30.88</time>
      </trkpt>
      <trkpt lat="44.17348" lon="5.27339">
        <ele>1878</ele>
        <time>2010-04-15T19:55:31.84</time>
      </trkpt>
      <trkpt lat="44.17347" lon="5.27341">
        <ele>1878</ele>
        <time>2010-04-15T19:55:32.84</time>
      </trkpt>
      <trkpt lat="44.17347" lon="5.27342">
        <ele>1878.5</ele>
        <time>2010-04-15T19:55:33.84</time>
      </trkpt>
      <trkpt lat="44.17347" lon="5.27343">
        <ele>1879</ele>
        <time>2010-04-15T19:55:34.84</time>
      </trkpt>
      <trkpt lat="44.17346" lon="5.27345">
        <ele>1879</ele>
        <time>2010-04-15T19:55:35.83</time>
      </trkpt>
      <trkpt lat="44.17346" lon="5.27346">
        <ele>1879</ele>
        <time>2010-04-15T19:55:36.83</time>
      </trkpt>
      <trkpt lat="44.17346" lon="5.27348">
        <ele>1879.5</ele>
        <time>2010-04-15T19:55:37.83</time>
      </trkpt>
      <trkpt lat="44.17346" lon="5.27349">
        <ele>1880</ele>
        <time>2010-04-15T19:55:38.83</time>
      </trkpt>
      <trkpt lat="44.17345" lon="5.2735">
        <ele>1880</ele>
        <time>2010-04-15T19:55:39.83</time>
      </trkpt>
      <trkpt lat="44.17345" lon="5.27352">
        <ele>1880.5</ele>
        <time>2010-04-15T19:55:40.83</time>
      </trkpt>
      <trkpt lat="44.17345" lon="5.27353">
        <ele>1880.5</ele>
        <time>2010-04-15T19:55:41.83</time>
      </trkpt>
      <trkpt lat="44.17345" lon="5.27355">
        <ele>1880.5</ele>
        <time>2010-04-15T19:55:42.84</time>
      </trkpt>
      <trkpt lat="44.17345" lon="5.27356">
        <ele>1881</ele>
        <time>2010-04-15T19:55:43.83</time>
      </trkpt>
      <trkpt lat="44.17344" lon="5.27358">
        <ele>1881</ele>
        <time>2010-04-15T19:55:44.83</time>
      </trkpt>
      <trkpt lat="44.17344" lon="5.27359">
        <ele>1881.5</ele>
        <time>2010-04-15T19:55:45.83</time>
      </trkpt>
      <trkpt lat="44.17344" lon="5.2736">
        <ele>1881.5</ele>
        <time>2010-04-15T19:55:46.83</time>
      </trkpt>
      <trkpt lat="44.17344" lon="5.27362">
        <ele>1882</ele>
        <time>2010-04-15T19:55:47.83</time>
      </trkpt>
      <trkpt lat="44.17344" lon="5.27363">
        <ele>1882</ele>
        <time>2010-04-15T19:55:48.83</time>
      </trkpt>
      <trkpt lat="44.17344" lon="5.27365">
        <ele>1882</ele>
        <time>2010-04-15T19:55:49.83</time>
      </trkpt>
      <trkpt lat="44.17344" lon="5.27366">
        <ele>1882.5</ele>
        <time>2010-04-15T19:55:50.82</time>
      </trkpt>
      <trkpt lat="44.17344" lon="5.27368">
        <ele>1882.5</ele>
        <time>2010-04-15T19:55:51.82</time>
      </trkpt>
      <trkpt lat="44.17344" lon="5.27369">
        <ele>1882.5</ele>
        <time>2010-04-15T19:55:52.82</time>
      </trkpt>
      <trkpt lat="44.17344" lon="5.27371">
        <ele>1882.5</ele>
        <time>2010-04-15T19:55:53.82</time>
      </trkpt>
      <trkpt lat="44.17344" lon="5.27372">
        <ele>1883</ele>
        <time>2010-04-15T19:55:54.82</time>
      </trkpt>
      <trkpt lat="44.17344" lon="5.27374">
        <ele>1883</ele>
        <time>2010-04-15T19:55:55.82</time>
      </trkpt>
      <trkpt lat="44.17344" lon="5.27375">
        <ele>1883</ele>
        <time>2010-04-15T19:55:56.82</time>
      </trkpt>
      <trkpt lat="44.17344" lon="5.27377">
        <ele>1883.5</ele>
        <time>2010-04-15T19:55:57.82</time>
      </trkpt>
      <trkpt lat="44.17344" lon="5.27378">
        <ele>1883.5</ele>
        <time>2010-04-15T19:55:58.82</time>
      </trkpt>
      <trkpt lat="44.17344" lon="5.27379">
        <ele>1884</ele>
        <time>2010-04-15T19:55:59.82</time>
      </trkpt>
      <trkpt lat="44.17344" lon="5.27381">
        <ele>1884</ele>
        <time>2010-04-15T19:56:00.82</time>
      </trkpt>
      <trkpt lat="44.17345" lon="5.27382">
        <ele>1884</ele>
        <time>2010-04-15T19:56:01.82</time>
      </trkpt>
      <trkpt lat="44.17345" lon="5.27384">
        <ele>1884</ele>
        <time>2010-04-15T19:56:02.82</time>
      </trkpt>
      <trkpt lat="44.17345" lon="5.27385">
        <ele>1884.5</ele>
        <time>2010-04-15T19:56:03.82</time>
      </trkpt>
      <trkpt lat="44.17345" lon="5.27387">
        <ele>1884.5</ele>
        <time>2010-04-15T19:56:04.82</time>
      </trkpt>
      <trkpt lat="44.17345" lon="5.27388">
        <ele>1884.5</ele>
        <time>2010-04-15T19:56:05.82</time>
      </trkpt>
      <trkpt lat="44.17345" lon="5.27389">
        <ele>1884.5</ele>
        <time>2010-04-15T19:56:06.81</time>
      </trkpt>
      <trkpt lat="44.17345" lon="5.27391">
        <ele>1885</ele>
        <time>2010-04-15T19:56:07.81</time>
      </trkpt>
      <trkpt lat="44.17345" lon="5.27392">
        <ele>1885</ele>
        <time>2010-04-15T19:56:08.81</time>
      </trkpt>
      <trkpt lat="44.17345" lon="5.27394">
        <ele>1885</ele>
        <time>2010-04-15T19:56:09.81</time>
      </trkpt>
      <trkpt lat="44.17345" lon="5.27395">
        <ele>1885.5</ele>
        <time>2010-04-15T19:56:10.81</time>
      </trkpt>
      <trkpt lat="44.17345" lon="5.27397">
        <ele>1885.5</ele>
        <time>2010-04-15T19:56:11.81</time>
      </trkpt>
      <trkpt lat="44.17345" lon="5.27398">
        <ele>1885.5</ele>
        <time>2010-04-15T19:56:12.81</time>
      </trkpt>
      <trkpt lat="44.17345" lon="5.27399">
        <ele>1885.5</ele>
        <time>2010-04-15T19:56:13.81</time>
      </trkpt>
      <trkpt lat="44.17345" lon="5.27401">
        <ele>1886</ele>
        <time>2010-04-15T19:56:14.81</time>
      </trkpt>
      <trkpt lat="44.17345" lon="5.27402">
        <ele>1886</ele>
        <time>2010-04-15T19:56:15.81</time>
      </trkpt>
      <trkpt lat="44.17345" lon="5.27404">
        <ele>1886.5</ele>
        <time>2010-04-15T19:56:16.81</time>
      </trkpt>
      <trkpt lat="44.17345" lon="5.27405">
        <ele>1886.5</ele>
        <time>2010-04-15T19:56:17.81</time>
      </trkpt>
      <trkpt lat="44.17345" lon="5.27406">
        <ele>1886.5</ele>
        <time>2010-04-15T19:56:18.81</time>
      </trkpt>
      <trkpt lat="44.17345" lon="5.27408">
        <ele>1886.5</ele>
        <time>2010-04-15T19:56:19.81</time>
      </trkpt>
      <trkpt lat="44.17346" lon="5.27409">
        <ele>1886.5</ele>
        <time>2010-04-15T19:56:20.81</time>
      </trkpt>
      <trkpt lat="44.17346" lon="5.27411">
        <ele>1887</ele>
        <time>2010-04-15T19:56:21.81</time>
      </trkpt>
      <trkpt lat="44.17346" lon="5.27412">
        <ele>1887</ele>
        <time>2010-04-15T19:56:22.80</time>
      </trkpt>
      <trkpt lat="44.17346" lon="5.27414">
        <ele>1887</ele>
        <time>2010-04-15T19:56:23.80</time>
      </trkpt>
      <trkpt lat="44.17346" lon="5.27415">
        <ele>1887.5</ele>
        <time>2010-04-15T19:56:24.80</time>
      </trkpt>
      <trkpt lat="44.17346" lon="5.27416">
        <ele>1887.5</ele>
        <time>2010-04-15T19:56:25.80</time>
      </trkpt>
      <trkpt lat="44.17346" lon="5.27418">
        <ele>1887.5</ele>
        <time>2010-04-15T19:56:26.80</time>
      </trkpt>
      <trkpt lat="44.17346" lon="5.27419">
        <ele>1888</ele>
        <time>2010-04-15T19:56:27.80</time>
      </trkpt>
      <trkpt lat="44.17346" lon="5.27421">
        <ele>1887.5</ele>
        <time>2010-04-15T19:56:28.80</time>
      </trkpt>
      <trkpt lat="44.17346" lon="5.27422">
        <ele>1888</ele>
        <time>2010-04-15T19:56:29.80</time>
      </trkpt>
      <trkpt lat="44.17346" lon="5.27424">
        <ele>1888</ele>
        <time>2010-04-15T19:56:30.80</time>
      </trkpt>
      <trkpt lat="44.17346" lon="5.27425">
        <ele>1888.5</ele>
        <time>2010-04-15T19:56:31.80</time>
      </trkpt>
      <trkpt lat="44.17346" lon="5.27427">
        <ele>1888.5</ele>
        <time>2010-04-15T19:56:32.80</time>
      </trkpt>
      <trkpt lat="44.17346" lon="5.27428">
        <ele>1888.5</ele>
        <time>2010-04-15T19:56:33.80</time>
      </trkpt>
      <trkpt lat="44.17345" lon="5.2743">
        <ele>1889</ele>
        <time>2010-04-15T19:56:34.80</time>
      </trkpt>
      <trkpt lat="44.17345" lon="5.27431">
        <ele>1889</ele>
        <time>2010-04-15T19:56:35.80</time>
      </trkpt>
      <trkpt lat="44.17345" lon="5.27432">
        <ele>1889.5</ele>
        <time>2010-04-15T19:56:36.80</time>
      </trkpt>
      <trkpt lat="44.17345" lon="5.27434">
        <ele>1889.5</ele>
        <time>2010-04-15T19:56:37.80</time>
      </trkpt>
      <trkpt lat="44.17345" lon="5.27435">
        <ele>1890</ele>
        <time>2010-04-15T19:56:38.80</time>
      </trkpt>
      <trkpt lat="44.17344" lon="5.27437">
        <ele>1890</ele>
        <time>2010-04-15T19:56:39.79</time>
      </trkpt>
      <trkpt lat="44.17345" lon="5.27438">
        <ele>1890.5</ele>
        <time>2010-04-15T19:56:40.80</time>
      </trkpt>
      <trkpt lat="44.17345" lon="5.2744">
        <ele>1890.5</ele>
        <time>2010-04-15T19:56:41.79</time>
      </trkpt>
      <trkpt lat="44.17344" lon="5.27442">
        <ele>1890.5</ele>
        <time>2010-04-15T19:56:42.80</time>
      </trkpt>
      <trkpt lat="44.17344" lon="5.27443">
        <ele>1891</ele>
        <time>2010-04-15T19:56:43.79</time>
      </trkpt>
      <trkpt lat="44.17344" lon="5.27445">
        <ele>1891</ele>
        <time>2010-04-15T19:56:44.79</time>
      </trkpt>
      <trkpt lat="44.17344" lon="5.27446">
        <ele>1891.5</ele>
        <time>2010-04-15T19:56:45.79</time>
      </trkpt>
      <trkpt lat="44.17344" lon="5.27448">
        <ele>1891.5</ele>
        <time>2010-04-15T19:56:46.79</time>
      </trkpt>
      <trkpt lat="44.17344" lon="5.27449">
        <ele>1891.5</ele>
        <time>2010-04-15T19:56:47.79</time>
      </trkpt>
      <trkpt lat="44.17344" lon="5.2745">
        <ele>1892</ele>
        <time>2010-04-15T19:56:48.79</time>
      </trkpt>
      <trkpt lat="44.17344" lon="5.27452">
        <ele>1892</ele>
        <time>2010-04-15T19:56:49.79</time>
      </trkpt>
      <trkpt lat="44.17344" lon="5.27453">
        <ele>1892.5</ele>
        <time>2010-04-15T19:56:50.79</time>
      </trkpt>
      <trkpt lat="44.17343" lon="5.27455">
        <ele>1892.5</ele>
        <time>2010-04-15T19:56:51.79</time>
      </trkpt>
      <trkpt lat="44.17343" lon="5.27456">
        <ele>1892.5</ele>
        <time>2010-04-15T19:56:52.79</time>
      </trkpt>
      <trkpt lat="44.17343" lon="5.27457">
        <ele>1892.5</ele>
        <time>2010-04-15T19:56:53.79</time>
      </trkpt>
      <trkpt lat="44.17343" lon="5.27458">
        <ele>1893</ele>
        <time>2010-04-15T19:56:54.78</time>
      </trkpt>
      <trkpt lat="44.17343" lon="5.2746">
        <ele>1893</ele>
        <time>2010-04-15T19:56:55.79</time>
      </trkpt>
      <trkpt lat="44.17342" lon="5.27461">
        <ele>1893</ele>
        <time>2010-04-15T19:56:56.79</time>
      </trkpt>
      <trkpt lat="44.17342" lon="5.27462">
        <ele>1893.5</ele>
        <time>2010-04-15T19:56:57.78</time>
      </trkpt>
      <trkpt lat="44.17342" lon="5.27464">
        <ele>1893.5</ele>
        <time>2010-04-15T19:56:58.78</time>
      </trkpt>
      <trkpt lat="44.17342" lon="5.27465">
        <ele>1894</ele>
        <time>2010-04-15T19:56:59.78</time>
      </trkpt>
      <trkpt lat="44.17342" lon="5.27467">
        <ele>1894</ele>
        <time>2010-04-15T19:57:00.78</time>
      </trkpt>
      <trkpt lat="44.17343" lon="5.27468">
        <ele>1894</ele>
        <time>2010-04-15T19:57:01.78</time>
      </trkpt>
      <trkpt lat="44.17343" lon="5.2747">
        <ele>1894</ele>
        <time>2010-04-15T19:57:02.78</time>
      </trkpt>
      <trkpt lat="44.17343" lon="5.27471">
        <ele>1894</ele>
        <time>2010-04-15T19:57:03.78</time>
      </trkpt>
      <trkpt lat="44.17343" lon="5.27473">
        <ele>1894</ele>
        <time>2010-04-15T19:57:04.78</time>
      </trkpt>
      <trkpt lat="44.17343" lon="5.27475">
        <ele>1894</ele>
        <time>2010-04-15T19:57:05.78</time>
      </trkpt>
      <trkpt lat="44.17343" lon="5.27476">
        <ele>1894</ele>
        <time>2010-04-15T19:57:06.78</time>
      </trkpt>
      <trkpt lat="44.17343" lon="5.27478">
        <ele>1894</ele>
        <time>2010-04-15T19:57:07.78</time>
      </trkpt>
      <trkpt lat="44.17343" lon="5.27479">
        <ele>1894</ele>
        <time>2010-04-15T19:57:08.78</time>
      </trkpt>
      <trkpt lat="44.17343" lon="5.27481">
        <ele>1894.5</ele>
        <time>2010-04-15T19:57:09.77</time>
      </trkpt>
      <trkpt lat="44.17343" lon="5.27482">
        <ele>1894.5</ele>
        <time>2010-04-15T19:57:10.78</time>
      </trkpt>
      <trkpt lat="44.17344" lon="5.27484">
        <ele>1894.5</ele>
        <time>2010-04-15T19:57:11.78</time>
      </trkpt>
      <trkpt lat="44.17344" lon="5.27485">
        <ele>1894.5</ele>
        <time>2010-04-15T19:57:12.78</time>
      </trkpt>
      <trkpt lat="44.17344" lon="5.27487">
        <ele>1894.5</ele>
        <time>2010-04-15T19:57:13.77</time>
      </trkpt>
      <trkpt lat="44.17344" lon="5.27488">
        <ele>1895</ele>
        <time>2010-04-15T19:57:14.77</time>
      </trkpt>
      <trkpt lat="44.17344" lon="5.2749">
        <ele>1895</ele>
        <time>2010-04-15T19:57:15.77</time>
      </trkpt>
      <trkpt lat="44.17343" lon="5.27491">
        <ele>1895</ele>
        <time>2010-04-15T19:57:16.78</time>
      </trkpt>
      <trkpt lat="44.17343" lon="5.27493">
        <ele>1895</ele>
        <time>2010-04-15T19:57:17.77</time>
      </trkpt>
      <trkpt lat="44.17343" lon="5.27494">
        <ele>1895.5</ele>
        <time>2010-04-15T19:57:18.77</time>
      </trkpt>
      <trkpt lat="44.17343" lon="5.27496">
        <ele>1895.5</ele>
        <time>2010-04-15T19:57:19.77</time>
      </trkpt>
      <trkpt lat="44.17343" lon="5.27497">
        <ele>1895.5</ele>
        <time>2010-04-15T19:57:20.77</time>
      </trkpt>
      <trkpt lat="44.17343" lon="5.27499">
        <ele>1895.5</ele>
        <time>2010-04-15T19:57:21.77</time>
      </trkpt>
      <trkpt lat="44.17343" lon="5.275">
        <ele>1896</ele>
        <time>2010-04-15T19:57:22.77</time>
      </trkpt>
      <trkpt lat="44.17343" lon="5.27502">
        <ele>1896</ele>
        <time>2010-04-15T19:57:23.77</time>
      </trkpt>
      <trkpt lat="44.17344" lon="5.27503">
        <ele>1896</ele>
        <time>2010-04-15T19:57:24.77</time>
      </trkpt>
      <trkpt lat="44.17344" lon="5.27504">
        <ele>1896</ele>
        <time>2010-04-15T19:57:25.77</time>
      </trkpt>
      <trkpt lat="44.17344" lon="5.27506">
        <ele>1896</ele>
        <time>2010-04-15T19:57:26.77</time>
      </trkpt>
      <trkpt lat="44.17344" lon="5.27507">
        <ele>1896</ele>
        <time>2010-04-15T19:57:27.77</time>
      </trkpt>
      <trkpt lat="44.17344" lon="5.27509">
        <ele>1896</ele>
        <time>2010-04-15T19:57:28.76</time>
      </trkpt>
      <trkpt lat="44.17344" lon="5.2751">
        <ele>1896.5</ele>
        <time>2010-04-15T19:57:29.77</time>
      </trkpt>
      <trkpt lat="44.17345" lon="5.27512">
        <ele>1896.5</ele>
        <time>2010-04-15T19:57:30.77</time>
      </trkpt>
      <trkpt lat="44.17345" lon="5.27513">
        <ele>1896.5</ele>
        <time>2010-04-15T19:57:31.77</time>
      </trkpt>
      <trkpt lat="44.17345" lon="5.27514">
        <ele>1897</ele>
        <time>2010-04-15T19:57:32.77</time>
      </trkpt>
      <trkpt lat="44.17345" lon="5.27516">
        <ele>1897</ele>
        <time>2010-04-15T19:57:33.77</time>
      </trkpt>
      <trkpt lat="44.17346" lon="5.27517">
        <ele>1897</ele>
        <time>2010-04-15T19:57:34.76</time>
      </trkpt>
      <trkpt lat="44.17346" lon="5.27519">
        <ele>1897</ele>
        <time>2010-04-15T19:57:35.76</time>
      </trkpt>
      <trkpt lat="44.17346" lon="5.2752">
        <ele>1897</ele>
        <time>2010-04-15T19:57:36.76</time>
      </trkpt>
      <trkpt lat="44.17346" lon="5.27522">
        <ele>1897.5</ele>
        <time>2010-04-15T19:57:37.77</time>
      </trkpt>
      <trkpt lat="44.17347" lon="5.27523">
        <ele>1897.5</ele>
        <time>2010-04-15T19:57:38.76</time>
      </trkpt>
      <trkpt lat="44.17347" lon="5.27525">
        <ele>1898</ele>
        <time>2010-04-15T19:57:39.76</time>
      </trkpt>
      <trkpt lat="44.17347" lon="5.27526">
        <ele>1898</ele>
        <time>2010-04-15T19:57:40.76</time>
      </trkpt>
      <trkpt lat="44.17347" lon="5.27527">
        <ele>1898.5</ele>
        <time>2010-04-15T19:57:41.76</time>
      </trkpt>
      <trkpt lat="44.17347" lon="5.27528">
        <ele>1898.5</ele>
        <time>2010-04-15T19:57:42.77</time>
      </trkpt>
      <trkpt lat="44.17348" lon="5.27529">
        <ele>1898.5</ele>
        <time>2010-04-15T19:57:43.76</time>
      </trkpt>
      <trkpt lat="44.17348" lon="5.2753">
        <ele>1898.5</ele>
        <time>2010-04-15T19:57:44.76</time>
      </trkpt>
      <trkpt lat="44.17348" lon="5.27531">
        <ele>1899</ele>
        <time>2010-04-15T19:57:45.76</time>
      </trkpt>
      <trkpt lat="44.17349" lon="5.27533">
        <ele>1899</ele>
        <time>2010-04-15T19:57:46.76</time>
      </trkpt>
      <trkpt lat="44.17349" lon="5.27534">
        <ele>1899</ele>
        <time>2010-04-15T19:57:47.76</time>
      </trkpt>
      <trkpt lat="44.1735" lon="5.27535">
        <ele>1899</ele>
        <time>2010-04-15T19:57:48.76</time>
      </trkpt>
      <trkpt lat="44.1735" lon="5.27537">
        <ele>1899</ele>
        <time>2010-04-15T19:57:49.76</time>
      </trkpt>
      <trkpt lat="44.1735" lon="5.27538">
        <ele>1899</ele>
        <time>2010-04-15T19:57:50.75</time>
      </trkpt>
      <trkpt lat="44.17351" lon="5.27539">
        <ele>1899.5</ele>
        <time>2010-04-15T19:57:51.75</time>
      </trkpt>
      <trkpt lat="44.17351" lon="5.2754">
        <ele>1899.5</ele>
        <time>2010-04-15T19:57:52.76</time>
      </trkpt>
      <trkpt lat="44.17351" lon="5.27541">
        <ele>1899.5</ele>
        <time>2010-04-15T19:57:53.75</time>
      </trkpt>
      <trkpt lat="44.17351" lon="5.27541">
        <ele>1899.5</ele>
        <time>2010-04-15T19:57:54.74</time>
      </trkpt>
      <trkpt lat="44.17351" lon="5.27541">
        <ele>1899.5</ele>
        <time>2010-04-15T19:57:55.74</time>
      </trkpt>
      <trkpt lat="44.17351" lon="5.27541">
        <ele>1899.5</ele>
        <time>2010-04-15T19:57:56.75</time>
      </trkpt>
      <trkpt lat="44.17351" lon="5.27542">
        <ele>1900</ele>
        <time>2010-04-15T19:57:57.74</time>
      </trkpt>
      <trkpt lat="44.17351" lon="5.27543">
        <ele>1900</ele>
        <time>2010-04-15T19:57:58.74</time>
      </trkpt>
      <trkpt lat="44.17351" lon="5.27544">
        <ele>1900</ele>
        <time>2010-04-15T19:57:59.75</time>
      </trkpt>
      <trkpt lat="44.17351" lon="5.27545">
        <ele>1900</ele>
        <time>2010-04-15T19:58:00.75</time>
      </trkpt>
      <trkpt lat="44.17351" lon="5.27547">
        <ele>1900</ele>
        <time>2010-04-15T19:58:01.74</time>
      </trkpt>
      <trkpt lat="44.17351" lon="5.27548">
        <ele>1900</ele>
        <time>2010-04-15T19:58:02.75</time>
      </trkpt>
      <trkpt lat="44.17352" lon="5.2755">
        <ele>1900</ele>
        <time>2010-04-15T19:58:03.75</time>
      </trkpt>
      <trkpt lat="44.17352" lon="5.27551">
        <ele>1900</ele>
        <time>2010-04-15T19:58:04.75</time>
      </trkpt>
      <trkpt lat="44.17353" lon="5.27553">
        <ele>1900</ele>
        <time>2010-04-15T19:58:05.74</time>
      </trkpt>
      <trkpt lat="44.17353" lon="5.27554">
        <ele>1900.5</ele>
        <time>2010-04-15T19:58:06.75</time>
      </trkpt>
      <trkpt lat="44.17354" lon="5.27556">
        <ele>1900.5</ele>
        <time>2010-04-15T19:58:07.75</time>
      </trkpt>
      <trkpt lat="44.17354" lon="5.27557">
        <ele>1901</ele>
        <time>2010-04-15T19:58:08.75</time>
      </trkpt>
      <trkpt lat="44.17354" lon="5.27558">
        <ele>1901</ele>
        <time>2010-04-15T19:58:09.75</time>
      </trkpt>
      <trkpt lat="44.17355" lon="5.2756">
        <ele>1901</ele>
        <time>2010-04-15T19:58:10.75</time>
      </trkpt>
      <trkpt lat="44.17355" lon="5.27561">
        <ele>1901.5</ele>
        <time>2010-04-15T19:58:11.75</time>
      </trkpt>
      <trkpt lat="44.17356" lon="5.27562">
        <ele>1901.5</ele>
        <time>2010-04-15T19:58:12.75</time>
      </trkpt>
      <trkpt lat="44.17356" lon="5.27564">
        <ele>1901.5</ele>
        <time>2010-04-15T19:58:13.74</time>
      </trkpt>
      <trkpt lat="44.17357" lon="5.27565">
        <ele>1902</ele>
        <time>2010-04-15T19:58:14.74</time>
      </trkpt>
      <trkpt lat="44.17357" lon="5.27566">
        <ele>1902</ele>
        <time>2010-04-15T19:58:15.73</time>
      </trkpt>
      <trkpt lat="44.17358" lon="5.27567">
        <ele>1902</ele>
        <time>2010-04-15T19:58:16.73</time>
      </trkpt>
      <trkpt lat="44.17358" lon="5.27569">
        <ele>1902</ele>
        <time>2010-04-15T19:58:17.74</time>
      </trkpt>
      <trkpt lat="44.17359" lon="5.2757">
        <ele>1901.5</ele>
        <time>2010-04-15T19:58:18.73</time>
      </trkpt>
      <trkpt lat="44.1736" lon="5.27572">
        <ele>1901.5</ele>
        <time>2010-04-15T19:58:19.73</time>
      </trkpt>
      <trkpt lat="44.1736" lon="5.27573">
        <ele>1901.5</ele>
        <time>2010-04-15T19:58:20.74</time>
      </trkpt>
      <trkpt lat="44.17361" lon="5.27574">
        <ele>1901.5</ele>
        <time>2010-04-15T19:58:21.74</time>
      </trkpt>
      <trkpt lat="44.17361" lon="5.27575">
        <ele>1902</ele>
        <time>2010-04-15T19:58:22.74</time>
      </trkpt>
      <trkpt lat="44.17362" lon="5.27576">
        <ele>1902</ele>
        <time>2010-04-15T19:58:23.74</time>
      </trkpt>
      <trkpt lat="44.17362" lon="5.27578">
        <ele>1902</ele>
        <time>2010-04-15T19:58:24.74</time>
      </trkpt>
      <trkpt lat="44.17363" lon="5.27579">
        <ele>1902.5</ele>
        <time>2010-04-15T19:58:25.74</time>
      </trkpt>
      <trkpt lat="44.17364" lon="5.2758">
        <ele>1902.5</ele>
        <time>2010-04-15T19:58:26.73</time>
      </trkpt>
      <trkpt lat="44.17364" lon="5.27582">
        <ele>1903</ele>
        <time>2010-04-15T19:58:27.73</time>
      </trkpt>
      <trkpt lat="44.17365" lon="5.27583">
        <ele>1903</ele>
        <time>2010-04-15T19:58:28.73</time>
      </trkpt>
      <trkpt lat="44.17365" lon="5.27584">
        <ele>1903</ele>
        <time>2010-04-15T19:58:29.73</time>
      </trkpt>
      <trkpt lat="44.17365" lon="5.27586">
        <ele>1903.5</ele>
        <time>2010-04-15T19:58:30.73</time>
      </trkpt>
      <trkpt lat="44.17366" lon="5.27587">
        <ele>1903.5</ele>
        <time>2010-04-15T19:58:31.73</time>
      </trkpt>
      <trkpt lat="44.17366" lon="5.27588">
        <ele>1903.5</ele>
        <time>2010-04-15T19:58:32.73</time>
      </trkpt>
      <trkpt lat="44.17367" lon="5.27589">
        <ele>1904</ele>
        <time>2010-04-15T19:58:33.73</time>
      </trkpt>
      <trkpt lat="44.17367" lon="5.2759">
        <ele>1904</ele>
        <time>2010-04-15T19:58:34.73</time>
      </trkpt>
      <trkpt lat="44.17368" lon="5.27591">
        <ele>1904</ele>
        <time>2010-04-15T19:58:35.73</time>
      </trkpt>
      <trkpt lat="44.17368" lon="5.27593">
        <ele>1904</ele>
        <time>2010-04-15T19:58:36.73</time>
      </trkpt>
      <trkpt lat="44.17369" lon="5.27594">
        <ele>1904</ele>
        <time>2010-04-15T19:58:37.72</time>
      </trkpt>
      <trkpt lat="44.17369" lon="5.27595">
        <ele>1904</ele>
        <time>2010-04-15T19:58:38.71</time>
      </trkpt>
      <trkpt lat="44.1737" lon="5.27596">
        <ele>1904</ele>
        <time>2010-04-15T19:58:39.71</time>
      </trkpt>
      <trkpt lat="44.1737" lon="5.27597">
        <ele>1904.5</ele>
        <time>2010-04-15T19:58:40.72</time>
      </trkpt>
      <trkpt lat="44.1737" lon="5.27598">
        <ele>1904.5</ele>
        <time>2010-04-15T19:58:41.72</time>
      </trkpt>
      <trkpt lat="44.1737" lon="5.27599">
        <ele>1904.5</ele>
        <time>2010-04-15T19:58:42.72</time>
      </trkpt>
      <trkpt lat="44.17371" lon="5.276">
        <ele>1904.5</ele>
        <time>2010-04-15T19:58:43.71</time>
      </trkpt>
      <trkpt lat="44.17371" lon="5.27601">
        <ele>1904.5</ele>
        <time>2010-04-15T19:58:44.71</time>
      </trkpt>
      <trkpt lat="44.17372" lon="5.27602">
        <ele>1904.5</ele>
        <time>2010-04-15T19:58:45.71</time>
      </trkpt>
      <trkpt lat="44.17372" lon="5.27603">
        <ele>1904.5</ele>
        <time>2010-04-15T19:58:46.71</time>
      </trkpt>
      <trkpt lat="44.17373" lon="5.27604">
        <ele>1904.5</ele>
        <time>2010-04-15T19:58:47.71</time>
      </trkpt>
      <trkpt lat="44.17373" lon="5.27605">
        <ele>1904.5</ele>
        <time>2010-04-15T19:58:48.71</time>
      </trkpt>
      <trkpt lat="44.17374" lon="5.27606">
        <ele>1904.5</ele>
        <time>2010-04-15T19:58:49.70</time>
      </trkpt>
      <trkpt lat="44.17375" lon="5.27608">
        <ele>1904</ele>
        <time>2010-04-15T19:58:50.72</time>
      </trkpt>
      <trkpt lat="44.17375" lon="5.27609">
        <ele>1904</ele>
        <time>2010-04-15T19:58:51.71</time>
      </trkpt>
      <trkpt lat="44.17376" lon="5.2761">
        <ele>1904</ele>
        <time>2010-04-15T19:58:52.71</time>
      </trkpt>
      <trkpt lat="44.17377" lon="5.27611">
        <ele>1903.5</ele>
        <time>2010-04-15T19:58:53.70</time>
      </trkpt>
      <trkpt lat="44.17377" lon="5.27613">
        <ele>1903.5</ele>
        <time>2010-04-15T19:58:54.70</time>
      </trkpt>
      <trkpt lat="44.17378" lon="5.27614">
        <ele>1903.5</ele>
        <time>2010-04-15T19:58:55.70</time>
      </trkpt>
      <trkpt lat="44.17379" lon="5.27615">
        <ele>1903.5</ele>
        <time>2010-04-15T19:58:56.70</time>
      </trkpt>
      <trkpt lat="44.17379" lon="5.27616">
        <ele>1903</ele>
        <time>2010-04-15T19:58:57.70</time>
      </trkpt>
      <trkpt lat="44.1738" lon="5.27617">
        <ele>1903</ele>
        <time>2010-04-15T19:58:58.70</time>
      </trkpt>
      <trkpt lat="44.1738" lon="5.27618">
        <ele>1903</ele>
        <time>2010-04-15T19:58:59.70</time>
      </trkpt>
      <trkpt lat="44.17381" lon="5.27619">
        <ele>1903</ele>
        <time>2010-04-15T19:59:00.70</time>
      </trkpt>
      <trkpt lat="44.17381" lon="5.2762">
        <ele>1903.5</ele>
        <time>2010-04-15T19:59:01.70</time>
      </trkpt>
      <trkpt lat="44.17381" lon="5.27621">
        <ele>1903.5</ele>
        <time>2010-04-15T19:59:02.70</time>
      </trkpt>
      <trkpt lat="44.17382" lon="5.27622">
        <ele>1903.5</ele>
        <time>2010-04-15T19:59:03.70</time>
      </trkpt>
      <trkpt lat="44.17383" lon="5.27623">
        <ele>1903.5</ele>
        <time>2010-04-15T19:59:04.70</time>
      </trkpt>
      <trkpt lat="44.17383" lon="5.27624">
        <ele>1903.5</ele>
        <time>2010-04-15T19:59:05.70</time>
      </trkpt>
      <trkpt lat="44.17384" lon="5.27626">
        <ele>1904</ele>
        <time>2010-04-15T19:59:06.70</time>
      </trkpt>
      <trkpt lat="44.17384" lon="5.27627">
        <ele>1904</ele>
        <time>2010-04-15T19:59:07.70</time>
      </trkpt>
      <trkpt lat="44.17385" lon="5.27628">
        <ele>1904</ele>
        <time>2010-04-15T19:59:08.70</time>
      </trkpt>
      <trkpt lat="44.17385" lon="5.27629">
        <ele>1904.5</ele>
        <time>2010-04-15T19:59:09.70</time>
      </trkpt>
      <trkpt lat="44.17386" lon="5.2763">
        <ele>1904.5</ele>
        <time>2010-04-15T19:59:10.70</time>
      </trkpt>
      <trkpt lat="44.17386" lon="5.27631">
        <ele>1904.5</ele>
        <time>2010-04-15T19:59:12.18</time>
      </trkpt>
      <trkpt lat="44.17387" lon="5.27634">
        <ele>1905</ele>
        <time>2010-04-15T19:59:13.70</time>
      </trkpt>
      <trkpt lat="44.17388" lon="5.27635">
        <ele>1905</ele>
        <time>2010-04-15T19:59:14.69</time>
      </trkpt>
      <trkpt lat="44.17388" lon="5.27636">
        <ele>1905.5</ele>
        <time>2010-04-15T19:59:15.69</time>
      </trkpt>
      <trkpt lat="44.17389" lon="5.27637">
        <ele>1905.5</ele>
        <time>2010-04-15T19:59:16.69</time>
      </trkpt>
      <trkpt lat="44.17389" lon="5.27639">
        <ele>1905.5</ele>
        <time>2010-04-15T19:59:17.69</time>
      </trkpt>
      <trkpt lat="44.1739" lon="5.2764">
        <ele>1906</ele>
        <time>2010-04-15T19:59:18.69</time>
      </trkpt>
      <trkpt lat="44.1739" lon="5.27641">
        <ele>1906</ele>
        <time>2010-04-15T19:59:19.69</time>
      </trkpt>
      <trkpt lat="44.17391" lon="5.27642">
        <ele>1906</ele>
        <time>2010-04-15T19:59:20.69</time>
      </trkpt>
      <trkpt lat="44.17391" lon="5.27643">
        <ele>1905.5</ele>
        <time>2010-04-15T19:59:21.69</time>
      </trkpt>
      <trkpt lat="44.17392" lon="5.27645">
        <ele>1906</ele>
        <time>2010-04-15T19:59:22.69</time>
      </trkpt>
      <trkpt lat="44.17392" lon="5.27646">
        <ele>1906</ele>
        <time>2010-04-15T19:59:23.69</time>
      </trkpt>
      <trkpt lat="44.17392" lon="5.27647">
        <ele>1906.5</ele>
        <time>2010-04-15T19:59:24.69</time>
      </trkpt>
      <trkpt lat="44.17393" lon="5.27648">
        <ele>1906.5</ele>
        <time>2010-04-15T19:59:25.69</time>
      </trkpt>
      <trkpt lat="44.17393" lon="5.2765">
        <ele>1907</ele>
        <time>2010-04-15T19:59:26.69</time>
      </trkpt>
      <trkpt lat="44.17394" lon="5.27651">
        <ele>1907</ele>
        <time>2010-04-15T19:59:27.69</time>
      </trkpt>
      <trkpt lat="44.17394" lon="5.27652">
        <ele>1907</ele>
        <time>2010-04-15T19:59:28.69</time>
      </trkpt>
      <trkpt lat="44.17395" lon="5.27653">
        <ele>1907</ele>
        <time>2010-04-15T19:59:29.69</time>
      </trkpt>
      <trkpt lat="44.17395" lon="5.27655">
        <ele>1907</ele>
        <time>2010-04-15T19:59:30.69</time>
      </trkpt>
      <trkpt lat="44.17396" lon="5.27656">
        <ele>1907</ele>
        <time>2010-04-15T19:59:31.69</time>
      </trkpt>
      <trkpt lat="44.17397" lon="5.27657">
        <ele>1907</ele>
        <time>2010-04-15T19:59:32.69</time>
      </trkpt>
      <trkpt lat="44.17397" lon="5.27658">
        <ele>1907.5</ele>
        <time>2010-04-15T19:59:33.69</time>
      </trkpt>
      <trkpt lat="44.17398" lon="5.27659">
        <ele>1907.5</ele>
        <time>2010-04-15T19:59:34.69</time>
      </trkpt>
      <trkpt lat="44.17398" lon="5.2766">
        <ele>1907.5</ele>
        <time>2010-04-15T19:59:35.69</time>
      </trkpt>
      <trkpt lat="44.17399" lon="5.27661">
        <ele>1907.5</ele>
        <time>2010-04-15T19:59:36.69</time>
      </trkpt>
      <trkpt lat="44.17399" lon="5.27662">
        <ele>1907.5</ele>
        <time>2010-04-15T19:59:37.68</time>
      </trkpt>
      <trkpt lat="44.17399" lon="5.27663">
        <ele>1908</ele>
        <time>2010-04-15T19:59:38.68</time>
      </trkpt>
      <trkpt lat="44.174" lon="5.27663">
        <ele>1907.5</ele>
        <time>2010-04-15T19:59:39.68</time>
      </trkpt>
      <trkpt lat="44.174" lon="5.27663">
        <ele>1907.5</ele>
        <time>2010-04-15T19:59:40.68</time>
      </trkpt>
      <trkpt lat="44.174" lon="5.27663">
        <ele>1907.5</ele>
        <time>2010-04-15T19:59:41.68</time>
      </trkpt>
      <trkpt lat="44.174" lon="5.27663">
        <ele>1907.5</ele>
        <time>2010-04-15T19:59:42.69</time>
      </trkpt>
      <trkpt lat="44.174" lon="5.27663">
        <ele>1907.5</ele>
        <time>2010-04-15T19:59:43.68</time>
      </trkpt>
      <trkpt lat="44.174" lon="5.27663">
        <ele>1907</ele>
        <time>2010-04-15T19:59:44.68</time>
      </trkpt>
      <trkpt lat="44.174" lon="5.27663">
        <ele>1907</ele>
        <time>2010-04-15T19:59:45.68</time>
      </trkpt>
      <trkpt lat="44.174" lon="5.27664">
        <ele>1907</ele>
        <time>2010-04-15T19:59:46.68</time>
      </trkpt>
      <trkpt lat="44.174" lon="5.27664">
        <ele>1907.5</ele>
        <time>2010-04-15T19:59:47.68</time>
      </trkpt>
      <trkpt lat="44.174" lon="5.27665">
        <ele>1907.5</ele>
        <time>2010-04-15T19:59:48.68</time>
      </trkpt>
      <trkpt lat="44.174" lon="5.27665">
        <ele>1907.5</ele>
        <time>2010-04-15T19:59:49.68</time>
      </trkpt>
      <trkpt lat="44.174" lon="5.27665">
        <ele>1907.5</ele>
        <time>2010-04-15T19:59:50.68</time>
      </trkpt>
      <trkpt lat="44.174" lon="5.27665">
        <ele>1907</ele>
        <time>2010-04-15T19:59:51.68</time>
      </trkpt>
      <trkpt lat="44.174" lon="5.27665">
        <ele>1907.5</ele>
        <time>2010-04-15T19:59:52.69</time>
      </trkpt>
      <trkpt lat="44.174" lon="5.27664">
        <ele>1907.5</ele>
        <time>2010-04-15T19:59:53.68</time>
      </trkpt>
      <trkpt lat="44.174" lon="5.27664">
        <ele>1907.5</ele>
        <time>2010-04-15T19:59:54.68</time>
      </trkpt>
      <trkpt lat="44.174" lon="5.27664">
        <ele>1907.5</ele>
        <time>2010-04-15T19:59:55.69</time>
      </trkpt>
      <trkpt lat="44.174" lon="5.27665">
        <ele>1907.5</ele>
        <time>2010-04-15T19:59:56.68</time>
      </trkpt>
      <trkpt lat="44.17399" lon="5.27665">
        <ele>1907.5</ele>
        <time>2010-04-15T19:59:57.68</time>
      </trkpt>
      <trkpt lat="44.17399" lon="5.27664">
        <ele>1907.5</ele>
        <time>2010-04-15T19:59:58.68</time>
      </trkpt>
      <trkpt lat="44.17398" lon="5.27664">
        <ele>1907.5</ele>
        <time>2010-04-15T19:59:59.68</time>
      </trkpt>
      <trkpt lat="44.17397" lon="5.27664">
        <ele>1907.5</ele>
        <time>2010-04-15T20:00:00.68</time>
      </trkpt>
      <trkpt lat="44.17397" lon="5.27664">
        <ele>1907.5</ele>
        <time>2010-04-15T20:00:01.68</time>
      </trkpt>
      <trkpt lat="44.17397" lon="5.27663">
        <ele>1907.5</ele>
        <time>2010-04-15T20:00:02.68</time>
      </trkpt>
      <trkpt lat="44.17396" lon="5.27663">
        <ele>1907.5</ele>
        <time>2010-04-15T20:00:03.68</time>
      </trkpt>
      <trkpt lat="44.17396" lon="5.27663">
        <ele>1907.5</ele>
        <time>2010-04-15T20:00:04.68</time>
      </trkpt>
      <trkpt lat="44.17396" lon="5.27663">
        <ele>1907.5</ele>
        <time>2010-04-15T20:00:05.68</time>
      </trkpt>
      <trkpt lat="44.17396" lon="5.27663">
        <ele>1907.5</ele>
        <time>2010-04-15T20:00:06.68</time>
      </trkpt>
      <trkpt lat="44.17396" lon="5.27663">
        <ele>1908</ele>
        <time>2010-04-15T20:00:07.68</time>
      </trkpt>
      <trkpt lat="44.17396" lon="5.27663">
        <ele>1908</ele>
        <time>2010-04-15T20:00:08.68</time>
      </trkpt>
      <trkpt lat="44.17396" lon="5.27663">
        <ele>1908</ele>
        <time>2010-04-15T20:00:09.68</time>
      </trkpt>
      <trkpt lat="44.17396" lon="5.27663">
        <ele>1908</ele>
        <time>2010-04-15T20:00:10.68</time>
      </trkpt>
      <trkpt lat="44.17396" lon="5.27664">
        <ele>1908</ele>
        <time>2010-04-15T20:00:11.68</time>
      </trkpt>
      <trkpt lat="44.17396" lon="5.27664">
        <ele>1908</ele>
        <time>2010-04-15T20:00:12.67</time>
      </trkpt>
      <trkpt lat="44.17396" lon="5.27664">
        <ele>1908</ele>
        <time>2010-04-15T20:00:13.68</time>
      </trkpt>
      <trkpt lat="44.17396" lon="5.27664">
        <ele>1908</ele>
        <time>2010-04-15T20:00:14.68</time>
      </trkpt>
      <trkpt lat="44.17395" lon="5.27664">
        <ele>1908</ele>
        <time>2010-04-15T20:00:15.68</time>
      </trkpt>
      <trkpt lat="44.17395" lon="5.27663">
        <ele>1908</ele>
        <time>2010-04-15T20:00:16.67</time>
      </trkpt>
      <trkpt lat="44.17395" lon="5.27663">
        <ele>1908.5</ele>
        <time>2010-04-15T20:00:17.67</time>
      </trkpt>
      <trkpt lat="44.17394" lon="5.27663">
        <ele>1909</ele>
        <time>2010-04-15T20:00:18.67</time>
      </trkpt>
      <trkpt lat="44.17394" lon="5.27663">
        <ele>1909</ele>
        <time>2010-04-15T20:00:19.67</time>
      </trkpt>
      <trkpt lat="44.17393" lon="5.27663">
        <ele>1909</ele>
        <time>2010-04-15T20:00:20.66</time>
      </trkpt>
      <trkpt lat="44.17393" lon="5.27662">
        <ele>1909</ele>
        <time>2010-04-15T20:00:21.66</time>
      </trkpt>
      <trkpt lat="44.17392" lon="5.27662">
        <ele>1909</ele>
        <time>2010-04-15T20:00:22.67</time>
      </trkpt>
      <trkpt lat="44.17391" lon="5.27662">
        <ele>1909.5</ele>
        <time>2010-04-15T20:00:23.66</time>
      </trkpt>
      <trkpt lat="44.1739" lon="5.27661">
        <ele>1909.5</ele>
        <time>2010-04-15T20:00:24.66</time>
      </trkpt>
      <trkpt lat="44.1739" lon="5.27661">
        <ele>1910</ele>
        <time>2010-04-15T20:00:25.66</time>
      </trkpt>
      <trkpt lat="44.17389" lon="5.27661">
        <ele>1910</ele>
        <time>2010-04-15T20:00:26.66</time>
      </trkpt>
      <trkpt lat="44.17388" lon="5.27661">
        <ele>1910</ele>
        <time>2010-04-15T20:00:27.66</time>
      </trkpt>
      <trkpt lat="44.17388" lon="5.2766">
        <ele>1910.5</ele>
        <time>2010-04-15T20:00:28.67</time>
      </trkpt>
      <trkpt lat="44.17387" lon="5.2766">
        <ele>1911</ele>
        <time>2010-04-15T20:00:29.67</time>
      </trkpt>
      <trkpt lat="44.17386" lon="5.2766">
        <ele>1911</ele>
        <time>2010-04-15T20:00:30.67</time>
      </trkpt>
      <trkpt lat="44.17386" lon="5.27659">
        <ele>1911.5</ele>
        <time>2010-04-15T20:00:31.67</time>
      </trkpt>
      <trkpt lat="44.17385" lon="5.27659">
        <ele>1911.5</ele>
        <time>2010-04-15T20:00:32.67</time>
      </trkpt>
      <trkpt lat="44.17384" lon="5.27659">
        <ele>1912</ele>
        <time>2010-04-15T20:00:33.67</time>
      </trkpt>
      <trkpt lat="44.17384" lon="5.27659">
        <ele>1912.5</ele>
        <time>2010-04-15T20:00:34.67</time>
      </trkpt>
      <trkpt lat="44.17384" lon="5.27658">
        <ele>1912.5</ele>
        <time>2010-04-15T20:00:35.66</time>
      </trkpt>
      <trkpt lat="44.17383" lon="5.27657">
        <ele>1913</ele>
        <time>2010-04-15T20:00:36.66</time>
      </trkpt>
      <trkpt lat="44.17383" lon="5.27657">
        <ele>1913</ele>
        <time>2010-04-15T20:00:37.66</time>
      </trkpt>
      <trkpt lat="44.17382" lon="5.27656">
        <ele>1913</ele>
        <time>2010-04-15T20:00:38.66</time>
      </trkpt>
      <trkpt lat="44.17382" lon="5.27655">
        <ele>1913</ele>
        <time>2010-04-15T20:00:39.66</time>
      </trkpt>
      <trkpt lat="44.17381" lon="5.27654">
        <ele>1913</ele>
        <time>2010-04-15T20:00:40.66</time>
      </trkpt>
      <trkpt lat="44.17381" lon="5.27653">
        <ele>1913</ele>
        <time>2010-04-15T20:00:41.66</time>
      </trkpt>
      <trkpt lat="44.17381" lon="5.27652">
        <ele>1913.5</ele>
        <time>2010-04-15T20:00:42.67</time>
      </trkpt>
      <trkpt lat="44.1738" lon="5.27652">
        <ele>1913</ele>
        <time>2010-04-15T20:00:43.66</time>
      </trkpt>
      <trkpt lat="44.1738" lon="5.27651">
        <ele>1913.5</ele>
        <time>2010-04-15T20:00:44.66</time>
      </trkpt>
      <trkpt lat="44.1738" lon="5.27651">
        <ele>1913.5</ele>
        <time>2010-04-15T20:00:45.65</time>
      </trkpt>
      <trkpt lat="44.17379" lon="5.2765">
        <ele>1914</ele>
        <time>2010-04-15T20:00:46.66</time>
      </trkpt>
      <trkpt lat="44.17379" lon="5.2765">
        <ele>1914</ele>
        <time>2010-04-15T20:00:47.66</time>
      </trkpt>
      <trkpt lat="44.17378" lon="5.27649">
        <ele>1914.5</ele>
        <time>2010-04-15T20:00:48.66</time>
      </trkpt>
      <trkpt lat="44.17378" lon="5.27649">
        <ele>1915</ele>
        <time>2010-04-15T20:00:49.66</time>
      </trkpt>
      <trkpt lat="44.17377" lon="5.27649">
        <ele>1915</ele>
        <time>2010-04-15T20:00:50.66</time>
      </trkpt>
      <trkpt lat="44.17377" lon="5.27648">
        <ele>1915.5</ele>
        <time>2010-04-15T20:00:51.66</time>
      </trkpt>
      <trkpt lat="44.17376" lon="5.27648">
        <ele>1916</ele>
        <time>2010-04-15T20:00:52.65</time>
      </trkpt>
      <trkpt lat="44.17376" lon="5.27648">
        <ele>1916</ele>
        <time>2010-04-15T20:00:53.66</time>
      </trkpt>
      <trkpt lat="44.17375" lon="5.27647">
        <ele>1916.5</ele>
        <time>2010-04-15T20:00:54.65</time>
      </trkpt>
      <trkpt lat="44.17375" lon="5.27647">
        <ele>1917</ele>
        <time>2010-04-15T20:00:55.65</time>
      </trkpt>
      <trkpt lat="44.17374" lon="5.27646">
        <ele>1917</ele>
        <time>2010-04-15T20:00:56.64</time>
      </trkpt>
      <trkpt lat="44.17373" lon="5.27646">
        <ele>1917.5</ele>
        <time>2010-04-15T20:00:57.64</time>
      </trkpt>
      <trkpt lat="44.17373" lon="5.27645">
        <ele>1918</ele>
        <time>2010-04-15T20:00:58.64</time>
      </trkpt>
      <trkpt lat="44.17373" lon="5.27645">
        <ele>1918.5</ele>
        <time>2010-04-15T20:00:59.65</time>
      </trkpt>
      <trkpt lat="44.17372" lon="5.27644">
        <ele>1918.5</ele>
        <time>2010-04-15T20:01:00.65</time>
      </trkpt>
      <trkpt lat="44.17372" lon="5.27644">
        <ele>1919</ele>
        <time>2010-04-15T20:01:01.65</time>
      </trkpt>
      <trkpt lat="44.17371" lon="5.27643">
        <ele>1919.5</ele>
        <time>2010-04-15T20:01:02.65</time>
      </trkpt>
      <trkpt lat="44.17371" lon="5.27643">
        <ele>1920</ele>
        <time>2010-04-15T20:01:03.65</time>
      </trkpt>
      <trkpt lat="44.1737" lon="5.27642">
        <ele>1920.5</ele>
        <time>2010-04-15T20:01:04.65</time>
      </trkpt>
      <trkpt lat="44.1737" lon="5.27642">
        <ele>1920.5</ele>
        <time>2010-04-15T20:01:05.65</time>
      </trkpt>
      <trkpt lat="44.17369" lon="5.27641">
        <ele>1921</ele>
        <time>2010-04-15T20:01:06.64</time>
      </trkpt>
      <trkpt lat="44.17369" lon="5.27641">
        <ele>1921</ele>
        <time>2010-04-15T20:01:07.64</time>
      </trkpt>
      <trkpt lat="44.17368" lon="5.2764">
        <ele>1921.5</ele>
        <time>2010-04-15T20:01:08.65</time>
      </trkpt>
      <trkpt lat="44.17368" lon="5.2764">
        <ele>1921.5</ele>
        <time>2010-04-15T20:01:09.65</time>
      </trkpt>
      <trkpt lat="44.17367" lon="5.2764">
        <ele>1922</ele>
        <time>2010-04-15T20:01:10.64</time>
      </trkpt>
      <trkpt lat="44.17367" lon="5.27639">
        <ele>1922.5</ele>
        <time>2010-04-15T20:01:11.64</time>
      </trkpt>
      <trkpt lat="44.17366" lon="5.27639">
        <ele>1922.5</ele>
        <time>2010-04-15T20:01:12.64</time>
      </trkpt>
      <trkpt lat="44.17366" lon="5.27639">
        <ele>1923</ele>
        <time>2010-04-15T20:01:13.64</time>
      </trkpt>
      <trkpt lat="44.17366" lon="5.27638">
        <ele>1923</ele>
        <time>2010-04-15T20:01:14.64</time>
      </trkpt>
      <trkpt lat="44.17365" lon="5.27638">
        <ele>1923.5</ele>
        <time>2010-04-15T20:01:15.64</time>
      </trkpt>
      <trkpt lat="44.17365" lon="5.27638">
        <ele>1923.5</ele>
        <time>2010-04-15T20:01:16.64</time>
      </trkpt>
      <trkpt lat="44.17364" lon="5.27637">
        <ele>1924</ele>
        <time>2010-04-15T20:01:17.64</time>
      </trkpt>
      <trkpt lat="44.17364" lon="5.27637">
        <ele>1924</ele>
        <time>2010-04-15T20:01:18.64</time>
      </trkpt>
      <trkpt lat="44.17363" lon="5.27637">
        <ele>1924</ele>
        <time>2010-04-15T20:01:19.64</time>
      </trkpt>
      <trkpt lat="44.17363" lon="5.27637">
        <ele>1924.5</ele>
        <time>2010-04-15T20:01:20.64</time>
      </trkpt>
      <trkpt lat="44.17362" lon="5.27636">
        <ele>1924.5</ele>
        <time>2010-04-15T20:01:21.64</time>
      </trkpt>
      <trkpt lat="44.17362" lon="5.27636">
        <ele>1924.5</ele>
        <time>2010-04-15T20:01:22.64</time>
      </trkpt>
      <trkpt lat="44.17361" lon="5.27636">
        <ele>1925</ele>
        <time>2010-04-15T20:01:23.64</time>
      </trkpt>
      <trkpt lat="44.17361" lon="5.27636">
        <ele>1925</ele>
        <time>2010-04-15T20:01:24.64</time>
      </trkpt>
      <trkpt lat="44.1736" lon="5.27636">
        <ele>1925.5</ele>
        <time>2010-04-15T20:01:25.64</time>
      </trkpt>
      <trkpt lat="44.1736" lon="5.27635">
        <ele>1925.5</ele>
        <time>2010-04-15T20:01:26.64</time>
      </trkpt>
      <trkpt lat="44.17359" lon="5.27635">
        <ele>1926</ele>
        <time>2010-04-15T20:01:27.64</time>
      </trkpt>
      <trkpt lat="44.17359" lon="5.27635">
        <ele>1926</ele>
        <time>2010-04-15T20:01:28.63</time>
      </trkpt>
      <trkpt lat="44.17358" lon="5.27635">
        <ele>1926</ele>
        <time>2010-04-15T20:01:29.63</time>
      </trkpt>
      <trkpt lat="44.17358" lon="5.27635">
        <ele>1926.5</ele>
        <time>2010-04-15T20:01:30.62</time>
      </trkpt>
      <trkpt lat="44.17357" lon="5.27635">
        <ele>1926.5</ele>
        <time>2010-04-15T20:01:31.62</time>
      </trkpt>
      <trkpt lat="44.17357" lon="5.27634">
        <ele>1927</ele>
        <time>2010-04-15T20:01:32.62</time>
      </trkpt>
      <trkpt lat="44.17356" lon="5.27634">
        <ele>1927</ele>
        <time>2010-04-15T20:01:33.62</time>
      </trkpt>
      <trkpt lat="44.17356" lon="5.27634">
        <ele>1927.5</ele>
        <time>2010-04-15T20:01:34.62</time>
      </trkpt>
      <trkpt lat="44.17355" lon="5.27633">
        <ele>1927.5</ele>
        <time>2010-04-15T20:01:35.62</time>
      </trkpt>
      <trkpt lat="44.17354" lon="5.27633">
        <ele>1927.5</ele>
        <time>2010-04-15T20:01:36.63</time>
      </trkpt>
      <trkpt lat="44.17354" lon="5.27633">
        <ele>1927.5</ele>
        <time>2010-04-15T20:01:37.63</time>
      </trkpt>
      <trkpt lat="44.17353" lon="5.27632">
        <ele>1928</ele>
        <time>2010-04-15T20:01:38.62</time>
      </trkpt>
      <trkpt lat="44.17353" lon="5.27632">
        <ele>1928</ele>
        <time>2010-04-15T20:01:39.62</time>
      </trkpt>
      <trkpt lat="44.17352" lon="5.27632">
        <ele>1928.5</ele>
        <time>2010-04-15T20:01:40.63</time>
      </trkpt>
      <trkpt lat="44.17351" lon="5.27631">
        <ele>1928.5</ele>
        <time>2010-04-15T20:01:41.63</time>
      </trkpt>
      <trkpt lat="44.17351" lon="5.27631">
        <ele>1928.5</ele>
        <time>2010-04-15T20:01:42.63</time>
      </trkpt>
      <trkpt lat="44.1735" lon="5.2763">
        <ele>1929</ele>
        <time>2010-04-15T20:01:43.62</time>
      </trkpt>
      <trkpt lat="44.17349" lon="5.2763">
        <ele>1929</ele>
        <time>2010-04-15T20:01:44.62</time>
      </trkpt>
      <trkpt lat="44.17349" lon="5.27629">
        <ele>1929</ele>
        <time>2010-04-15T20:01:45.62</time>
      </trkpt>
      <trkpt lat="44.17348" lon="5.27629">
        <ele>1929</ele>
        <time>2010-04-15T20:01:46.63</time>
      </trkpt>
      <trkpt lat="44.17347" lon="5.27628">
        <ele>1929</ele>
        <time>2010-04-15T20:01:47.63</time>
      </trkpt>
      <trkpt lat="44.17347" lon="5.27628">
        <ele>1929.5</ele>
        <time>2010-04-15T20:01:48.63</time>
      </trkpt>
      <trkpt lat="44.17346" lon="5.27627">
        <ele>1929.5</ele>
        <time>2010-04-15T20:01:49.62</time>
      </trkpt>
      <trkpt lat="44.17346" lon="5.27627">
        <ele>1930</ele>
        <time>2010-04-15T20:01:50.63</time>
      </trkpt>
      <trkpt lat="44.17345" lon="5.27626">
        <ele>1930</ele>
        <time>2010-04-15T20:01:51.63</time>
      </trkpt>
      <trkpt lat="44.17345" lon="5.27626">
        <ele>1930</ele>
        <time>2010-04-15T20:01:52.62</time>
      </trkpt>
      <trkpt lat="44.17344" lon="5.27625">
        <ele>1930</ele>
        <time>2010-04-15T20:01:53.63</time>
      </trkpt>
      <trkpt lat="44.17344" lon="5.27625">
        <ele>1930</ele>
        <time>2010-04-15T20:01:54.62</time>
      </trkpt>
      <trkpt lat="44.17343" lon="5.27624">
        <ele>1930.5</ele>
        <time>2010-04-15T20:01:55.62</time>
      </trkpt>
      <trkpt lat="44.17343" lon="5.27624">
        <ele>1930.5</ele>
        <time>2010-04-15T20:01:56.62</time>
      </trkpt>
      <trkpt lat="44.17342" lon="5.27623">
        <ele>1931</ele>
        <time>2010-04-15T20:01:57.62</time>
      </trkpt>
      <trkpt lat="44.17341" lon="5.27623">
        <ele>1931.5</ele>
        <time>2010-04-15T20:01:58.62</time>
      </trkpt>
      <trkpt lat="44.17341" lon="5.27622">
        <ele>1931.5</ele>
        <time>2010-04-15T20:01:59.62</time>
      </trkpt>
      <trkpt lat="44.1734" lon="5.27622">
        <ele>1931.5</ele>
        <time>2010-04-15T20:02:00.62</time>
      </trkpt>
      <trkpt lat="44.17339" lon="5.27621">
        <ele>1931.5</ele>
        <time>2010-04-15T20:02:01.62</time>
      </trkpt>
      <trkpt lat="44.17338" lon="5.27621">
        <ele>1932</ele>
        <time>2010-04-15T20:02:02.62</time>
      </trkpt>
      <trkpt lat="44.17338" lon="5.27621">
        <ele>1932</ele>
        <time>2010-04-15T20:02:03.62</time>
      </trkpt>
      <trkpt lat="44.17337" lon="5.2762">
        <ele>1932</ele>
        <time>2010-04-15T20:02:04.62</time>
      </trkpt>
      <trkpt lat="44.17336" lon="5.2762">
        <ele>1932.5</ele>
        <time>2010-04-15T20:02:05.61</time>
      </trkpt>
      <trkpt lat="44.17336" lon="5.27619">
        <ele>1932.5</ele>
        <time>2010-04-15T20:02:06.62</time>
      </trkpt>
      <trkpt lat="44.17335" lon="5.27619">
        <ele>1933</ele>
        <time>2010-04-15T20:02:07.61</time>
      </trkpt>
      <trkpt lat="44.17334" lon="5.27619">
        <ele>1933</ele>
        <time>2010-04-15T20:02:08.61</time>
      </trkpt>
      <trkpt lat="44.17334" lon="5.27619">
        <ele>1933.5</ele>
        <time>2010-04-15T20:02:09.61</time>
      </trkpt>
      <trkpt lat="44.17333" lon="5.27619">
        <ele>1933.5</ele>
        <time>2010-04-15T20:02:10.61</time>
      </trkpt>
      <trkpt lat="44.17332" lon="5.2762">
        <ele>1933.5</ele>
        <time>2010-04-15T20:02:11.61</time>
      </trkpt>
      <trkpt lat="44.17332" lon="5.27621">
        <ele>1934</ele>
        <time>2010-04-15T20:02:12.61</time>
      </trkpt>
      <trkpt lat="44.17331" lon="5.27622">
        <ele>1934</ele>
        <time>2010-04-15T20:02:13.61</time>
      </trkpt>
      <trkpt lat="44.17331" lon="5.27623">
        <ele>1934</ele>
        <time>2010-04-15T20:02:14.61</time>
      </trkpt>
      <trkpt lat="44.17331" lon="5.27624">
        <ele>1934.5</ele>
        <time>2010-04-15T20:02:15.61</time>
      </trkpt>
      <trkpt lat="44.17332" lon="5.27625">
        <ele>1934.5</ele>
        <time>2010-04-15T20:02:16.61</time>
      </trkpt>
      <trkpt lat="44.17332" lon="5.27626">
        <ele>1934.5</ele>
        <time>2010-04-15T20:02:17.61</time>
      </trkpt>
      <trkpt lat="44.17332" lon="5.27627">
        <ele>1934.5</ele>
        <time>2010-04-15T20:02:18.61</time>
      </trkpt>
      <trkpt lat="44.17332" lon="5.27628">
        <ele>1934.5</ele>
        <time>2010-04-15T20:02:19.60</time>
      </trkpt>
      <trkpt lat="44.17332" lon="5.27629">
        <ele>1934.5</ele>
        <time>2010-04-15T20:02:20.61</time>
      </trkpt>
      <trkpt lat="44.17332" lon="5.2763">
        <ele>1934.5</ele>
        <time>2010-04-15T20:02:21.61</time>
      </trkpt>
      <trkpt lat="44.17333" lon="5.27631">
        <ele>1934.5</ele>
        <time>2010-04-15T20:02:22.61</time>
      </trkpt>
      <trkpt lat="44.17333" lon="5.27632">
        <ele>1934.5</ele>
        <time>2010-04-15T20:02:23.81</time>
      </trkpt>
      <trkpt lat="44.17333" lon="5.27633">
        <ele>1934.5</ele>
        <time>2010-04-15T20:02:24.61</time>
      </trkpt>
      <trkpt lat="44.17333" lon="5.27634">
        <ele>1935</ele>
        <time>2010-04-15T20:02:25.60</time>
      </trkpt>
      <trkpt lat="44.17333" lon="5.27635">
        <ele>1935</ele>
        <time>2010-04-15T20:02:26.60</time>
      </trkpt>
      <trkpt lat="44.17333" lon="5.27636">
        <ele>1935</ele>
        <time>2010-04-15T20:02:27.60</time>
      </trkpt>
      <trkpt lat="44.17334" lon="5.27638">
        <ele>1935.5</ele>
        <time>2010-04-15T20:02:28.60</time>
      </trkpt>
      <trkpt lat="44.17334" lon="5.27639">
        <ele>1935.5</ele>
        <time>2010-04-15T20:02:29.60</time>
      </trkpt>
      <trkpt lat="44.17334" lon="5.2764">
        <ele>1935.5</ele>
        <time>2010-04-15T20:02:30.59</time>
      </trkpt>
      <trkpt lat="44.17334" lon="5.27641">
        <ele>1935.5</ele>
        <time>2010-04-15T20:02:31.59</time>
      </trkpt>
      <trkpt lat="44.17334" lon="5.27642">
        <ele>1935.5</ele>
        <time>2010-04-15T20:02:32.59</time>
      </trkpt>
      <trkpt lat="44.17335" lon="5.27643">
        <ele>1936</ele>
        <time>2010-04-15T20:02:33.59</time>
      </trkpt>
      <trkpt lat="44.17335" lon="5.27644">
        <ele>1936</ele>
        <time>2010-04-15T20:02:34.60</time>
      </trkpt>
      <trkpt lat="44.17335" lon="5.27645">
        <ele>1936</ele>
        <time>2010-04-15T20:02:35.60</time>
      </trkpt>
      <trkpt lat="44.17335" lon="5.27645">
        <ele>1936</ele>
        <time>2010-04-15T20:02:36.60</time>
      </trkpt>
      <trkpt lat="44.17336" lon="5.27646">
        <ele>1936</ele>
        <time>2010-04-15T20:02:37.60</time>
      </trkpt>
      <trkpt lat="44.17335" lon="5.27647">
        <ele>1936</ele>
        <time>2010-04-15T20:02:38.60</time>
      </trkpt>
      <trkpt lat="44.17335" lon="5.27648">
        <ele>1936</ele>
        <time>2010-04-15T20:02:39.60</time>
      </trkpt>
      <trkpt lat="44.17335" lon="5.27648">
        <ele>1936</ele>
        <time>2010-04-15T20:02:40.59</time>
      </trkpt>
      <trkpt lat="44.17334" lon="5.27649">
        <ele>1936</ele>
        <time>2010-04-15T20:02:42.59</time>
      </trkpt>
      <trkpt lat="44.17333" lon="5.27649">
        <ele>1936</ele>
        <time>2010-04-15T20:02:43.59</time>
      </trkpt>
      <trkpt lat="44.17333" lon="5.27649">
        <ele>1935.5</ele>
        <time>2010-04-15T20:02:44.58</time>
      </trkpt>
      <trkpt lat="44.17333" lon="5.27649">
        <ele>1936</ele>
        <time>2010-04-15T20:02:45.58</time>
      </trkpt>
      <trkpt lat="44.17333" lon="5.2765">
        <ele>1935.5</ele>
        <time>2010-04-15T20:02:46.58</time>
      </trkpt>
      <trkpt lat="44.17333" lon="5.2765">
        <ele>1935.5</ele>
        <time>2010-04-15T20:02:47.58</time>
      </trkpt>
      <trkpt lat="44.17333" lon="5.2765">
        <ele>1935.5</ele>
        <time>2010-04-15T20:02:48.63</time>
      </trkpt>
      <trkpt lat="44.17332" lon="5.27651">
        <ele>1935</ele>
        <time>2010-04-15T20:02:50.58</time>
      </trkpt>
      <trkpt lat="44.17332" lon="5.27651">
        <ele>1934.5</ele>
        <time>2010-04-15T20:02:51.58</time>
      </trkpt>
      <trkpt lat="44.17332" lon="5.27652">
        <ele>1934.5</ele>
        <time>2010-04-15T20:02:52.58</time>
      </trkpt>
      <trkpt lat="44.17332" lon="5.27653">
        <ele>1934.5</ele>
        <time>2010-04-15T20:02:53.58</time>
      </trkpt>
      <trkpt lat="44.17331" lon="5.27654">
        <ele>1934.5</ele>
        <time>2010-04-15T20:02:54.58</time>
      </trkpt>
      <trkpt lat="44.17331" lon="5.27655">
        <ele>1934</ele>
        <time>2010-04-15T20:02:55.58</time>
      </trkpt>
      <trkpt lat="44.17331" lon="5.27657">
        <ele>1934.5</ele>
        <time>2010-04-15T20:02:56.58</time>
      </trkpt>
      <trkpt lat="44.17331" lon="5.27658">
        <ele>1934.5</ele>
        <time>2010-04-15T20:02:57.58</time>
      </trkpt>
      <trkpt lat="44.17331" lon="5.27659">
        <ele>1934.5</ele>
        <time>2010-04-15T20:02:58.58</time>
      </trkpt>
      <trkpt lat="44.17332" lon="5.2766">
        <ele>1935</ele>
        <time>2010-04-15T20:02:59.58</time>
      </trkpt>
      <trkpt lat="44.17332" lon="5.27661">
        <ele>1935</ele>
        <time>2010-04-15T20:03:00.58</time>
      </trkpt>
      <trkpt lat="44.17333" lon="5.27662">
        <ele>1935</ele>
        <time>2010-04-15T20:03:01.58</time>
      </trkpt>
      <trkpt lat="44.17333" lon="5.27664">
        <ele>1935.5</ele>
        <time>2010-04-15T20:03:02.58</time>
      </trkpt>
      <trkpt lat="44.17333" lon="5.27665">
        <ele>1935.5</ele>
        <time>2010-04-15T20:03:03.58</time>
      </trkpt>
      <trkpt lat="44.17334" lon="5.27666">
        <ele>1935.5</ele>
        <time>2010-04-15T20:03:04.58</time>
      </trkpt>
      <trkpt lat="44.17334" lon="5.27667">
        <ele>1935.5</ele>
        <time>2010-04-15T20:03:05.58</time>
      </trkpt>
      <trkpt lat="44.17334" lon="5.27668">
        <ele>1935.5</ele>
        <time>2010-04-15T20:03:06.57</time>
      </trkpt>
      <trkpt lat="44.17335" lon="5.27669">
        <ele>1936</ele>
        <time>2010-04-15T20:03:07.58</time>
      </trkpt>
      <trkpt lat="44.17335" lon="5.2767">
        <ele>1936</ele>
        <time>2010-04-15T20:03:08.57</time>
      </trkpt>
      <trkpt lat="44.17335" lon="5.2767">
        <ele>1936.5</ele>
        <time>2010-04-15T20:03:09.57</time>
      </trkpt>
      <trkpt lat="44.17335" lon="5.2767">
        <ele>1936</ele>
        <time>2010-04-15T20:03:10.57</time>
      </trkpt>
      <trkpt lat="44.17335" lon="5.27671">
        <ele>1935.5</ele>
        <time>2010-04-15T20:03:11.57</time>
      </trkpt>
      <trkpt lat="44.17335" lon="5.27671">
        <ele>1935</ele>
        <time>2010-04-15T20:03:12.57</time>
      </trkpt>
      <trkpt lat="44.17335" lon="5.27671">
        <ele>1935</ele>
        <time>2010-04-15T20:03:13.57</time>
      </trkpt>
      <trkpt lat="44.17335" lon="5.27671">
        <ele>1935</ele>
        <time>2010-04-15T20:03:14.57</time>
      </trkpt>
      <trkpt lat="44.17335" lon="5.27671">
        <ele>1935</ele>
        <time>2010-04-15T20:03:15.57</time>
      </trkpt>
      <trkpt lat="44.17335" lon="5.2767">
        <ele>1935</ele>
        <time>2010-04-15T20:03:16.57</time>
      </trkpt>
      <trkpt lat="44.17335" lon="5.2767">
        <ele>1935</ele>
        <time>2010-04-15T20:03:17.57</time>
      </trkpt>
      <trkpt lat="44.17335" lon="5.27671">
        <ele>1935</ele>
        <time>2010-04-15T20:03:18.57</time>
      </trkpt>
      <trkpt lat="44.17335" lon="5.27671">
        <ele>1935</ele>
        <time>2010-04-15T20:03:19.57</time>
      </trkpt>
      <trkpt lat="44.17336" lon="5.27671">
        <ele>1934.5</ele>
        <time>2010-04-15T20:03:20.57</time>
      </trkpt>
      <trkpt lat="44.17335" lon="5.27671">
        <ele>1934.5</ele>
        <time>2010-04-15T20:03:21.57</time>
      </trkpt>
      <trkpt lat="44.17335" lon="5.27671">
        <ele>1934.5</ele>
        <time>2010-04-15T20:03:22.57</time>
      </trkpt>
      <trkpt lat="44.17335" lon="5.27671">
        <ele>1934.5</ele>
        <time>2010-04-15T20:03:23.57</time>
      </trkpt>
      <trkpt lat="44.17335" lon="5.2767">
        <ele>1934.5</ele>
        <time>2010-04-15T20:03:24.56</time>
      </trkpt>
      <trkpt lat="44.17335" lon="5.2767">
        <ele>1934</ele>
        <time>2010-04-15T20:03:25.56</time>
      </trkpt>
      <trkpt lat="44.17335" lon="5.27671">
        <ele>1934.5</ele>
        <time>2010-04-15T20:03:26.57</time>
      </trkpt>
      <trkpt lat="44.17335" lon="5.27672">
        <ele>1934.5</ele>
        <time>2010-04-15T20:03:27.56</time>
      </trkpt>
      <trkpt lat="44.17336" lon="5.27673">
        <ele>1934.5</ele>
        <time>2010-04-15T20:03:28.56</time>
      </trkpt>
      <trkpt lat="44.17336" lon="5.27674">
        <ele>1934.5</ele>
        <time>2010-04-15T20:03:29.56</time>
      </trkpt>
      <trkpt lat="44.17337" lon="5.27675">
        <ele>1934.5</ele>
        <time>2010-04-15T20:03:30.56</time>
      </trkpt>
      <trkpt lat="44.17337" lon="5.27676">
        <ele>1935</ele>
        <time>2010-04-15T20:03:31.56</time>
      </trkpt>
      <trkpt lat="44.17337" lon="5.27676">
        <ele>1935</ele>
        <time>2010-04-15T20:03:32.56</time>
      </trkpt>
      <trkpt lat="44.17338" lon="5.27677">
        <ele>1935</ele>
        <time>2010-04-15T20:03:33.56</time>
      </trkpt>
      <trkpt lat="44.17338" lon="5.27678">
        <ele>1935</ele>
        <time>2010-04-15T20:03:34.56</time>
      </trkpt>
      <trkpt lat="44.17339" lon="5.27679">
        <ele>1935.5</ele>
        <time>2010-04-15T20:03:35.56</time>
      </trkpt>
      <trkpt lat="44.17339" lon="5.2768">
        <ele>1935.5</ele>
        <time>2010-04-15T20:03:36.56</time>
      </trkpt>
      <trkpt lat="44.1734" lon="5.27681">
        <ele>1936</ele>
        <time>2010-04-15T20:03:37.56</time>
      </trkpt>
      <trkpt lat="44.1734" lon="5.27681">
        <ele>1936</ele>
        <time>2010-04-15T20:03:38.56</time>
      </trkpt>
      <trkpt lat="44.1734" lon="5.27682">
        <ele>1936</ele>
        <time>2010-04-15T20:03:39.56</time>
      </trkpt>
      <trkpt lat="44.1734" lon="5.27683">
        <ele>1936.5</ele>
        <time>2010-04-15T20:03:40.56</time>
      </trkpt>
      <trkpt lat="44.1734" lon="5.27684">
        <ele>1936.5</ele>
        <time>2010-04-15T20:03:41.56</time>
      </trkpt>
      <trkpt lat="44.1734" lon="5.27685">
        <ele>1936.5</ele>
        <time>2010-04-15T20:03:42.57</time>
      </trkpt>
      <trkpt lat="44.1734" lon="5.27686">
        <ele>1936.5</ele>
        <time>2010-04-15T20:03:43.56</time>
      </trkpt>
      <trkpt lat="44.1734" lon="5.27687">
        <ele>1936.5</ele>
        <time>2010-04-15T20:03:44.56</time>
      </trkpt>
      <trkpt lat="44.1734" lon="5.27688">
        <ele>1936.5</ele>
        <time>2010-04-15T20:03:45.56</time>
      </trkpt>
      <trkpt lat="44.1734" lon="5.27689">
        <ele>1937</ele>
        <time>2010-04-15T20:03:46.55</time>
      </trkpt>
      <trkpt lat="44.1734" lon="5.2769">
        <ele>1937</ele>
        <time>2010-04-15T20:03:47.56</time>
      </trkpt>
      <trkpt lat="44.1734" lon="5.27691">
        <ele>1937.5</ele>
        <time>2010-04-15T20:03:49.56</time>
      </trkpt>
      <trkpt lat="44.1734" lon="5.27692">
        <ele>1937.5</ele>
        <time>2010-04-15T20:03:50.56</time>
      </trkpt>
      <trkpt lat="44.17341" lon="5.27692">
        <ele>1937.5</ele>
        <time>2010-04-15T20:03:51.56</time>
      </trkpt>
      <trkpt lat="44.17341" lon="5.27693">
        <ele>1937.5</ele>
        <time>2010-04-15T20:03:52.56</time>
      </trkpt>
      <trkpt lat="44.17342" lon="5.27695">
        <ele>1938</ele>
        <time>2010-04-15T20:03:53.56</time>
      </trkpt>
      <trkpt lat="44.17342" lon="5.27696">
        <ele>1938</ele>
        <time>2010-04-15T20:03:54.56</time>
      </trkpt>
      <trkpt lat="44.17343" lon="5.27697">
        <ele>1938.5</ele>
        <time>2010-04-15T20:03:55.56</time>
      </trkpt>
      <trkpt lat="44.17344" lon="5.27698">
        <ele>1938.5</ele>
        <time>2010-04-15T20:03:56.56</time>
      </trkpt>
      <trkpt lat="44.17345" lon="5.27699">
        <ele>1939</ele>
        <time>2010-04-15T20:03:57.56</time>
      </trkpt>
      <trkpt lat="44.17346" lon="5.277">
        <ele>1939</ele>
        <time>2010-04-15T20:03:58.55</time>
      </trkpt>
      <trkpt lat="44.17347" lon="5.27701">
        <ele>1939</ele>
        <time>2010-04-15T20:03:59.55</time>
      </trkpt>
      <trkpt lat="44.17348" lon="5.27701">
        <ele>1939.5</ele>
        <time>2010-04-15T20:04:00.55</time>
      </trkpt>
      <trkpt lat="44.1735" lon="5.27701">
        <ele>1939.5</ele>
        <time>2010-04-15T20:04:01.55</time>
      </trkpt>
      <trkpt lat="44.17351" lon="5.27702">
        <ele>1940</ele>
        <time>2010-04-15T20:04:02.55</time>
      </trkpt>
      <trkpt lat="44.17352" lon="5.27702">
        <ele>1940</ele>
        <time>2010-04-15T20:04:03.54</time>
      </trkpt>
      <trkpt lat="44.17352" lon="5.27703">
        <ele>1940.5</ele>
        <time>2010-04-15T20:04:04.54</time>
      </trkpt>
      <trkpt lat="44.17353" lon="5.27703">
        <ele>1940.5</ele>
        <time>2010-04-15T20:04:05.54</time>
      </trkpt>
      <trkpt lat="44.17353" lon="5.27703">
        <ele>1940.5</ele>
        <time>2010-04-15T20:04:06.54</time>
      </trkpt>
      <trkpt lat="44.17354" lon="5.27703">
        <ele>1940.5</ele>
        <time>2010-04-15T20:04:07.54</time>
      </trkpt>
      <trkpt lat="44.17353" lon="5.27704">
        <ele>1940.5</ele>
        <time>2010-04-15T20:04:08.54</time>
      </trkpt>
      <trkpt lat="44.17353" lon="5.27704">
        <ele>1940.5</ele>
        <time>2010-04-15T20:04:09.53</time>
      </trkpt>
      <trkpt lat="44.17353" lon="5.27705">
        <ele>1940.5</ele>
        <time>2010-04-15T20:04:10.54</time>
      </trkpt>
      <trkpt lat="44.17352" lon="5.27706">
        <ele>1940.5</ele>
        <time>2010-04-15T20:04:11.54</time>
      </trkpt>
      <trkpt lat="44.17352" lon="5.27707">
        <ele>1940.5</ele>
        <time>2010-04-15T20:04:12.54</time>
      </trkpt>
      <trkpt lat="44.17351" lon="5.27708">
        <ele>1940.5</ele>
        <time>2010-04-15T20:04:13.53</time>
      </trkpt>
      <trkpt lat="44.17351" lon="5.27709">
        <ele>1940.5</ele>
        <time>2010-04-15T20:04:14.53</time>
      </trkpt>
      <trkpt lat="44.17351" lon="5.27711">
        <ele>1940.5</ele>
        <time>2010-04-15T20:04:15.53</time>
      </trkpt>
      <trkpt lat="44.17351" lon="5.27712">
        <ele>1940.5</ele>
        <time>2010-04-15T20:04:16.53</time>
      </trkpt>
      <trkpt lat="44.1735" lon="5.27713">
        <ele>1940.5</ele>
        <time>2010-04-15T20:04:17.53</time>
      </trkpt>
      <trkpt lat="44.1735" lon="5.27714">
        <ele>1940.5</ele>
        <time>2010-04-15T20:04:18.53</time>
      </trkpt>
      <trkpt lat="44.17349" lon="5.27716">
        <ele>1940.5</ele>
        <time>2010-04-15T20:04:19.53</time>
      </trkpt>
      <trkpt lat="44.17348" lon="5.27717">
        <ele>1940.5</ele>
        <time>2010-04-15T20:04:20.53</time>
      </trkpt>
      <trkpt lat="44.17348" lon="5.27718">
        <ele>1940.5</ele>
        <time>2010-04-15T20:04:21.54</time>
      </trkpt>
      <trkpt lat="44.17347" lon="5.2772">
        <ele>1940.5</ele>
        <time>2010-04-15T20:04:22.54</time>
      </trkpt>
      <trkpt lat="44.17347" lon="5.27721">
        <ele>1940.5</ele>
        <time>2010-04-15T20:04:23.53</time>
      </trkpt>
      <trkpt lat="44.17347" lon="5.27722">
        <ele>1941</ele>
        <time>2010-04-15T20:04:24.54</time>
      </trkpt>
      <trkpt lat="44.17347" lon="5.27723">
        <ele>1941</ele>
        <time>2010-04-15T20:04:25.53</time>
      </trkpt>
      <trkpt lat="44.17347" lon="5.27724">
        <ele>1941</ele>
        <time>2010-04-15T20:04:26.52</time>
      </trkpt>
      <trkpt lat="44.17347" lon="5.27725">
        <ele>1941</ele>
        <time>2010-04-15T20:04:27.52</time>
      </trkpt>
      <trkpt lat="44.17346" lon="5.27726">
        <ele>1941.5</ele>
        <time>2010-04-15T20:04:28.52</time>
      </trkpt>
      <trkpt lat="44.17346" lon="5.27727">
        <ele>1941.5</ele>
        <time>2010-04-15T20:04:29.52</time>
      </trkpt>
      <trkpt lat="44.17344" lon="5.27729">
        <ele>1941.5</ele>
        <time>2010-04-15T20:04:31.51</time>
      </trkpt>
      <trkpt lat="44.17343" lon="5.27729">
        <ele>1941</ele>
        <time>2010-04-15T20:04:32.52</time>
      </trkpt>
      <trkpt lat="44.17343" lon="5.27729">
        <ele>1941</ele>
        <time>2010-04-15T20:04:33.52</time>
      </trkpt>
      <trkpt lat="44.17342" lon="5.27729">
        <ele>1941.5</ele>
        <time>2010-04-15T20:04:34.52</time>
      </trkpt>
      <trkpt lat="44.17342" lon="5.27729">
        <ele>1941.5</ele>
        <time>2010-04-15T20:04:35.53</time>
      </trkpt>
      <trkpt lat="44.17342" lon="5.27729">
        <ele>1941</ele>
        <time>2010-04-15T20:04:36.56</time>
      </trkpt>
      <trkpt lat="44.17342" lon="5.27729">
        <ele>1941</ele>
        <time>2010-04-15T20:04:37.52</time>
      </trkpt>
      <trkpt lat="44.17342" lon="5.27729">
        <ele>1941</ele>
        <time>2010-04-15T20:04:38.52</time>
      </trkpt>
      <trkpt lat="44.17342" lon="5.27729">
        <ele>1941</ele>
        <time>2010-04-15T20:04:39.52</time>
      </trkpt>
      <trkpt lat="44.17342" lon="5.27729">
        <ele>1941</ele>
        <time>2010-04-15T20:04:40.51</time>
      </trkpt>
      <trkpt lat="44.17342" lon="5.27729">
        <ele>1941</ele>
        <time>2010-04-15T20:04:41.51</time>
      </trkpt>
      <trkpt lat="44.17342" lon="5.27729">
        <ele>1941.5</ele>
        <time>2010-04-15T20:04:42.52</time>
      </trkpt>
      <trkpt lat="44.17342" lon="5.27728">
        <ele>1942</ele>
        <time>2010-04-15T20:04:43.51</time>
      </trkpt>
      <trkpt lat="44.17342" lon="5.27727">
        <ele>1943</ele>
        <time>2010-04-15T20:04:44.51</time>
      </trkpt>
      <trkpt lat="44.17342" lon="5.27726">
        <ele>1943</ele>
        <time>2010-04-15T20:04:45.51</time>
      </trkpt>
      <trkpt lat="44.17342" lon="5.27726">
        <ele>1943</ele>
        <time>2010-04-15T20:04:46.51</time>
      </trkpt>
      <trkpt lat="44.17342" lon="5.27726">
        <ele>1943</ele>
        <time>2010-04-15T20:04:47.51</time>
      </trkpt>
      <trkpt lat="44.17342" lon="5.27726">
        <ele>1943</ele>
        <time>2010-04-15T20:04:48.51</time>
      </trkpt>
      <trkpt lat="44.17342" lon="5.27726">
        <ele>1943</ele>
        <time>2010-04-15T20:04:49.51</time>
      </trkpt>
      <trkpt lat="44.17343" lon="5.27726">
        <ele>1943</ele>
        <time>2010-04-15T20:04:50.50</time>
      </trkpt>
      <trkpt lat="44.17343" lon="5.27727">
        <ele>1943</ele>
        <time>2010-04-15T20:04:51.51</time>
      </trkpt>
      <trkpt lat="44.17344" lon="5.27729">
        <ele>1943.5</ele>
        <time>2010-04-15T20:04:52.51</time>
      </trkpt>
      <trkpt lat="44.17345" lon="5.2773">
        <ele>1943.5</ele>
        <time>2010-04-15T20:04:53.51</time>
      </trkpt>
      <trkpt lat="44.17345" lon="5.27731">
        <ele>1943.5</ele>
        <time>2010-04-15T20:04:54.50</time>
      </trkpt>
      <trkpt lat="44.17346" lon="5.27733">
        <ele>1943.5</ele>
        <time>2010-04-15T20:04:55.50</time>
      </trkpt>
      <trkpt lat="44.17347" lon="5.27734">
        <ele>1944</ele>
        <time>2010-04-15T20:04:56.51</time>
      </trkpt>
      <trkpt lat="44.17347" lon="5.27736">
        <ele>1943.5</ele>
        <time>2010-04-15T20:04:57.50</time>
      </trkpt>
      <trkpt lat="44.17347" lon="5.27738">
        <ele>1943.5</ele>
        <time>2010-04-15T20:04:58.51</time>
      </trkpt>
      <trkpt lat="44.17348" lon="5.2774">
        <ele>1944</ele>
        <time>2010-04-15T20:04:59.51</time>
      </trkpt>
      <trkpt lat="44.17348" lon="5.27742">
        <ele>1944</ele>
        <time>2010-04-15T20:05:00.50</time>
      </trkpt>
      <trkpt lat="44.17348" lon="5.27744">
        <ele>1944.5</ele>
        <time>2010-04-15T20:05:01.50</time>
      </trkpt>
      <trkpt lat="44.17348" lon="5.27745">
        <ele>1944</ele>
        <time>2010-04-15T20:05:02.50</time>
      </trkpt>
      <trkpt lat="44.17349" lon="5.27747">
        <ele>1944</ele>
        <time>2010-04-15T20:05:03.50</time>
      </trkpt>
      <trkpt lat="44.17349" lon="5.27749">
        <ele>1944.5</ele>
        <time>2010-04-15T20:05:04.50</time>
      </trkpt>
      <trkpt lat="44.17349" lon="5.27751">
        <ele>1944.5</ele>
        <time>2010-04-15T20:05:05.51</time>
      </trkpt>
      <trkpt lat="44.17349" lon="5.27753">
        <ele>1945</ele>
        <time>2010-04-15T20:05:06.50</time>
      </trkpt>
      <trkpt lat="44.17349" lon="5.27755">
        <ele>1945.5</ele>
        <time>2010-04-15T20:05:07.50</time>
      </trkpt>
      <trkpt lat="44.17349" lon="5.27757">
        <ele>1946</ele>
        <time>2010-04-15T20:05:08.51</time>
      </trkpt>
      <trkpt lat="44.17349" lon="5.27758">
        <ele>1946.5</ele>
        <time>2010-04-15T20:05:09.50</time>
      </trkpt>
      <trkpt lat="44.1735" lon="5.2776">
        <ele>1948</ele>
        <time>2010-04-15T20:05:10.50</time>
      </trkpt>
      <trkpt lat="44.17351" lon="5.27762">
        <ele>1948</ele>
        <time>2010-04-15T20:05:11.49</time>
      </trkpt>
      <trkpt lat="44.17352" lon="5.27764">
        <ele>1949</ele>
        <time>2010-04-15T20:05:12.49</time>
      </trkpt>
      <trkpt lat="44.17351" lon="5.27765">
        <ele>1949</ele>
        <time>2010-04-15T20:05:13.50</time>
      </trkpt>
      <trkpt lat="44.17351" lon="5.27767">
        <ele>1949.5</ele>
        <time>2010-04-15T20:05:14.49</time>
      </trkpt>
      <trkpt lat="44.17351" lon="5.27769">
        <ele>1950</ele>
        <time>2010-04-15T20:05:15.49</time>
      </trkpt>
      <trkpt lat="44.1735" lon="5.27771">
        <ele>1950</ele>
        <time>2010-04-15T20:05:16.50</time>
      </trkpt>
      <trkpt lat="44.1735" lon="5.27773">
        <ele>1949.5</ele>
        <time>2010-04-15T20:05:17.49</time>
      </trkpt>
      <trkpt lat="44.1735" lon="5.27775">
        <ele>1950</ele>
        <time>2010-04-15T20:05:18.49</time>
      </trkpt>
      <trkpt lat="44.1735" lon="5.27777">
        <ele>1950</ele>
        <time>2010-04-15T20:05:19.48</time>
      </trkpt>
      <trkpt lat="44.17349" lon="5.27778">
        <ele>1950</ele>
        <time>2010-04-15T20:05:20.49</time>
      </trkpt>
      <trkpt lat="44.17349" lon="5.2778">
        <ele>1950</ele>
        <time>2010-04-15T20:05:21.48</time>
      </trkpt>
      <trkpt lat="44.17349" lon="5.27782">
        <ele>1949.5</ele>
        <time>2010-04-15T20:05:22.48</time>
      </trkpt>
      <trkpt lat="44.17349" lon="5.27784">
        <ele>1949.5</ele>
        <time>2010-04-15T20:05:23.48</time>
      </trkpt>
      <trkpt lat="44.17349" lon="5.27786">
        <ele>1949.5</ele>
        <time>2010-04-15T20:05:24.48</time>
      </trkpt>
      <trkpt lat="44.17349" lon="5.27788">
        <ele>1949.5</ele>
        <time>2010-04-15T20:05:25.48</time>
      </trkpt>
      <trkpt lat="44.17349" lon="5.2779">
        <ele>1949.5</ele>
        <time>2010-04-15T20:05:26.48</time>
      </trkpt>
      <trkpt lat="44.17349" lon="5.27792">
        <ele>1949.5</ele>
        <time>2010-04-15T20:05:27.48</time>
      </trkpt>
      <trkpt lat="44.17349" lon="5.27794">
        <ele>1949.5</ele>
        <time>2010-04-15T20:05:28.48</time>
      </trkpt>
      <trkpt lat="44.17349" lon="5.27796">
        <ele>1949.5</ele>
        <time>2010-04-15T20:05:29.48</time>
      </trkpt>
      <trkpt lat="44.1735" lon="5.27798">
        <ele>1949.5</ele>
        <time>2010-04-15T20:05:30.48</time>
      </trkpt>
      <trkpt lat="44.17349" lon="5.278">
        <ele>1949.5</ele>
        <time>2010-04-15T20:05:31.48</time>
      </trkpt>
      <trkpt lat="44.17349" lon="5.27802">
        <ele>1950</ele>
        <time>2010-04-15T20:05:32.49</time>
      </trkpt>
      <trkpt lat="44.17349" lon="5.27804">
        <ele>1950</ele>
        <time>2010-04-15T20:05:33.48</time>
      </trkpt>
      <trkpt lat="44.1735" lon="5.27806">
        <ele>1950</ele>
        <time>2010-04-15T20:05:34.48</time>
      </trkpt>
      <trkpt lat="44.1735" lon="5.27807">
        <ele>1950</ele>
        <time>2010-04-15T20:05:35.48</time>
      </trkpt>
      <trkpt lat="44.1735" lon="5.27809">
        <ele>1950</ele>
        <time>2010-04-15T20:05:36.48</time>
      </trkpt>
      <trkpt lat="44.17351" lon="5.27811">
        <ele>1950.5</ele>
        <time>2010-04-15T20:05:37.48</time>
      </trkpt>
      <trkpt lat="44.17351" lon="5.27813">
        <ele>1950.5</ele>
        <time>2010-04-15T20:05:38.48</time>
      </trkpt>
      <trkpt lat="44.17351" lon="5.27815">
        <ele>1950.5</ele>
        <time>2010-04-15T20:05:39.48</time>
      </trkpt>
      <trkpt lat="44.17351" lon="5.27818">
        <ele>1950.5</ele>
        <time>2010-04-15T20:05:40.48</time>
      </trkpt>
      <trkpt lat="44.17351" lon="5.2782">
        <ele>1950.5</ele>
        <time>2010-04-15T20:05:41.48</time>
      </trkpt>
      <trkpt lat="44.17351" lon="5.27822">
        <ele>1950.5</ele>
        <time>2010-04-15T20:05:42.49</time>
      </trkpt>
      <trkpt lat="44.17351" lon="5.27824">
        <ele>1950.5</ele>
        <time>2010-04-15T20:05:43.48</time>
      </trkpt>
      <trkpt lat="44.17351" lon="5.27826">
        <ele>1950.5</ele>
        <time>2010-04-15T20:05:44.48</time>
      </trkpt>
      <trkpt lat="44.17351" lon="5.27828">
        <ele>1950.5</ele>
        <time>2010-04-15T20:05:45.47</time>
      </trkpt>
      <trkpt lat="44.17351" lon="5.2783">
        <ele>1950.5</ele>
        <time>2010-04-15T20:05:46.48</time>
      </trkpt>
      <trkpt lat="44.17351" lon="5.27832">
        <ele>1950.5</ele>
        <time>2010-04-15T20:05:47.47</time>
      </trkpt>
      <trkpt lat="44.17351" lon="5.27834">
        <ele>1950.5</ele>
        <time>2010-04-15T20:05:48.47</time>
      </trkpt>
      <trkpt lat="44.17351" lon="5.27836">
        <ele>1950</ele>
        <time>2010-04-15T20:05:49.47</time>
      </trkpt>
      <trkpt lat="44.1735" lon="5.27837">
        <ele>1950</ele>
        <time>2010-04-15T20:05:50.47</time>
      </trkpt>
      <trkpt lat="44.17349" lon="5.27838">
        <ele>1950</ele>
        <time>2010-04-15T20:05:51.47</time>
      </trkpt>
      <trkpt lat="44.17349" lon="5.27838">
        <ele>1950</ele>
        <time>2010-04-15T20:05:52.47</time>
      </trkpt>
      <trkpt lat="44.17349" lon="5.27838">
        <ele>1950</ele>
        <time>2010-04-15T20:05:53.46</time>
      </trkpt>
      <trkpt lat="44.17349" lon="5.27838">
        <ele>1949.5</ele>
        <time>2010-04-15T20:05:54.46</time>
      </trkpt>
      <trkpt lat="44.17349" lon="5.27838">
        <ele>1949.5</ele>
        <time>2010-04-15T20:05:55.47</time>
      </trkpt>
      <trkpt lat="44.17349" lon="5.27838">
        <ele>1949.5</ele>
        <time>2010-04-15T20:05:56.48</time>
      </trkpt>
      <trkpt lat="44.17349" lon="5.27838">
        <ele>1949.5</ele>
        <time>2010-04-15T20:05:57.47</time>
      </trkpt>
      <trkpt lat="44.17349" lon="5.27839">
        <ele>1950</ele>
        <time>2010-04-15T20:05:58.47</time>
      </trkpt>
      <trkpt lat="44.17349" lon="5.2784">
        <ele>1950</ele>
        <time>2010-04-15T20:05:59.47</time>
      </trkpt>
      <trkpt lat="44.17348" lon="5.27841">
        <ele>1950</ele>
        <time>2010-04-15T20:06:00.47</time>
      </trkpt>
      <trkpt lat="44.17347" lon="5.27842">
        <ele>1950</ele>
        <time>2010-04-15T20:06:01.47</time>
      </trkpt>
      <trkpt lat="44.17347" lon="5.27842">
        <ele>1950.5</ele>
        <time>2010-04-15T20:06:02.47</time>
      </trkpt>
      <trkpt lat="44.17347" lon="5.27842">
        <ele>1950.5</ele>
        <time>2010-04-15T20:06:03.46</time>
      </trkpt>
      <trkpt lat="44.17347" lon="5.27842">
        <ele>1950.5</ele>
        <time>2010-04-15T20:06:04.46</time>
      </trkpt>
      <trkpt lat="44.17347" lon="5.27842">
        <ele>1950.5</ele>
        <time>2010-04-15T20:06:05.46</time>
      </trkpt>
      <trkpt lat="44.17347" lon="5.27842">
        <ele>1950.5</ele>
        <time>2010-04-15T20:06:06.46</time>
      </trkpt>
      <trkpt lat="44.17347" lon="5.27843">
        <ele>1950</ele>
        <time>2010-04-15T20:06:07.46</time>
      </trkpt>
      <trkpt lat="44.17347" lon="5.27842">
        <ele>1950</ele>
        <time>2010-04-15T20:06:08.46</time>
      </trkpt>
      <trkpt lat="44.17347" lon="5.27841">
        <ele>1950</ele>
        <time>2010-04-15T20:06:09.46</time>
      </trkpt>
      <trkpt lat="44.17348" lon="5.27839">
        <ele>1950</ele>
        <time>2010-04-15T20:06:10.46</time>
      </trkpt>
      <trkpt lat="44.17348" lon="5.27838">
        <ele>1950.5</ele>
        <time>2010-04-15T20:06:11.46</time>
      </trkpt>
      <trkpt lat="44.17348" lon="5.27836">
        <ele>1950.5</ele>
        <time>2010-04-15T20:06:12.46</time>
      </trkpt>
      <trkpt lat="44.17349" lon="5.27835">
        <ele>1950.5</ele>
        <time>2010-04-15T20:06:13.46</time>
      </trkpt>
      <trkpt lat="44.17349" lon="5.27833">
        <ele>1950.5</ele>
        <time>2010-04-15T20:06:14.46</time>
      </trkpt>
      <trkpt lat="44.17348" lon="5.27833">
        <ele>1950.5</ele>
        <time>2010-04-15T20:06:15.46</time>
      </trkpt>
      <trkpt lat="44.17347" lon="5.27832">
        <ele>1950.5</ele>
        <time>2010-04-15T20:06:16.46</time>
      </trkpt>
      <trkpt lat="44.17346" lon="5.27832">
        <ele>1950.5</ele>
        <time>2010-04-15T20:06:17.45</time>
      </trkpt>
      <trkpt lat="44.17345" lon="5.27832">
        <ele>1950.5</ele>
        <time>2010-04-15T20:06:18.45</time>
      </trkpt>
      <trkpt lat="44.17345" lon="5.27832">
        <ele>1950.5</ele>
        <time>2010-04-15T20:06:19.45</time>
      </trkpt>
      <trkpt lat="44.17345" lon="5.27832">
        <ele>1950.5</ele>
        <time>2010-04-15T20:06:20.46</time>
      </trkpt>
      <trkpt lat="44.17345" lon="5.27832">
        <ele>1950.5</ele>
        <time>2010-04-15T20:06:21.45</time>
      </trkpt>
      <trkpt lat="44.17345" lon="5.27832">
        <ele>1950.5</ele>
        <time>2010-04-15T20:06:22.45</time>
      </trkpt>
      <trkpt lat="44.17345" lon="5.27832">
        <ele>1950.5</ele>
        <time>2010-04-15T20:06:23.45</time>
      </trkpt>
      <trkpt lat="44.17345" lon="5.27832">
        <ele>1950.5</ele>
        <time>2010-04-15T20:06:24.45</time>
      </trkpt>
      <trkpt lat="44.17345" lon="5.27832">
        <ele>1950.5</ele>
        <time>2010-04-15T20:06:25.45</time>
      </trkpt>
      <trkpt lat="44.17345" lon="5.27832">
        <ele>1950.5</ele>
        <time>2010-04-15T20:06:26.45</time>
      </trkpt>
      <trkpt lat="44.17345" lon="5.27832">
        <ele>1950.5</ele>
        <time>2010-04-15T20:06:27.45</time>
      </trkpt>
      <trkpt lat="44.17345" lon="5.27832">
        <ele>1950.5</ele>
        <time>2010-04-15T20:06:28.45</time>
      </trkpt>
      <trkpt lat="44.17345" lon="5.27832">
        <ele>1950.5</ele>
        <time>2010-04-15T20:06:29.45</time>
      </trkpt>
      <trkpt lat="44.17345" lon="5.27832">
        <ele>1950.5</ele>
        <time>2010-04-15T20:06:30.45</time>
      </trkpt>
      <trkpt lat="44.17345" lon="5.27832">
        <ele>1950.5</ele>
        <time>2010-04-15T20:06:31.45</time>
      </trkpt>
      <trkpt lat="44.17345" lon="5.27832">
        <ele>1950</ele>
        <time>2010-04-15T20:06:32.45</time>
      </trkpt>
      <trkpt lat="44.17345" lon="5.27832">
        <ele>1950</ele>
        <time>2010-04-15T20:06:33.45</time>
      </trkpt>
      <trkpt lat="44.17345" lon="5.27832">
        <ele>1950</ele>
        <time>2010-04-15T20:06:34.45</time>
      </trkpt>
      <trkpt lat="44.17345" lon="5.27832">
        <ele>1950</ele>
        <time>2010-04-15T20:06:35.44</time>
      </trkpt>
      <trkpt lat="44.17345" lon="5.27831">
        <ele>1950</ele>
        <time>2010-04-15T20:06:36.44</time>
      </trkpt>
      <trkpt lat="44.17345" lon="5.2783">
        <ele>1950</ele>
        <time>2010-04-15T20:06:37.44</time>
      </trkpt>
      <trkpt lat="44.17346" lon="5.27828">
        <ele>1950</ele>
        <time>2010-04-15T20:06:38.44</time>
      </trkpt>
      <trkpt lat="44.17346" lon="5.27827">
        <ele>1950</ele>
        <time>2010-04-15T20:06:39.44</time>
      </trkpt>
      <trkpt lat="44.17346" lon="5.27825">
        <ele>1950</ele>
        <time>2010-04-15T20:06:40.44</time>
      </trkpt>
      <trkpt lat="44.17347" lon="5.27824">
        <ele>1950</ele>
        <time>2010-04-15T20:06:41.44</time>
      </trkpt>
      <trkpt lat="44.17347" lon="5.27822">
        <ele>1950.5</ele>
        <time>2010-04-15T20:06:42.45</time>
      </trkpt>
      <trkpt lat="44.17347" lon="5.2782">
        <ele>1950.5</ele>
        <time>2010-04-15T20:06:43.44</time>
      </trkpt>
      <trkpt lat="44.17348" lon="5.27819">
        <ele>1950.5</ele>
        <time>2010-04-15T20:06:44.44</time>
      </trkpt>
      <trkpt lat="44.17348" lon="5.27819">
        <ele>1950.5</ele>
        <time>2010-04-15T20:06:45.44</time>
      </trkpt>
      <trkpt lat="44.17348" lon="5.27819">
        <ele>1950.5</ele>
        <time>2010-04-15T20:06:46.44</time>
      </trkpt>
      <trkpt lat="44.17348" lon="5.27819">
        <ele>1950.5</ele>
        <time>2010-04-15T20:06:47.45</time>
      </trkpt>
      <trkpt lat="44.17348" lon="5.27818">
        <ele>1950.5</ele>
        <time>2010-04-15T20:06:48.44</time>
      </trkpt>
      <trkpt lat="44.17348" lon="5.27817">
        <ele>1950.5</ele>
        <time>2010-04-15T20:06:49.44</time>
      </trkpt>
      <trkpt lat="44.17348" lon="5.27815">
        <ele>1950</ele>
        <time>2010-04-15T20:06:50.44</time>
      </trkpt>
      <trkpt lat="44.17348" lon="5.27813">
        <ele>1950</ele>
        <time>2010-04-15T20:06:51.44</time>
      </trkpt>
      <trkpt lat="44.17348" lon="5.2781">
        <ele>1950</ele>
        <time>2010-04-15T20:06:52.44</time>
      </trkpt>
      <trkpt lat="44.17348" lon="5.27808">
        <ele>1950</ele>
        <time>2010-04-15T20:06:53.44</time>
      </trkpt>
      <trkpt lat="44.17348" lon="5.27806">
        <ele>1950</ele>
        <time>2010-04-15T20:06:54.43</time>
      </trkpt>
      <trkpt lat="44.17348" lon="5.27804">
        <ele>1950</ele>
        <time>2010-04-15T20:06:55.43</time>
      </trkpt>
      <trkpt lat="44.17348" lon="5.27801">
        <ele>1950</ele>
        <time>2010-04-15T20:06:56.44</time>
      </trkpt>
      <trkpt lat="44.17348" lon="5.27799">
        <ele>1950</ele>
        <time>2010-04-15T20:06:57.43</time>
      </trkpt>
      <trkpt lat="44.17348" lon="5.27797">
        <ele>1950</ele>
        <time>2010-04-15T20:06:58.43</time>
      </trkpt>
      <trkpt lat="44.17347" lon="5.27795">
        <ele>1949.5</ele>
        <time>2010-04-15T20:06:59.43</time>
      </trkpt>
      <trkpt lat="44.17347" lon="5.27793">
        <ele>1950</ele>
        <time>2010-04-15T20:07:00.43</time>
      </trkpt>
      <trkpt lat="44.17347" lon="5.27791">
        <ele>1950</ele>
        <time>2010-04-15T20:07:01.43</time>
      </trkpt>
      <trkpt lat="44.17347" lon="5.27789">
        <ele>1950.5</ele>
        <time>2010-04-15T20:07:02.43</time>
      </trkpt>
      <trkpt lat="44.17347" lon="5.27786">
        <ele>1950.5</ele>
        <time>2010-04-15T20:07:03.43</time>
      </trkpt>
      <trkpt lat="44.17347" lon="5.27784">
        <ele>1950.5</ele>
        <time>2010-04-15T20:07:04.43</time>
      </trkpt>
      <trkpt lat="44.17347" lon="5.27782">
        <ele>1950.5</ele>
        <time>2010-04-15T20:07:05.43</time>
      </trkpt>
      <trkpt lat="44.17347" lon="5.2778">
        <ele>1950</ele>
        <time>2010-04-15T20:07:06.43</time>
      </trkpt>
      <trkpt lat="44.17347" lon="5.27778">
        <ele>1950</ele>
        <time>2010-04-15T20:07:07.42</time>
      </trkpt>
      <trkpt lat="44.17347" lon="5.27775">
        <ele>1950</ele>
        <time>2010-04-15T20:07:08.42</time>
      </trkpt>
      <trkpt lat="44.17346" lon="5.27773">
        <ele>1950</ele>
        <time>2010-04-15T20:07:09.43</time>
      </trkpt>
      <trkpt lat="44.17346" lon="5.27771">
        <ele>1950</ele>
        <time>2010-04-15T20:07:10.43</time>
      </trkpt>
      <trkpt lat="44.17346" lon="5.27769">
        <ele>1949.5</ele>
        <time>2010-04-15T20:07:11.42</time>
      </trkpt>
      <trkpt lat="44.17346" lon="5.27766">
        <ele>1949.5</ele>
        <time>2010-04-15T20:07:12.42</time>
      </trkpt>
      <trkpt lat="44.17346" lon="5.27764">
        <ele>1949.5</ele>
        <time>2010-04-15T20:07:13.42</time>
      </trkpt>
      <trkpt lat="44.17346" lon="5.27762">
        <ele>1949.5</ele>
        <time>2010-04-15T20:07:14.42</time>
      </trkpt>
      <trkpt lat="44.17346" lon="5.2776">
        <ele>1949.5</ele>
        <time>2010-04-15T20:07:15.42</time>
      </trkpt>
      <trkpt lat="44.17347" lon="5.27757">
        <ele>1950</ele>
        <time>2010-04-15T20:07:16.42</time>
      </trkpt>
      <trkpt lat="44.17347" lon="5.27755">
        <ele>1949.5</ele>
        <time>2010-04-15T20:07:17.42</time>
      </trkpt>
      <trkpt lat="44.17347" lon="5.27753">
        <ele>1949.5</ele>
        <time>2010-04-15T20:07:18.43</time>
      </trkpt>
      <trkpt lat="44.17348" lon="5.27751">
        <ele>1949</ele>
        <time>2010-04-15T20:07:19.42</time>
      </trkpt>
      <trkpt lat="44.17348" lon="5.27749">
        <ele>1949</ele>
        <time>2010-04-15T20:07:20.43</time>
      </trkpt>
      <trkpt lat="44.17349" lon="5.27747">
        <ele>1949</ele>
        <time>2010-04-15T20:07:21.42</time>
      </trkpt>
      <trkpt lat="44.17349" lon="5.27745">
        <ele>1949.5</ele>
        <time>2010-04-15T20:07:22.42</time>
      </trkpt>
      <trkpt lat="44.17349" lon="5.27743">
        <ele>1950</ele>
        <time>2010-04-15T20:07:23.42</time>
      </trkpt>
      <trkpt lat="44.17349" lon="5.2774">
        <ele>1950</ele>
        <time>2010-04-15T20:07:24.42</time>
      </trkpt>
      <trkpt lat="44.17349" lon="5.27738">
        <ele>1950.5</ele>
        <time>2010-04-15T20:07:25.42</time>
      </trkpt>
      <trkpt lat="44.17349" lon="5.27736">
        <ele>1951</ele>
        <time>2010-04-15T20:07:26.42</time>
      </trkpt>
      <trkpt lat="44.17349" lon="5.27733">
        <ele>1951</ele>
        <time>2010-04-15T20:07:27.42</time>
      </trkpt>
      <trkpt lat="44.17349" lon="5.27731">
        <ele>1951.5</ele>
        <time>2010-04-15T20:07:28.42</time>
      </trkpt>
      <trkpt lat="44.1735" lon="5.27729">
        <ele>1951.5</ele>
        <time>2010-04-15T20:07:29.42</time>
      </trkpt>
      <trkpt lat="44.1735" lon="5.27727">
        <ele>1951.5</ele>
        <time>2010-04-15T20:07:30.42</time>
      </trkpt>
      <trkpt lat="44.1735" lon="5.27725">
        <ele>1951.5</ele>
        <time>2010-04-15T20:07:31.42</time>
      </trkpt>
      <trkpt lat="44.1735" lon="5.27723">
        <ele>1951.5</ele>
        <time>2010-04-15T20:07:32.42</time>
      </trkpt>
      <trkpt lat="44.17351" lon="5.27721">
        <ele>1951.5</ele>
        <time>2010-04-15T20:07:33.41</time>
      </trkpt>
      <trkpt lat="44.17351" lon="5.27719">
        <ele>1951.5</ele>
        <time>2010-04-15T20:07:34.41</time>
      </trkpt>
      <trkpt lat="44.17352" lon="5.27717">
        <ele>1951.5</ele>
        <time>2010-04-15T20:07:35.42</time>
      </trkpt>
      <trkpt lat="44.17352" lon="5.27716">
        <ele>1951</ele>
        <time>2010-04-15T20:07:36.42</time>
      </trkpt>
      <trkpt lat="44.17353" lon="5.27715">
        <ele>1951</ele>
        <time>2010-04-15T20:07:37.41</time>
      </trkpt>
      <trkpt lat="44.17354" lon="5.27714">
        <ele>1951</ele>
        <time>2010-04-15T20:07:38.41</time>
      </trkpt>
      <trkpt lat="44.17355" lon="5.27713">
        <ele>1951</ele>
        <time>2010-04-15T20:07:39.41</time>
      </trkpt>
      <trkpt lat="44.17356" lon="5.27713">
        <ele>1951</ele>
        <time>2010-04-15T20:07:40.41</time>
      </trkpt>
      <trkpt lat="44.17357" lon="5.27712">
        <ele>1950.5</ele>
        <time>2010-04-15T20:07:41.41</time>
      </trkpt>
      <trkpt lat="44.17357" lon="5.27712">
        <ele>1950.5</ele>
        <time>2010-04-15T20:07:42.42</time>
      </trkpt>
      <trkpt lat="44.17357" lon="5.27712">
        <ele>1950</ele>
        <time>2010-04-15T20:07:43.40</time>
      </trkpt>
      <trkpt lat="44.17357" lon="5.27712">
        <ele>1950</ele>
        <time>2010-04-15T20:07:44.41</time>
      </trkpt>
      <trkpt lat="44.17357" lon="5.27713">
        <ele>1949.5</ele>
        <time>2010-04-15T20:07:45.41</time>
      </trkpt>
      <trkpt lat="44.17358" lon="5.27712">
        <ele>1949.5</ele>
        <time>2010-04-15T20:07:46.41</time>
      </trkpt>
      <trkpt lat="44.17358" lon="5.27712">
        <ele>1949.5</ele>
        <time>2010-04-15T20:07:47.41</time>
      </trkpt>
      <trkpt lat="44.17358" lon="5.27712">
        <ele>1949.5</ele>
        <time>2010-04-15T20:07:48.41</time>
      </trkpt>
      <trkpt lat="44.17358" lon="5.27712">
        <ele>1949.5</ele>
        <time>2010-04-15T20:07:49.41</time>
      </trkpt>
      <trkpt lat="44.17358" lon="5.27712">
        <ele>1949</ele>
        <time>2010-04-15T20:07:50.40</time>
      </trkpt>
      <trkpt lat="44.17358" lon="5.27712">
        <ele>1949</ele>
        <time>2010-04-15T20:07:51.40</time>
      </trkpt>
      <trkpt lat="44.17358" lon="5.27712">
        <ele>1948.5</ele>
        <time>2010-04-15T20:07:52.40</time>
      </trkpt>
      <trkpt lat="44.17358" lon="5.27712">
        <ele>1948.5</ele>
        <time>2010-04-15T20:07:53.40</time>
      </trkpt>
      <trkpt lat="44.17358" lon="5.27712">
        <ele>1948</ele>
        <time>2010-04-15T20:07:54.40</time>
      </trkpt>
      <trkpt lat="44.17358" lon="5.27712">
        <ele>1948</ele>
        <time>2010-04-15T20:07:55.41</time>
      </trkpt>
      <trkpt lat="44.17358" lon="5.27712">
        <ele>1948</ele>
        <time>2010-04-15T20:07:56.41</time>
      </trkpt>
      <trkpt lat="44.17358" lon="5.27713">
        <ele>1947.5</ele>
        <time>2010-04-15T20:07:57.40</time>
      </trkpt>
      <trkpt lat="44.17358" lon="5.27713">
        <ele>1947.5</ele>
        <time>2010-04-15T20:07:58.40</time>
      </trkpt>
      <trkpt lat="44.17358" lon="5.27713">
        <ele>1947.5</ele>
        <time>2010-04-15T20:07:59.41</time>
      </trkpt>
      <trkpt lat="44.17358" lon="5.27713">
        <ele>1947.5</ele>
        <time>2010-04-15T20:08:00.40</time>
      </trkpt>
      <trkpt lat="44.17358" lon="5.27713">
        <ele>1947.5</ele>
        <time>2010-04-15T20:08:01.41</time>
      </trkpt>
      <trkpt lat="44.17358" lon="5.27713">
        <ele>1947.5</ele>
        <time>2010-04-15T20:08:02.40</time>
      </trkpt>
      <trkpt lat="44.17358" lon="5.27713">
        <ele>1947.5</ele>
        <time>2010-04-15T20:08:03.41</time>
      </trkpt>
      <trkpt lat="44.17358" lon="5.27713">
        <ele>1948</ele>
        <time>2010-04-15T20:08:04.41</time>
      </trkpt>
      <trkpt lat="44.17358" lon="5.27713">
        <ele>1947.5</ele>
        <time>2010-04-15T20:08:05.41</time>
      </trkpt>
      <trkpt lat="44.17358" lon="5.27713">
        <ele>1947.5</ele>
        <time>2010-04-15T20:08:06.40</time>
      </trkpt>
      <trkpt lat="44.17358" lon="5.27713">
        <ele>1947.5</ele>
        <time>2010-04-15T20:08:07.40</time>
      </trkpt>
      <trkpt lat="44.17358" lon="5.27713">
        <ele>1947.5</ele>
        <time>2010-04-15T20:08:08.39</time>
      </trkpt>
      <trkpt lat="44.17358" lon="5.27713">
        <ele>1947.5</ele>
        <time>2010-04-15T20:08:09.39</time>
      </trkpt>
      <trkpt lat="44.17358" lon="5.27713">
        <ele>1947.5</ele>
        <time>2010-04-15T20:08:10.40</time>
      </trkpt>
      <trkpt lat="44.17358" lon="5.27713">
        <ele>1947.5</ele>
        <time>2010-04-15T20:08:11.39</time>
      </trkpt>
      <trkpt lat="44.17358" lon="5.27713">
        <ele>1947.5</ele>
        <time>2010-04-15T20:08:12.39</time>
      </trkpt>
      <trkpt lat="44.17358" lon="5.27713">
        <ele>1947.5</ele>
        <time>2010-04-15T20:08:13.39</time>
      </trkpt>
      <trkpt lat="44.17358" lon="5.27713">
        <ele>1947.5</ele>
        <time>2010-04-15T20:08:14.39</time>
      </trkpt>
      <trkpt lat="44.17358" lon="5.27713">
        <ele>1947</ele>
        <time>2010-04-15T20:08:15.40</time>
      </trkpt>
      <trkpt lat="44.17359" lon="5.27713">
        <ele>1947</ele>
        <time>2010-04-15T20:08:16.40</time>
      </trkpt>
      <trkpt lat="44.17359" lon="5.27713">
        <ele>1947</ele>
        <time>2010-04-15T20:08:17.40</time>
      </trkpt>
      <trkpt lat="44.17358" lon="5.27713">
        <ele>1946.5</ele>
        <time>2010-04-15T20:08:18.40</time>
      </trkpt>
      <trkpt lat="44.17358" lon="5.27712">
        <ele>1946.5</ele>
        <time>2010-04-15T20:08:19.39</time>
      </trkpt>
      <trkpt lat="44.17358" lon="5.27712">
        <ele>1946.5</ele>
        <time>2010-04-15T20:08:20.38</time>
      </trkpt>
      <trkpt lat="44.17359" lon="5.27712">
        <ele>1946.5</ele>
        <time>2010-04-15T20:08:21.38</time>
      </trkpt>
      <trkpt lat="44.17359" lon="5.27712">
        <ele>1946</ele>
        <time>2010-04-15T20:08:22.38</time>
      </trkpt>
      <trkpt lat="44.17359" lon="5.27712">
        <ele>1946</ele>
        <time>2010-04-15T20:08:23.39</time>
      </trkpt>
      <trkpt lat="44.17358" lon="5.27712">
        <ele>1946</ele>
        <time>2010-04-15T20:08:24.38</time>
      </trkpt>
      <trkpt lat="44.17358" lon="5.27712">
        <ele>1946</ele>
        <time>2010-04-15T20:08:25.39</time>
      </trkpt>
      <trkpt lat="44.17357" lon="5.27712">
        <ele>1946</ele>
        <time>2010-04-15T20:08:26.38</time>
      </trkpt>
      <trkpt lat="44.17355" lon="5.27712">
        <ele>1946</ele>
        <time>2010-04-15T20:08:27.39</time>
      </trkpt>
      <trkpt lat="44.17355" lon="5.27712">
        <ele>1945.5</ele>
        <time>2010-04-15T20:08:28.39</time>
      </trkpt>
      <trkpt lat="44.17354" lon="5.27711">
        <ele>1945</ele>
        <time>2010-04-15T20:08:29.38</time>
      </trkpt>
      <trkpt lat="44.17353" lon="5.2771">
        <ele>1945</ele>
        <time>2010-04-15T20:08:30.38</time>
      </trkpt>
      <trkpt lat="44.17353" lon="5.2771">
        <ele>1945</ele>
        <time>2010-04-15T20:08:31.38</time>
      </trkpt>
      <trkpt lat="44.17353" lon="5.2771">
        <ele>1944.5</ele>
        <time>2010-04-15T20:08:32.38</time>
      </trkpt>
      <trkpt lat="44.17353" lon="5.2771">
        <ele>1944.5</ele>
        <time>2010-04-15T20:08:33.38</time>
      </trkpt>
      <trkpt lat="44.17353" lon="5.2771">
        <ele>1944</ele>
        <time>2010-04-15T20:08:34.38</time>
      </trkpt>
      <trkpt lat="44.17353" lon="5.2771">
        <ele>1944</ele>
        <time>2010-04-15T20:08:35.38</time>
      </trkpt>
      <trkpt lat="44.17353" lon="5.2771">
        <ele>1944</ele>
        <time>2010-04-15T20:08:36.39</time>
      </trkpt>
      <trkpt lat="44.17353" lon="5.2771">
        <ele>1944</ele>
        <time>2010-04-15T20:08:37.39</time>
      </trkpt>
      <trkpt lat="44.17353" lon="5.2771">
        <ele>1944</ele>
        <time>2010-04-15T20:08:38.38</time>
      </trkpt>
      <trkpt lat="44.17353" lon="5.2771">
        <ele>1944</ele>
        <time>2010-04-15T20:08:39.38</time>
      </trkpt>
      <trkpt lat="44.17353" lon="5.2771">
        <ele>1944</ele>
        <time>2010-04-15T20:08:40.39</time>
      </trkpt>
      <trkpt lat="44.17353" lon="5.2771">
        <ele>1944</ele>
        <time>2010-04-15T20:08:41.38</time>
      </trkpt>
      <trkpt lat="44.17353" lon="5.2771">
        <ele>1943.5</ele>
        <time>2010-04-15T20:08:42.39</time>
      </trkpt>
      <trkpt lat="44.17353" lon="5.2771">
        <ele>1943.5</ele>
        <time>2010-04-15T20:08:43.38</time>
      </trkpt>
      <trkpt lat="44.17353" lon="5.2771">
        <ele>1943.5</ele>
        <time>2010-04-15T20:08:44.38</time>
      </trkpt>
      <trkpt lat="44.17353" lon="5.2771">
        <ele>1943.5</ele>
        <time>2010-04-15T20:08:45.38</time>
      </trkpt>
      <trkpt lat="44.17354" lon="5.2771">
        <ele>1943.5</ele>
        <time>2010-04-15T20:08:46.38</time>
      </trkpt>
      <trkpt lat="44.17354" lon="5.2771">
        <ele>1943.5</ele>
        <time>2010-04-15T20:08:47.38</time>
      </trkpt>
      <trkpt lat="44.17354" lon="5.2771">
        <ele>1943.5</ele>
        <time>2010-04-15T20:08:48.38</time>
      </trkpt>
      <trkpt lat="44.17354" lon="5.2771">
        <ele>1943.5</ele>
        <time>2010-04-15T20:08:49.37</time>
      </trkpt>
      <trkpt lat="44.17354" lon="5.2771">
        <ele>1943.5</ele>
        <time>2010-04-15T20:08:50.37</time>
      </trkpt>
      <trkpt lat="44.17354" lon="5.2771">
        <ele>1943.5</ele>
        <time>2010-04-15T20:08:51.37</time>
      </trkpt>
      <trkpt lat="44.17354" lon="5.2771">
        <ele>1943.5</ele>
        <time>2010-04-15T20:08:52.37</time>
      </trkpt>
      <trkpt lat="44.17354" lon="5.2771">
        <ele>1943.5</ele>
        <time>2010-04-15T20:08:53.37</time>
      </trkpt>
      <trkpt lat="44.17354" lon="5.2771">
        <ele>1943.5</ele>
        <time>2010-04-15T20:08:54.38</time>
      </trkpt>
      <trkpt lat="44.17354" lon="5.2771">
        <ele>1943</ele>
        <time>2010-04-15T20:08:55.38</time>
      </trkpt>
      <trkpt lat="44.17354" lon="5.2771">
        <ele>1943</ele>
        <time>2010-04-15T20:08:56.37</time>
      </trkpt>
      <trkpt lat="44.17354" lon="5.2771">
        <ele>1943</ele>
        <time>2010-04-15T20:08:57.38</time>
      </trkpt>
      <trkpt lat="44.17354" lon="5.2771">
        <ele>1943</ele>
        <time>2010-04-15T20:08:58.38</time>
      </trkpt>
      <trkpt lat="44.17354" lon="5.2771">
        <ele>1943</ele>
        <time>2010-04-15T20:08:59.37</time>
      </trkpt>
      <trkpt lat="44.17354" lon="5.2771">
        <ele>1943</ele>
        <time>2010-04-15T20:09:00.37</time>
      </trkpt>
      <trkpt lat="44.17354" lon="5.2771">
        <ele>1943</ele>
        <time>2010-04-15T20:09:01.36</time>
      </trkpt>
      <trkpt lat="44.17354" lon="5.2771">
        <ele>1943</ele>
        <time>2010-04-15T20:09:02.36</time>
      </trkpt>
      <trkpt lat="44.17354" lon="5.2771">
        <ele>1943</ele>
        <time>2010-04-15T20:09:03.36</time>
      </trkpt>
      <trkpt lat="44.17354" lon="5.2771">
        <ele>1943</ele>
        <time>2010-04-15T20:09:04.36</time>
      </trkpt>
      <trkpt lat="44.17354" lon="5.2771">
        <ele>1943</ele>
        <time>2010-04-15T20:09:05.37</time>
      </trkpt>
      <trkpt lat="44.17354" lon="5.2771">
        <ele>1943</ele>
        <time>2010-04-15T20:09:06.37</time>
      </trkpt>
      <trkpt lat="44.17354" lon="5.2771">
        <ele>1943</ele>
        <time>2010-04-15T20:09:07.37</time>
      </trkpt>
      <trkpt lat="44.17354" lon="5.2771">
        <ele>1943</ele>
        <time>2010-04-15T20:09:08.37</time>
      </trkpt>
      <trkpt lat="44.17354" lon="5.2771">
        <ele>1943</ele>
        <time>2010-04-15T20:09:09.37</time>
      </trkpt>
      <trkpt lat="44.17354" lon="5.2771">
        <ele>1943</ele>
        <time>2010-04-15T20:09:10.36</time>
      </trkpt>
      <trkpt lat="44.17354" lon="5.2771">
        <ele>1943</ele>
        <time>2010-04-15T20:09:11.37</time>
      </trkpt>
      <trkpt lat="44.17354" lon="5.2771">
        <ele>1943</ele>
        <time>2010-04-15T20:09:12.37</time>
      </trkpt>
      <trkpt lat="44.17354" lon="5.2771">
        <ele>1943</ele>
        <time>2010-04-15T20:09:13.37</time>
      </trkpt>
      <trkpt lat="44.17354" lon="5.2771">
        <ele>1943</ele>
        <time>2010-04-15T20:09:14.36</time>
      </trkpt>
      <trkpt lat="44.17354" lon="5.2771">
        <ele>1943</ele>
        <time>2010-04-15T20:09:15.36</time>
      </trkpt>
      <trkpt lat="44.17354" lon="5.2771">
        <ele>1943</ele>
        <time>2010-04-15T20:09:16.36</time>
      </trkpt>
      <trkpt lat="44.17354" lon="5.2771">
        <ele>1943</ele>
        <time>2010-04-15T20:09:17.36</time>
      </trkpt>
      <trkpt lat="44.17354" lon="5.2771">
        <ele>1943</ele>
        <time>2010-04-15T20:09:18.36</time>
      </trkpt>
      <trkpt lat="44.17354" lon="5.2771">
        <ele>1943</ele>
        <time>2010-04-15T20:09:19.36</time>
      </trkpt>
      <trkpt lat="44.17354" lon="5.2771">
        <ele>1943</ele>
        <time>2010-04-15T20:09:20.35</time>
      </trkpt>
      <trkpt lat="44.17354" lon="5.2771">
        <ele>1943</ele>
        <time>2010-04-15T20:09:21.35</time>
      </trkpt>
      <trkpt lat="44.17354" lon="5.2771">
        <ele>1943</ele>
        <time>2010-04-15T20:09:22.36</time>
      </trkpt>
      <trkpt lat="44.17354" lon="5.2771">
        <ele>1943</ele>
        <time>2010-04-15T20:09:23.36</time>
      </trkpt>
      <trkpt lat="44.17354" lon="5.2771">
        <ele>1943</ele>
        <time>2010-04-15T20:09:24.35</time>
      </trkpt>
      <trkpt lat="44.17354" lon="5.2771">
        <ele>1943</ele>
        <time>2010-04-15T20:09:25.35</time>
      </trkpt>
      <trkpt lat="44.17354" lon="5.2771">
        <ele>1943</ele>
        <time>2010-04-15T20:09:26.35</time>
      </trkpt>
      <trkpt lat="44.17354" lon="5.2771">
        <ele>1943</ele>
        <time>2010-04-15T20:09:27.35</time>
      </trkpt>
      <trkpt lat="44.17354" lon="5.2771">
        <ele>1943</ele>
        <time>2010-04-15T20:09:28.34</time>
      </trkpt>
      <trkpt lat="44.17354" lon="5.2771">
        <ele>1943</ele>
        <time>2010-04-15T20:09:29.35</time>
      </trkpt>
      <trkpt lat="44.17354" lon="5.2771">
        <ele>1943</ele>
        <time>2010-04-15T20:09:30.35</time>
      </trkpt>
      <trkpt lat="44.17354" lon="5.2771">
        <ele>1943</ele>
        <time>2010-04-15T20:09:31.35</time>
      </trkpt>
      <trkpt lat="44.17354" lon="5.2771">
        <ele>1943</ele>
        <time>2010-04-15T20:09:32.36</time>
      </trkpt>
      <trkpt lat="44.17354" lon="5.2771">
        <ele>1943</ele>
        <time>2010-04-15T20:09:33.35</time>
      </trkpt>
      <trkpt lat="44.17354" lon="5.2771">
        <ele>1943</ele>
        <time>2010-04-15T20:09:34.34</time>
      </trkpt>
      <trkpt lat="44.17354" lon="5.2771">
        <ele>1943</ele>
        <time>2010-04-15T20:09:35.34</time>
      </trkpt>
      <trkpt lat="44.17354" lon="5.2771">
        <ele>1943</ele>
        <time>2010-04-15T20:09:36.34</time>
      </trkpt>
      <trkpt lat="44.17354" lon="5.2771">
        <ele>1943</ele>
        <time>2010-04-15T20:09:37.34</time>
      </trkpt>
      <trkpt lat="44.17354" lon="5.2771">
        <ele>1942.5</ele>
        <time>2010-04-15T20:09:38.35</time>
      </trkpt>
      <trkpt lat="44.17354" lon="5.2771">
        <ele>1942.5</ele>
        <time>2010-04-15T20:09:39.34</time>
      </trkpt>
      <trkpt lat="44.17354" lon="5.2771">
        <ele>1942.5</ele>
        <time>2010-04-15T20:09:40.34</time>
      </trkpt>
      <trkpt lat="44.17354" lon="5.2771">
        <ele>1942.5</ele>
        <time>2010-04-15T20:09:41.35</time>
      </trkpt>
      <trkpt lat="44.17354" lon="5.2771">
        <ele>1942.5</ele>
        <time>2010-04-15T20:09:42.35</time>
      </trkpt>
      <trkpt lat="44.17354" lon="5.2771">
        <ele>1942.5</ele>
        <time>2010-04-15T20:09:43.34</time>
      </trkpt>
      <trkpt lat="44.17354" lon="5.2771">
        <ele>1942.5</ele>
        <time>2010-04-15T20:09:44.34</time>
      </trkpt>
      <trkpt lat="44.17354" lon="5.2771">
        <ele>1942.5</ele>
        <time>2010-04-15T20:09:45.34</time>
      </trkpt>
      <trkpt lat="44.17354" lon="5.2771">
        <ele>1942.5</ele>
        <time>2010-04-15T20:09:46.34</time>
      </trkpt>
      <trkpt lat="44.17354" lon="5.2771">
        <ele>1942.5</ele>
        <time>2010-04-15T20:09:47.33</time>
      </trkpt>
      <trkpt lat="44.17354" lon="5.2771">
        <ele>1942.5</ele>
        <time>2010-04-15T20:09:48.34</time>
      </trkpt>
      <trkpt lat="44.17354" lon="5.2771">
        <ele>1942.5</ele>
        <time>2010-04-15T20:09:49.35</time>
      </trkpt>
      <trkpt lat="44.17354" lon="5.2771">
        <ele>1942.5</ele>
        <time>2010-04-15T20:09:50.33</time>
      </trkpt>
      <trkpt lat="44.17354" lon="5.2771">
        <ele>1942.5</ele>
        <time>2010-04-15T20:09:51.33</time>
      </trkpt>
      <trkpt lat="44.17354" lon="5.2771">
        <ele>1942.5</ele>
        <time>2010-04-15T20:09:52.33</time>
      </trkpt>
      <trkpt lat="44.17354" lon="5.2771">
        <ele>1942.5</ele>
        <time>2010-04-15T20:09:53.33</time>
      </trkpt>
      <trkpt lat="44.17354" lon="5.2771">
        <ele>1942.5</ele>
        <time>2010-04-15T20:09:54.34</time>
      </trkpt>
      <trkpt lat="44.17354" lon="5.2771">
        <ele>1942.5</ele>
        <time>2010-04-15T20:09:55.34</time>
      </trkpt>
      <trkpt lat="44.17354" lon="5.2771">
        <ele>1942.5</ele>
        <time>2010-04-15T20:09:56.34</time>
      </trkpt>
      <trkpt lat="44.17354" lon="5.2771">
        <ele>1942.5</ele>
        <time>2010-04-15T20:09:57.34</time>
      </trkpt>
      <trkpt lat="44.17354" lon="5.2771">
        <ele>1942.5</ele>
        <time>2010-04-15T20:09:58.34</time>
      </trkpt>
      <trkpt lat="44.17354" lon="5.2771">
        <ele>1942.5</ele>
        <time>2010-04-15T20:09:59.34</time>
      </trkpt>
      <trkpt lat="44.17354" lon="5.2771">
        <ele>1942.5</ele>
        <time>2010-04-15T20:10:00.34</time>
      </trkpt>
      <trkpt lat="44.17354" lon="5.2771">
        <ele>1942.5</ele>
        <time>2010-04-15T20:10:01.34</time>
      </trkpt>
      <trkpt lat="44.17354" lon="5.2771">
        <ele>1942.5</ele>
        <time>2010-04-15T20:10:02.34</time>
      </trkpt>
      <trkpt lat="44.17354" lon="5.2771">
        <ele>1942.5</ele>
        <time>2010-04-15T20:10:03.34</time>
      </trkpt>
      <trkpt lat="44.17354" lon="5.2771">
        <ele>1942.5</ele>
        <time>2010-04-15T20:10:04.34</time>
      </trkpt>
      <trkpt lat="44.17354" lon="5.2771">
        <ele>1942.5</ele>
        <time>2010-04-15T20:10:05.34</time>
      </trkpt>
      <trkpt lat="44.17354" lon="5.2771">
        <ele>1942.5</ele>
        <time>2010-04-15T20:10:06.34</time>
      </trkpt>
      <trkpt lat="44.17354" lon="5.2771">
        <ele>1942.5</ele>
        <time>2010-04-15T20:10:07.34</time>
      </trkpt>
      <trkpt lat="44.17354" lon="5.2771">
        <ele>1942.5</ele>
        <time>2010-04-15T20:10:08.33</time>
      </trkpt>
      <trkpt lat="44.17354" lon="5.2771">
        <ele>1942.5</ele>
        <time>2010-04-15T20:10:09.33</time>
      </trkpt>
      <trkpt lat="44.17354" lon="5.2771">
        <ele>1942.5</ele>
        <time>2010-04-15T20:10:10.33</time>
      </trkpt>
      <trkpt lat="44.17354" lon="5.2771">
        <ele>1942.5</ele>
        <time>2010-04-15T20:10:11.33</time>
      </trkpt>
      <trkpt lat="44.17354" lon="5.2771">
        <ele>1942.5</ele>
        <time>2010-04-15T20:10:12.33</time>
      </trkpt>
      <trkpt lat="44.17354" lon="5.2771">
        <ele>1942.5</ele>
        <time>2010-04-15T20:10:13.33</time>
      </trkpt>
      <trkpt lat="44.17354" lon="5.2771">
        <ele>1942.5</ele>
        <time>2010-04-15T20:10:14.32</time>
      </trkpt>
      <trkpt lat="44.17354" lon="5.2771">
        <ele>1942.5</ele>
        <time>2010-04-15T20:10:15.33</time>
      </trkpt>
      <trkpt lat="44.17354" lon="5.2771">
        <ele>1942.5</ele>
        <time>2010-04-15T20:10:16.33</time>
      </trkpt>
      <trkpt lat="44.17354" lon="5.2771">
        <ele>1942.5</ele>
        <time>2010-04-15T20:10:17.32</time>
      </trkpt>
      <trkpt lat="44.17354" lon="5.2771">
        <ele>1942.5</ele>
        <time>2010-04-15T20:10:18.33</time>
      </trkpt>
      <trkpt lat="44.17354" lon="5.2771">
        <ele>1942.5</ele>
        <time>2010-04-15T20:10:19.33</time>
      </trkpt>
      <trkpt lat="44.17354" lon="5.2771">
        <ele>1942.5</ele>
        <time>2010-04-15T20:10:20.32</time>
      </trkpt>
      <trkpt lat="44.17354" lon="5.2771">
        <ele>1942.5</ele>
        <time>2010-04-15T20:10:21.32</time>
      </trkpt>
      <trkpt lat="44.17354" lon="5.2771">
        <ele>1942.5</ele>
        <time>2010-04-15T20:10:22.36</time>
      </trkpt>
      <trkpt lat="44.17354" lon="5.2771">
        <ele>1942.5</ele>
        <time>2010-04-15T20:10:23.32</time>
      </trkpt>
      <trkpt lat="44.17354" lon="5.2771">
        <ele>1942</ele>
        <time>2010-04-15T20:10:24.32</time>
      </trkpt>
      <trkpt lat="44.17354" lon="5.2771">
        <ele>1942</ele>
        <time>2010-04-15T20:10:25.32</time>
      </trkpt>
      <trkpt lat="44.17354" lon="5.2771">
        <ele>1942</ele>
        <time>2010-04-15T20:10:26.32</time>
      </trkpt>
      <trkpt lat="44.17354" lon="5.2771">
        <ele>1942</ele>
        <time>2010-04-15T20:10:27.32</time>
      </trkpt>
      <trkpt lat="44.17354" lon="5.2771">
        <ele>1942</ele>
        <time>2010-04-15T20:10:28.32</time>
      </trkpt>
      <trkpt lat="44.17354" lon="5.2771">
        <ele>1942</ele>
        <time>2010-04-15T20:10:29.32</time>
      </trkpt>
      <trkpt lat="44.17354" lon="5.2771">
        <ele>1942</ele>
        <time>2010-04-15T20:10:30.32</time>
      </trkpt>
      <trkpt lat="44.17354" lon="5.2771">
        <ele>1942</ele>
        <time>2010-04-15T20:10:31.32</time>
      </trkpt>
      <trkpt lat="44.17354" lon="5.2771">
        <ele>1942</ele>
        <time>2010-04-15T20:10:32.32</time>
      </trkpt>
      <trkpt lat="44.17354" lon="5.2771">
        <ele>1942</ele>
        <time>2010-04-15T20:10:33.32</time>
      </trkpt>
      <trkpt lat="44.17354" lon="5.2771">
        <ele>1942</ele>
        <time>2010-04-15T20:10:34.32</time>
      </trkpt>
      <trkpt lat="44.17354" lon="5.2771">
        <ele>1942</ele>
        <time>2010-04-15T20:10:35.32</time>
      </trkpt>
      <trkpt lat="44.17354" lon="5.2771">
        <ele>1942</ele>
        <time>2010-04-15T20:10:36.32</time>
      </trkpt>
      <trkpt lat="44.17354" lon="5.2771">
        <ele>1942</ele>
        <time>2010-04-15T20:10:37.32</time>
      </trkpt>
      <trkpt lat="44.17354" lon="5.2771">
        <ele>1942</ele>
        <time>2010-04-15T20:10:38.32</time>
      </trkpt>
      <trkpt lat="44.17354" lon="5.2771">
        <ele>1942</ele>
        <time>2010-04-15T20:10:39.32</time>
      </trkpt>
      <trkpt lat="44.17354" lon="5.2771">
        <ele>1942</ele>
        <time>2010-04-15T20:10:40.32</time>
      </trkpt>
      <trkpt lat="44.17354" lon="5.2771">
        <ele>1942</ele>
        <time>2010-04-15T20:10:41.32</time>
      </trkpt>
      <trkpt lat="44.17354" lon="5.2771">
        <ele>1942.5</ele>
        <time>2010-04-15T20:10:42.33</time>
      </trkpt>
      <trkpt lat="44.17354" lon="5.27709">
        <ele>1942</ele>
        <time>2010-04-15T20:10:43.32</time>
      </trkpt>
      <trkpt lat="44.17355" lon="5.27709">
        <ele>1941.5</ele>
        <time>2010-04-15T20:10:44.32</time>
      </trkpt>
      <trkpt lat="44.17355" lon="5.27709">
        <ele>1941</ele>
        <time>2010-04-15T20:10:45.32</time>
      </trkpt>
      <trkpt lat="44.17355" lon="5.27709">
        <ele>1941</ele>
        <time>2010-04-15T20:10:46.31</time>
      </trkpt>
      <trkpt lat="44.17355" lon="5.27709">
        <ele>1940.5</ele>
        <time>2010-04-15T20:10:47.31</time>
      </trkpt>
      <trkpt lat="44.17355" lon="5.27709">
        <ele>1940.5</ele>
        <time>2010-04-15T20:10:48.31</time>
      </trkpt>
      <trkpt lat="44.17355" lon="5.27709">
        <ele>1940.5</ele>
        <time>2010-04-15T20:10:49.31</time>
      </trkpt>
      <trkpt lat="44.17355" lon="5.27708">
        <ele>1940.5</ele>
        <time>2010-04-15T20:10:50.31</time>
      </trkpt>
      <trkpt lat="44.17355" lon="5.27708">
        <ele>1940.5</ele>
        <time>2010-04-15T20:10:51.31</time>
      </trkpt>
      <trkpt lat="44.17355" lon="5.27708">
        <ele>1940.5</ele>
        <time>2010-04-15T20:10:52.30</time>
      </trkpt>
      <trkpt lat="44.17355" lon="5.27708">
        <ele>1940</ele>
        <time>2010-04-15T20:10:53.30</time>
      </trkpt>
      <trkpt lat="44.17355" lon="5.27708">
        <ele>1940</ele>
        <time>2010-04-15T20:10:54.30</time>
      </trkpt>
      <trkpt lat="44.17355" lon="5.27708">
        <ele>1940.5</ele>
        <time>2010-04-15T20:10:55.30</time>
      </trkpt>
      <trkpt lat="44.17355" lon="5.27708">
        <ele>1940</ele>
        <time>2010-04-15T20:10:56.31</time>
      </trkpt>
      <trkpt lat="44.17355" lon="5.27708">
        <ele>1940</ele>
        <time>2010-04-15T20:10:57.31</time>
      </trkpt>
      <trkpt lat="44.17355" lon="5.27708">
        <ele>1940</ele>
        <time>2010-04-15T20:10:58.31</time>
      </trkpt>
      <trkpt lat="44.17355" lon="5.27708">
        <ele>1940</ele>
        <time>2010-04-15T20:10:59.31</time>
      </trkpt>
      <trkpt lat="44.17355" lon="5.27708">
        <ele>1940</ele>
        <time>2010-04-15T20:11:00.31</time>
      </trkpt>
      <trkpt lat="44.17355" lon="5.27708">
        <ele>1940</ele>
        <time>2010-04-15T20:11:01.31</time>
      </trkpt>
      <trkpt lat="44.17355" lon="5.27708">
        <ele>1940</ele>
        <time>2010-04-15T20:11:02.31</time>
      </trkpt>
      <trkpt lat="44.17355" lon="5.27708">
        <ele>1940</ele>
        <time>2010-04-15T20:11:03.30</time>
      </trkpt>
      <trkpt lat="44.17355" lon="5.27708">
        <ele>1940</ele>
        <time>2010-04-15T20:11:04.31</time>
      </trkpt>
      <trkpt lat="44.17355" lon="5.27708">
        <ele>1940</ele>
        <time>2010-04-15T20:11:05.30</time>
      </trkpt>
      <trkpt lat="44.17355" lon="5.27708">
        <ele>1940</ele>
        <time>2010-04-15T20:11:06.30</time>
      </trkpt>
      <trkpt lat="44.17355" lon="5.27708">
        <ele>1940</ele>
        <time>2010-04-15T20:11:07.29</time>
      </trkpt>
      <trkpt lat="44.17355" lon="5.27708">
        <ele>1940</ele>
        <time>2010-04-15T20:11:08.29</time>
      </trkpt>
      <trkpt lat="44.17355" lon="5.27708">
        <ele>1940</ele>
        <time>2010-04-15T20:11:09.30</time>
      </trkpt>
      <trkpt lat="44.17355" lon="5.27708">
        <ele>1940</ele>
        <time>2010-04-15T20:11:10.29</time>
      </trkpt>
      <trkpt lat="44.17355" lon="5.27707">
        <ele>1940.5</ele>
        <time>2010-04-15T20:11:11.29</time>
      </trkpt>
      <trkpt lat="44.17355" lon="5.27708">
        <ele>1941.5</ele>
        <time>2010-04-15T20:11:12.29</time>
      </trkpt>
      <trkpt lat="44.17355" lon="5.27708">
        <ele>1941.5</ele>
        <time>2010-04-15T20:11:13.29</time>
      </trkpt>
      <trkpt lat="44.17355" lon="5.27708">
        <ele>1941.5</ele>
        <time>2010-04-15T20:11:14.29</time>
      </trkpt>
      <trkpt lat="44.17355" lon="5.27708">
        <ele>1941.5</ele>
        <time>2010-04-15T20:11:15.29</time>
      </trkpt>
      <trkpt lat="44.17355" lon="5.27708">
        <ele>1941.5</ele>
        <time>2010-04-15T20:11:16.29</time>
      </trkpt>
      <trkpt lat="44.17355" lon="5.27708">
        <ele>1941.5</ele>
        <time>2010-04-15T20:11:17.29</time>
      </trkpt>
      <trkpt lat="44.17355" lon="5.27708">
        <ele>1941.5</ele>
        <time>2010-04-15T20:11:18.29</time>
      </trkpt>
      <trkpt lat="44.17355" lon="5.27708">
        <ele>1941.5</ele>
        <time>2010-04-15T20:11:19.29</time>
      </trkpt>
      <trkpt lat="44.17355" lon="5.27708">
        <ele>1941</ele>
        <time>2010-04-15T20:11:20.29</time>
      </trkpt>
      <trkpt lat="44.17355" lon="5.27708">
        <ele>1941</ele>
        <time>2010-04-15T20:11:21.29</time>
      </trkpt>
      <trkpt lat="44.17355" lon="5.27707">
        <ele>1940.5</ele>
        <time>2010-04-15T20:11:22.29</time>
      </trkpt>
      <trkpt lat="44.17355" lon="5.27707">
        <ele>1940.5</ele>
        <time>2010-04-15T20:11:23.29</time>
      </trkpt>
      <trkpt lat="44.17355" lon="5.27707">
        <ele>1940.5</ele>
        <time>2010-04-15T20:11:24.29</time>
      </trkpt>
      <trkpt lat="44.17355" lon="5.27707">
        <ele>1940.5</ele>
        <time>2010-04-15T20:11:25.29</time>
      </trkpt>
      <trkpt lat="44.17355" lon="5.27707">
        <ele>1940</ele>
        <time>2010-04-15T20:11:26.28</time>
      </trkpt>
      <trkpt lat="44.17355" lon="5.27707">
        <ele>1940</ele>
        <time>2010-04-15T20:11:27.28</time>
      </trkpt>
      <trkpt lat="44.17355" lon="5.27707">
        <ele>1940</ele>
        <time>2010-04-15T20:11:28.28</time>
      </trkpt>
      <trkpt lat="44.17355" lon="5.27707">
        <ele>1940</ele>
        <time>2010-04-15T20:11:29.28</time>
      </trkpt>
      <trkpt lat="44.17355" lon="5.27707">
        <ele>1940</ele>
        <time>2010-04-15T20:11:30.28</time>
      </trkpt>
      <trkpt lat="44.17355" lon="5.27707">
        <ele>1940</ele>
        <time>2010-04-15T20:11:31.28</time>
      </trkpt>
      <trkpt lat="44.17355" lon="5.27707">
        <ele>1940</ele>
        <time>2010-04-15T20:11:32.28</time>
      </trkpt>
      <trkpt lat="44.17355" lon="5.27707">
        <ele>1940</ele>
        <time>2010-04-15T20:11:33.28</time>
      </trkpt>
      <trkpt lat="44.17355" lon="5.27707">
        <ele>1940</ele>
        <time>2010-04-15T20:11:34.28</time>
      </trkpt>
      <trkpt lat="44.17355" lon="5.27707">
        <ele>1940</ele>
        <time>2010-04-15T20:11:35.28</time>
      </trkpt>
      <trkpt lat="44.17355" lon="5.27707">
        <ele>1940</ele>
        <time>2010-04-15T20:11:36.28</time>
      </trkpt>
      <trkpt lat="44.17355" lon="5.27707">
        <ele>1940</ele>
        <time>2010-04-15T20:11:37.28</time>
      </trkpt>
      <trkpt lat="44.17355" lon="5.27707">
        <ele>1939.5</ele>
        <time>2010-04-15T20:11:38.28</time>
      </trkpt>
      <trkpt lat="44.17355" lon="5.27707">
        <ele>1939.5</ele>
        <time>2010-04-15T20:11:39.28</time>
      </trkpt>
      <trkpt lat="44.17355" lon="5.27707">
        <ele>1939.5</ele>
        <time>2010-04-15T20:11:40.28</time>
      </trkpt>
      <trkpt lat="44.17355" lon="5.27707">
        <ele>1939.5</ele>
        <time>2010-04-15T20:11:41.28</time>
      </trkpt>
      <trkpt lat="44.17355" lon="5.27707">
        <ele>1939.5</ele>
        <time>2010-04-15T20:11:42.28</time>
      </trkpt>
      <trkpt lat="44.17355" lon="5.27707">
        <ele>1939.5</ele>
        <time>2010-04-15T20:11:43.28</time>
      </trkpt>
      <trkpt lat="44.17355" lon="5.27707">
        <ele>1939.5</ele>
        <time>2010-04-15T20:11:44.27</time>
      </trkpt>
      <trkpt lat="44.17355" lon="5.27707">
        <ele>1939.5</ele>
        <time>2010-04-15T20:11:45.28</time>
      </trkpt>
      <trkpt lat="44.17355" lon="5.27707">
        <ele>1939.5</ele>
        <time>2010-04-15T20:11:46.27</time>
      </trkpt>
      <trkpt lat="44.17355" lon="5.27707">
        <ele>1939.5</ele>
        <time>2010-04-15T20:11:47.27</time>
      </trkpt>
      <trkpt lat="44.17355" lon="5.27707">
        <ele>1939.5</ele>
        <time>2010-04-15T20:11:48.27</time>
      </trkpt>
      <trkpt lat="44.17355" lon="5.27707">
        <ele>1939.5</ele>
        <time>2010-04-15T20:11:49.27</time>
      </trkpt>
      <trkpt lat="44.17355" lon="5.27707">
        <ele>1939.5</ele>
        <time>2010-04-15T20:11:50.27</time>
      </trkpt>
      <trkpt lat="44.17355" lon="5.27707">
        <ele>1939.5</ele>
        <time>2010-04-15T20:11:51.27</time>
      </trkpt>
      <trkpt lat="44.17355" lon="5.27707">
        <ele>1939.5</ele>
        <time>2010-04-15T20:11:52.27</time>
      </trkpt>
      <trkpt lat="44.17355" lon="5.27707">
        <ele>1939.5</ele>
        <time>2010-04-15T20:11:53.27</time>
      </trkpt>
      <trkpt lat="44.17355" lon="5.27707">
        <ele>1939.5</ele>
        <time>2010-04-15T20:11:54.27</time>
      </trkpt>
      <trkpt lat="44.17355" lon="5.27707">
        <ele>1939.5</ele>
        <time>2010-04-15T20:11:55.27</time>
      </trkpt>
      <trkpt lat="44.17355" lon="5.27707">
        <ele>1939.5</ele>
        <time>2010-04-15T20:11:56.27</time>
      </trkpt>
      <trkpt lat="44.17355" lon="5.27707">
        <ele>1939.5</ele>
        <time>2010-04-15T20:11:57.27</time>
      </trkpt>
      <trkpt lat="44.17355" lon="5.27707">
        <ele>1939.5</ele>
        <time>2010-04-15T20:11:58.27</time>
      </trkpt>
      <trkpt lat="44.17355" lon="5.27707">
        <ele>1939.5</ele>
        <time>2010-04-15T20:11:59.27</time>
      </trkpt>
      <trkpt lat="44.17355" lon="5.27707">
        <ele>1939.5</ele>
        <time>2010-04-15T20:12:00.27</time>
      </trkpt>
      <trkpt lat="44.17355" lon="5.27707">
        <ele>1939.5</ele>
        <time>2010-04-15T20:12:01.27</time>
      </trkpt>
      <trkpt lat="44.17355" lon="5.27707">
        <ele>1939.5</ele>
        <time>2010-04-15T20:12:02.27</time>
      </trkpt>
      <trkpt lat="44.17355" lon="5.27707">
        <ele>1939.5</ele>
        <time>2010-04-15T20:12:03.26</time>
      </trkpt>
      <trkpt lat="44.17355" lon="5.27707">
        <ele>1939.5</ele>
        <time>2010-04-15T20:12:04.27</time>
      </trkpt>
      <trkpt lat="44.17355" lon="5.27707">
        <ele>1939</ele>
        <time>2010-04-15T20:12:05.27</time>
      </trkpt>
      <trkpt lat="44.17355" lon="5.27707">
        <ele>1939.5</ele>
        <time>2010-04-15T20:12:06.26</time>
      </trkpt>
      <trkpt lat="44.17355" lon="5.27707">
        <ele>1939.5</ele>
        <time>2010-04-15T20:12:07.26</time>
      </trkpt>
      <trkpt lat="44.17355" lon="5.27706">
        <ele>1939.5</ele>
        <time>2010-04-15T20:12:08.26</time>
      </trkpt>
      <trkpt lat="44.17355" lon="5.27706">
        <ele>1939.5</ele>
        <time>2010-04-15T20:12:09.26</time>
      </trkpt>
      <trkpt lat="44.17355" lon="5.27706">
        <ele>1940</ele>
        <time>2010-04-15T20:12:10.26</time>
      </trkpt>
      <trkpt lat="44.17355" lon="5.27706">
        <ele>1940</ele>
        <time>2010-04-15T20:12:11.26</time>
      </trkpt>
      <trkpt lat="44.17356" lon="5.27706">
        <ele>1940</ele>
        <time>2010-04-15T20:12:12.26</time>
      </trkpt>
      <trkpt lat="44.17355" lon="5.27706">
        <ele>1940</ele>
        <time>2010-04-15T20:12:13.26</time>
      </trkpt>
      <trkpt lat="44.17356" lon="5.27706">
        <ele>1940.5</ele>
        <time>2010-04-15T20:12:14.26</time>
      </trkpt>
      <trkpt lat="44.17356" lon="5.27706">
        <ele>1940</ele>
        <time>2010-04-15T20:12:15.26</time>
      </trkpt>
      <trkpt lat="44.17356" lon="5.27706">
        <ele>1940</ele>
        <time>2010-04-15T20:12:16.26</time>
      </trkpt>
      <trkpt lat="44.17356" lon="5.27706">
        <ele>1940.5</ele>
        <time>2010-04-15T20:12:17.26</time>
      </trkpt>
      <trkpt lat="44.17356" lon="5.27706">
        <ele>1940.5</ele>
        <time>2010-04-15T20:12:18.25</time>
      </trkpt>
      <trkpt lat="44.17356" lon="5.27706">
        <ele>1940.5</ele>
        <time>2010-04-15T20:12:19.25</time>
      </trkpt>
      <trkpt lat="44.17356" lon="5.27706">
        <ele>1940.5</ele>
        <time>2010-04-15T20:12:20.25</time>
      </trkpt>
      <trkpt lat="44.17356" lon="5.27706">
        <ele>1940.5</ele>
        <time>2010-04-15T20:12:21.25</time>
      </trkpt>
      <trkpt lat="44.17356" lon="5.27706">
        <ele>1940.5</ele>
        <time>2010-04-15T20:12:22.25</time>
      </trkpt>
      <trkpt lat="44.17356" lon="5.27706">
        <ele>1940.5</ele>
        <time>2010-04-15T20:12:23.25</time>
      </trkpt>
      <trkpt lat="44.17356" lon="5.27706">
        <ele>1940.5</ele>
        <time>2010-04-15T20:12:24.25</time>
      </trkpt>
      <trkpt lat="44.17356" lon="5.27706">
        <ele>1940.5</ele>
        <time>2010-04-15T20:12:25.25</time>
      </trkpt>
      <trkpt lat="44.17356" lon="5.27706">
        <ele>1940.5</ele>
        <time>2010-04-15T20:12:26.25</time>
      </trkpt>
      <trkpt lat="44.17356" lon="5.27706">
        <ele>1940</ele>
        <time>2010-04-15T20:12:27.25</time>
      </trkpt>
      <trkpt lat="44.17356" lon="5.27706">
        <ele>1940</ele>
        <time>2010-04-15T20:12:28.26</time>
      </trkpt>
      <trkpt lat="44.17356" lon="5.27706">
        <ele>1940</ele>
        <time>2010-04-15T20:12:29.26</time>
      </trkpt>
      <trkpt lat="44.17356" lon="5.27706">
        <ele>1940</ele>
        <time>2010-04-15T20:12:30.26</time>
      </trkpt>
      <trkpt lat="44.17356" lon="5.27706">
        <ele>1940</ele>
        <time>2010-04-15T20:12:31.26</time>
      </trkpt>
      <trkpt lat="44.17356" lon="5.27706">
        <ele>1940</ele>
        <time>2010-04-15T20:12:32.25</time>
      </trkpt>
      <trkpt lat="44.17356" lon="5.27706">
        <ele>1940</ele>
        <time>2010-04-15T20:12:33.26</time>
      </trkpt>
      <trkpt lat="44.17356" lon="5.27706">
        <ele>1940</ele>
        <time>2010-04-15T20:12:34.25</time>
      </trkpt>
      <trkpt lat="44.17356" lon="5.27706">
        <ele>1940</ele>
        <time>2010-04-15T20:12:35.25</time>
      </trkpt>
      <trkpt lat="44.17356" lon="5.27706">
        <ele>1940</ele>
        <time>2010-04-15T20:12:36.25</time>
      </trkpt>
      <trkpt lat="44.17356" lon="5.27706">
        <ele>1940</ele>
        <time>2010-04-15T20:12:37.25</time>
      </trkpt>
      <trkpt lat="44.17356" lon="5.27706">
        <ele>1940</ele>
        <time>2010-04-15T20:12:38.25</time>
      </trkpt>
      <trkpt lat="44.17356" lon="5.27706">
        <ele>1940</ele>
        <time>2010-04-15T20:12:39.25</time>
      </trkpt>
      <trkpt lat="44.17356" lon="5.27706">
        <ele>1940</ele>
        <time>2010-04-15T20:12:40.25</time>
      </trkpt>
      <trkpt lat="44.17356" lon="5.27706">
        <ele>1940</ele>
        <time>2010-04-15T20:12:41.25</time>
      </trkpt>
      <trkpt lat="44.17356" lon="5.27706">
        <ele>1940</ele>
        <time>2010-04-15T20:12:42.28</time>
      </trkpt>
      <trkpt lat="44.17356" lon="5.27706">
        <ele>1940</ele>
        <time>2010-04-15T20:12:43.25</time>
      </trkpt>
      <trkpt lat="44.17356" lon="5.27706">
        <ele>1940</ele>
        <time>2010-04-15T20:12:44.25</time>
      </trkpt>
      <trkpt lat="44.17356" lon="5.27706">
        <ele>1940.5</ele>
        <time>2010-04-15T20:12:45.25</time>
      </trkpt>
      <trkpt lat="44.17356" lon="5.27706">
        <ele>1940.5</ele>
        <time>2010-04-15T20:12:46.24</time>
      </trkpt>
      <trkpt lat="44.17356" lon="5.27706">
        <ele>1940.5</ele>
        <time>2010-04-15T20:12:47.24</time>
      </trkpt>
      <trkpt lat="44.17356" lon="5.27706">
        <ele>1940.5</ele>
        <time>2010-04-15T20:12:48.24</time>
      </trkpt>
      <trkpt lat="44.17356" lon="5.27706">
        <ele>1940.5</ele>
        <time>2010-04-15T20:12:49.25</time>
      </trkpt>
      <trkpt lat="44.17356" lon="5.27706">
        <ele>1940.5</ele>
        <time>2010-04-15T20:12:50.24</time>
      </trkpt>
      <trkpt lat="44.17357" lon="5.27706">
        <ele>1940.5</ele>
        <time>2010-04-15T20:12:51.24</time>
      </trkpt>
      <trkpt lat="44.17357" lon="5.27706">
        <ele>1940.5</ele>
        <time>2010-04-15T20:12:52.24</time>
      </trkpt>
      <trkpt lat="44.17357" lon="5.27706">
        <ele>1940.5</ele>
        <time>2010-04-15T20:12:53.24</time>
      </trkpt>
      <trkpt lat="44.17357" lon="5.27705">
        <ele>1940</ele>
        <time>2010-04-15T20:12:54.23</time>
      </trkpt>
      <trkpt lat="44.17356" lon="5.27705">
        <ele>1940</ele>
        <time>2010-04-15T20:12:55.23</time>
      </trkpt>
      <trkpt lat="44.17356" lon="5.27705">
        <ele>1940</ele>
        <time>2010-04-15T20:12:56.23</time>
      </trkpt>
      <trkpt lat="44.17356" lon="5.27705">
        <ele>1940</ele>
        <time>2010-04-15T20:12:57.23</time>
      </trkpt>
      <trkpt lat="44.17356" lon="5.27705">
        <ele>1939.5</ele>
        <time>2010-04-15T20:12:58.23</time>
      </trkpt>
      <trkpt lat="44.17356" lon="5.27705">
        <ele>1940</ele>
        <time>2010-04-15T20:12:59.24</time>
      </trkpt>
      <trkpt lat="44.17356" lon="5.27705">
        <ele>1940</ele>
        <time>2010-04-15T20:13:00.23</time>
      </trkpt>
      <trkpt lat="44.17356" lon="5.27705">
        <ele>1940</ele>
        <time>2010-04-15T20:13:01.24</time>
      </trkpt>
      <trkpt lat="44.17356" lon="5.27705">
        <ele>1939.5</ele>
        <time>2010-04-15T20:13:02.23</time>
      </trkpt>
      <trkpt lat="44.17356" lon="5.27705">
        <ele>1939.5</ele>
        <time>2010-04-15T20:13:03.24</time>
      </trkpt>
      <trkpt lat="44.17356" lon="5.27705">
        <ele>1939.5</ele>
        <time>2010-04-15T20:13:04.24</time>
      </trkpt>
      <trkpt lat="44.17356" lon="5.27705">
        <ele>1939.5</ele>
        <time>2010-04-15T20:13:05.24</time>
      </trkpt>
      <trkpt lat="44.17356" lon="5.27705">
        <ele>1939.5</ele>
        <time>2010-04-15T20:13:06.23</time>
      </trkpt>
      <trkpt lat="44.17356" lon="5.27705">
        <ele>1939.5</ele>
        <time>2010-04-15T20:13:07.23</time>
      </trkpt>
      <trkpt lat="44.17356" lon="5.27705">
        <ele>1939.5</ele>
        <time>2010-04-15T20:13:08.23</time>
      </trkpt>
      <trkpt lat="44.17356" lon="5.27705">
        <ele>1939.5</ele>
        <time>2010-04-15T20:13:09.23</time>
      </trkpt>
      <trkpt lat="44.17356" lon="5.27705">
        <ele>1939.5</ele>
        <time>2010-04-15T20:13:10.23</time>
      </trkpt>
      <trkpt lat="44.17356" lon="5.27705">
        <ele>1939.5</ele>
        <time>2010-04-15T20:13:11.23</time>
      </trkpt>
      <trkpt lat="44.17356" lon="5.27705">
        <ele>1939.5</ele>
        <time>2010-04-15T20:13:12.23</time>
      </trkpt>
      <trkpt lat="44.17356" lon="5.27705">
        <ele>1939.5</ele>
        <time>2010-04-15T20:13:13.22</time>
      </trkpt>
      <trkpt lat="44.17356" lon="5.27705">
        <ele>1939.5</ele>
        <time>2010-04-15T20:13:14.22</time>
      </trkpt>
      <trkpt lat="44.17356" lon="5.27705">
        <ele>1939.5</ele>
        <time>2010-04-15T20:13:15.22</time>
      </trkpt>
      <trkpt lat="44.17356" lon="5.27705">
        <ele>1939.5</ele>
        <time>2010-04-15T20:13:16.23</time>
      </trkpt>
      <trkpt lat="44.17356" lon="5.27705">
        <ele>1939.5</ele>
        <time>2010-04-15T20:13:17.23</time>
      </trkpt>
      <trkpt lat="44.17356" lon="5.27705">
        <ele>1939.5</ele>
        <time>2010-04-15T20:13:18.23</time>
      </trkpt>
      <trkpt lat="44.17356" lon="5.27705">
        <ele>1939.5</ele>
        <time>2010-04-15T20:13:19.23</time>
      </trkpt>
      <trkpt lat="44.17356" lon="5.27705">
        <ele>1939.5</ele>
        <time>2010-04-15T20:13:20.23</time>
      </trkpt>
      <trkpt lat="44.17356" lon="5.27705">
        <ele>1939.5</ele>
        <time>2010-04-15T20:13:21.23</time>
      </trkpt>
      <trkpt lat="44.17356" lon="5.27705">
        <ele>1939.5</ele>
        <time>2010-04-15T20:13:22.22</time>
      </trkpt>
      <trkpt lat="44.17356" lon="5.27705">
        <ele>1939.5</ele>
        <time>2010-04-15T20:13:23.23</time>
      </trkpt>
      <trkpt lat="44.17356" lon="5.27705">
        <ele>1939.5</ele>
        <time>2010-04-15T20:13:24.22</time>
      </trkpt>
      <trkpt lat="44.17356" lon="5.27705">
        <ele>1939.5</ele>
        <time>2010-04-15T20:13:25.23</time>
      </trkpt>
      <trkpt lat="44.17356" lon="5.27705">
        <ele>1939</ele>
        <time>2010-04-15T20:13:26.22</time>
      </trkpt>
      <trkpt lat="44.17356" lon="5.27705">
        <ele>1939</ele>
        <time>2010-04-15T20:13:27.22</time>
      </trkpt>
      <trkpt lat="44.17356" lon="5.27705">
        <ele>1939</ele>
        <time>2010-04-15T20:13:28.22</time>
      </trkpt>
      <trkpt lat="44.17356" lon="5.27705">
        <ele>1939</ele>
        <time>2010-04-15T20:13:29.22</time>
      </trkpt>
      <trkpt lat="44.17356" lon="5.27705">
        <ele>1938.5</ele>
        <time>2010-04-15T20:13:30.22</time>
      </trkpt>
      <trkpt lat="44.17356" lon="5.27705">
        <ele>1938.5</ele>
        <time>2010-04-15T20:13:31.21</time>
      </trkpt>
      <trkpt lat="44.17356" lon="5.27705">
        <ele>1938.5</ele>
        <time>2010-04-15T20:13:32.21</time>
      </trkpt>
      <trkpt lat="44.17356" lon="5.27705">
        <ele>1938.5</ele>
        <time>2010-04-15T20:13:33.21</time>
      </trkpt>
      <trkpt lat="44.17356" lon="5.27705">
        <ele>1938.5</ele>
        <time>2010-04-15T20:13:34.21</time>
      </trkpt>
      <trkpt lat="44.17356" lon="5.27705">
        <ele>1938.5</ele>
        <time>2010-04-15T20:13:35.21</time>
      </trkpt>
      <trkpt lat="44.17356" lon="5.27705">
        <ele>1938.5</ele>
        <time>2010-04-15T20:13:36.22</time>
      </trkpt>
      <trkpt lat="44.17355" lon="5.27705">
        <ele>1938.5</ele>
        <time>2010-04-15T20:13:37.21</time>
      </trkpt>
      <trkpt lat="44.17355" lon="5.27705">
        <ele>1938.5</ele>
        <time>2010-04-15T20:13:38.21</time>
      </trkpt>
      <trkpt lat="44.17355" lon="5.27705">
        <ele>1938</ele>
        <time>2010-04-15T20:13:39.21</time>
      </trkpt>
      <trkpt lat="44.17355" lon="5.27705">
        <ele>1938</ele>
        <time>2010-04-15T20:13:40.21</time>
      </trkpt>
      <trkpt lat="44.17355" lon="5.27705">
        <ele>1938</ele>
        <time>2010-04-15T20:13:41.21</time>
      </trkpt>
      <trkpt lat="44.17355" lon="5.27705">
        <ele>1938</ele>
        <time>2010-04-15T20:13:42.22</time>
      </trkpt>
      <trkpt lat="44.17355" lon="5.27705">
        <ele>1938</ele>
        <time>2010-04-15T20:13:43.21</time>
      </trkpt>
      <trkpt lat="44.17355" lon="5.27705">
        <ele>1938</ele>
        <time>2010-04-15T20:13:44.22</time>
      </trkpt>
      <trkpt lat="44.17355" lon="5.27705">
        <ele>1938</ele>
        <time>2010-04-15T20:13:45.20</time>
      </trkpt>
      <trkpt lat="44.17355" lon="5.27705">
        <ele>1938</ele>
        <time>2010-04-15T20:13:46.21</time>
      </trkpt>
      <trkpt lat="44.17355" lon="5.27705">
        <ele>1938</ele>
        <time>2010-04-15T20:13:47.21</time>
      </trkpt>
      <trkpt lat="44.17355" lon="5.27705">
        <ele>1938</ele>
        <time>2010-04-15T20:13:48.21</time>
      </trkpt>
      <trkpt lat="44.17355" lon="5.27705">
        <ele>1938</ele>
        <time>2010-04-15T20:13:49.21</time>
      </trkpt>
      <trkpt lat="44.17355" lon="5.27705">
        <ele>1938</ele>
        <time>2010-04-15T20:13:50.21</time>
      </trkpt>
      <trkpt lat="44.17355" lon="5.27705">
        <ele>1938</ele>
        <time>2010-04-15T20:13:51.20</time>
      </trkpt>
      <trkpt lat="44.17355" lon="5.27705">
        <ele>1938</ele>
        <time>2010-04-15T20:13:52.20</time>
      </trkpt>
      <trkpt lat="44.17355" lon="5.27705">
        <ele>1938</ele>
        <time>2010-04-15T20:13:53.20</time>
      </trkpt>
      <trkpt lat="44.17355" lon="5.27705">
        <ele>1938.5</ele>
        <time>2010-04-15T20:13:54.20</time>
      </trkpt>
      <trkpt lat="44.17355" lon="5.27705">
        <ele>1938.5</ele>
        <time>2010-04-15T20:13:55.21</time>
      </trkpt>
      <trkpt lat="44.17355" lon="5.27705">
        <ele>1938.5</ele>
        <time>2010-04-15T20:13:56.21</time>
      </trkpt>
      <trkpt lat="44.17355" lon="5.27705">
        <ele>1938.5</ele>
        <time>2010-04-15T20:13:57.21</time>
      </trkpt>
      <trkpt lat="44.17355" lon="5.27705">
        <ele>1938.5</ele>
        <time>2010-04-15T20:13:58.21</time>
      </trkpt>
      <trkpt lat="44.17355" lon="5.27705">
        <ele>1938.5</ele>
        <time>2010-04-15T20:13:59.21</time>
      </trkpt>
      <trkpt lat="44.17355" lon="5.27705">
        <ele>1938.5</ele>
        <time>2010-04-15T20:14:00.20</time>
      </trkpt>
      <trkpt lat="44.17356" lon="5.27705">
        <ele>1938.5</ele>
        <time>2010-04-15T20:14:01.20</time>
      </trkpt>
      <trkpt lat="44.17356" lon="5.27705">
        <ele>1939</ele>
        <time>2010-04-15T20:14:02.20</time>
      </trkpt>
      <trkpt lat="44.17356" lon="5.27705">
        <ele>1939</ele>
        <time>2010-04-15T20:14:03.20</time>
      </trkpt>
      <trkpt lat="44.17356" lon="5.27705">
        <ele>1939</ele>
        <time>2010-04-15T20:14:04.20</time>
      </trkpt>
      <trkpt lat="44.17356" lon="5.27705">
        <ele>1939</ele>
        <time>2010-04-15T20:14:05.20</time>
      </trkpt>
      <trkpt lat="44.17356" lon="5.27705">
        <ele>1938.5</ele>
        <time>2010-04-15T20:14:06.20</time>
      </trkpt>
      <trkpt lat="44.17356" lon="5.27705">
        <ele>1938.5</ele>
        <time>2010-04-15T20:14:07.19</time>
      </trkpt>
      <trkpt lat="44.17356" lon="5.27705">
        <ele>1938.5</ele>
        <time>2010-04-15T20:14:08.19</time>
      </trkpt>
      <trkpt lat="44.17356" lon="5.27705">
        <ele>1938.5</ele>
        <time>2010-04-15T20:14:09.20</time>
      </trkpt>
      <trkpt lat="44.17356" lon="5.27705">
        <ele>1938.5</ele>
        <time>2010-04-15T20:14:10.19</time>
      </trkpt>
      <trkpt lat="44.17356" lon="5.27705">
        <ele>1938.5</ele>
        <time>2010-04-15T20:14:11.20</time>
      </trkpt>
      <trkpt lat="44.17356" lon="5.27705">
        <ele>1938.5</ele>
        <time>2010-04-15T20:14:12.19</time>
      </trkpt>
      <trkpt lat="44.17356" lon="5.27705">
        <ele>1938.5</ele>
        <time>2010-04-15T20:14:13.19</time>
      </trkpt>
      <trkpt lat="44.17356" lon="5.27705">
        <ele>1938.5</ele>
        <time>2010-04-15T20:14:14.19</time>
      </trkpt>
      <trkpt lat="44.17356" lon="5.27705">
        <ele>1938.5</ele>
        <time>2010-04-15T20:14:15.19</time>
      </trkpt>
      <trkpt lat="44.17356" lon="5.27705">
        <ele>1938.5</ele>
        <time>2010-04-15T20:14:16.18</time>
      </trkpt>
      <trkpt lat="44.17356" lon="5.27705">
        <ele>1938.5</ele>
        <time>2010-04-15T20:14:17.19</time>
      </trkpt>
      <trkpt lat="44.17356" lon="5.27705">
        <ele>1938.5</ele>
        <time>2010-04-15T20:14:18.18</time>
      </trkpt>
      <trkpt lat="44.17356" lon="5.27705">
        <ele>1938.5</ele>
        <time>2010-04-15T20:14:19.19</time>
      </trkpt>
      <trkpt lat="44.17356" lon="5.27705">
        <ele>1938.5</ele>
        <time>2010-04-15T20:14:20.19</time>
      </trkpt>
      <trkpt lat="44.17356" lon="5.27705">
        <ele>1938.5</ele>
        <time>2010-04-15T20:14:21.19</time>
      </trkpt>
      <trkpt lat="44.17356" lon="5.27705">
        <ele>1938.5</ele>
        <time>2010-04-15T20:14:22.19</time>
      </trkpt>
      <trkpt lat="44.17355" lon="5.27704">
        <ele>1938.5</ele>
        <time>2010-04-15T20:14:23.19</time>
      </trkpt>
      <trkpt lat="44.17355" lon="5.27702">
        <ele>1938</ele>
        <time>2010-04-15T20:14:24.19</time>
      </trkpt>
      <trkpt lat="44.17354" lon="5.277">
        <ele>1937.5</ele>
        <time>2010-04-15T20:14:25.19</time>
      </trkpt>
      <trkpt lat="44.17355" lon="5.27697">
        <ele>1936</ele>
        <time>2010-04-15T20:14:26.18</time>
      </trkpt>
      <trkpt lat="44.17357" lon="5.27699">
        <ele>1934.5</ele>
        <time>2010-04-15T20:14:27.18</time>
      </trkpt>
      <trkpt lat="44.17359" lon="5.277">
        <ele>1934</ele>
        <time>2010-04-15T20:14:28.18</time>
      </trkpt>
      <trkpt lat="44.17366" lon="5.27707">
        <ele>1931.5</ele>
        <time>2010-04-15T20:14:30.17</time>
      </trkpt>
      <trkpt lat="44.17369" lon="5.2771">
        <ele>1931</ele>
        <time>2010-04-15T20:14:31.17</time>
      </trkpt>
      <trkpt lat="44.17373" lon="5.27713">
        <ele>1930</ele>
        <time>2010-04-15T20:14:32.18</time>
      </trkpt>
      <trkpt lat="44.17376" lon="5.27715">
        <ele>1929.5</ele>
        <time>2010-04-15T20:14:33.17</time>
      </trkpt>
      <trkpt lat="44.1738" lon="5.27718">
        <ele>1929</ele>
        <time>2010-04-15T20:14:34.18</time>
      </trkpt>
      <trkpt lat="44.17383" lon="5.2772">
        <ele>1929</ele>
        <time>2010-04-15T20:14:35.17</time>
      </trkpt>
      <trkpt lat="44.17386" lon="5.27723">
        <ele>1928.5</ele>
        <time>2010-04-15T20:14:36.17</time>
      </trkpt>
      <trkpt lat="44.17389" lon="5.27726">
        <ele>1928.5</ele>
        <time>2010-04-15T20:14:37.17</time>
      </trkpt>
      <trkpt lat="44.17391" lon="5.27728">
        <ele>1928</ele>
        <time>2010-04-15T20:14:38.17</time>
      </trkpt>
      <trkpt lat="44.17394" lon="5.2773">
        <ele>1927.5</ele>
        <time>2010-04-15T20:14:39.17</time>
      </trkpt>
      <trkpt lat="44.17397" lon="5.27732">
        <ele>1927.5</ele>
        <time>2010-04-15T20:14:40.17</time>
      </trkpt>
      <trkpt lat="44.17399" lon="5.27733">
        <ele>1927</ele>
        <time>2010-04-15T20:14:41.17</time>
      </trkpt>
      <trkpt lat="44.17402" lon="5.27735">
        <ele>1926.5</ele>
        <time>2010-04-15T20:14:42.18</time>
      </trkpt>
      <trkpt lat="44.17404" lon="5.27737">
        <ele>1926</ele>
        <time>2010-04-15T20:14:43.17</time>
      </trkpt>
      <trkpt lat="44.17407" lon="5.27739">
        <ele>1925.5</ele>
        <time>2010-04-15T20:14:44.17</time>
      </trkpt>
      <trkpt lat="44.17411" lon="5.27741">
        <ele>1925</ele>
        <time>2010-04-15T20:14:45.17</time>
      </trkpt>
      <trkpt lat="44.17414" lon="5.27743">
        <ele>1924.5</ele>
        <time>2010-04-15T20:14:46.16</time>
      </trkpt>
      <trkpt lat="44.17418" lon="5.27746">
        <ele>1924</ele>
        <time>2010-04-15T20:14:47.17</time>
      </trkpt>
      <trkpt lat="44.17421" lon="5.27749">
        <ele>1923.5</ele>
        <time>2010-04-15T20:14:48.16</time>
      </trkpt>
      <trkpt lat="44.17423" lon="5.27752">
        <ele>1923.5</ele>
        <time>2010-04-15T20:14:49.16</time>
      </trkpt>
      <trkpt lat="44.17426" lon="5.27754">
        <ele>1923.5</ele>
        <time>2010-04-15T20:14:50.16</time>
      </trkpt>
      <trkpt lat="44.17428" lon="5.27756">
        <ele>1923</ele>
        <time>2010-04-15T20:14:51.16</time>
      </trkpt>
      <trkpt lat="44.17431" lon="5.27757">
        <ele>1922.5</ele>
        <time>2010-04-15T20:14:52.16</time>
      </trkpt>
      <trkpt lat="44.17433" lon="5.27758">
        <ele>1922</ele>
        <time>2010-04-15T20:14:53.16</time>
      </trkpt>
      <trkpt lat="44.17435" lon="5.27758">
        <ele>1921.5</ele>
        <time>2010-04-15T20:14:54.17</time>
      </trkpt>
      <trkpt lat="44.17438" lon="5.27759">
        <ele>1921</ele>
        <time>2010-04-15T20:14:55.16</time>
      </trkpt>
      <trkpt lat="44.1744" lon="5.27756">
        <ele>1920.5</ele>
        <time>2010-04-15T20:14:56.16</time>
      </trkpt>
      <trkpt lat="44.17439" lon="5.27754">
        <ele>1920</ele>
        <time>2010-04-15T20:14:57.16</time>
      </trkpt>
      <trkpt lat="44.17437" lon="5.27752">
        <ele>1920</ele>
        <time>2010-04-15T20:14:58.16</time>
      </trkpt>
      <trkpt lat="44.17436" lon="5.2775">
        <ele>1920.5</ele>
        <time>2010-04-15T20:14:59.16</time>
      </trkpt>
      <trkpt lat="44.17434" lon="5.27749">
        <ele>1920</ele>
        <time>2010-04-15T20:15:00.16</time>
      </trkpt>
      <trkpt lat="44.17433" lon="5.27747">
        <ele>1920</ele>
        <time>2010-04-15T20:15:01.16</time>
      </trkpt>
      <trkpt lat="44.17433" lon="5.27742">
        <ele>1918</ele>
        <time>2010-04-15T20:15:02.16</time>
      </trkpt>
      <trkpt lat="44.17435" lon="5.27737">
        <ele>1916</ele>
        <time>2010-04-15T20:15:03.16</time>
      </trkpt>
      <trkpt lat="44.17437" lon="5.27731">
        <ele>1916</ele>
        <time>2010-04-15T20:15:04.17</time>
      </trkpt>
      <trkpt lat="44.17435" lon="5.27726">
        <ele>1914</ele>
        <time>2010-04-15T20:15:05.17</time>
      </trkpt>
      <trkpt lat="44.17433" lon="5.27725">
        <ele>1913.5</ele>
        <time>2010-04-15T20:15:06.15</time>
      </trkpt>
      <trkpt lat="44.17432" lon="5.27724">
        <ele>1913.5</ele>
        <time>2010-04-15T20:15:07.15</time>
      </trkpt>
      <trkpt lat="44.17431" lon="5.27723">
        <ele>1913.5</ele>
        <time>2010-04-15T20:15:08.16</time>
      </trkpt>
      <trkpt lat="44.1743" lon="5.2772">
        <ele>1913</ele>
        <time>2010-04-15T20:15:09.15</time>
      </trkpt>
      <trkpt lat="44.17428" lon="5.27717">
        <ele>1912</ele>
        <time>2010-04-15T20:15:10.15</time>
      </trkpt>
      <trkpt lat="44.17425" lon="5.27713">
        <ele>1911</ele>
        <time>2010-04-15T20:15:11.15</time>
      </trkpt>
      <trkpt lat="44.17422" lon="5.27709">
        <ele>1910.5</ele>
        <time>2010-04-15T20:15:12.15</time>
      </trkpt>
      <trkpt lat="44.1742" lon="5.27707">
        <ele>1909.5</ele>
        <time>2010-04-15T20:15:13.16</time>
      </trkpt>
      <trkpt lat="44.17419" lon="5.27706">
        <ele>1909.5</ele>
        <time>2010-04-15T20:15:14.15</time>
      </trkpt>
      <trkpt lat="44.17419" lon="5.27702">
        <ele>1909</ele>
        <time>2010-04-15T20:15:15.15</time>
      </trkpt>
      <trkpt lat="44.17414" lon="5.27692">
        <ele>1907.5</ele>
        <time>2010-04-15T20:15:17.16</time>
      </trkpt>
      <trkpt lat="44.17413" lon="5.2769">
        <ele>1907</ele>
        <time>2010-04-15T20:15:18.16</time>
      </trkpt>
      <trkpt lat="44.17411" lon="5.27686">
        <ele>1906.5</ele>
        <time>2010-04-15T20:15:19.15</time>
      </trkpt>
      <trkpt lat="44.17412" lon="5.27681">
        <ele>1904.5</ele>
        <time>2010-04-15T20:15:20.15</time>
      </trkpt>
      <trkpt lat="44.17414" lon="5.27677">
        <ele>1902.5</ele>
        <time>2010-04-15T20:15:21.14</time>
      </trkpt>
      <trkpt lat="44.17418" lon="5.27674">
        <ele>1901</ele>
        <time>2010-04-15T20:15:22.15</time>
      </trkpt>
      <trkpt lat="44.1742" lon="5.27668">
        <ele>1901</ele>
        <time>2010-04-15T20:15:23.16</time>
      </trkpt>
      <trkpt lat="44.17421" lon="5.27663">
        <ele>1900.5</ele>
        <time>2010-04-15T20:15:24.15</time>
      </trkpt>
      <trkpt lat="44.1742" lon="5.27659">
        <ele>1898.5</ele>
        <time>2010-04-15T20:15:25.14</time>
      </trkpt>
      <trkpt lat="44.17421" lon="5.27653">
        <ele>1896</ele>
        <time>2010-04-15T20:15:26.14</time>
      </trkpt>
      <trkpt lat="44.17425" lon="5.27651">
        <ele>1894</ele>
        <time>2010-04-15T20:15:27.14</time>
      </trkpt>
      <trkpt lat="44.17436" lon="5.27641">
        <ele>1892</ele>
        <time>2010-04-15T20:15:29.14</time>
      </trkpt>
      <trkpt lat="44.17436" lon="5.27633">
        <ele>1891.5</ele>
        <time>2010-04-15T20:15:30.14</time>
      </trkpt>
      <trkpt lat="44.1744" lon="5.27627">
        <ele>1891</ele>
        <time>2010-04-15T20:15:31.14</time>
      </trkpt>
      <trkpt lat="44.17445" lon="5.27626">
        <ele>1889.5</ele>
        <time>2010-04-15T20:15:32.15</time>
      </trkpt>
      <trkpt lat="44.1745" lon="5.27623">
        <ele>1889.5</ele>
        <time>2010-04-15T20:15:33.15</time>
      </trkpt>
      <trkpt lat="44.1745" lon="5.27612">
        <ele>1885</ele>
        <time>2010-04-15T20:15:35.14</time>
      </trkpt>
      <trkpt lat="44.1745" lon="5.27602">
        <ele>1884.5</ele>
        <time>2010-04-15T20:15:36.14</time>
      </trkpt>
      <trkpt lat="44.17454" lon="5.27595">
        <ele>1883</ele>
        <time>2010-04-15T20:15:37.15</time>
      </trkpt>
      <trkpt lat="44.17461" lon="5.27597">
        <ele>1878.5</ele>
        <time>2010-04-15T20:15:39.14</time>
      </trkpt>
      <trkpt lat="44.17464" lon="5.27591">
        <ele>1878</ele>
        <time>2010-04-15T20:15:40.14</time>
      </trkpt>
      <trkpt lat="44.17465" lon="5.27588">
        <ele>1873.5</ele>
        <time>2010-04-15T20:15:43.13</time>
      </trkpt>
      <trkpt lat="44.17465" lon="5.27588">
        <ele>1872.5</ele>
        <time>2010-04-15T20:15:44.14</time>
      </trkpt>
      <trkpt lat="44.17465" lon="5.27588">
        <ele>1871.5</ele>
        <time>2010-04-15T20:15:45.13</time>
      </trkpt>
      <trkpt lat="44.17465" lon="5.27588">
        <ele>1871</ele>
        <time>2010-04-15T20:15:46.13</time>
      </trkpt>
      <trkpt lat="44.17465" lon="5.27587">
        <ele>1871</ele>
        <time>2010-04-15T20:15:47.13</time>
      </trkpt>
      <trkpt lat="44.17466" lon="5.27588">
        <ele>1870</ele>
        <time>2010-04-15T20:15:48.13</time>
      </trkpt>
      <trkpt lat="44.17467" lon="5.27589">
        <ele>1869</ele>
        <time>2010-04-15T20:15:49.13</time>
      </trkpt>
      <trkpt lat="44.17469" lon="5.2759">
        <ele>1868</ele>
        <time>2010-04-15T20:15:50.13</time>
      </trkpt>
      <trkpt lat="44.17472" lon="5.27592">
        <ele>1866.5</ele>
        <time>2010-04-15T20:15:51.13</time>
      </trkpt>
      <trkpt lat="44.17474" lon="5.27594">
        <ele>1865.5</ele>
        <time>2010-04-15T20:15:52.13</time>
      </trkpt>
      <trkpt lat="44.17477" lon="5.27595">
        <ele>1864</ele>
        <time>2010-04-15T20:15:53.13</time>
      </trkpt>
      <trkpt lat="44.1748" lon="5.27596">
        <ele>1862</ele>
        <time>2010-04-15T20:15:54.13</time>
      </trkpt>
      <trkpt lat="44.17484" lon="5.27597">
        <ele>1860</ele>
        <time>2010-04-15T20:15:55.13</time>
      </trkpt>
      <trkpt lat="44.17487" lon="5.27598">
        <ele>1859</ele>
        <time>2010-04-15T20:15:56.12</time>
      </trkpt>
      <trkpt lat="44.1749" lon="5.27598">
        <ele>1857.5</ele>
        <time>2010-04-15T20:15:57.12</time>
      </trkpt>
      <trkpt lat="44.17494" lon="5.27595">
        <ele>1856.5</ele>
        <time>2010-04-15T20:15:58.13</time>
      </trkpt>
      <trkpt lat="44.17492" lon="5.27588">
        <ele>1854.5</ele>
        <time>2010-04-15T20:15:59.13</time>
      </trkpt>
      <trkpt lat="44.17492" lon="5.27579">
        <ele>1852</ele>
        <time>2010-04-15T20:16:00.13</time>
      </trkpt>
      <trkpt lat="44.17496" lon="5.27574">
        <ele>1850</ele>
        <time>2010-04-15T20:16:01.13</time>
      </trkpt>
      <trkpt lat="44.17501" lon="5.27569">
        <ele>1849.5</ele>
        <time>2010-04-15T20:16:02.14</time>
      </trkpt>
      <trkpt lat="44.17506" lon="5.27563">
        <ele>1849</ele>
        <time>2010-04-15T20:16:03.12</time>
      </trkpt>
      <trkpt lat="44.17509" lon="5.27555">
        <ele>1847.5</ele>
        <time>2010-04-15T20:16:04.14</time>
      </trkpt>
      <trkpt lat="44.17516" lon="5.27544">
        <ele>1846.5</ele>
        <time>2010-04-15T20:16:06.13</time>
      </trkpt>
      <trkpt lat="44.17516" lon="5.27535">
        <ele>1846.5</ele>
        <time>2010-04-15T20:16:07.13</time>
      </trkpt>
      <trkpt lat="44.17517" lon="5.27528">
        <ele>1846</ele>
        <time>2010-04-15T20:16:08.14</time>
      </trkpt>
      <trkpt lat="44.17522" lon="5.27525">
        <ele>1845.5</ele>
        <time>2010-04-15T20:16:09.13</time>
      </trkpt>
      <trkpt lat="44.17526" lon="5.27519">
        <ele>1845.5</ele>
        <time>2010-04-15T20:16:10.15</time>
      </trkpt>
      <trkpt lat="44.17526" lon="5.27511">
        <ele>1845.5</ele>
        <time>2010-04-15T20:16:11.12</time>
      </trkpt>
      <trkpt lat="44.17526" lon="5.27503">
        <ele>1843.5</ele>
        <time>2010-04-15T20:16:12.13</time>
      </trkpt>
      <trkpt lat="44.17533" lon="5.27499">
        <ele>1841.5</ele>
        <time>2010-04-15T20:16:13.13</time>
      </trkpt>
      <trkpt lat="44.1754" lon="5.27496">
        <ele>1840.5</ele>
        <time>2010-04-15T20:16:14.13</time>
      </trkpt>
      <trkpt lat="44.17541" lon="5.27489">
        <ele>1840</ele>
        <time>2010-04-15T20:16:15.12</time>
      </trkpt>
      <trkpt lat="44.1755" lon="5.27473">
        <ele>1839</ele>
        <time>2010-04-15T20:16:17.13</time>
      </trkpt>
      <trkpt lat="44.17557" lon="5.27471">
        <ele>1839.5</ele>
        <time>2010-04-15T20:16:18.11</time>
      </trkpt>
      <trkpt lat="44.1756" lon="5.27461">
        <ele>1837</ele>
        <time>2010-04-15T20:16:19.12</time>
      </trkpt>
      <trkpt lat="44.1756" lon="5.27451">
        <ele>1836.5</ele>
        <time>2010-04-15T20:16:20.12</time>
      </trkpt>
      <trkpt lat="44.17563" lon="5.27444">
        <ele>1835.5</ele>
        <time>2010-04-15T20:16:21.11</time>
      </trkpt>
      <trkpt lat="44.17569" lon="5.27442">
        <ele>1836</ele>
        <time>2010-04-15T20:16:22.12</time>
      </trkpt>
      <trkpt lat="44.17572" lon="5.27447">
        <ele>1835</ele>
        <time>2010-04-15T20:16:25.10</time>
      </trkpt>
      <trkpt lat="44.17572" lon="5.27447">
        <ele>1835</ele>
        <time>2010-04-15T20:16:26.11</time>
      </trkpt>
      <trkpt lat="44.17572" lon="5.27447">
        <ele>1834.5</ele>
        <time>2010-04-15T20:16:27.11</time>
      </trkpt>
      <trkpt lat="44.17573" lon="5.27447">
        <ele>1834</ele>
        <time>2010-04-15T20:16:28.11</time>
      </trkpt>
      <trkpt lat="44.17574" lon="5.27448">
        <ele>1833.5</ele>
        <time>2010-04-15T20:16:29.11</time>
      </trkpt>
      <trkpt lat="44.17576" lon="5.27448">
        <ele>1832.5</ele>
        <time>2010-04-15T20:16:30.11</time>
      </trkpt>
      <trkpt lat="44.17579" lon="5.27449">
        <ele>1831</ele>
        <time>2010-04-15T20:16:31.11</time>
      </trkpt>
      <trkpt lat="44.17582" lon="5.27451">
        <ele>1829</ele>
        <time>2010-04-15T20:16:32.14</time>
      </trkpt>
      <trkpt lat="44.17586" lon="5.27451">
        <ele>1827.5</ele>
        <time>2010-04-15T20:16:33.10</time>
      </trkpt>
      <trkpt lat="44.17588" lon="5.27437">
        <ele>1825</ele>
        <time>2010-04-15T20:16:35.10</time>
      </trkpt>
      <trkpt lat="44.17587" lon="5.2743">
        <ele>1824</ele>
        <time>2010-04-15T20:16:36.10</time>
      </trkpt>
      <trkpt lat="44.1759" lon="5.27423">
        <ele>1822.5</ele>
        <time>2010-04-15T20:16:37.10</time>
      </trkpt>
      <trkpt lat="44.17596" lon="5.2742">
        <ele>1817</ele>
        <time>2010-04-15T20:16:38.10</time>
      </trkpt>
      <trkpt lat="44.17602" lon="5.27416">
        <ele>1815.5</ele>
        <time>2010-04-15T20:16:39.10</time>
      </trkpt>
      <trkpt lat="44.17607" lon="5.2741">
        <ele>1815</ele>
        <time>2010-04-15T20:16:40.10</time>
      </trkpt>
      <trkpt lat="44.17608" lon="5.27404">
        <ele>1813</ele>
        <time>2010-04-15T20:16:41.10</time>
      </trkpt>
      <trkpt lat="44.17612" lon="5.27401">
        <ele>1812</ele>
        <time>2010-04-15T20:16:42.10</time>
      </trkpt>
      <trkpt lat="44.17616" lon="5.27402">
        <ele>1811.5</ele>
        <time>2010-04-15T20:16:43.10</time>
      </trkpt>
      <trkpt lat="44.17618" lon="5.27406">
        <ele>1808.5</ele>
        <time>2010-04-15T20:16:44.10</time>
      </trkpt>
      <trkpt lat="44.17619" lon="5.27409">
        <ele>1806.5</ele>
        <time>2010-04-15T20:16:45.10</time>
      </trkpt>
      <trkpt lat="44.17619" lon="5.2741">
        <ele>1805</ele>
        <time>2010-04-15T20:16:46.10</time>
      </trkpt>
      <trkpt lat="44.17619" lon="5.27411">
        <ele>1802.5</ele>
        <time>2010-04-15T20:16:47.10</time>
      </trkpt>
      <trkpt lat="44.1762" lon="5.27413">
        <ele>1799</ele>
        <time>2010-04-15T20:16:48.09</time>
      </trkpt>
      <trkpt lat="44.17621" lon="5.27415">
        <ele>1795</ele>
        <time>2010-04-15T20:16:49.09</time>
      </trkpt>
      <trkpt lat="44.17625" lon="5.27418">
        <ele>1792</ele>
        <time>2010-04-15T20:16:50.09</time>
      </trkpt>
      <trkpt lat="44.17629" lon="5.27419">
        <ele>1788.5</ele>
        <time>2010-04-15T20:16:51.10</time>
      </trkpt>
      <trkpt lat="44.1763" lon="5.27414">
        <ele>1785.5</ele>
        <time>2010-04-15T20:16:52.09</time>
      </trkpt>
      <trkpt lat="44.17635" lon="5.274">
        <ele>1782</ele>
        <time>2010-04-15T20:16:54.09</time>
      </trkpt>
      <trkpt lat="44.17642" lon="5.27403">
        <ele>1777</ele>
        <time>2010-04-15T20:16:55.10</time>
      </trkpt>
      <trkpt lat="44.17648" lon="5.274">
        <ele>1774.5</ele>
        <time>2010-04-15T20:16:56.09</time>
      </trkpt>
      <trkpt lat="44.17652" lon="5.27394">
        <ele>1771.5</ele>
        <time>2010-04-15T20:16:57.10</time>
      </trkpt>
      <trkpt lat="44.17662" lon="5.27393">
        <ele>1770.5</ele>
        <time>2010-04-15T20:16:59.09</time>
      </trkpt>
      <trkpt lat="44.17666" lon="5.27388">
        <ele>1768.5</ele>
        <time>2010-04-15T20:17:00.09</time>
      </trkpt>
      <trkpt lat="44.17673" lon="5.27385">
        <ele>1766</ele>
        <time>2010-04-15T20:17:01.11</time>
      </trkpt>
      <trkpt lat="44.17679" lon="5.27384">
        <ele>1761</ele>
        <time>2010-04-15T20:17:02.08</time>
      </trkpt>
      <trkpt lat="44.17682" lon="5.27375">
        <ele>1760.5</ele>
        <time>2010-04-15T20:17:03.08</time>
      </trkpt>
      <trkpt lat="44.17688" lon="5.27371">
        <ele>1759</ele>
        <time>2010-04-15T20:17:04.09</time>
      </trkpt>
      <trkpt lat="44.17694" lon="5.27372">
        <ele>1757.5</ele>
        <time>2010-04-15T20:17:05.09</time>
      </trkpt>
      <trkpt lat="44.17701" lon="5.27369">
        <ele>1756.5</ele>
        <time>2010-04-15T20:17:06.09</time>
      </trkpt>
      <trkpt lat="44.17708" lon="5.27366">
        <ele>1755.5</ele>
        <time>2010-04-15T20:17:07.09</time>
      </trkpt>
      <trkpt lat="44.17715" lon="5.27366">
        <ele>1754.5</ele>
        <time>2010-04-15T20:17:08.10</time>
      </trkpt>
      <trkpt lat="44.17721" lon="5.27363">
        <ele>1752</ele>
        <time>2010-04-15T20:17:09.09</time>
      </trkpt>
      <trkpt lat="44.17735" lon="5.27359">
        <ele>1749.5</ele>
        <time>2010-04-15T20:17:11.09</time>
      </trkpt>
      <trkpt lat="44.17743" lon="5.27359">
        <ele>1745</ele>
        <time>2010-04-15T20:17:12.09</time>
      </trkpt>
      <trkpt lat="44.17756" lon="5.27343">
        <ele>1743</ele>
        <time>2010-04-15T20:17:14.08</time>
      </trkpt>
      <trkpt lat="44.17771" lon="5.27341">
        <ele>1736.5</ele>
        <time>2010-04-15T20:17:16.09</time>
      </trkpt>
      <trkpt lat="44.17776" lon="5.27333">
        <ele>1735.5</ele>
        <time>2010-04-15T20:17:17.08</time>
      </trkpt>
      <trkpt lat="44.17784" lon="5.2733">
        <ele>1732.5</ele>
        <time>2010-04-15T20:17:18.07</time>
      </trkpt>
      <trkpt lat="44.17791" lon="5.27333">
        <ele>1728.5</ele>
        <time>2010-04-15T20:17:19.08</time>
      </trkpt>
      <trkpt lat="44.17798" lon="5.27328">
        <ele>1726</ele>
        <time>2010-04-15T20:17:20.09</time>
      </trkpt>
      <trkpt lat="44.17811" lon="5.27313">
        <ele>1719</ele>
        <time>2010-04-15T20:17:22.09</time>
      </trkpt>
      <trkpt lat="44.17823" lon="5.27306">
        <ele>1719</ele>
        <time>2010-04-15T20:17:24.07</time>
      </trkpt>
      <trkpt lat="44.17829" lon="5.273">
        <ele>1716</ele>
        <time>2010-04-15T20:17:25.08</time>
      </trkpt>
      <trkpt lat="44.17836" lon="5.27298">
        <ele>1716</ele>
        <time>2010-04-15T20:17:26.08</time>
      </trkpt>
      <trkpt lat="44.17851" lon="5.27284">
        <ele>1710.5</ele>
        <time>2010-04-15T20:17:28.08</time>
      </trkpt>
      <trkpt lat="44.17857" lon="5.27276">
        <ele>1710.5</ele>
        <time>2010-04-15T20:17:29.08</time>
      </trkpt>
      <trkpt lat="44.17865" lon="5.27273">
        <ele>1710.5</ele>
        <time>2010-04-15T20:17:30.08</time>
      </trkpt>
      <trkpt lat="44.17872" lon="5.27264">
        <ele>1706</ele>
        <time>2010-04-15T20:17:31.07</time>
      </trkpt>
      <trkpt lat="44.17888" lon="5.27252">
        <ele>1701</ele>
        <time>2010-04-15T20:17:33.08</time>
      </trkpt>
      <trkpt lat="44.17895" lon="5.27247">
        <ele>1701</ele>
        <time>2010-04-15T20:17:34.07</time>
      </trkpt>
      <trkpt lat="44.17899" lon="5.27238">
        <ele>1701</ele>
        <time>2010-04-15T20:17:35.07</time>
      </trkpt>
      <trkpt lat="44.17904" lon="5.27229">
        <ele>1697.5</ele>
        <time>2010-04-15T20:17:36.07</time>
      </trkpt>
      <trkpt lat="44.17911" lon="5.27225">
        <ele>1692.5</ele>
        <time>2010-04-15T20:17:37.08</time>
      </trkpt>
      <trkpt lat="44.17918" lon="5.27224">
        <ele>1689.5</ele>
        <time>2010-04-15T20:17:38.07</time>
      </trkpt>
      <trkpt lat="44.17926" lon="5.27222">
        <ele>1686</ele>
        <time>2010-04-15T20:17:39.08</time>
      </trkpt>
      <trkpt lat="44.17932" lon="5.27216">
        <ele>1684</ele>
        <time>2010-04-15T20:17:40.06</time>
      </trkpt>
      <trkpt lat="44.17939" lon="5.27215">
        <ele>1678.5</ele>
        <time>2010-04-15T20:17:41.07</time>
      </trkpt>
      <trkpt lat="44.17949" lon="5.27218">
        <ele>1676</ele>
        <time>2010-04-15T20:17:43.08</time>
      </trkpt>
      <trkpt lat="44.17955" lon="5.27218">
        <ele>1673.5</ele>
        <time>2010-04-15T20:17:44.06</time>
      </trkpt>
      <trkpt lat="44.17962" lon="5.27213">
        <ele>1673.5</ele>
        <time>2010-04-15T20:17:45.06</time>
      </trkpt>
      <trkpt lat="44.17969" lon="5.27213">
        <ele>1666</ele>
        <time>2010-04-15T20:17:46.06</time>
      </trkpt>
      <trkpt lat="44.17975" lon="5.27213">
        <ele>1664</ele>
        <time>2010-04-15T20:17:47.07</time>
      </trkpt>
      <trkpt lat="44.17989" lon="5.27212">
        <ele>1658.5</ele>
        <time>2010-04-15T20:17:49.06</time>
      </trkpt>
      <trkpt lat="44.17994" lon="5.27209">
        <ele>1651</ele>
        <time>2010-04-15T20:17:50.06</time>
      </trkpt>
      <trkpt lat="44.18" lon="5.27206">
        <ele>1646</ele>
        <time>2010-04-15T20:17:51.06</time>
      </trkpt>
      <trkpt lat="44.18006" lon="5.27204">
        <ele>1643</ele>
        <time>2010-04-15T20:17:52.07</time>
      </trkpt>
      <trkpt lat="44.18011" lon="5.2721">
        <ele>1639</ele>
        <time>2010-04-15T20:17:53.06</time>
      </trkpt>
      <trkpt lat="44.18017" lon="5.27214">
        <ele>1635.5</ele>
        <time>2010-04-15T20:17:54.06</time>
      </trkpt>
      <trkpt lat="44.18023" lon="5.27216">
        <ele>1632</ele>
        <time>2010-04-15T20:17:55.06</time>
      </trkpt>
      <trkpt lat="44.18025" lon="5.27217">
        <ele>1625</ele>
        <time>2010-04-15T20:17:58.05</time>
      </trkpt>
      <trkpt lat="44.18025" lon="5.27217">
        <ele>1623.5</ele>
        <time>2010-04-15T20:17:59.05</time>
      </trkpt>
      <trkpt lat="44.18025" lon="5.27218">
        <ele>1622.5</ele>
        <time>2010-04-15T20:18:00.05</time>
      </trkpt>
      <trkpt lat="44.18026" lon="5.27219">
        <ele>1621</ele>
        <time>2010-04-15T20:18:01.05</time>
      </trkpt>
      <trkpt lat="44.18026" lon="5.27219">
        <ele>1620.5</ele>
        <time>2010-04-15T20:18:02.05</time>
      </trkpt>
      <trkpt lat="44.18027" lon="5.27218">
        <ele>1620</ele>
        <time>2010-04-15T20:18:03.05</time>
      </trkpt>
      <trkpt lat="44.18029" lon="5.27216">
        <ele>1618.5</ele>
        <time>2010-04-15T20:18:04.05</time>
      </trkpt>
      <trkpt lat="44.18032" lon="5.27213">
        <ele>1616</ele>
        <time>2010-04-15T20:18:05.05</time>
      </trkpt>
      <trkpt lat="44.18037" lon="5.27211">
        <ele>1615</ele>
        <time>2010-04-15T20:18:06.05</time>
      </trkpt>
      <trkpt lat="44.18041" lon="5.27213">
        <ele>1614.5</ele>
        <time>2010-04-15T20:18:07.06</time>
      </trkpt>
      <trkpt lat="44.18047" lon="5.27212">
        <ele>1612.5</ele>
        <time>2010-04-15T20:18:08.05</time>
      </trkpt>
      <trkpt lat="44.18051" lon="5.27208">
        <ele>1610.5</ele>
        <time>2010-04-15T20:18:09.05</time>
      </trkpt>
      <trkpt lat="44.18056" lon="5.27203">
        <ele>1607.5</ele>
        <time>2010-04-15T20:18:10.06</time>
      </trkpt>
      <trkpt lat="44.18062" lon="5.27201">
        <ele>1605.5</ele>
        <time>2010-04-15T20:18:11.05</time>
      </trkpt>
      <trkpt lat="44.18067" lon="5.27204">
        <ele>1605</ele>
        <time>2010-04-15T20:18:12.05</time>
      </trkpt>
      <trkpt lat="44.18071" lon="5.27203">
        <ele>1603</ele>
        <time>2010-04-15T20:18:13.05</time>
      </trkpt>
      <trkpt lat="44.18082" lon="5.2719">
        <ele>1601</ele>
        <time>2010-04-15T20:18:15.05</time>
      </trkpt>
      <trkpt lat="44.18087" lon="5.27189">
        <ele>1599</ele>
        <time>2010-04-15T20:18:16.05</time>
      </trkpt>
      <trkpt lat="44.18094" lon="5.27189">
        <ele>1598.5</ele>
        <time>2010-04-15T20:18:17.06</time>
      </trkpt>
      <trkpt lat="44.18098" lon="5.27184">
        <ele>1598</ele>
        <time>2010-04-15T20:18:18.04</time>
      </trkpt>
      <trkpt lat="44.18103" lon="5.27177">
        <ele>1596.5</ele>
        <time>2010-04-15T20:18:19.05</time>
      </trkpt>
      <trkpt lat="44.1811" lon="5.27174">
        <ele>1593.5</ele>
        <time>2010-04-15T20:18:20.04</time>
      </trkpt>
      <trkpt lat="44.18115" lon="5.27176">
        <ele>1592</ele>
        <time>2010-04-15T20:18:21.04</time>
      </trkpt>
      <trkpt lat="44.18123" lon="5.27176">
        <ele>1590</ele>
        <time>2010-04-15T20:18:22.05</time>
      </trkpt>
      <trkpt lat="44.1813" lon="5.2717">
        <ele>1590</ele>
        <time>2010-04-15T20:18:23.04</time>
      </trkpt>
      <trkpt lat="44.18135" lon="5.27163">
        <ele>1589</ele>
        <time>2010-04-15T20:18:24.04</time>
      </trkpt>
      <trkpt lat="44.1814" lon="5.27154">
        <ele>1587</ele>
        <time>2010-04-15T20:18:25.04</time>
      </trkpt>
      <trkpt lat="44.18145" lon="5.2715">
        <ele>1584</ele>
        <time>2010-04-15T20:18:26.05</time>
      </trkpt>
      <trkpt lat="44.18153" lon="5.27149">
        <ele>1583</ele>
        <time>2010-04-15T20:18:27.05</time>
      </trkpt>
      <trkpt lat="44.18159" lon="5.27144">
        <ele>1582.5</ele>
        <time>2010-04-15T20:18:28.05</time>
      </trkpt>
      <trkpt lat="44.18164" lon="5.27136">
        <ele>1582</ele>
        <time>2010-04-15T20:18:29.04</time>
      </trkpt>
      <trkpt lat="44.1817" lon="5.27131">
        <ele>1581.5</ele>
        <time>2010-04-15T20:18:30.04</time>
      </trkpt>
      <trkpt lat="44.18177" lon="5.27131">
        <ele>1581</ele>
        <time>2010-04-15T20:18:31.04</time>
      </trkpt>
      <trkpt lat="44.18184" lon="5.27128">
        <ele>1580.5</ele>
        <time>2010-04-15T20:18:32.04</time>
      </trkpt>
      <trkpt lat="44.18189" lon="5.27119">
        <ele>1580</ele>
        <time>2010-04-15T20:18:33.05</time>
      </trkpt>
      <trkpt lat="44.18196" lon="5.27113">
        <ele>1579</ele>
        <time>2010-04-15T20:18:34.04</time>
      </trkpt>
      <trkpt lat="44.18203" lon="5.27113">
        <ele>1575.5</ele>
        <time>2010-04-15T20:18:35.04</time>
      </trkpt>
      <trkpt lat="44.1821" lon="5.27108">
        <ele>1574.5</ele>
        <time>2010-04-15T20:18:36.04</time>
      </trkpt>
      <trkpt lat="44.18215" lon="5.27096">
        <ele>1574</ele>
        <time>2010-04-15T20:18:37.04</time>
      </trkpt>
      <trkpt lat="44.18222" lon="5.27092">
        <ele>1571</ele>
        <time>2010-04-15T20:18:38.04</time>
      </trkpt>
      <trkpt lat="44.18229" lon="5.27089">
        <ele>1568.5</ele>
        <time>2010-04-15T20:18:39.04</time>
      </trkpt>
      <trkpt lat="44.18236" lon="5.27085">
        <ele>1568</ele>
        <time>2010-04-15T20:18:40.04</time>
      </trkpt>
      <trkpt lat="44.18241" lon="5.27075">
        <ele>1566.5</ele>
        <time>2010-04-15T20:18:41.04</time>
      </trkpt>
      <trkpt lat="44.18247" lon="5.2707">
        <ele>1562.5</ele>
        <time>2010-04-15T20:18:42.04</time>
      </trkpt>
      <trkpt lat="44.18256" lon="5.27067">
        <ele>1562</ele>
        <time>2010-04-15T20:18:43.04</time>
      </trkpt>
      <trkpt lat="44.18262" lon="5.27061">
        <ele>1559</ele>
        <time>2010-04-15T20:18:44.03</time>
      </trkpt>
      <trkpt lat="44.18266" lon="5.27051">
        <ele>1557</ele>
        <time>2010-04-15T20:18:45.03</time>
      </trkpt>
      <trkpt lat="44.18272" lon="5.27046">
        <ele>1553.5</ele>
        <time>2010-04-15T20:18:46.03</time>
      </trkpt>
      <trkpt lat="44.1828" lon="5.27044">
        <ele>1551</ele>
        <time>2010-04-15T20:18:47.03</time>
      </trkpt>
      <trkpt lat="44.18287" lon="5.27039">
        <ele>1549</ele>
        <time>2010-04-15T20:18:48.03</time>
      </trkpt>
      <trkpt lat="44.18292" lon="5.27032">
        <ele>1549</ele>
        <time>2010-04-15T20:18:49.03</time>
      </trkpt>
      <trkpt lat="44.18298" lon="5.27023">
        <ele>1546.5</ele>
        <time>2010-04-15T20:18:50.03</time>
      </trkpt>
      <trkpt lat="44.18303" lon="5.27016">
        <ele>1544</ele>
        <time>2010-04-15T20:18:51.03</time>
      </trkpt>
      <trkpt lat="44.18311" lon="5.27014">
        <ele>1543</ele>
        <time>2010-04-15T20:18:52.04</time>
      </trkpt>
      <trkpt lat="44.18319" lon="5.27009">
        <ele>1542.5</ele>
        <time>2010-04-15T20:18:53.03</time>
      </trkpt>
      <trkpt lat="44.18323" lon="5.27">
        <ele>1540</ele>
        <time>2010-04-15T20:18:54.03</time>
      </trkpt>
      <trkpt lat="44.18329" lon="5.26994">
        <ele>1534.5</ele>
        <time>2010-04-15T20:18:55.03</time>
      </trkpt>
      <trkpt lat="44.18338" lon="5.26992">
        <ele>1533</ele>
        <time>2010-04-15T20:18:56.03</time>
      </trkpt>
      <trkpt lat="44.18346" lon="5.26988">
        <ele>1532</ele>
        <time>2010-04-15T20:18:57.04</time>
      </trkpt>
      <trkpt lat="44.18352" lon="5.2698">
        <ele>1531.5</ele>
        <time>2010-04-15T20:18:58.03</time>
      </trkpt>
      <trkpt lat="44.18356" lon="5.2697">
        <ele>1529</ele>
        <time>2010-04-15T20:18:59.02</time>
      </trkpt>
      <trkpt lat="44.18363" lon="5.26965">
        <ele>1525</ele>
        <time>2010-04-15T20:19:00.03</time>
      </trkpt>
      <trkpt lat="44.18373" lon="5.26966">
        <ele>1524</ele>
        <time>2010-04-15T20:19:01.02</time>
      </trkpt>
      <trkpt lat="44.18381" lon="5.26958">
        <ele>1523.5</ele>
        <time>2010-04-15T20:19:02.02</time>
      </trkpt>
      <trkpt lat="44.18388" lon="5.2695">
        <ele>1523</ele>
        <time>2010-04-15T20:19:03.03</time>
      </trkpt>
      <trkpt lat="44.18397" lon="5.26952">
        <ele>1506</ele>
        <time>2010-04-15T20:19:08.02</time>
      </trkpt>
      <trkpt lat="44.18395" lon="5.26951">
        <ele>1502</ele>
        <time>2010-04-15T20:19:10.02</time>
      </trkpt>
      <trkpt lat="44.18396" lon="5.26952">
        <ele>1502</ele>
        <time>2010-04-15T20:19:11.01</time>
      </trkpt>
      <trkpt lat="44.18397" lon="5.26952">
        <ele>1501.5</ele>
        <time>2010-04-15T20:19:12.02</time>
      </trkpt>
      <trkpt lat="44.18399" lon="5.26951">
        <ele>1500</ele>
        <time>2010-04-15T20:19:13.02</time>
      </trkpt>
      <trkpt lat="44.184" lon="5.2695">
        <ele>1496.5</ele>
        <time>2010-04-15T20:19:14.01</time>
      </trkpt>
      <trkpt lat="44.18402" lon="5.26948">
        <ele>1493.5</ele>
        <time>2010-04-15T20:19:15.01</time>
      </trkpt>
      <trkpt lat="44.18404" lon="5.26946">
        <ele>1492</ele>
        <time>2010-04-15T20:19:16.02</time>
      </trkpt>
      <trkpt lat="44.18404" lon="5.26946">
        <ele>1490.5</ele>
        <time>2010-04-15T20:19:18.01</time>
      </trkpt>
      <trkpt lat="44.18404" lon="5.26946">
        <ele>1490</ele>
        <time>2010-04-15T20:19:19.01</time>
      </trkpt>
      <trkpt lat="44.18404" lon="5.26946">
        <ele>1489</ele>
        <time>2010-04-15T20:19:20.01</time>
      </trkpt>
      <trkpt lat="44.18404" lon="5.26946">
        <ele>1487.5</ele>
        <time>2010-04-15T20:19:21.01</time>
      </trkpt>
      <trkpt lat="44.18404" lon="5.26946">
        <ele>1486</ele>
        <time>2010-04-15T20:19:22.01</time>
      </trkpt>
      <trkpt lat="44.18405" lon="5.26947">
        <ele>1484</ele>
        <time>2010-04-15T20:19:23.01</time>
      </trkpt>
      <trkpt lat="44.18405" lon="5.26947">
        <ele>1483</ele>
        <time>2010-04-15T20:19:24.01</time>
      </trkpt>
      <trkpt lat="44.18404" lon="5.26946">
        <ele>1481</ele>
        <time>2010-04-15T20:19:25.09</time>
      </trkpt>
      <trkpt lat="44.18404" lon="5.26946">
        <ele>1480</ele>
        <time>2010-04-15T20:19:26.01</time>
      </trkpt>
      <trkpt lat="44.18404" lon="5.26946">
        <ele>1479</ele>
        <time>2010-04-15T20:19:27.01</time>
      </trkpt>
      <trkpt lat="44.18405" lon="5.26946">
        <ele>1478.5</ele>
        <time>2010-04-15T20:19:28.01</time>
      </trkpt>
      <trkpt lat="44.18404" lon="5.26946">
        <ele>1478.5</ele>
        <time>2010-04-15T20:19:29.01</time>
      </trkpt>
      <trkpt lat="44.18404" lon="5.26946">
        <ele>1478</ele>
        <time>2010-04-15T20:19:30.01</time>
      </trkpt>
      <trkpt lat="44.18404" lon="5.26946">
        <ele>1478</ele>
        <time>2010-04-15T20:19:31.01</time>
      </trkpt>
      <trkpt lat="44.18404" lon="5.26945">
        <ele>1477.5</ele>
        <time>2010-04-15T20:19:32.01</time>
      </trkpt>
      <trkpt lat="44.18404" lon="5.26945">
        <ele>1477</ele>
        <time>2010-04-15T20:19:33.00</time>
      </trkpt>
      <trkpt lat="44.18404" lon="5.26945">
        <ele>1476.5</ele>
        <time>2010-04-15T20:19:34.00</time>
      </trkpt>
      <trkpt lat="44.18404" lon="5.26945">
        <ele>1476</ele>
        <time>2010-04-15T20:19:35.00</time>
      </trkpt>
      <trkpt lat="44.18404" lon="5.26946">
        <ele>1475.5</ele>
        <time>2010-04-15T20:19:36.00</time>
      </trkpt>
      <trkpt lat="44.18404" lon="5.26946">
        <ele>1475</ele>
        <time>2010-04-15T20:19:37.00</time>
      </trkpt>
      <trkpt lat="44.18403" lon="5.26946">
        <ele>1474</ele>
        <time>2010-04-15T20:19:38.00</time>
      </trkpt>
      <trkpt lat="44.18403" lon="5.26946">
        <ele>1474</ele>
        <time>2010-04-15T20:19:39.01</time>
      </trkpt>
      <trkpt lat="44.18403" lon="5.26946">
        <ele>1474</ele>
        <time>2010-04-15T20:19:40.01</time>
      </trkpt>
      <trkpt lat="44.18403" lon="5.26946">
        <ele>1473.5</ele>
        <time>2010-04-15T20:19:41.00</time>
      </trkpt>
      <trkpt lat="44.18403" lon="5.26946">
        <ele>1473.5</ele>
        <time>2010-04-15T20:19:42.01</time>
      </trkpt>
      <trkpt lat="44.18403" lon="5.26946">
        <ele>1473.5</ele>
        <time>2010-04-15T20:19:43.00</time>
      </trkpt>
      <trkpt lat="44.18403" lon="5.26946">
        <ele>1473</ele>
        <time>2010-04-15T20:19:44.00</time>
      </trkpt>
      <trkpt lat="44.18403" lon="5.26946">
        <ele>1473</ele>
        <time>2010-04-15T20:19:45.00</time>
      </trkpt>
      <trkpt lat="44.18403" lon="5.26945">
        <ele>1472.5</ele>
        <time>2010-04-15T20:19:46.01</time>
      </trkpt>
      <trkpt lat="44.18403" lon="5.26945">
        <ele>1472.5</ele>
        <time>2010-04-15T20:19:47.00</time>
      </trkpt>
      <trkpt lat="44.18403" lon="5.26945">
        <ele>1473</ele>
        <time>2010-04-15T20:19:48.01</time>
      </trkpt>
      <trkpt lat="44.18403" lon="5.26945">
        <ele>1472.5</ele>
        <time>2010-04-15T20:19:49.00</time>
      </trkpt>
      <trkpt lat="44.18403" lon="5.26944">
        <ele>1471.5</ele>
        <time>2010-04-15T20:19:50.00</time>
      </trkpt>
      <trkpt lat="44.18403" lon="5.26944">
        <ele>1471</ele>
        <time>2010-04-15T20:19:51.00</time>
      </trkpt>
      <trkpt lat="44.18403" lon="5.26945">
        <ele>1470.5</ele>
        <time>2010-04-15T20:19:52.00</time>
      </trkpt>
      <trkpt lat="44.18403" lon="5.26945">
        <ele>1469.5</ele>
        <time>2010-04-15T20:19:53.00</time>
      </trkpt>
      <trkpt lat="44.18403" lon="5.26945">
        <ele>1469.5</ele>
        <time>2010-04-15T20:19:54.00</time>
      </trkpt>
      <trkpt lat="44.18403" lon="5.26945">
        <ele>1469</ele>
        <time>2010-04-15T20:19:55.00</time>
      </trkpt>
      <trkpt lat="44.18403" lon="5.26945">
        <ele>1468.5</ele>
        <time>2010-04-15T20:19:56.00</time>
      </trkpt>
      <trkpt lat="44.18403" lon="5.26945">
        <ele>1468.5</ele>
        <time>2010-04-15T20:19:57.00</time>
      </trkpt>
      <trkpt lat="44.18403" lon="5.26945">
        <ele>1468</ele>
        <time>2010-04-15T20:19:57.99</time>
      </trkpt>
      <trkpt lat="44.18403" lon="5.26945">
        <ele>1468</ele>
        <time>2010-04-15T20:19:58.99</time>
      </trkpt>
      <trkpt lat="44.18403" lon="5.26945">
        <ele>1468</ele>
        <time>2010-04-15T20:19:59.99</time>
      </trkpt>
      <trkpt lat="44.18403" lon="5.26945">
        <ele>1468</ele>
        <time>2010-04-15T20:20:00.99</time>
      </trkpt>
      <trkpt lat="44.18403" lon="5.26945">
        <ele>1468</ele>
        <time>2010-04-15T20:20:01.99</time>
      </trkpt>
      <trkpt lat="44.18403" lon="5.26945">
        <ele>1468</ele>
        <time>2010-04-15T20:20:02.99</time>
      </trkpt>
      <trkpt lat="44.18403" lon="5.26945">
        <ele>1468</ele>
        <time>2010-04-15T20:20:03.99</time>
      </trkpt>
      <trkpt lat="44.18403" lon="5.26945">
        <ele>1467.5</ele>
        <time>2010-04-15T20:20:04.99</time>
      </trkpt>
      <trkpt lat="44.18403" lon="5.26945">
        <ele>1467.5</ele>
        <time>2010-04-15T20:20:05.98</time>
      </trkpt>
      <trkpt lat="44.18403" lon="5.26945">
        <ele>1467.5</ele>
        <time>2010-04-15T20:20:06.98</time>
      </trkpt>
      <trkpt lat="44.18403" lon="5.26945">
        <ele>1467.5</ele>
        <time>2010-04-15T20:20:07.98</time>
      </trkpt>
      <trkpt lat="44.18403" lon="5.26945">
        <ele>1467.5</ele>
        <time>2010-04-15T20:20:08.99</time>
      </trkpt>
      <trkpt lat="44.18403" lon="5.26945">
        <ele>1467.5</ele>
        <time>2010-04-15T20:20:09.98</time>
      </trkpt>
      <trkpt lat="44.18403" lon="5.26945">
        <ele>1467.5</ele>
        <time>2010-04-15T20:20:10.98</time>
      </trkpt>
      <trkpt lat="44.18403" lon="5.26945">
        <ele>1467.5</ele>
        <time>2010-04-15T20:20:11.98</time>
      </trkpt>
      <trkpt lat="44.18403" lon="5.26945">
        <ele>1467.5</ele>
        <time>2010-04-15T20:20:12.99</time>
      </trkpt>
      <trkpt lat="44.18403" lon="5.26945">
        <ele>1467.5</ele>
        <time>2010-04-15T20:20:13.98</time>
      </trkpt>
      <trkpt lat="44.18403" lon="5.26945">
        <ele>1467.5</ele>
        <time>2010-04-15T20:20:14.99</time>
      </trkpt>
      <trkpt lat="44.18403" lon="5.26945">
        <ele>1467.5</ele>
        <time>2010-04-15T20:20:15.98</time>
      </trkpt>
      <trkpt lat="44.18403" lon="5.26945">
        <ele>1467.5</ele>
        <time>2010-04-15T20:20:16.98</time>
      </trkpt>
      <trkpt lat="44.18403" lon="5.26945">
        <ele>1467.5</ele>
        <time>2010-04-15T20:20:17.98</time>
      </trkpt>
      <trkpt lat="44.18403" lon="5.26945">
        <ele>1467.5</ele>
        <time>2010-04-15T20:20:19.99</time>
      </trkpt>
      <trkpt lat="44.18403" lon="5.26945">
        <ele>1467.5</ele>
        <time>2010-04-15T20:20:20.99</time>
      </trkpt>
      <trkpt lat="44.18403" lon="5.26945">
        <ele>1467.5</ele>
        <time>2010-04-15T20:20:21.99</time>
      </trkpt>
      <trkpt lat="44.18403" lon="5.26945">
        <ele>1467.5</ele>
        <time>2010-04-15T20:20:22.99</time>
      </trkpt>
      <trkpt lat="44.18403" lon="5.26945">
        <ele>1467.5</ele>
        <time>2010-04-15T20:20:23.98</time>
      </trkpt>
      <trkpt lat="44.18403" lon="5.26945">
        <ele>1467</ele>
        <time>2010-04-15T20:20:24.99</time>
      </trkpt>
      <trkpt lat="44.18403" lon="5.26945">
        <ele>1467</ele>
        <time>2010-04-15T20:20:25.99</time>
      </trkpt>
      <trkpt lat="44.18403" lon="5.26945">
        <ele>1467</ele>
        <time>2010-04-15T20:20:26.99</time>
      </trkpt>
      <trkpt lat="44.18403" lon="5.26945">
        <ele>1466.5</ele>
        <time>2010-04-15T20:20:27.98</time>
      </trkpt>
      <trkpt lat="44.18403" lon="5.26944">
        <ele>1465.5</ele>
        <time>2010-04-15T20:20:28.98</time>
      </trkpt>
      <trkpt lat="44.18403" lon="5.26944">
        <ele>1465.5</ele>
        <time>2010-04-15T20:20:29.98</time>
      </trkpt>
      <trkpt lat="44.18403" lon="5.26944">
        <ele>1465.5</ele>
        <time>2010-04-15T20:20:30.97</time>
      </trkpt>
      <trkpt lat="44.18403" lon="5.26944">
        <ele>1465.5</ele>
        <time>2010-04-15T20:20:31.97</time>
      </trkpt>
      <trkpt lat="44.18403" lon="5.26944">
        <ele>1465</ele>
        <time>2010-04-15T20:20:32.97</time>
      </trkpt>
      <trkpt lat="44.18407" lon="5.2695">
        <ele>1462.5</ele>
        <time>2010-04-15T20:20:34.98</time>
      </trkpt>
      <trkpt lat="44.18408" lon="5.26952">
        <ele>1462</ele>
        <time>2010-04-15T20:20:35.97</time>
      </trkpt>
      <trkpt lat="44.18409" lon="5.26953">
        <ele>1461.5</ele>
        <time>2010-04-15T20:20:36.97</time>
      </trkpt>
      <trkpt lat="44.18409" lon="5.26954">
        <ele>1461</ele>
        <time>2010-04-15T20:20:37.97</time>
      </trkpt>
      <trkpt lat="44.18409" lon="5.26955">
        <ele>1460</ele>
        <time>2010-04-15T20:20:38.97</time>
      </trkpt>
      <trkpt lat="44.18409" lon="5.26956">
        <ele>1459</ele>
        <time>2010-04-15T20:20:39.97</time>
      </trkpt>
      <trkpt lat="44.18409" lon="5.26958">
        <ele>1458</ele>
        <time>2010-04-15T20:20:40.97</time>
      </trkpt>
      <trkpt lat="44.1841" lon="5.26959">
        <ele>1457.5</ele>
        <time>2010-04-15T20:20:41.97</time>
      </trkpt>
      <trkpt lat="44.1841" lon="5.2696">
        <ele>1457</ele>
        <time>2010-04-15T20:20:42.97</time>
      </trkpt>
      <trkpt lat="44.1841" lon="5.26961">
        <ele>1456.5</ele>
        <time>2010-04-15T20:20:43.97</time>
      </trkpt>
      <trkpt lat="44.18409" lon="5.26961">
        <ele>1456.5</ele>
        <time>2010-04-15T20:20:44.97</time>
      </trkpt>
      <trkpt lat="44.18409" lon="5.26961">
        <ele>1456</ele>
        <time>2010-04-15T20:20:45.97</time>
      </trkpt>
      <trkpt lat="44.18409" lon="5.26961">
        <ele>1455.5</ele>
        <time>2010-04-15T20:20:46.96</time>
      </trkpt>
      <trkpt lat="44.18409" lon="5.26961">
        <ele>1455.5</ele>
        <time>2010-04-15T20:20:47.97</time>
      </trkpt>
      <trkpt lat="44.18409" lon="5.2696">
        <ele>1455.5</ele>
        <time>2010-04-15T20:20:48.96</time>
      </trkpt>
      <trkpt lat="44.18409" lon="5.2696">
        <ele>1455.5</ele>
        <time>2010-04-15T20:20:49.96</time>
      </trkpt>
      <trkpt lat="44.18409" lon="5.2696">
        <ele>1455</ele>
        <time>2010-04-15T20:20:50.96</time>
      </trkpt>
      <trkpt lat="44.18409" lon="5.2696">
        <ele>1455</ele>
        <time>2010-04-15T20:20:51.96</time>
      </trkpt>
      <trkpt lat="44.18409" lon="5.2696">
        <ele>1455</ele>
        <time>2010-04-15T20:20:52.96</time>
      </trkpt>
      <trkpt lat="44.18409" lon="5.2696">
        <ele>1454.5</ele>
        <time>2010-04-15T20:20:53.96</time>
      </trkpt>
      <trkpt lat="44.18409" lon="5.2696">
        <ele>1454.5</ele>
        <time>2010-04-15T20:20:54.96</time>
      </trkpt>
      <trkpt lat="44.18409" lon="5.2696">
        <ele>1454.5</ele>
        <time>2010-04-15T20:20:55.96</time>
      </trkpt>
      <trkpt lat="44.18409" lon="5.2696">
        <ele>1454.5</ele>
        <time>2010-04-15T20:20:56.96</time>
      </trkpt>
      <trkpt lat="44.18409" lon="5.2696">
        <ele>1454</ele>
        <time>2010-04-15T20:20:57.99</time>
      </trkpt>
      <trkpt lat="44.18409" lon="5.26961">
        <ele>1453.5</ele>
        <time>2010-04-15T20:20:58.96</time>
      </trkpt>
      <trkpt lat="44.18409" lon="5.26961">
        <ele>1453</ele>
        <time>2010-04-15T20:20:59.96</time>
      </trkpt>
      <trkpt lat="44.18409" lon="5.26961">
        <ele>1453</ele>
        <time>2010-04-15T20:21:00.96</time>
      </trkpt>
      <trkpt lat="44.18409" lon="5.26961">
        <ele>1453</ele>
        <time>2010-04-15T20:21:01.95</time>
      </trkpt>
      <trkpt lat="44.18409" lon="5.26961">
        <ele>1453</ele>
        <time>2010-04-15T20:21:02.95</time>
      </trkpt>
      <trkpt lat="44.18409" lon="5.26961">
        <ele>1453</ele>
        <time>2010-04-15T20:21:03.95</time>
      </trkpt>
      <trkpt lat="44.18409" lon="5.2696">
        <ele>1453</ele>
        <time>2010-04-15T20:21:04.95</time>
      </trkpt>
      <trkpt lat="44.18409" lon="5.2696">
        <ele>1453</ele>
        <time>2010-04-15T20:21:05.95</time>
      </trkpt>
      <trkpt lat="44.18409" lon="5.2696">
        <ele>1453</ele>
        <time>2010-04-15T20:21:06.96</time>
      </trkpt>
      <trkpt lat="44.18409" lon="5.2696">
        <ele>1453</ele>
        <time>2010-04-15T20:21:07.96</time>
      </trkpt>
      <trkpt lat="44.18409" lon="5.2696">
        <ele>1453</ele>
        <time>2010-04-15T20:21:08.96</time>
      </trkpt>
      <trkpt lat="44.18409" lon="5.2696">
        <ele>1453.5</ele>
        <time>2010-04-15T20:21:09.96</time>
      </trkpt>
      <trkpt lat="44.18409" lon="5.2696">
        <ele>1453.5</ele>
        <time>2010-04-15T20:21:10.95</time>
      </trkpt>
      <trkpt lat="44.18409" lon="5.26961">
        <ele>1454</ele>
        <time>2010-04-15T20:21:11.95</time>
      </trkpt>
      <trkpt lat="44.18409" lon="5.26961">
        <ele>1454</ele>
        <time>2010-04-15T20:21:12.95</time>
      </trkpt>
      <trkpt lat="44.18409" lon="5.26961">
        <ele>1454</ele>
        <time>2010-04-15T20:21:13.95</time>
      </trkpt>
      <trkpt lat="44.18409" lon="5.26961">
        <ele>1454</ele>
        <time>2010-04-15T20:21:14.95</time>
      </trkpt>
      <trkpt lat="44.18409" lon="5.26961">
        <ele>1454</ele>
        <time>2010-04-15T20:21:15.95</time>
      </trkpt>
      <trkpt lat="44.1841" lon="5.2696">
        <ele>1453.5</ele>
        <time>2010-04-15T20:21:16.95</time>
      </trkpt>
      <trkpt lat="44.18411" lon="5.2696">
        <ele>1453</ele>
        <time>2010-04-15T20:21:17.94</time>
      </trkpt>
      <trkpt lat="44.18412" lon="5.26959">
        <ele>1452.5</ele>
        <time>2010-04-15T20:21:18.94</time>
      </trkpt>
      <trkpt lat="44.18413" lon="5.26959">
        <ele>1452.5</ele>
        <time>2010-04-15T20:21:19.94</time>
      </trkpt>
      <trkpt lat="44.18414" lon="5.26958">
        <ele>1452</ele>
        <time>2010-04-15T20:21:20.94</time>
      </trkpt>
      <trkpt lat="44.18415" lon="5.26957">
        <ele>1452</ele>
        <time>2010-04-15T20:21:21.94</time>
      </trkpt>
      <trkpt lat="44.18415" lon="5.26956">
        <ele>1451.5</ele>
        <time>2010-04-15T20:21:22.94</time>
      </trkpt>
      <trkpt lat="44.18416" lon="5.26956">
        <ele>1451.5</ele>
        <time>2010-04-15T20:21:23.94</time>
      </trkpt>
      <trkpt lat="44.18416" lon="5.26956">
        <ele>1451.5</ele>
        <time>2010-04-15T20:21:24.94</time>
      </trkpt>
      <trkpt lat="44.18416" lon="5.26956">
        <ele>1451.5</ele>
        <time>2010-04-15T20:21:25.94</time>
      </trkpt>
      <trkpt lat="44.18416" lon="5.26956">
        <ele>1451.5</ele>
        <time>2010-04-15T20:21:26.95</time>
      </trkpt>
      <trkpt lat="44.18416" lon="5.26956">
        <ele>1451.5</ele>
        <time>2010-04-15T20:21:27.95</time>
      </trkpt>
      <trkpt lat="44.18416" lon="5.26956">
        <ele>1451.5</ele>
        <time>2010-04-15T20:21:28.94</time>
      </trkpt>
      <trkpt lat="44.18415" lon="5.26956">
        <ele>1452</ele>
        <time>2010-04-15T20:21:29.94</time>
      </trkpt>
      <trkpt lat="44.18415" lon="5.26956">
        <ele>1452</ele>
        <time>2010-04-15T20:21:30.94</time>
      </trkpt>
      <trkpt lat="44.18415" lon="5.26956">
        <ele>1452</ele>
        <time>2010-04-15T20:21:31.94</time>
      </trkpt>
      <trkpt lat="44.18415" lon="5.26956">
        <ele>1452</ele>
        <time>2010-04-15T20:21:32.94</time>
      </trkpt>
      <trkpt lat="44.18415" lon="5.26956">
        <ele>1452</ele>
        <time>2010-04-15T20:21:33.94</time>
      </trkpt>
      <trkpt lat="44.18415" lon="5.26957">
        <ele>1452.5</ele>
        <time>2010-04-15T20:21:34.94</time>
      </trkpt>
      <trkpt lat="44.18415" lon="5.26957">
        <ele>1452.5</ele>
        <time>2010-04-15T20:21:35.94</time>
      </trkpt>
      <trkpt lat="44.18416" lon="5.26956">
        <ele>1452.5</ele>
        <time>2010-04-15T20:21:36.94</time>
      </trkpt>
      <trkpt lat="44.18416" lon="5.26955">
        <ele>1452.5</ele>
        <time>2010-04-15T20:21:37.93</time>
      </trkpt>
      <trkpt lat="44.18416" lon="5.26956">
        <ele>1452</ele>
        <time>2010-04-15T20:21:38.93</time>
      </trkpt>
      <trkpt lat="44.18415" lon="5.26955">
        <ele>1451</ele>
        <time>2010-04-15T20:21:39.93</time>
      </trkpt>
      <trkpt lat="44.18415" lon="5.26955">
        <ele>1451.5</ele>
        <time>2010-04-15T20:21:40.93</time>
      </trkpt>
      <trkpt lat="44.18415" lon="5.26955">
        <ele>1451.5</ele>
        <time>2010-04-15T20:21:41.94</time>
      </trkpt>
      <trkpt lat="44.18415" lon="5.26955">
        <ele>1451.5</ele>
        <time>2010-04-15T20:21:42.95</time>
      </trkpt>
      <trkpt lat="44.18415" lon="5.26955">
        <ele>1451.5</ele>
        <time>2010-04-15T20:21:43.93</time>
      </trkpt>
      <trkpt lat="44.18415" lon="5.26955">
        <ele>1451.5</ele>
        <time>2010-04-15T20:21:44.93</time>
      </trkpt>
      <trkpt lat="44.18415" lon="5.26955">
        <ele>1451.5</ele>
        <time>2010-04-15T20:21:45.92</time>
      </trkpt>
      <trkpt lat="44.18415" lon="5.26955">
        <ele>1451.5</ele>
        <time>2010-04-15T20:21:46.92</time>
      </trkpt>
      <trkpt lat="44.18415" lon="5.26955">
        <ele>1451.5</ele>
        <time>2010-04-15T20:21:47.92</time>
      </trkpt>
      <trkpt lat="44.18415" lon="5.26955">
        <ele>1451.5</ele>
        <time>2010-04-15T20:21:48.92</time>
      </trkpt>
      <trkpt lat="44.18415" lon="5.26955">
        <ele>1451.5</ele>
        <time>2010-04-15T20:21:49.92</time>
      </trkpt>
      <trkpt lat="44.18415" lon="5.26955">
        <ele>1451.5</ele>
        <time>2010-04-15T20:21:50.92</time>
      </trkpt>
      <trkpt lat="44.18415" lon="5.26955">
        <ele>1451.5</ele>
        <time>2010-04-15T20:21:51.92</time>
      </trkpt>
      <trkpt lat="44.18415" lon="5.26955">
        <ele>1451.5</ele>
        <time>2010-04-15T20:21:52.93</time>
      </trkpt>
      <trkpt lat="44.18416" lon="5.26955">
        <ele>1451.5</ele>
        <time>2010-04-15T20:21:53.92</time>
      </trkpt>
      <trkpt lat="44.18416" lon="5.26955">
        <ele>1451.5</ele>
        <time>2010-04-15T20:21:54.92</time>
      </trkpt>
      <trkpt lat="44.18416" lon="5.26955">
        <ele>1451</ele>
        <time>2010-04-15T20:21:55.92</time>
      </trkpt>
      <trkpt lat="44.18416" lon="5.26955">
        <ele>1451</ele>
        <time>2010-04-15T20:21:56.93</time>
      </trkpt>
      <trkpt lat="44.18416" lon="5.26955">
        <ele>1451</ele>
        <time>2010-04-15T20:21:58.12</time>
      </trkpt>
      <trkpt lat="44.18416" lon="5.26955">
        <ele>1451</ele>
        <time>2010-04-15T20:21:58.93</time>
      </trkpt>
      <trkpt lat="44.18416" lon="5.26955">
        <ele>1451</ele>
        <time>2010-04-15T20:21:59.91</time>
      </trkpt>
      <trkpt lat="44.18416" lon="5.26955">
        <ele>1451</ele>
        <time>2010-04-15T20:22:03.15</time>
      </trkpt>
      <trkpt lat="44.18416" lon="5.26955">
        <ele>1451</ele>
        <time>2010-04-15T20:22:03.79</time>
      </trkpt>
      <trkpt lat="44.18416" lon="5.26955">
        <ele>1451</ele>
        <time>2010-04-15T20:22:04.66</time>
      </trkpt>
      <trkpt lat="44.18416" lon="5.26955">
        <ele>1451</ele>
        <time>2010-04-15T20:22:05.66</time>
      </trkpt>
      <trkpt lat="44.18416" lon="5.26955">
        <ele>1451</ele>
        <time>2010-04-15T20:22:06.67</time>
      </trkpt>
      <trkpt lat="44.18416" lon="5.26955">
        <ele>1451</ele>
        <time>2010-04-15T20:22:07.67</time>
      </trkpt>
      <trkpt lat="44.18416" lon="5.26955">
        <ele>1451</ele>
        <time>2010-04-15T20:22:08.67</time>
      </trkpt>
      <trkpt lat="44.18416" lon="5.26955">
        <ele>1451</ele>
        <time>2010-04-15T20:22:09.67</time>
      </trkpt>
      <trkpt lat="44.18416" lon="5.26955">
        <ele>1451</ele>
        <time>2010-04-15T20:22:11.06</time>
      </trkpt>
      <trkpt lat="44.18416" lon="5.26955">
        <ele>1451</ele>
        <time>2010-04-15T20:22:11.66</time>
      </trkpt>
      <trkpt lat="44.18416" lon="5.26955">
        <ele>1451</ele>
        <time>2010-04-15T20:22:12.66</time>
      </trkpt>
      <trkpt lat="44.18416" lon="5.26955">
        <ele>1451</ele>
        <time>2010-04-15T20:22:13.66</time>
      </trkpt>
      <trkpt lat="44.18416" lon="5.26955">
        <ele>1451</ele>
        <time>2010-04-15T20:22:14.66</time>
      </trkpt>
      <trkpt lat="44.18416" lon="5.26955">
        <ele>1451</ele>
        <time>2010-04-15T20:22:15.66</time>
      </trkpt>
      <trkpt lat="44.18416" lon="5.26955">
        <ele>1451</ele>
        <time>2010-04-15T20:22:16.66</time>
      </trkpt>
      <trkpt lat="44.18416" lon="5.26955">
        <ele>1451</ele>
        <time>2010-04-15T20:22:17.65</time>
      </trkpt>
      <trkpt lat="44.18416" lon="5.26955">
        <ele>1451</ele>
        <time>2010-04-15T20:22:18.65</time>
      </trkpt>
      <trkpt lat="44.18416" lon="5.26955">
        <ele>1451</ele>
        <time>2010-04-15T20:22:19.65</time>
      </trkpt>
      <trkpt lat="44.18416" lon="5.26955">
        <ele>1451</ele>
        <time>2010-04-15T20:22:20.65</time>
      </trkpt>
      <trkpt lat="44.18416" lon="5.26955">
        <ele>1451</ele>
        <time>2010-04-15T20:22:21.65</time>
      </trkpt>
      <trkpt lat="44.18416" lon="5.26955">
        <ele>1450.5</ele>
        <time>2010-04-15T20:22:22.65</time>
      </trkpt>
      <trkpt lat="44.18416" lon="5.26955">
        <ele>1451</ele>
        <time>2010-04-15T20:22:23.65</time>
      </trkpt>
      <trkpt lat="44.18416" lon="5.26955">
        <ele>1451</ele>
        <time>2010-04-15T20:22:24.65</time>
      </trkpt>
      <trkpt lat="44.18416" lon="5.26955">
        <ele>1451</ele>
        <time>2010-04-15T20:22:25.65</time>
      </trkpt>
      <trkpt lat="44.18416" lon="5.26955">
        <ele>1450.5</ele>
        <time>2010-04-15T20:22:26.65</time>
      </trkpt>
      <trkpt lat="44.18416" lon="5.26955">
        <ele>1450.5</ele>
        <time>2010-04-15T20:22:27.65</time>
      </trkpt>
      <trkpt lat="44.18416" lon="5.26955">
        <ele>1450.5</ele>
        <time>2010-04-15T20:22:28.65</time>
      </trkpt>
      <trkpt lat="44.18416" lon="5.26955">
        <ele>1450.5</ele>
        <time>2010-04-15T20:22:29.65</time>
      </trkpt>
      <trkpt lat="44.18416" lon="5.26955">
        <ele>1450.5</ele>
        <time>2010-04-15T20:22:30.64</time>
      </trkpt>
      <trkpt lat="44.18416" lon="5.26955">
        <ele>1450.5</ele>
        <time>2010-04-15T20:22:31.64</time>
      </trkpt>
      <trkpt lat="44.18416" lon="5.26955">
        <ele>1450.5</ele>
        <time>2010-04-15T20:22:32.65</time>
      </trkpt>
      <trkpt lat="44.18416" lon="5.26955">
        <ele>1450.5</ele>
        <time>2010-04-15T20:22:33.65</time>
      </trkpt>
      <trkpt lat="44.18416" lon="5.26955">
        <ele>1450.5</ele>
        <time>2010-04-15T20:22:34.65</time>
      </trkpt>
      <trkpt lat="44.18416" lon="5.26955">
        <ele>1450.5</ele>
        <time>2010-04-15T20:22:35.64</time>
      </trkpt>
      <trkpt lat="44.18416" lon="5.26955">
        <ele>1450.5</ele>
        <time>2010-04-15T20:22:36.64</time>
      </trkpt>
      <trkpt lat="44.18416" lon="5.26955">
        <ele>1450.5</ele>
        <time>2010-04-15T20:22:37.64</time>
      </trkpt>
      <trkpt lat="44.18416" lon="5.26955">
        <ele>1450.5</ele>
        <time>2010-04-15T20:22:38.64</time>
      </trkpt>
      <trkpt lat="44.18416" lon="5.26955">
        <ele>1450.5</ele>
        <time>2010-04-15T20:22:39.64</time>
      </trkpt>
      <trkpt lat="44.18416" lon="5.26955">
        <ele>1450.5</ele>
        <time>2010-04-15T20:22:40.64</time>
      </trkpt>
      <trkpt lat="44.18416" lon="5.26955">
        <ele>1450.5</ele>
        <time>2010-04-15T20:22:41.64</time>
      </trkpt>
      <trkpt lat="44.18416" lon="5.26955">
        <ele>1450.5</ele>
        <time>2010-04-15T20:22:42.64</time>
      </trkpt>
      <trkpt lat="44.18416" lon="5.26955">
        <ele>1450.5</ele>
        <time>2010-04-15T20:22:43.64</time>
      </trkpt>
      <trkpt lat="44.18416" lon="5.26955">
        <ele>1450.5</ele>
        <time>2010-04-15T20:22:44.64</time>
      </trkpt>
      <trkpt lat="44.18416" lon="5.26956">
        <ele>1450</ele>
        <time>2010-04-15T20:22:45.64</time>
      </trkpt>
      <trkpt lat="44.18416" lon="5.26956">
        <ele>1450</ele>
        <time>2010-04-15T20:22:46.64</time>
      </trkpt>
      <trkpt lat="44.18416" lon="5.26956">
        <ele>1450</ele>
        <time>2010-04-15T20:22:47.64</time>
      </trkpt>
      <trkpt lat="44.18416" lon="5.26956">
        <ele>1450</ele>
        <time>2010-04-15T20:22:48.64</time>
      </trkpt>
      <trkpt lat="44.18416" lon="5.26956">
        <ele>1450</ele>
        <time>2010-04-15T20:22:49.64</time>
      </trkpt>
      <trkpt lat="44.18416" lon="5.26956">
        <ele>1450.5</ele>
        <time>2010-04-15T20:22:50.64</time>
      </trkpt>
      <trkpt lat="44.18416" lon="5.26955">
        <ele>1451</ele>
        <time>2010-04-15T20:22:51.67</time>
      </trkpt>
      <trkpt lat="44.18417" lon="5.26956">
        <ele>1451</ele>
        <time>2010-04-15T20:22:52.64</time>
      </trkpt>
      <trkpt lat="44.18417" lon="5.26956">
        <ele>1451.5</ele>
        <time>2010-04-15T20:22:53.67</time>
      </trkpt>
      <trkpt lat="44.18417" lon="5.26956">
        <ele>1451.5</ele>
        <time>2010-04-15T20:22:54.64</time>
      </trkpt>
      <trkpt lat="44.18417" lon="5.26956">
        <ele>1451</ele>
        <time>2010-04-15T20:22:55.63</time>
      </trkpt>
      <trkpt lat="44.18417" lon="5.26956">
        <ele>1451</ele>
        <time>2010-04-15T20:22:56.62</time>
      </trkpt>
      <trkpt lat="44.18417" lon="5.26956">
        <ele>1450.5</ele>
        <time>2010-04-15T20:22:57.62</time>
      </trkpt>
      <trkpt lat="44.18417" lon="5.26956">
        <ele>1450.5</ele>
        <time>2010-04-15T20:22:58.62</time>
      </trkpt>
      <trkpt lat="44.18417" lon="5.26956">
        <ele>1450.5</ele>
        <time>2010-04-15T20:22:59.83</time>
      </trkpt>
      <trkpt lat="44.18417" lon="5.26956">
        <ele>1450.5</ele>
        <time>2010-04-15T20:23:00.63</time>
      </trkpt>
      <trkpt lat="44.18417" lon="5.26956">
        <ele>1450</ele>
        <time>2010-04-15T20:23:01.63</time>
      </trkpt>
      <trkpt lat="44.18417" lon="5.26956">
        <ele>1450</ele>
        <time>2010-04-15T20:23:02.62</time>
      </trkpt>
    </trkseg>
  </trk>
</gpx>